<?xml version="1.0" encoding="UTF-8" standalone="no" ?>
<gpx xmlns="http://www.topografix.com/GPX/1/1" xmlns:xsi="http://www.w3.org/2001/XMLSchema-instance" xsi:schemaLocation="http://www.topografix.com/GPX/1/1 http://www.topografix.com/GPX/1/1/gpx.xsd" version="1.1" creator="VisuGPX - https://www.visugpx.com">
  <metadata>
    <name>VTT du mercredi 5 octobre 2018 (de Coulevon, à 2)</name>
    <desc><![CDATA[Comme j'ai oublié de prévenir Jacques, il n'y avait que Christine et moi.
Après avoir grimpé la rue de la Vierge puis redescendu sur la D119 à Colombier, j'ai déclenché l'enregistrement GPS. Il convient donc d'ajouter 3,4 km ce qui donne un total de 22,8 km et qui constitue donc ma plus longue sortie depuis ma chute (sans utiliser mon VAE).
28° et terrain très sec]]></desc>
  </metadata>
  <wpt lat="47.66179" lon="6.20882">
    <ele>238.34</ele>
    <name><![CDATA[0000025]]></name>
  </wpt>
  <wpt lat="47.6444" lon="6.18317">
    <ele>231.82</ele>
    <name><![CDATA[0000026]]></name>
  </wpt>
  <trk>
    <name><![CDATA[2018-09-05 11:20]]></name>
    <trkseg>
      <trkpt lat="47.66179" lon="6.20882">
        <ele>238.34</ele>
        <time>2018-09-05T09:19:57Z</time>
      </trkpt>
      <trkpt lat="47.66186" lon="6.20876">
        <ele>238.32</ele>
        <time>2018-09-05T09:19:59Z</time>
      </trkpt>
      <trkpt lat="47.66193" lon="6.20871">
        <ele>238.3</ele>
        <time>2018-09-05T09:20:01Z</time>
      </trkpt>
      <trkpt lat="47.66199" lon="6.20866">
        <ele>238.29</ele>
        <time>2018-09-05T09:20:03Z</time>
      </trkpt>
      <trkpt lat="47.66205" lon="6.20863">
        <ele>238.28</ele>
        <time>2018-09-05T09:20:05Z</time>
      </trkpt>
      <trkpt lat="47.6621" lon="6.2086">
        <ele>238.27</ele>
        <time>2018-09-05T09:20:07Z</time>
      </trkpt>
      <trkpt lat="47.66215" lon="6.20857">
        <ele>238.25</ele>
        <time>2018-09-05T09:20:09Z</time>
      </trkpt>
      <trkpt lat="47.66219" lon="6.20855">
        <ele>238.22</ele>
        <time>2018-09-05T09:20:11Z</time>
      </trkpt>
      <trkpt lat="47.66225" lon="6.20853">
        <ele>238.17</ele>
        <time>2018-09-05T09:20:14Z</time>
      </trkpt>
      <trkpt lat="47.6623" lon="6.20851">
        <ele>238.14</ele>
        <time>2018-09-05T09:20:16Z</time>
      </trkpt>
      <trkpt lat="47.66236" lon="6.2085">
        <ele>238.08</ele>
        <time>2018-09-05T09:20:19Z</time>
      </trkpt>
      <trkpt lat="47.66242" lon="6.2085">
        <ele>238.01</ele>
        <time>2018-09-05T09:20:22Z</time>
      </trkpt>
      <trkpt lat="47.66247" lon="6.20851">
        <ele>237.96</ele>
        <time>2018-09-05T09:20:24Z</time>
      </trkpt>
      <trkpt lat="47.66252" lon="6.20853">
        <ele>237.9</ele>
        <time>2018-09-05T09:20:26Z</time>
      </trkpt>
      <trkpt lat="47.66256" lon="6.20855">
        <ele>237.86</ele>
        <time>2018-09-05T09:20:28Z</time>
      </trkpt>
      <trkpt lat="47.66261" lon="6.20858">
        <ele>237.82</ele>
        <time>2018-09-05T09:20:30Z</time>
      </trkpt>
      <trkpt lat="47.66267" lon="6.20861">
        <ele>237.79</ele>
        <time>2018-09-05T09:20:32Z</time>
      </trkpt>
      <trkpt lat="47.66273" lon="6.20864">
        <ele>237.76</ele>
        <time>2018-09-05T09:20:34Z</time>
      </trkpt>
      <trkpt lat="47.66278" lon="6.20869">
        <ele>237.57</ele>
        <time>2018-09-05T09:20:36Z</time>
      </trkpt>
      <trkpt lat="47.66284" lon="6.20876">
        <ele>237.52</ele>
        <time>2018-09-05T09:20:38Z</time>
      </trkpt>
      <trkpt lat="47.66288" lon="6.20884">
        <ele>237.5</ele>
        <time>2018-09-05T09:20:40Z</time>
      </trkpt>
      <trkpt lat="47.66292" lon="6.20892">
        <ele>237.49</ele>
        <time>2018-09-05T09:20:42Z</time>
      </trkpt>
      <trkpt lat="47.66295" lon="6.20899">
        <ele>237.47</ele>
        <time>2018-09-05T09:20:44Z</time>
      </trkpt>
      <trkpt lat="47.66299" lon="6.20905">
        <ele>237.45</ele>
        <time>2018-09-05T09:20:46Z</time>
      </trkpt>
      <trkpt lat="47.66305" lon="6.20907">
        <ele>237.42</ele>
        <time>2018-09-05T09:20:49Z</time>
      </trkpt>
      <trkpt lat="47.66311" lon="6.20907">
        <ele>237.4</ele>
        <time>2018-09-05T09:20:51Z</time>
      </trkpt>
      <trkpt lat="47.66315" lon="6.20907">
        <ele>237.39</ele>
        <time>2018-09-05T09:20:53Z</time>
      </trkpt>
      <trkpt lat="47.66321" lon="6.2091">
        <ele>237.38</ele>
        <time>2018-09-05T09:20:55Z</time>
      </trkpt>
      <trkpt lat="47.66327" lon="6.20913">
        <ele>237.37</ele>
        <time>2018-09-05T09:20:57Z</time>
      </trkpt>
      <trkpt lat="47.66332" lon="6.20917">
        <ele>237.37</ele>
        <time>2018-09-05T09:20:59Z</time>
      </trkpt>
      <trkpt lat="47.66338" lon="6.2092">
        <ele>237.38</ele>
        <time>2018-09-05T09:21:01Z</time>
      </trkpt>
      <trkpt lat="47.66343" lon="6.20923">
        <ele>237.4</ele>
        <time>2018-09-05T09:21:04Z</time>
      </trkpt>
      <trkpt lat="47.66348" lon="6.20927">
        <ele>237.42</ele>
        <time>2018-09-05T09:21:07Z</time>
      </trkpt>
      <trkpt lat="47.66352" lon="6.2093">
        <ele>237.44</ele>
        <time>2018-09-05T09:21:09Z</time>
      </trkpt>
      <trkpt lat="47.66357" lon="6.20934">
        <ele>237.47</ele>
        <time>2018-09-05T09:21:12Z</time>
      </trkpt>
      <trkpt lat="47.66362" lon="6.20938">
        <ele>237.5</ele>
        <time>2018-09-05T09:21:15Z</time>
      </trkpt>
      <trkpt lat="47.66367" lon="6.20943">
        <ele>237.53</ele>
        <time>2018-09-05T09:21:18Z</time>
      </trkpt>
      <trkpt lat="47.66371" lon="6.20948">
        <ele>237.57</ele>
        <time>2018-09-05T09:21:21Z</time>
      </trkpt>
      <trkpt lat="47.66376" lon="6.20953">
        <ele>237.62</ele>
        <time>2018-09-05T09:21:24Z</time>
      </trkpt>
      <trkpt lat="47.6638" lon="6.20959">
        <ele>237.68</ele>
        <time>2018-09-05T09:21:27Z</time>
      </trkpt>
      <trkpt lat="47.66384" lon="6.20965">
        <ele>237.74</ele>
        <time>2018-09-05T09:21:30Z</time>
      </trkpt>
      <trkpt lat="47.66388" lon="6.20971">
        <ele>237.8</ele>
        <time>2018-09-05T09:21:33Z</time>
      </trkpt>
      <trkpt lat="47.6639" lon="6.20978">
        <ele>237.87</ele>
        <time>2018-09-05T09:21:36Z</time>
      </trkpt>
      <trkpt lat="47.66392" lon="6.20984">
        <ele>237.91</ele>
        <time>2018-09-05T09:21:38Z</time>
      </trkpt>
      <trkpt lat="47.66394" lon="6.20992">
        <ele>237.95</ele>
        <time>2018-09-05T09:21:40Z</time>
      </trkpt>
      <trkpt lat="47.66396" lon="6.21002">
        <ele>238.11</ele>
        <time>2018-09-05T09:21:42Z</time>
      </trkpt>
      <trkpt lat="47.66397" lon="6.21012">
        <ele>238.36</ele>
        <time>2018-09-05T09:21:44Z</time>
      </trkpt>
      <trkpt lat="47.66397" lon="6.21024">
        <ele>238.49</ele>
        <time>2018-09-05T09:21:46Z</time>
      </trkpt>
      <trkpt lat="47.66401" lon="6.21035">
        <ele>238.53</ele>
        <time>2018-09-05T09:21:48Z</time>
      </trkpt>
      <trkpt lat="47.66407" lon="6.21042">
        <ele>238.54</ele>
        <time>2018-09-05T09:21:50Z</time>
      </trkpt>
      <trkpt lat="47.66412" lon="6.21045">
        <ele>238.54</ele>
        <time>2018-09-05T09:21:52Z</time>
      </trkpt>
      <trkpt lat="47.66418" lon="6.21047">
        <ele>238.55</ele>
        <time>2018-09-05T09:21:55Z</time>
      </trkpt>
      <trkpt lat="47.66423" lon="6.21048">
        <ele>238.55</ele>
        <time>2018-09-05T09:21:58Z</time>
      </trkpt>
      <trkpt lat="47.66429" lon="6.21046">
        <ele>238.56</ele>
        <time>2018-09-05T09:22:02Z</time>
      </trkpt>
      <trkpt lat="47.66434" lon="6.21045">
        <ele>238.57</ele>
        <time>2018-09-05T09:22:05Z</time>
      </trkpt>
      <trkpt lat="47.66439" lon="6.21043">
        <ele>238.59</ele>
        <time>2018-09-05T09:22:08Z</time>
      </trkpt>
      <trkpt lat="47.66445" lon="6.2104">
        <ele>238.62</ele>
        <time>2018-09-05T09:22:11Z</time>
      </trkpt>
      <trkpt lat="47.66451" lon="6.21037">
        <ele>238.66</ele>
        <time>2018-09-05T09:22:14Z</time>
      </trkpt>
      <trkpt lat="47.66457" lon="6.21034">
        <ele>238.71</ele>
        <time>2018-09-05T09:22:17Z</time>
      </trkpt>
      <trkpt lat="47.66463" lon="6.21032">
        <ele>238.79</ele>
        <time>2018-09-05T09:22:20Z</time>
      </trkpt>
      <trkpt lat="47.66468" lon="6.2103">
        <ele>238.88</ele>
        <time>2018-09-05T09:22:23Z</time>
      </trkpt>
      <trkpt lat="47.66472" lon="6.21028">
        <ele>238.98</ele>
        <time>2018-09-05T09:22:26Z</time>
      </trkpt>
      <trkpt lat="47.66477" lon="6.21026">
        <ele>239.12</ele>
        <time>2018-09-05T09:22:30Z</time>
      </trkpt>
      <trkpt lat="47.66482" lon="6.21024">
        <ele>239.28</ele>
        <time>2018-09-05T09:22:34Z</time>
      </trkpt>
      <trkpt lat="47.66487" lon="6.21021">
        <ele>239.45</ele>
        <time>2018-09-05T09:22:38Z</time>
      </trkpt>
      <trkpt lat="47.66492" lon="6.21018">
        <ele>239.63</ele>
        <time>2018-09-05T09:22:42Z</time>
      </trkpt>
      <trkpt lat="47.66497" lon="6.21015">
        <ele>239.81</ele>
        <time>2018-09-05T09:22:46Z</time>
      </trkpt>
      <trkpt lat="47.66502" lon="6.21014">
        <ele>240</ele>
        <time>2018-09-05T09:22:50Z</time>
      </trkpt>
      <trkpt lat="47.66507" lon="6.21014">
        <ele>240.18</ele>
        <time>2018-09-05T09:22:54Z</time>
      </trkpt>
      <trkpt lat="47.66511" lon="6.21011">
        <ele>240.36</ele>
        <time>2018-09-05T09:22:58Z</time>
      </trkpt>
      <trkpt lat="47.66516" lon="6.21007">
        <ele>240.59</ele>
        <time>2018-09-05T09:23:03Z</time>
      </trkpt>
      <trkpt lat="47.66521" lon="6.21006">
        <ele>240.84</ele>
        <time>2018-09-05T09:23:08Z</time>
      </trkpt>
      <trkpt lat="47.66526" lon="6.21004">
        <ele>241.05</ele>
        <time>2018-09-05T09:23:12Z</time>
      </trkpt>
      <trkpt lat="47.66532" lon="6.21001">
        <ele>241.23</ele>
        <time>2018-09-05T09:23:15Z</time>
      </trkpt>
      <trkpt lat="47.66536" lon="6.20999">
        <ele>241.42</ele>
        <time>2018-09-05T09:23:18Z</time>
      </trkpt>
      <trkpt lat="47.6654" lon="6.20997">
        <ele>241.7</ele>
        <time>2018-09-05T09:23:22Z</time>
      </trkpt>
      <trkpt lat="47.66545" lon="6.20993">
        <ele>242</ele>
        <time>2018-09-05T09:23:26Z</time>
      </trkpt>
      <trkpt lat="47.6655" lon="6.2099">
        <ele>242.31</ele>
        <time>2018-09-05T09:23:30Z</time>
      </trkpt>
      <trkpt lat="47.66555" lon="6.20985">
        <ele>242.62</ele>
        <time>2018-09-05T09:23:34Z</time>
      </trkpt>
      <trkpt lat="47.6656" lon="6.20981">
        <ele>242.93</ele>
        <time>2018-09-05T09:23:38Z</time>
      </trkpt>
      <trkpt lat="47.66565" lon="6.20978">
        <ele>243.3</ele>
        <time>2018-09-05T09:23:43Z</time>
      </trkpt>
      <trkpt lat="47.66569" lon="6.20976">
        <ele>243.59</ele>
        <time>2018-09-05T09:23:47Z</time>
      </trkpt>
      <trkpt lat="47.66574" lon="6.20975">
        <ele>243.8</ele>
        <time>2018-09-05T09:23:50Z</time>
      </trkpt>
      <trkpt lat="47.6658" lon="6.20975">
        <ele>244.08</ele>
        <time>2018-09-05T09:23:54Z</time>
      </trkpt>
      <trkpt lat="47.66585" lon="6.20974">
        <ele>244.29</ele>
        <time>2018-09-05T09:23:57Z</time>
      </trkpt>
      <trkpt lat="47.6659" lon="6.20972">
        <ele>244.58</ele>
        <time>2018-09-05T09:24:01Z</time>
      </trkpt>
      <trkpt lat="47.66595" lon="6.2097">
        <ele>244.87</ele>
        <time>2018-09-05T09:24:05Z</time>
      </trkpt>
      <trkpt lat="47.666" lon="6.20968">
        <ele>245.16</ele>
        <time>2018-09-05T09:24:09Z</time>
      </trkpt>
      <trkpt lat="47.66606" lon="6.20966">
        <ele>245.46</ele>
        <time>2018-09-05T09:24:13Z</time>
      </trkpt>
      <trkpt lat="47.66611" lon="6.20964">
        <ele>245.77</ele>
        <time>2018-09-05T09:24:17Z</time>
      </trkpt>
      <trkpt lat="47.66616" lon="6.20962">
        <ele>246.01</ele>
        <time>2018-09-05T09:24:20Z</time>
      </trkpt>
      <trkpt lat="47.66622" lon="6.2096">
        <ele>246.25</ele>
        <time>2018-09-05T09:24:23Z</time>
      </trkpt>
      <trkpt lat="47.66627" lon="6.20958">
        <ele>246.49</ele>
        <time>2018-09-05T09:24:26Z</time>
      </trkpt>
      <trkpt lat="47.66632" lon="6.20956">
        <ele>246.73</ele>
        <time>2018-09-05T09:24:29Z</time>
      </trkpt>
      <trkpt lat="47.66638" lon="6.20953">
        <ele>246.97</ele>
        <time>2018-09-05T09:24:32Z</time>
      </trkpt>
      <trkpt lat="47.66643" lon="6.2095">
        <ele>247.2</ele>
        <time>2018-09-05T09:24:35Z</time>
      </trkpt>
      <trkpt lat="47.66649" lon="6.20947">
        <ele>247.44</ele>
        <time>2018-09-05T09:24:38Z</time>
      </trkpt>
      <trkpt lat="47.66653" lon="6.20945">
        <ele>247.67</ele>
        <time>2018-09-05T09:24:41Z</time>
      </trkpt>
      <trkpt lat="47.66658" lon="6.20943">
        <ele>247.83</ele>
        <time>2018-09-05T09:24:43Z</time>
      </trkpt>
      <trkpt lat="47.66664" lon="6.20941">
        <ele>248.05</ele>
        <time>2018-09-05T09:24:46Z</time>
      </trkpt>
      <trkpt lat="47.66669" lon="6.20939">
        <ele>248.28</ele>
        <time>2018-09-05T09:24:49Z</time>
      </trkpt>
      <trkpt lat="47.66674" lon="6.20937">
        <ele>248.42</ele>
        <time>2018-09-05T09:24:51Z</time>
      </trkpt>
      <trkpt lat="47.66679" lon="6.20934">
        <ele>248.64</ele>
        <time>2018-09-05T09:24:54Z</time>
      </trkpt>
      <trkpt lat="47.66684" lon="6.20932">
        <ele>248.78</ele>
        <time>2018-09-05T09:24:56Z</time>
      </trkpt>
      <trkpt lat="47.66688" lon="6.20929">
        <ele>248.92</ele>
        <time>2018-09-05T09:24:58Z</time>
      </trkpt>
      <trkpt lat="47.66693" lon="6.20926">
        <ele>249.06</ele>
        <time>2018-09-05T09:25:00Z</time>
      </trkpt>
      <trkpt lat="47.66697" lon="6.20923">
        <ele>249.2</ele>
        <time>2018-09-05T09:25:02Z</time>
      </trkpt>
      <trkpt lat="47.66703" lon="6.20919">
        <ele>249.41</ele>
        <time>2018-09-05T09:25:05Z</time>
      </trkpt>
      <trkpt lat="47.66709" lon="6.20916">
        <ele>249.61</ele>
        <time>2018-09-05T09:25:08Z</time>
      </trkpt>
      <trkpt lat="47.66713" lon="6.20914">
        <ele>249.82</ele>
        <time>2018-09-05T09:25:11Z</time>
      </trkpt>
      <trkpt lat="47.66719" lon="6.20911">
        <ele>250.02</ele>
        <time>2018-09-05T09:25:14Z</time>
      </trkpt>
      <trkpt lat="47.66724" lon="6.20909">
        <ele>250.23</ele>
        <time>2018-09-05T09:25:17Z</time>
      </trkpt>
      <trkpt lat="47.66728" lon="6.20906">
        <ele>250.43</ele>
        <time>2018-09-05T09:25:20Z</time>
      </trkpt>
      <trkpt lat="47.66734" lon="6.20904">
        <ele>250.63</ele>
        <time>2018-09-05T09:25:23Z</time>
      </trkpt>
      <trkpt lat="47.66739" lon="6.20901">
        <ele>250.82</ele>
        <time>2018-09-05T09:25:26Z</time>
      </trkpt>
      <trkpt lat="47.66744" lon="6.20898">
        <ele>251.02</ele>
        <time>2018-09-05T09:25:29Z</time>
      </trkpt>
      <trkpt lat="47.66748" lon="6.20895">
        <ele>251.22</ele>
        <time>2018-09-05T09:25:32Z</time>
      </trkpt>
      <trkpt lat="47.66752" lon="6.20892">
        <ele>251.42</ele>
        <time>2018-09-05T09:25:35Z</time>
      </trkpt>
      <trkpt lat="47.66757" lon="6.20888">
        <ele>251.62</ele>
        <time>2018-09-05T09:25:38Z</time>
      </trkpt>
      <trkpt lat="47.66761" lon="6.20885">
        <ele>251.82</ele>
        <time>2018-09-05T09:25:41Z</time>
      </trkpt>
      <trkpt lat="47.66765" lon="6.20882">
        <ele>252.02</ele>
        <time>2018-09-05T09:25:44Z</time>
      </trkpt>
      <trkpt lat="47.66769" lon="6.20879">
        <ele>252.22</ele>
        <time>2018-09-05T09:25:47Z</time>
      </trkpt>
      <trkpt lat="47.66774" lon="6.20876">
        <ele>252.49</ele>
        <time>2018-09-05T09:25:51Z</time>
      </trkpt>
      <trkpt lat="47.66779" lon="6.20872">
        <ele>252.76</ele>
        <time>2018-09-05T09:25:55Z</time>
      </trkpt>
      <trkpt lat="47.66783" lon="6.20869">
        <ele>252.97</ele>
        <time>2018-09-05T09:25:58Z</time>
      </trkpt>
      <trkpt lat="47.66788" lon="6.20866">
        <ele>253.17</ele>
        <time>2018-09-05T09:26:01Z</time>
      </trkpt>
      <trkpt lat="47.66792" lon="6.20863">
        <ele>253.38</ele>
        <time>2018-09-05T09:26:04Z</time>
      </trkpt>
      <trkpt lat="47.66797" lon="6.20861">
        <ele>253.65</ele>
        <time>2018-09-05T09:26:08Z</time>
      </trkpt>
      <trkpt lat="47.66801" lon="6.20857">
        <ele>253.99</ele>
        <time>2018-09-05T09:26:13Z</time>
      </trkpt>
      <trkpt lat="47.66805" lon="6.20853">
        <ele>254.26</ele>
        <time>2018-09-05T09:26:17Z</time>
      </trkpt>
      <trkpt lat="47.66809" lon="6.20849">
        <ele>254.52</ele>
        <time>2018-09-05T09:26:21Z</time>
      </trkpt>
      <trkpt lat="47.66813" lon="6.20845">
        <ele>254.78</ele>
        <time>2018-09-05T09:26:25Z</time>
      </trkpt>
      <trkpt lat="47.66816" lon="6.20841">
        <ele>255.1</ele>
        <time>2018-09-05T09:26:30Z</time>
      </trkpt>
      <trkpt lat="47.6682" lon="6.20836">
        <ele>255.35</ele>
        <time>2018-09-05T09:26:34Z</time>
      </trkpt>
      <trkpt lat="47.66824" lon="6.20831">
        <ele>255.6</ele>
        <time>2018-09-05T09:26:38Z</time>
      </trkpt>
      <trkpt lat="47.66828" lon="6.20827">
        <ele>255.85</ele>
        <time>2018-09-05T09:26:42Z</time>
      </trkpt>
      <trkpt lat="47.66832" lon="6.20823">
        <ele>256.1</ele>
        <time>2018-09-05T09:26:46Z</time>
      </trkpt>
      <trkpt lat="47.66836" lon="6.20819">
        <ele>256.35</ele>
        <time>2018-09-05T09:26:50Z</time>
      </trkpt>
      <trkpt lat="47.66841" lon="6.20817">
        <ele>256.59</ele>
        <time>2018-09-05T09:26:54Z</time>
      </trkpt>
      <trkpt lat="47.66845" lon="6.20813">
        <ele>256.84</ele>
        <time>2018-09-05T09:26:58Z</time>
      </trkpt>
      <trkpt lat="47.6685" lon="6.20808">
        <ele>257.09</ele>
        <time>2018-09-05T09:27:02Z</time>
      </trkpt>
      <trkpt lat="47.66855" lon="6.20804">
        <ele>257.35</ele>
        <time>2018-09-05T09:27:06Z</time>
      </trkpt>
      <trkpt lat="47.66859" lon="6.208">
        <ele>257.61</ele>
        <time>2018-09-05T09:27:10Z</time>
      </trkpt>
      <trkpt lat="47.66863" lon="6.20795">
        <ele>257.87</ele>
        <time>2018-09-05T09:27:14Z</time>
      </trkpt>
      <trkpt lat="47.66867" lon="6.2079">
        <ele>258.13</ele>
        <time>2018-09-05T09:27:18Z</time>
      </trkpt>
      <trkpt lat="47.6687" lon="6.20785">
        <ele>258.38</ele>
        <time>2018-09-05T09:27:22Z</time>
      </trkpt>
      <trkpt lat="47.66871" lon="6.20779">
        <ele>258.64</ele>
        <time>2018-09-05T09:27:26Z</time>
      </trkpt>
      <trkpt lat="47.66874" lon="6.20773">
        <ele>258.9</ele>
        <time>2018-09-05T09:27:30Z</time>
      </trkpt>
      <trkpt lat="47.66878" lon="6.20767">
        <ele>259.16</ele>
        <time>2018-09-05T09:27:34Z</time>
      </trkpt>
      <trkpt lat="47.66881" lon="6.2076">
        <ele>259.42</ele>
        <time>2018-09-05T09:27:38Z</time>
      </trkpt>
      <trkpt lat="47.66883" lon="6.20754">
        <ele>259.61</ele>
        <time>2018-09-05T09:27:41Z</time>
      </trkpt>
      <trkpt lat="47.66887" lon="6.20749">
        <ele>259.86</ele>
        <time>2018-09-05T09:27:45Z</time>
      </trkpt>
      <trkpt lat="47.66892" lon="6.20743">
        <ele>260.11</ele>
        <time>2018-09-05T09:27:49Z</time>
      </trkpt>
      <trkpt lat="47.66896" lon="6.20737">
        <ele>260.36</ele>
        <time>2018-09-05T09:27:53Z</time>
      </trkpt>
      <trkpt lat="47.669" lon="6.20731">
        <ele>260.62</ele>
        <time>2018-09-05T09:27:57Z</time>
      </trkpt>
      <trkpt lat="47.66904" lon="6.20726">
        <ele>260.87</ele>
        <time>2018-09-05T09:28:01Z</time>
      </trkpt>
      <trkpt lat="47.66909" lon="6.20722">
        <ele>261.13</ele>
        <time>2018-09-05T09:28:05Z</time>
      </trkpt>
      <trkpt lat="47.66913" lon="6.20716">
        <ele>261.39</ele>
        <time>2018-09-05T09:28:09Z</time>
      </trkpt>
      <trkpt lat="47.66917" lon="6.20711">
        <ele>261.65</ele>
        <time>2018-09-05T09:28:13Z</time>
      </trkpt>
      <trkpt lat="47.66922" lon="6.20706">
        <ele>261.92</ele>
        <time>2018-09-05T09:28:17Z</time>
      </trkpt>
      <trkpt lat="47.66927" lon="6.20702">
        <ele>262.2</ele>
        <time>2018-09-05T09:28:21Z</time>
      </trkpt>
      <trkpt lat="47.66931" lon="6.20699">
        <ele>262.4</ele>
        <time>2018-09-05T09:28:24Z</time>
      </trkpt>
      <trkpt lat="47.66936" lon="6.20696">
        <ele>262.61</ele>
        <time>2018-09-05T09:28:27Z</time>
      </trkpt>
      <trkpt lat="47.66941" lon="6.20692">
        <ele>262.89</ele>
        <time>2018-09-05T09:28:31Z</time>
      </trkpt>
      <trkpt lat="47.66945" lon="6.20687">
        <ele>263.16</ele>
        <time>2018-09-05T09:28:35Z</time>
      </trkpt>
      <trkpt lat="47.66948" lon="6.20683">
        <ele>263.44</ele>
        <time>2018-09-05T09:28:39Z</time>
      </trkpt>
      <trkpt lat="47.66954" lon="6.20681">
        <ele>263.72</ele>
        <time>2018-09-05T09:28:43Z</time>
      </trkpt>
      <trkpt lat="47.66959" lon="6.20678">
        <ele>263.93</ele>
        <time>2018-09-05T09:28:46Z</time>
      </trkpt>
      <trkpt lat="47.66963" lon="6.20673">
        <ele>264.15</ele>
        <time>2018-09-05T09:28:49Z</time>
      </trkpt>
      <trkpt lat="47.66967" lon="6.2067">
        <ele>264.37</ele>
        <time>2018-09-05T09:28:52Z</time>
      </trkpt>
      <trkpt lat="47.66973" lon="6.20667">
        <ele>264.66</ele>
        <time>2018-09-05T09:28:56Z</time>
      </trkpt>
      <trkpt lat="47.66977" lon="6.20665">
        <ele>264.89</ele>
        <time>2018-09-05T09:28:59Z</time>
      </trkpt>
      <trkpt lat="47.66981" lon="6.20661">
        <ele>265.11</ele>
        <time>2018-09-05T09:29:02Z</time>
      </trkpt>
      <trkpt lat="47.66985" lon="6.20656">
        <ele>265.41</ele>
        <time>2018-09-05T09:29:06Z</time>
      </trkpt>
      <trkpt lat="47.66987" lon="6.2065">
        <ele>265.71</ele>
        <time>2018-09-05T09:29:10Z</time>
      </trkpt>
      <trkpt lat="47.66988" lon="6.20643">
        <ele>266</ele>
        <time>2018-09-05T09:29:14Z</time>
      </trkpt>
      <trkpt lat="47.66991" lon="6.20637">
        <ele>266.28</ele>
        <time>2018-09-05T09:29:18Z</time>
      </trkpt>
      <trkpt lat="47.66993" lon="6.20629">
        <ele>266.57</ele>
        <time>2018-09-05T09:29:22Z</time>
      </trkpt>
      <trkpt lat="47.66995" lon="6.20623">
        <ele>266.84</ele>
        <time>2018-09-05T09:29:26Z</time>
      </trkpt>
      <trkpt lat="47.66997" lon="6.20617">
        <ele>267.12</ele>
        <time>2018-09-05T09:29:30Z</time>
      </trkpt>
      <trkpt lat="47.66999" lon="6.20611">
        <ele>267.39</ele>
        <time>2018-09-05T09:29:34Z</time>
      </trkpt>
      <trkpt lat="47.67001" lon="6.20605">
        <ele>267.67</ele>
        <time>2018-09-05T09:29:38Z</time>
      </trkpt>
      <trkpt lat="47.67004" lon="6.20599">
        <ele>267.94</ele>
        <time>2018-09-05T09:29:42Z</time>
      </trkpt>
      <trkpt lat="47.67006" lon="6.20593">
        <ele>268.2</ele>
        <time>2018-09-05T09:29:46Z</time>
      </trkpt>
      <trkpt lat="47.67009" lon="6.20588">
        <ele>268.47</ele>
        <time>2018-09-05T09:29:50Z</time>
      </trkpt>
      <trkpt lat="47.67013" lon="6.20581">
        <ele>268.73</ele>
        <time>2018-09-05T09:29:54Z</time>
      </trkpt>
      <trkpt lat="47.67018" lon="6.20576">
        <ele>269</ele>
        <time>2018-09-05T09:29:58Z</time>
      </trkpt>
      <trkpt lat="47.67022" lon="6.20572">
        <ele>269.25</ele>
        <time>2018-09-05T09:30:02Z</time>
      </trkpt>
      <trkpt lat="47.67027" lon="6.20568">
        <ele>269.51</ele>
        <time>2018-09-05T09:30:06Z</time>
      </trkpt>
      <trkpt lat="47.67032" lon="6.20562">
        <ele>269.77</ele>
        <time>2018-09-05T09:30:10Z</time>
      </trkpt>
      <trkpt lat="47.67036" lon="6.2056">
        <ele>269.96</ele>
        <time>2018-09-05T09:30:13Z</time>
      </trkpt>
      <trkpt lat="47.6704" lon="6.20554">
        <ele>270.21</ele>
        <time>2018-09-05T09:30:17Z</time>
      </trkpt>
      <trkpt lat="47.67043" lon="6.20548">
        <ele>270.48</ele>
        <time>2018-09-05T09:30:21Z</time>
      </trkpt>
      <trkpt lat="47.67048" lon="6.20542">
        <ele>270.74</ele>
        <time>2018-09-05T09:30:25Z</time>
      </trkpt>
      <trkpt lat="47.67051" lon="6.20536">
        <ele>271.01</ele>
        <time>2018-09-05T09:30:29Z</time>
      </trkpt>
      <trkpt lat="47.67055" lon="6.20531">
        <ele>271.34</ele>
        <time>2018-09-05T09:30:34Z</time>
      </trkpt>
      <trkpt lat="47.67059" lon="6.20526">
        <ele>271.68</ele>
        <time>2018-09-05T09:30:39Z</time>
      </trkpt>
      <trkpt lat="47.67062" lon="6.20521">
        <ele>271.95</ele>
        <time>2018-09-05T09:30:43Z</time>
      </trkpt>
      <trkpt lat="47.67067" lon="6.20516">
        <ele>272.23</ele>
        <time>2018-09-05T09:30:47Z</time>
      </trkpt>
      <trkpt lat="47.67071" lon="6.20511">
        <ele>272.51</ele>
        <time>2018-09-05T09:30:51Z</time>
      </trkpt>
      <trkpt lat="47.67074" lon="6.20506">
        <ele>272.79</ele>
        <time>2018-09-05T09:30:55Z</time>
      </trkpt>
      <trkpt lat="47.67079" lon="6.20501">
        <ele>273.07</ele>
        <time>2018-09-05T09:30:59Z</time>
      </trkpt>
      <trkpt lat="47.67082" lon="6.20496">
        <ele>273.35</ele>
        <time>2018-09-05T09:31:03Z</time>
      </trkpt>
      <trkpt lat="47.67086" lon="6.20491">
        <ele>273.69</ele>
        <time>2018-09-05T09:31:08Z</time>
      </trkpt>
      <trkpt lat="47.6709" lon="6.20486">
        <ele>273.97</ele>
        <time>2018-09-05T09:31:12Z</time>
      </trkpt>
      <trkpt lat="47.67095" lon="6.20481">
        <ele>274.25</ele>
        <time>2018-09-05T09:31:16Z</time>
      </trkpt>
      <trkpt lat="47.67098" lon="6.20476">
        <ele>274.53</ele>
        <time>2018-09-05T09:31:20Z</time>
      </trkpt>
      <trkpt lat="47.671" lon="6.20469">
        <ele>274.8</ele>
        <time>2018-09-05T09:31:24Z</time>
      </trkpt>
      <trkpt lat="47.67104" lon="6.20464">
        <ele>275.08</ele>
        <time>2018-09-05T09:31:28Z</time>
      </trkpt>
      <trkpt lat="47.67108" lon="6.2046">
        <ele>275.29</ele>
        <time>2018-09-05T09:31:31Z</time>
      </trkpt>
      <trkpt lat="47.67113" lon="6.20453">
        <ele>275.56</ele>
        <time>2018-09-05T09:31:35Z</time>
      </trkpt>
      <trkpt lat="47.67116" lon="6.20447">
        <ele>275.84</ele>
        <time>2018-09-05T09:31:39Z</time>
      </trkpt>
      <trkpt lat="47.67119" lon="6.20441">
        <ele>276.04</ele>
        <time>2018-09-05T09:31:42Z</time>
      </trkpt>
      <trkpt lat="47.67122" lon="6.20436">
        <ele>276.25</ele>
        <time>2018-09-05T09:31:45Z</time>
      </trkpt>
      <trkpt lat="47.67125" lon="6.20431">
        <ele>276.53</ele>
        <time>2018-09-05T09:31:49Z</time>
      </trkpt>
      <trkpt lat="47.67129" lon="6.20426">
        <ele>276.73</ele>
        <time>2018-09-05T09:31:52Z</time>
      </trkpt>
      <trkpt lat="47.67133" lon="6.2042">
        <ele>277.01</ele>
        <time>2018-09-05T09:31:56Z</time>
      </trkpt>
      <trkpt lat="47.67137" lon="6.20415">
        <ele>277.28</ele>
        <time>2018-09-05T09:32:00Z</time>
      </trkpt>
      <trkpt lat="47.67141" lon="6.20409">
        <ele>277.55</ele>
        <time>2018-09-05T09:32:04Z</time>
      </trkpt>
      <trkpt lat="47.67146" lon="6.20404">
        <ele>277.82</ele>
        <time>2018-09-05T09:32:08Z</time>
      </trkpt>
      <trkpt lat="47.67149" lon="6.20399">
        <ele>278.03</ele>
        <time>2018-09-05T09:32:11Z</time>
      </trkpt>
      <trkpt lat="47.67153" lon="6.20394">
        <ele>278.24</ele>
        <time>2018-09-05T09:32:14Z</time>
      </trkpt>
      <trkpt lat="47.67157" lon="6.20389">
        <ele>278.51</ele>
        <time>2018-09-05T09:32:18Z</time>
      </trkpt>
      <trkpt lat="47.67161" lon="6.20384">
        <ele>278.73</ele>
        <time>2018-09-05T09:32:21Z</time>
      </trkpt>
      <trkpt lat="47.67166" lon="6.20381">
        <ele>278.94</ele>
        <time>2018-09-05T09:32:24Z</time>
      </trkpt>
      <trkpt lat="47.6717" lon="6.20379">
        <ele>279.08</ele>
        <time>2018-09-05T09:32:26Z</time>
      </trkpt>
      <trkpt lat="47.67176" lon="6.20375">
        <ele>279.3</ele>
        <time>2018-09-05T09:32:29Z</time>
      </trkpt>
      <trkpt lat="47.6718" lon="6.20372">
        <ele>279.53</ele>
        <time>2018-09-05T09:32:32Z</time>
      </trkpt>
      <trkpt lat="47.67185" lon="6.20369">
        <ele>279.75</ele>
        <time>2018-09-05T09:32:35Z</time>
      </trkpt>
      <trkpt lat="47.6719" lon="6.20366">
        <ele>279.97</ele>
        <time>2018-09-05T09:32:38Z</time>
      </trkpt>
      <trkpt lat="47.67194" lon="6.2036">
        <ele>280.2</ele>
        <time>2018-09-05T09:32:41Z</time>
      </trkpt>
      <trkpt lat="47.67199" lon="6.20355">
        <ele>280.42</ele>
        <time>2018-09-05T09:32:44Z</time>
      </trkpt>
      <trkpt lat="47.67202" lon="6.20348">
        <ele>280.65</ele>
        <time>2018-09-05T09:32:47Z</time>
      </trkpt>
      <trkpt lat="47.67204" lon="6.20342">
        <ele>280.81</ele>
        <time>2018-09-05T09:32:49Z</time>
      </trkpt>
      <trkpt lat="47.67207" lon="6.20335">
        <ele>281.04</ele>
        <time>2018-09-05T09:32:52Z</time>
      </trkpt>
      <trkpt lat="47.67211" lon="6.20327">
        <ele>281.28</ele>
        <time>2018-09-05T09:32:55Z</time>
      </trkpt>
      <trkpt lat="47.67215" lon="6.20319">
        <ele>281.52</ele>
        <time>2018-09-05T09:32:58Z</time>
      </trkpt>
      <trkpt lat="47.67218" lon="6.20311">
        <ele>281.76</ele>
        <time>2018-09-05T09:33:01Z</time>
      </trkpt>
      <trkpt lat="47.67222" lon="6.20303">
        <ele>282.01</ele>
        <time>2018-09-05T09:33:04Z</time>
      </trkpt>
      <trkpt lat="47.67225" lon="6.20298">
        <ele>282.17</ele>
        <time>2018-09-05T09:33:06Z</time>
      </trkpt>
      <trkpt lat="47.67229" lon="6.20294">
        <ele>282.34</ele>
        <time>2018-09-05T09:33:08Z</time>
      </trkpt>
      <trkpt lat="47.67233" lon="6.2029">
        <ele>282.5</ele>
        <time>2018-09-05T09:33:10Z</time>
      </trkpt>
      <trkpt lat="47.67237" lon="6.20287">
        <ele>282.67</ele>
        <time>2018-09-05T09:33:12Z</time>
      </trkpt>
      <trkpt lat="47.67242" lon="6.20282">
        <ele>282.93</ele>
        <time>2018-09-05T09:33:15Z</time>
      </trkpt>
      <trkpt lat="47.67248" lon="6.20279">
        <ele>283.18</ele>
        <time>2018-09-05T09:33:18Z</time>
      </trkpt>
      <trkpt lat="47.67252" lon="6.20277">
        <ele>283.35</ele>
        <time>2018-09-05T09:33:20Z</time>
      </trkpt>
      <trkpt lat="47.67257" lon="6.20274">
        <ele>283.52</ele>
        <time>2018-09-05T09:33:22Z</time>
      </trkpt>
      <trkpt lat="47.67261" lon="6.20272">
        <ele>283.69</ele>
        <time>2018-09-05T09:33:24Z</time>
      </trkpt>
      <trkpt lat="47.67266" lon="6.20269">
        <ele>283.86</ele>
        <time>2018-09-05T09:33:26Z</time>
      </trkpt>
      <trkpt lat="47.67271" lon="6.20265">
        <ele>284.03</ele>
        <time>2018-09-05T09:33:28Z</time>
      </trkpt>
      <trkpt lat="47.67276" lon="6.20261">
        <ele>284.21</ele>
        <time>2018-09-05T09:33:30Z</time>
      </trkpt>
      <trkpt lat="47.67281" lon="6.20258">
        <ele>284.38</ele>
        <time>2018-09-05T09:33:32Z</time>
      </trkpt>
      <trkpt lat="47.67285" lon="6.20254">
        <ele>284.56</ele>
        <time>2018-09-05T09:33:34Z</time>
      </trkpt>
      <trkpt lat="47.67289" lon="6.20249">
        <ele>284.74</ele>
        <time>2018-09-05T09:33:36Z</time>
      </trkpt>
      <trkpt lat="47.67293" lon="6.20245">
        <ele>284.92</ele>
        <time>2018-09-05T09:33:38Z</time>
      </trkpt>
      <trkpt lat="47.67297" lon="6.20241">
        <ele>285.09</ele>
        <time>2018-09-05T09:33:40Z</time>
      </trkpt>
      <trkpt lat="47.67301" lon="6.20237">
        <ele>285.27</ele>
        <time>2018-09-05T09:33:42Z</time>
      </trkpt>
      <trkpt lat="47.67305" lon="6.20233">
        <ele>285.45</ele>
        <time>2018-09-05T09:33:44Z</time>
      </trkpt>
      <trkpt lat="47.67309" lon="6.2023">
        <ele>285.63</ele>
        <time>2018-09-05T09:33:46Z</time>
      </trkpt>
      <trkpt lat="47.67314" lon="6.20226">
        <ele>285.9</ele>
        <time>2018-09-05T09:33:49Z</time>
      </trkpt>
      <trkpt lat="47.6732" lon="6.20221">
        <ele>286.16</ele>
        <time>2018-09-05T09:33:52Z</time>
      </trkpt>
      <trkpt lat="47.67326" lon="6.20217">
        <ele>286.43</ele>
        <time>2018-09-05T09:33:55Z</time>
      </trkpt>
      <trkpt lat="47.67332" lon="6.20212">
        <ele>286.7</ele>
        <time>2018-09-05T09:33:58Z</time>
      </trkpt>
      <trkpt lat="47.67338" lon="6.20208">
        <ele>286.97</ele>
        <time>2018-09-05T09:34:01Z</time>
      </trkpt>
      <trkpt lat="47.67344" lon="6.20205">
        <ele>287.25</ele>
        <time>2018-09-05T09:34:04Z</time>
      </trkpt>
      <trkpt lat="47.67349" lon="6.202">
        <ele>287.52</ele>
        <time>2018-09-05T09:34:07Z</time>
      </trkpt>
      <trkpt lat="47.67355" lon="6.20197">
        <ele>287.79</ele>
        <time>2018-09-05T09:34:10Z</time>
      </trkpt>
      <trkpt lat="47.6736" lon="6.20194">
        <ele>288.06</ele>
        <time>2018-09-05T09:34:13Z</time>
      </trkpt>
      <trkpt lat="47.67367" lon="6.20189">
        <ele>288.33</ele>
        <time>2018-09-05T09:34:16Z</time>
      </trkpt>
      <trkpt lat="47.67372" lon="6.20185">
        <ele>288.6</ele>
        <time>2018-09-05T09:34:19Z</time>
      </trkpt>
      <trkpt lat="47.67377" lon="6.20181">
        <ele>288.87</ele>
        <time>2018-09-05T09:34:22Z</time>
      </trkpt>
      <trkpt lat="47.67383" lon="6.20177">
        <ele>289.14</ele>
        <time>2018-09-05T09:34:25Z</time>
      </trkpt>
      <trkpt lat="47.67389" lon="6.20173">
        <ele>289.4</ele>
        <time>2018-09-05T09:34:28Z</time>
      </trkpt>
      <trkpt lat="47.67394" lon="6.20171">
        <ele>289.57</ele>
        <time>2018-09-05T09:34:30Z</time>
      </trkpt>
      <trkpt lat="47.674" lon="6.20167">
        <ele>289.74</ele>
        <time>2018-09-05T09:34:32Z</time>
      </trkpt>
      <trkpt lat="47.67406" lon="6.20164">
        <ele>289.91</ele>
        <time>2018-09-05T09:34:34Z</time>
      </trkpt>
      <trkpt lat="47.6741" lon="6.20161">
        <ele>290.08</ele>
        <time>2018-09-05T09:34:36Z</time>
      </trkpt>
      <trkpt lat="47.67414" lon="6.20158">
        <ele>290.25</ele>
        <time>2018-09-05T09:34:38Z</time>
      </trkpt>
      <trkpt lat="47.6742" lon="6.20154">
        <ele>290.51</ele>
        <time>2018-09-05T09:34:41Z</time>
      </trkpt>
      <trkpt lat="47.67424" lon="6.20153">
        <ele>290.77</ele>
        <time>2018-09-05T09:34:44Z</time>
      </trkpt>
      <trkpt lat="47.6743" lon="6.20151">
        <ele>291.12</ele>
        <time>2018-09-05T09:34:48Z</time>
      </trkpt>
      <trkpt lat="47.67435" lon="6.20151">
        <ele>291.46</ele>
        <time>2018-09-05T09:34:52Z</time>
      </trkpt>
      <trkpt lat="47.67441" lon="6.20152">
        <ele>291.78</ele>
        <time>2018-09-05T09:34:56Z</time>
      </trkpt>
      <trkpt lat="47.67447" lon="6.20152">
        <ele>291.93</ele>
        <time>2018-09-05T09:34:58Z</time>
      </trkpt>
      <trkpt lat="47.67452" lon="6.20152">
        <ele>292.09</ele>
        <time>2018-09-05T09:35:00Z</time>
      </trkpt>
      <trkpt lat="47.67458" lon="6.20152">
        <ele>292.31</ele>
        <time>2018-09-05T09:35:03Z</time>
      </trkpt>
      <trkpt lat="47.67464" lon="6.20154">
        <ele>292.54</ele>
        <time>2018-09-05T09:35:06Z</time>
      </trkpt>
      <trkpt lat="47.67469" lon="6.20155">
        <ele>292.77</ele>
        <time>2018-09-05T09:35:09Z</time>
      </trkpt>
      <trkpt lat="47.67475" lon="6.20157">
        <ele>293.01</ele>
        <time>2018-09-05T09:35:12Z</time>
      </trkpt>
      <trkpt lat="47.67479" lon="6.20158">
        <ele>293.25</ele>
        <time>2018-09-05T09:35:15Z</time>
      </trkpt>
      <trkpt lat="47.67484" lon="6.20158">
        <ele>293.5</ele>
        <time>2018-09-05T09:35:18Z</time>
      </trkpt>
      <trkpt lat="47.6749" lon="6.20158">
        <ele>293.85</ele>
        <time>2018-09-05T09:35:22Z</time>
      </trkpt>
      <trkpt lat="47.67495" lon="6.20158">
        <ele>294.22</ele>
        <time>2018-09-05T09:35:26Z</time>
      </trkpt>
      <trkpt lat="47.67501" lon="6.20157">
        <ele>294.59</ele>
        <time>2018-09-05T09:35:30Z</time>
      </trkpt>
      <trkpt lat="47.67506" lon="6.20158">
        <ele>294.87</ele>
        <time>2018-09-05T09:35:33Z</time>
      </trkpt>
      <trkpt lat="47.67511" lon="6.2016">
        <ele>295.15</ele>
        <time>2018-09-05T09:35:36Z</time>
      </trkpt>
      <trkpt lat="47.67516" lon="6.20164">
        <ele>295.42</ele>
        <time>2018-09-05T09:35:40Z</time>
      </trkpt>
      <trkpt lat="47.67522" lon="6.20166">
        <ele>295.66</ele>
        <time>2018-09-05T09:35:43Z</time>
      </trkpt>
      <trkpt lat="47.67527" lon="6.20168">
        <ele>295.81</ele>
        <time>2018-09-05T09:35:45Z</time>
      </trkpt>
      <trkpt lat="47.67532" lon="6.2017">
        <ele>296.03</ele>
        <time>2018-09-05T09:35:48Z</time>
      </trkpt>
      <trkpt lat="47.67537" lon="6.20171">
        <ele>296.24</ele>
        <time>2018-09-05T09:35:51Z</time>
      </trkpt>
      <trkpt lat="47.67543" lon="6.20172">
        <ele>296.44</ele>
        <time>2018-09-05T09:35:54Z</time>
      </trkpt>
      <trkpt lat="47.67548" lon="6.20172">
        <ele>296.57</ele>
        <time>2018-09-05T09:35:56Z</time>
      </trkpt>
      <trkpt lat="47.67554" lon="6.20172">
        <ele>296.7</ele>
        <time>2018-09-05T09:35:58Z</time>
      </trkpt>
      <trkpt lat="47.67559" lon="6.20173">
        <ele>296.83</ele>
        <time>2018-09-05T09:36:00Z</time>
      </trkpt>
      <trkpt lat="47.67564" lon="6.20172">
        <ele>296.95</ele>
        <time>2018-09-05T09:36:02Z</time>
      </trkpt>
      <trkpt lat="47.67568" lon="6.20174">
        <ele>297.07</ele>
        <time>2018-09-05T09:36:04Z</time>
      </trkpt>
      <trkpt lat="47.67573" lon="6.20175">
        <ele>297.18</ele>
        <time>2018-09-05T09:36:06Z</time>
      </trkpt>
      <trkpt lat="47.67578" lon="6.20177">
        <ele>297.28</ele>
        <time>2018-09-05T09:36:08Z</time>
      </trkpt>
      <trkpt lat="47.67584" lon="6.2018">
        <ele>297.39</ele>
        <time>2018-09-05T09:36:10Z</time>
      </trkpt>
      <trkpt lat="47.67591" lon="6.20182">
        <ele>297.49</ele>
        <time>2018-09-05T09:36:12Z</time>
      </trkpt>
      <trkpt lat="47.676" lon="6.20185">
        <ele>297.56</ele>
        <time>2018-09-05T09:36:14Z</time>
      </trkpt>
      <trkpt lat="47.67605" lon="6.20186">
        <ele>297.6</ele>
        <time>2018-09-05T09:36:15Z</time>
      </trkpt>
      <trkpt lat="47.6761" lon="6.20187">
        <ele>297.64</ele>
        <time>2018-09-05T09:36:16Z</time>
      </trkpt>
      <trkpt lat="47.67614" lon="6.20189">
        <ele>297.68</ele>
        <time>2018-09-05T09:36:17Z</time>
      </trkpt>
      <trkpt lat="47.67619" lon="6.2019">
        <ele>297.73</ele>
        <time>2018-09-05T09:36:18Z</time>
      </trkpt>
      <trkpt lat="47.67623" lon="6.20192">
        <ele>297.8</ele>
        <time>2018-09-05T09:36:19Z</time>
      </trkpt>
      <trkpt lat="47.67631" lon="6.20195">
        <ele>297.94</ele>
        <time>2018-09-05T09:36:21Z</time>
      </trkpt>
      <trkpt lat="47.67638" lon="6.20199">
        <ele>298.11</ele>
        <time>2018-09-05T09:36:23Z</time>
      </trkpt>
      <trkpt lat="47.67643" lon="6.20201">
        <ele>298.29</ele>
        <time>2018-09-05T09:36:25Z</time>
      </trkpt>
      <trkpt lat="47.67648" lon="6.20202">
        <ele>298.49</ele>
        <time>2018-09-05T09:36:27Z</time>
      </trkpt>
      <trkpt lat="47.67653" lon="6.20205">
        <ele>298.7</ele>
        <time>2018-09-05T09:36:29Z</time>
      </trkpt>
      <trkpt lat="47.67658" lon="6.20208">
        <ele>299.04</ele>
        <time>2018-09-05T09:36:32Z</time>
      </trkpt>
      <trkpt lat="47.67663" lon="6.2021">
        <ele>299.44</ele>
        <time>2018-09-05T09:36:35Z</time>
      </trkpt>
      <trkpt lat="47.67667" lon="6.20212">
        <ele>299.87</ele>
        <time>2018-09-05T09:36:38Z</time>
      </trkpt>
      <trkpt lat="47.67672" lon="6.20215">
        <ele>300.31</ele>
        <time>2018-09-05T09:36:41Z</time>
      </trkpt>
      <trkpt lat="47.67676" lon="6.20217">
        <ele>300.76</ele>
        <time>2018-09-05T09:36:44Z</time>
      </trkpt>
      <trkpt lat="47.67681" lon="6.20218">
        <ele>301.22</ele>
        <time>2018-09-05T09:36:47Z</time>
      </trkpt>
      <trkpt lat="47.67686" lon="6.2022">
        <ele>301.71</ele>
        <time>2018-09-05T09:36:50Z</time>
      </trkpt>
      <trkpt lat="47.67691" lon="6.20223">
        <ele>302.21</ele>
        <time>2018-09-05T09:36:53Z</time>
      </trkpt>
      <trkpt lat="47.67696" lon="6.20227">
        <ele>302.72</ele>
        <time>2018-09-05T09:36:56Z</time>
      </trkpt>
      <trkpt lat="47.67702" lon="6.2023">
        <ele>303.29</ele>
        <time>2018-09-05T09:36:59Z</time>
      </trkpt>
      <trkpt lat="47.67708" lon="6.20233">
        <ele>303.89</ele>
        <time>2018-09-05T09:37:02Z</time>
      </trkpt>
      <trkpt lat="47.67714" lon="6.20236">
        <ele>304.52</ele>
        <time>2018-09-05T09:37:05Z</time>
      </trkpt>
      <trkpt lat="47.67719" lon="6.2024">
        <ele>305.22</ele>
        <time>2018-09-05T09:37:08Z</time>
      </trkpt>
      <trkpt lat="47.67725" lon="6.20242">
        <ele>305.99</ele>
        <time>2018-09-05T09:37:11Z</time>
      </trkpt>
      <trkpt lat="47.6773" lon="6.20241">
        <ele>306.82</ele>
        <time>2018-09-05T09:37:14Z</time>
      </trkpt>
      <trkpt lat="47.67734" lon="6.20241">
        <ele>307.68</ele>
        <time>2018-09-05T09:37:17Z</time>
      </trkpt>
      <trkpt lat="47.67739" lon="6.20241">
        <ele>308.83</ele>
        <time>2018-09-05T09:37:21Z</time>
      </trkpt>
      <trkpt lat="47.67745" lon="6.2024">
        <ele>309.92</ele>
        <time>2018-09-05T09:37:25Z</time>
      </trkpt>
      <trkpt lat="47.6775" lon="6.20239">
        <ele>310.7</ele>
        <time>2018-09-05T09:37:28Z</time>
      </trkpt>
      <trkpt lat="47.67755" lon="6.2024">
        <ele>311.45</ele>
        <time>2018-09-05T09:37:31Z</time>
      </trkpt>
      <trkpt lat="47.67761" lon="6.2024">
        <ele>312.17</ele>
        <time>2018-09-05T09:37:34Z</time>
      </trkpt>
      <trkpt lat="47.67766" lon="6.2024">
        <ele>312.88</ele>
        <time>2018-09-05T09:37:37Z</time>
      </trkpt>
      <trkpt lat="47.67771" lon="6.20239">
        <ele>314.01</ele>
        <time>2018-09-05T09:37:42Z</time>
      </trkpt>
      <trkpt lat="47.67776" lon="6.20238">
        <ele>314.83</ele>
        <time>2018-09-05T09:37:46Z</time>
      </trkpt>
      <trkpt lat="47.67781" lon="6.20237">
        <ele>315.57</ele>
        <time>2018-09-05T09:37:50Z</time>
      </trkpt>
      <trkpt lat="47.67786" lon="6.20235">
        <ele>316.1</ele>
        <time>2018-09-05T09:37:53Z</time>
      </trkpt>
      <trkpt lat="47.6779" lon="6.20233">
        <ele>316.61</ele>
        <time>2018-09-05T09:37:56Z</time>
      </trkpt>
      <trkpt lat="47.67795" lon="6.20231">
        <ele>317.11</ele>
        <time>2018-09-05T09:37:59Z</time>
      </trkpt>
      <trkpt lat="47.678" lon="6.20226">
        <ele>317.74</ele>
        <time>2018-09-05T09:38:03Z</time>
      </trkpt>
      <trkpt lat="47.67803" lon="6.20221">
        <ele>318.18</ele>
        <time>2018-09-05T09:38:06Z</time>
      </trkpt>
      <trkpt lat="47.67806" lon="6.20216">
        <ele>318.62</ele>
        <time>2018-09-05T09:38:09Z</time>
      </trkpt>
      <trkpt lat="47.67809" lon="6.2021">
        <ele>319.06</ele>
        <time>2018-09-05T09:38:12Z</time>
      </trkpt>
      <trkpt lat="47.67812" lon="6.20205">
        <ele>319.48</ele>
        <time>2018-09-05T09:38:15Z</time>
      </trkpt>
      <trkpt lat="47.67817" lon="6.202">
        <ele>319.9</ele>
        <time>2018-09-05T09:38:18Z</time>
      </trkpt>
      <trkpt lat="47.67822" lon="6.20195">
        <ele>320.32</ele>
        <time>2018-09-05T09:38:21Z</time>
      </trkpt>
      <trkpt lat="47.67828" lon="6.20191">
        <ele>320.74</ele>
        <time>2018-09-05T09:38:24Z</time>
      </trkpt>
      <trkpt lat="47.67834" lon="6.20188">
        <ele>321.16</ele>
        <time>2018-09-05T09:38:27Z</time>
      </trkpt>
      <trkpt lat="47.67839" lon="6.20186">
        <ele>321.57</ele>
        <time>2018-09-05T09:38:30Z</time>
      </trkpt>
      <trkpt lat="47.67845" lon="6.20188">
        <ele>321.97</ele>
        <time>2018-09-05T09:38:33Z</time>
      </trkpt>
      <trkpt lat="47.67849" lon="6.20191">
        <ele>322.37</ele>
        <time>2018-09-05T09:38:36Z</time>
      </trkpt>
      <trkpt lat="47.67853" lon="6.20195">
        <ele>322.87</ele>
        <time>2018-09-05T09:38:40Z</time>
      </trkpt>
      <trkpt lat="47.67858" lon="6.20201">
        <ele>323.47</ele>
        <time>2018-09-05T09:38:45Z</time>
      </trkpt>
      <trkpt lat="47.67862" lon="6.20206">
        <ele>323.92</ele>
        <time>2018-09-05T09:38:49Z</time>
      </trkpt>
      <trkpt lat="47.67867" lon="6.20211">
        <ele>324.34</ele>
        <time>2018-09-05T09:38:53Z</time>
      </trkpt>
      <trkpt lat="47.67871" lon="6.20216">
        <ele>324.65</ele>
        <time>2018-09-05T09:38:56Z</time>
      </trkpt>
      <trkpt lat="47.67875" lon="6.20219">
        <ele>324.94</ele>
        <time>2018-09-05T09:38:59Z</time>
      </trkpt>
      <trkpt lat="47.6788" lon="6.20223">
        <ele>325.22</ele>
        <time>2018-09-05T09:39:02Z</time>
      </trkpt>
      <trkpt lat="47.67885" lon="6.20226">
        <ele>325.59</ele>
        <time>2018-09-05T09:39:06Z</time>
      </trkpt>
      <trkpt lat="47.67889" lon="6.20229">
        <ele>325.85</ele>
        <time>2018-09-05T09:39:09Z</time>
      </trkpt>
      <trkpt lat="47.67894" lon="6.20234">
        <ele>326.19</ele>
        <time>2018-09-05T09:39:13Z</time>
      </trkpt>
      <trkpt lat="47.67898" lon="6.20238">
        <ele>326.51</ele>
        <time>2018-09-05T09:39:17Z</time>
      </trkpt>
      <trkpt lat="47.67902" lon="6.20242">
        <ele>326.76</ele>
        <time>2018-09-05T09:39:20Z</time>
      </trkpt>
      <trkpt lat="47.67907" lon="6.20246">
        <ele>326.99</ele>
        <time>2018-09-05T09:39:23Z</time>
      </trkpt>
      <trkpt lat="47.67911" lon="6.2025">
        <ele>327.22</ele>
        <time>2018-09-05T09:39:26Z</time>
      </trkpt>
      <trkpt lat="47.67915" lon="6.20254">
        <ele>327.44</ele>
        <time>2018-09-05T09:39:29Z</time>
      </trkpt>
      <trkpt lat="47.67921" lon="6.20259">
        <ele>327.73</ele>
        <time>2018-09-05T09:39:33Z</time>
      </trkpt>
      <trkpt lat="47.67925" lon="6.20263">
        <ele>327.93</ele>
        <time>2018-09-05T09:39:36Z</time>
      </trkpt>
      <trkpt lat="47.6793" lon="6.20267">
        <ele>328.2</ele>
        <time>2018-09-05T09:39:40Z</time>
      </trkpt>
      <trkpt lat="47.67933" lon="6.20271">
        <ele>328.46</ele>
        <time>2018-09-05T09:39:44Z</time>
      </trkpt>
      <trkpt lat="47.67937" lon="6.20275">
        <ele>328.65</ele>
        <time>2018-09-05T09:39:47Z</time>
      </trkpt>
      <trkpt lat="47.67942" lon="6.20278">
        <ele>328.9</ele>
        <time>2018-09-05T09:39:51Z</time>
      </trkpt>
      <trkpt lat="47.67948" lon="6.20282">
        <ele>329.14</ele>
        <time>2018-09-05T09:39:55Z</time>
      </trkpt>
      <trkpt lat="47.67954" lon="6.20286">
        <ele>329.38</ele>
        <time>2018-09-05T09:39:59Z</time>
      </trkpt>
      <trkpt lat="47.67958" lon="6.20289">
        <ele>329.55</ele>
        <time>2018-09-05T09:40:02Z</time>
      </trkpt>
      <trkpt lat="47.67963" lon="6.20292">
        <ele>329.72</ele>
        <time>2018-09-05T09:40:05Z</time>
      </trkpt>
      <trkpt lat="47.67969" lon="6.20295">
        <ele>329.88</ele>
        <time>2018-09-05T09:40:08Z</time>
      </trkpt>
      <trkpt lat="47.67976" lon="6.20298">
        <ele>330.04</ele>
        <time>2018-09-05T09:40:11Z</time>
      </trkpt>
      <trkpt lat="47.67981" lon="6.203">
        <ele>330.15</ele>
        <time>2018-09-05T09:40:13Z</time>
      </trkpt>
      <trkpt lat="47.67986" lon="6.20302">
        <ele>330.25</ele>
        <time>2018-09-05T09:40:15Z</time>
      </trkpt>
      <trkpt lat="47.67992" lon="6.20305">
        <ele>330.35</ele>
        <time>2018-09-05T09:40:17Z</time>
      </trkpt>
      <trkpt lat="47.67998" lon="6.20307">
        <ele>330.45</ele>
        <time>2018-09-05T09:40:19Z</time>
      </trkpt>
      <trkpt lat="47.68003" lon="6.20309">
        <ele>330.55</ele>
        <time>2018-09-05T09:40:21Z</time>
      </trkpt>
      <trkpt lat="47.68009" lon="6.20312">
        <ele>330.65</ele>
        <time>2018-09-05T09:40:23Z</time>
      </trkpt>
      <trkpt lat="47.68015" lon="6.20315">
        <ele>330.75</ele>
        <time>2018-09-05T09:40:25Z</time>
      </trkpt>
      <trkpt lat="47.68022" lon="6.20317">
        <ele>330.84</ele>
        <time>2018-09-05T09:40:27Z</time>
      </trkpt>
      <trkpt lat="47.68027" lon="6.20319">
        <ele>330.93</ele>
        <time>2018-09-05T09:40:29Z</time>
      </trkpt>
      <trkpt lat="47.68032" lon="6.20322">
        <ele>331.02</ele>
        <time>2018-09-05T09:40:31Z</time>
      </trkpt>
      <trkpt lat="47.68038" lon="6.20324">
        <ele>331.11</ele>
        <time>2018-09-05T09:40:33Z</time>
      </trkpt>
      <trkpt lat="47.68044" lon="6.20327">
        <ele>331.2</ele>
        <time>2018-09-05T09:40:35Z</time>
      </trkpt>
      <trkpt lat="47.6805" lon="6.20329">
        <ele>331.29</ele>
        <time>2018-09-05T09:40:37Z</time>
      </trkpt>
      <trkpt lat="47.68055" lon="6.20331">
        <ele>331.37</ele>
        <time>2018-09-05T09:40:39Z</time>
      </trkpt>
      <trkpt lat="47.68061" lon="6.20333">
        <ele>331.45</ele>
        <time>2018-09-05T09:40:41Z</time>
      </trkpt>
      <trkpt lat="47.68066" lon="6.20335">
        <ele>331.53</ele>
        <time>2018-09-05T09:40:43Z</time>
      </trkpt>
      <trkpt lat="47.68071" lon="6.20337">
        <ele>331.61</ele>
        <time>2018-09-05T09:40:45Z</time>
      </trkpt>
      <trkpt lat="47.68076" lon="6.2034">
        <ele>331.69</ele>
        <time>2018-09-05T09:40:47Z</time>
      </trkpt>
      <trkpt lat="47.68081" lon="6.20341">
        <ele>331.77</ele>
        <time>2018-09-05T09:40:49Z</time>
      </trkpt>
      <trkpt lat="47.68086" lon="6.20343">
        <ele>331.84</ele>
        <time>2018-09-05T09:40:51Z</time>
      </trkpt>
      <trkpt lat="47.68091" lon="6.20345">
        <ele>331.92</ele>
        <time>2018-09-05T09:40:53Z</time>
      </trkpt>
      <trkpt lat="47.68096" lon="6.20346">
        <ele>331.99</ele>
        <time>2018-09-05T09:40:55Z</time>
      </trkpt>
      <trkpt lat="47.681" lon="6.20348">
        <ele>332.07</ele>
        <time>2018-09-05T09:40:57Z</time>
      </trkpt>
      <trkpt lat="47.68105" lon="6.20351">
        <ele>332.14</ele>
        <time>2018-09-05T09:40:59Z</time>
      </trkpt>
      <trkpt lat="47.6811" lon="6.20353">
        <ele>332.21</ele>
        <time>2018-09-05T09:41:01Z</time>
      </trkpt>
      <trkpt lat="47.68115" lon="6.20354">
        <ele>332.28</ele>
        <time>2018-09-05T09:41:03Z</time>
      </trkpt>
      <trkpt lat="47.6812" lon="6.20356">
        <ele>332.35</ele>
        <time>2018-09-05T09:41:05Z</time>
      </trkpt>
      <trkpt lat="47.68125" lon="6.20358">
        <ele>332.42</ele>
        <time>2018-09-05T09:41:07Z</time>
      </trkpt>
      <trkpt lat="47.6813" lon="6.2036">
        <ele>332.48</ele>
        <time>2018-09-05T09:41:09Z</time>
      </trkpt>
      <trkpt lat="47.68135" lon="6.20361">
        <ele>332.55</ele>
        <time>2018-09-05T09:41:11Z</time>
      </trkpt>
      <trkpt lat="47.68141" lon="6.20363">
        <ele>332.81</ele>
        <time>2018-09-05T09:41:13Z</time>
      </trkpt>
      <trkpt lat="47.68149" lon="6.20365">
        <ele>333.26</ele>
        <time>2018-09-05T09:41:15Z</time>
      </trkpt>
      <trkpt lat="47.68158" lon="6.20368">
        <ele>333.57</ele>
        <time>2018-09-05T09:41:17Z</time>
      </trkpt>
      <trkpt lat="47.68174" lon="6.20374">
        <ele>333.67</ele>
        <time>2018-09-05T09:41:18Z</time>
      </trkpt>
      <trkpt lat="47.6818" lon="6.20377">
        <ele>333.76</ele>
        <time>2018-09-05T09:41:19Z</time>
      </trkpt>
      <trkpt lat="47.68186" lon="6.20379">
        <ele>333.83</ele>
        <time>2018-09-05T09:41:20Z</time>
      </trkpt>
      <trkpt lat="47.68192" lon="6.20382">
        <ele>333.88</ele>
        <time>2018-09-05T09:41:21Z</time>
      </trkpt>
      <trkpt lat="47.68197" lon="6.20385">
        <ele>333.93</ele>
        <time>2018-09-05T09:41:22Z</time>
      </trkpt>
      <trkpt lat="47.68203" lon="6.20389">
        <ele>333.95</ele>
        <time>2018-09-05T09:41:24Z</time>
      </trkpt>
      <trkpt lat="47.68207" lon="6.20392">
        <ele>333.95</ele>
        <time>2018-09-05T09:41:27Z</time>
      </trkpt>
      <trkpt lat="47.68212" lon="6.20397">
        <ele>333.95</ele>
        <time>2018-09-05T09:41:31Z</time>
      </trkpt>
      <trkpt lat="47.68216" lon="6.204">
        <ele>333.95</ele>
        <time>2018-09-05T09:41:34Z</time>
      </trkpt>
      <trkpt lat="47.68222" lon="6.20405">
        <ele>333.94</ele>
        <time>2018-09-05T09:41:37Z</time>
      </trkpt>
      <trkpt lat="47.68226" lon="6.20408">
        <ele>333.94</ele>
        <time>2018-09-05T09:41:39Z</time>
      </trkpt>
      <trkpt lat="47.68231" lon="6.2041">
        <ele>333.93</ele>
        <time>2018-09-05T09:41:41Z</time>
      </trkpt>
      <trkpt lat="47.68235" lon="6.20413">
        <ele>333.93</ele>
        <time>2018-09-05T09:41:43Z</time>
      </trkpt>
      <trkpt lat="47.6824" lon="6.20416">
        <ele>333.92</ele>
        <time>2018-09-05T09:41:46Z</time>
      </trkpt>
      <trkpt lat="47.68244" lon="6.2042">
        <ele>333.9</ele>
        <time>2018-09-05T09:41:49Z</time>
      </trkpt>
      <trkpt lat="47.6825" lon="6.20425">
        <ele>333.88</ele>
        <time>2018-09-05T09:41:52Z</time>
      </trkpt>
      <trkpt lat="47.68255" lon="6.20427">
        <ele>333.87</ele>
        <time>2018-09-05T09:41:54Z</time>
      </trkpt>
      <trkpt lat="47.6826" lon="6.2043">
        <ele>333.86</ele>
        <time>2018-09-05T09:41:56Z</time>
      </trkpt>
      <trkpt lat="47.68267" lon="6.20433">
        <ele>333.85</ele>
        <time>2018-09-05T09:41:58Z</time>
      </trkpt>
      <trkpt lat="47.68275" lon="6.20437">
        <ele>333.84</ele>
        <time>2018-09-05T09:42:00Z</time>
      </trkpt>
      <trkpt lat="47.6828" lon="6.2044">
        <ele>333.83</ele>
        <time>2018-09-05T09:42:02Z</time>
      </trkpt>
      <trkpt lat="47.68285" lon="6.20442">
        <ele>333.83</ele>
        <time>2018-09-05T09:42:04Z</time>
      </trkpt>
      <trkpt lat="47.68289" lon="6.20445">
        <ele>333.82</ele>
        <time>2018-09-05T09:42:06Z</time>
      </trkpt>
      <trkpt lat="47.68295" lon="6.20448">
        <ele>333.83</ele>
        <time>2018-09-05T09:42:09Z</time>
      </trkpt>
      <trkpt lat="47.683" lon="6.20451">
        <ele>333.84</ele>
        <time>2018-09-05T09:42:12Z</time>
      </trkpt>
      <trkpt lat="47.68306" lon="6.20455">
        <ele>333.86</ele>
        <time>2018-09-05T09:42:15Z</time>
      </trkpt>
      <trkpt lat="47.68311" lon="6.20458">
        <ele>333.87</ele>
        <time>2018-09-05T09:42:17Z</time>
      </trkpt>
      <trkpt lat="47.68316" lon="6.20461">
        <ele>333.88</ele>
        <time>2018-09-05T09:42:19Z</time>
      </trkpt>
      <trkpt lat="47.68322" lon="6.20465">
        <ele>333.92</ele>
        <time>2018-09-05T09:42:21Z</time>
      </trkpt>
      <trkpt lat="47.68329" lon="6.20469">
        <ele>333.99</ele>
        <time>2018-09-05T09:42:23Z</time>
      </trkpt>
      <trkpt lat="47.68336" lon="6.20473">
        <ele>334.03</ele>
        <time>2018-09-05T09:42:25Z</time>
      </trkpt>
      <trkpt lat="47.68344" lon="6.20479">
        <ele>334.04</ele>
        <time>2018-09-05T09:42:27Z</time>
      </trkpt>
      <trkpt lat="47.68349" lon="6.20481">
        <ele>334.04</ele>
        <time>2018-09-05T09:42:28Z</time>
      </trkpt>
      <trkpt lat="47.68365" lon="6.20491">
        <ele>334.04</ele>
        <time>2018-09-05T09:42:30Z</time>
      </trkpt>
      <trkpt lat="47.68373" lon="6.20495">
        <ele>334.04</ele>
        <time>2018-09-05T09:42:32Z</time>
      </trkpt>
      <trkpt lat="47.6838" lon="6.205">
        <ele>334.02</ele>
        <time>2018-09-05T09:42:34Z</time>
      </trkpt>
      <trkpt lat="47.68387" lon="6.20504">
        <ele>334.01</ele>
        <time>2018-09-05T09:42:36Z</time>
      </trkpt>
      <trkpt lat="47.68396" lon="6.20508">
        <ele>334</ele>
        <time>2018-09-05T09:42:38Z</time>
      </trkpt>
      <trkpt lat="47.684" lon="6.2051">
        <ele>334.01</ele>
        <time>2018-09-05T09:42:40Z</time>
      </trkpt>
      <trkpt lat="47.68406" lon="6.20514">
        <ele>334.01</ele>
        <time>2018-09-05T09:42:43Z</time>
      </trkpt>
      <trkpt lat="47.68411" lon="6.20518">
        <ele>334.01</ele>
        <time>2018-09-05T09:42:45Z</time>
      </trkpt>
      <trkpt lat="47.68418" lon="6.20522">
        <ele>334.02</ele>
        <time>2018-09-05T09:42:47Z</time>
      </trkpt>
      <trkpt lat="47.68424" lon="6.20527">
        <ele>334.03</ele>
        <time>2018-09-05T09:42:49Z</time>
      </trkpt>
      <trkpt lat="47.68428" lon="6.20531">
        <ele>334.03</ele>
        <time>2018-09-05T09:42:51Z</time>
      </trkpt>
      <trkpt lat="47.68433" lon="6.20536">
        <ele>334.04</ele>
        <time>2018-09-05T09:42:53Z</time>
      </trkpt>
      <trkpt lat="47.68439" lon="6.20542">
        <ele>334.04</ele>
        <time>2018-09-05T09:42:55Z</time>
      </trkpt>
      <trkpt lat="47.68443" lon="6.20547">
        <ele>334.03</ele>
        <time>2018-09-05T09:42:57Z</time>
      </trkpt>
      <trkpt lat="47.68448" lon="6.20551">
        <ele>334.03</ele>
        <time>2018-09-05T09:42:59Z</time>
      </trkpt>
      <trkpt lat="47.68452" lon="6.20555">
        <ele>334.02</ele>
        <time>2018-09-05T09:43:01Z</time>
      </trkpt>
      <trkpt lat="47.68457" lon="6.20562">
        <ele>334.01</ele>
        <time>2018-09-05T09:43:04Z</time>
      </trkpt>
      <trkpt lat="47.68461" lon="6.20567">
        <ele>334</ele>
        <time>2018-09-05T09:43:07Z</time>
      </trkpt>
      <trkpt lat="47.68466" lon="6.20572">
        <ele>333.99</ele>
        <time>2018-09-05T09:43:10Z</time>
      </trkpt>
      <trkpt lat="47.68471" lon="6.20576">
        <ele>333.99</ele>
        <time>2018-09-05T09:43:13Z</time>
      </trkpt>
      <trkpt lat="47.68475" lon="6.2058">
        <ele>333.99</ele>
        <time>2018-09-05T09:43:16Z</time>
      </trkpt>
      <trkpt lat="47.68479" lon="6.20585">
        <ele>333.98</ele>
        <time>2018-09-05T09:43:19Z</time>
      </trkpt>
      <trkpt lat="47.68482" lon="6.2059">
        <ele>333.97</ele>
        <time>2018-09-05T09:43:22Z</time>
      </trkpt>
      <trkpt lat="47.68486" lon="6.20595">
        <ele>333.96</ele>
        <time>2018-09-05T09:43:25Z</time>
      </trkpt>
      <trkpt lat="47.68489" lon="6.20602">
        <ele>333.95</ele>
        <time>2018-09-05T09:43:28Z</time>
      </trkpt>
      <trkpt lat="47.68493" lon="6.20609">
        <ele>333.94</ele>
        <time>2018-09-05T09:43:31Z</time>
      </trkpt>
      <trkpt lat="47.68497" lon="6.20616">
        <ele>333.93</ele>
        <time>2018-09-05T09:43:34Z</time>
      </trkpt>
      <trkpt lat="47.68501" lon="6.20621">
        <ele>333.92</ele>
        <time>2018-09-05T09:43:36Z</time>
      </trkpt>
      <trkpt lat="47.68505" lon="6.20627">
        <ele>333.91</ele>
        <time>2018-09-05T09:43:39Z</time>
      </trkpt>
      <trkpt lat="47.6851" lon="6.20633">
        <ele>333.9</ele>
        <time>2018-09-05T09:43:42Z</time>
      </trkpt>
      <trkpt lat="47.68514" lon="6.20639">
        <ele>333.89</ele>
        <time>2018-09-05T09:43:45Z</time>
      </trkpt>
      <trkpt lat="47.68518" lon="6.20644">
        <ele>333.88</ele>
        <time>2018-09-05T09:43:48Z</time>
      </trkpt>
      <trkpt lat="47.68522" lon="6.20651">
        <ele>333.88</ele>
        <time>2018-09-05T09:43:51Z</time>
      </trkpt>
      <trkpt lat="47.68525" lon="6.20656">
        <ele>333.88</ele>
        <time>2018-09-05T09:43:53Z</time>
      </trkpt>
      <trkpt lat="47.68529" lon="6.20663">
        <ele>333.89</ele>
        <time>2018-09-05T09:43:56Z</time>
      </trkpt>
      <trkpt lat="47.68532" lon="6.20669">
        <ele>333.9</ele>
        <time>2018-09-05T09:43:59Z</time>
      </trkpt>
      <trkpt lat="47.68535" lon="6.20675">
        <ele>333.92</ele>
        <time>2018-09-05T09:44:02Z</time>
      </trkpt>
      <trkpt lat="47.68538" lon="6.20682">
        <ele>333.94</ele>
        <time>2018-09-05T09:44:05Z</time>
      </trkpt>
      <trkpt lat="47.68544" lon="6.20688">
        <ele>333.98</ele>
        <time>2018-09-05T09:44:08Z</time>
      </trkpt>
      <trkpt lat="47.68548" lon="6.20693">
        <ele>334.01</ele>
        <time>2018-09-05T09:44:10Z</time>
      </trkpt>
      <trkpt lat="47.68551" lon="6.20698">
        <ele>334.04</ele>
        <time>2018-09-05T09:44:12Z</time>
      </trkpt>
      <trkpt lat="47.68555" lon="6.20702">
        <ele>334.07</ele>
        <time>2018-09-05T09:44:14Z</time>
      </trkpt>
      <trkpt lat="47.68559" lon="6.20708">
        <ele>334.13</ele>
        <time>2018-09-05T09:44:17Z</time>
      </trkpt>
      <trkpt lat="47.68562" lon="6.20714">
        <ele>334.17</ele>
        <time>2018-09-05T09:44:19Z</time>
      </trkpt>
      <trkpt lat="47.68567" lon="6.20721">
        <ele>334.23</ele>
        <time>2018-09-05T09:44:22Z</time>
      </trkpt>
      <trkpt lat="47.68571" lon="6.20727">
        <ele>334.3</ele>
        <time>2018-09-05T09:44:25Z</time>
      </trkpt>
      <trkpt lat="47.68575" lon="6.20734">
        <ele>334.38</ele>
        <time>2018-09-05T09:44:28Z</time>
      </trkpt>
      <trkpt lat="47.68579" lon="6.20741">
        <ele>334.46</ele>
        <time>2018-09-05T09:44:31Z</time>
      </trkpt>
      <trkpt lat="47.68583" lon="6.20748">
        <ele>334.55</ele>
        <time>2018-09-05T09:44:34Z</time>
      </trkpt>
      <trkpt lat="47.68586" lon="6.20755">
        <ele>334.63</ele>
        <time>2018-09-05T09:44:37Z</time>
      </trkpt>
      <trkpt lat="47.6859" lon="6.20761">
        <ele>334.72</ele>
        <time>2018-09-05T09:44:40Z</time>
      </trkpt>
      <trkpt lat="47.68595" lon="6.20768">
        <ele>334.81</ele>
        <time>2018-09-05T09:44:43Z</time>
      </trkpt>
      <trkpt lat="47.68599" lon="6.20776">
        <ele>334.9</ele>
        <time>2018-09-05T09:44:46Z</time>
      </trkpt>
      <trkpt lat="47.68604" lon="6.20783">
        <ele>334.99</ele>
        <time>2018-09-05T09:44:49Z</time>
      </trkpt>
      <trkpt lat="47.68607" lon="6.20789">
        <ele>335.08</ele>
        <time>2018-09-05T09:44:52Z</time>
      </trkpt>
      <trkpt lat="47.6861" lon="6.20796">
        <ele>335.17</ele>
        <time>2018-09-05T09:44:55Z</time>
      </trkpt>
      <trkpt lat="47.68613" lon="6.20804">
        <ele>335.27</ele>
        <time>2018-09-05T09:44:58Z</time>
      </trkpt>
      <trkpt lat="47.68616" lon="6.20811">
        <ele>335.38</ele>
        <time>2018-09-05T09:45:01Z</time>
      </trkpt>
      <trkpt lat="47.68619" lon="6.20817">
        <ele>335.49</ele>
        <time>2018-09-05T09:45:04Z</time>
      </trkpt>
      <trkpt lat="47.68622" lon="6.20823">
        <ele>335.61</ele>
        <time>2018-09-05T09:45:07Z</time>
      </trkpt>
      <trkpt lat="47.68625" lon="6.2083">
        <ele>335.74</ele>
        <time>2018-09-05T09:45:10Z</time>
      </trkpt>
      <trkpt lat="47.68628" lon="6.20837">
        <ele>335.9</ele>
        <time>2018-09-05T09:45:14Z</time>
      </trkpt>
      <trkpt lat="47.68632" lon="6.20844">
        <ele>336.03</ele>
        <time>2018-09-05T09:45:17Z</time>
      </trkpt>
      <trkpt lat="47.68637" lon="6.20851">
        <ele>336.14</ele>
        <time>2018-09-05T09:45:20Z</time>
      </trkpt>
      <trkpt lat="47.68641" lon="6.20859">
        <ele>336.26</ele>
        <time>2018-09-05T09:45:23Z</time>
      </trkpt>
      <trkpt lat="47.68646" lon="6.20866">
        <ele>336.38</ele>
        <time>2018-09-05T09:45:26Z</time>
      </trkpt>
      <trkpt lat="47.68649" lon="6.20871">
        <ele>336.51</ele>
        <time>2018-09-05T09:45:29Z</time>
      </trkpt>
      <trkpt lat="47.68653" lon="6.20876">
        <ele>336.64</ele>
        <time>2018-09-05T09:45:32Z</time>
      </trkpt>
      <trkpt lat="47.68658" lon="6.20881">
        <ele>336.77</ele>
        <time>2018-09-05T09:45:35Z</time>
      </trkpt>
      <trkpt lat="47.68663" lon="6.20887">
        <ele>336.92</ele>
        <time>2018-09-05T09:45:38Z</time>
      </trkpt>
      <trkpt lat="47.68668" lon="6.20892">
        <ele>337.06</ele>
        <time>2018-09-05T09:45:41Z</time>
      </trkpt>
      <trkpt lat="47.68674" lon="6.20895">
        <ele>337.2</ele>
        <time>2018-09-05T09:45:44Z</time>
      </trkpt>
      <trkpt lat="47.68678" lon="6.20899">
        <ele>337.3</ele>
        <time>2018-09-05T09:45:46Z</time>
      </trkpt>
      <trkpt lat="47.68684" lon="6.20902">
        <ele>337.44</ele>
        <time>2018-09-05T09:45:49Z</time>
      </trkpt>
      <trkpt lat="47.68689" lon="6.20904">
        <ele>337.53</ele>
        <time>2018-09-05T09:45:51Z</time>
      </trkpt>
      <trkpt lat="47.68694" lon="6.20907">
        <ele>337.63</ele>
        <time>2018-09-05T09:45:53Z</time>
      </trkpt>
      <trkpt lat="47.687" lon="6.20909">
        <ele>337.71</ele>
        <time>2018-09-05T09:45:55Z</time>
      </trkpt>
      <trkpt lat="47.68707" lon="6.2091">
        <ele>337.8</ele>
        <time>2018-09-05T09:45:57Z</time>
      </trkpt>
      <trkpt lat="47.68712" lon="6.20911">
        <ele>337.83</ele>
        <time>2018-09-05T09:45:58Z</time>
      </trkpt>
      <trkpt lat="47.68721" lon="6.20912">
        <ele>337.91</ele>
        <time>2018-09-05T09:46:00Z</time>
      </trkpt>
      <trkpt lat="47.6873" lon="6.20912">
        <ele>337.98</ele>
        <time>2018-09-05T09:46:02Z</time>
      </trkpt>
      <trkpt lat="47.68739" lon="6.20913">
        <ele>338.05</ele>
        <time>2018-09-05T09:46:04Z</time>
      </trkpt>
      <trkpt lat="47.68743" lon="6.20913">
        <ele>338.08</ele>
        <time>2018-09-05T09:46:05Z</time>
      </trkpt>
      <trkpt lat="47.68749" lon="6.20914">
        <ele>338.11</ele>
        <time>2018-09-05T09:46:06Z</time>
      </trkpt>
      <trkpt lat="47.68754" lon="6.20915">
        <ele>338.14</ele>
        <time>2018-09-05T09:46:07Z</time>
      </trkpt>
      <trkpt lat="47.6876" lon="6.20916">
        <ele>338.17</ele>
        <time>2018-09-05T09:46:08Z</time>
      </trkpt>
      <trkpt lat="47.68766" lon="6.20918">
        <ele>338.2</ele>
        <time>2018-09-05T09:46:09Z</time>
      </trkpt>
      <trkpt lat="47.6877" lon="6.20919">
        <ele>338.23</ele>
        <time>2018-09-05T09:46:10Z</time>
      </trkpt>
      <trkpt lat="47.68775" lon="6.20921">
        <ele>338.26</ele>
        <time>2018-09-05T09:46:11Z</time>
      </trkpt>
      <trkpt lat="47.6878" lon="6.20924">
        <ele>338.29</ele>
        <time>2018-09-05T09:46:12Z</time>
      </trkpt>
      <trkpt lat="47.68786" lon="6.20926">
        <ele>338.31</ele>
        <time>2018-09-05T09:46:13Z</time>
      </trkpt>
      <trkpt lat="47.68791" lon="6.20928">
        <ele>338.34</ele>
        <time>2018-09-05T09:46:14Z</time>
      </trkpt>
      <trkpt lat="47.68796" lon="6.20929">
        <ele>338.37</ele>
        <time>2018-09-05T09:46:15Z</time>
      </trkpt>
      <trkpt lat="47.68803" lon="6.20928">
        <ele>338.42</ele>
        <time>2018-09-05T09:46:17Z</time>
      </trkpt>
      <trkpt lat="47.68809" lon="6.20926">
        <ele>338.49</ele>
        <time>2018-09-05T09:46:20Z</time>
      </trkpt>
      <trkpt lat="47.68814" lon="6.20922">
        <ele>338.57</ele>
        <time>2018-09-05T09:46:24Z</time>
      </trkpt>
      <trkpt lat="47.68817" lon="6.20916">
        <ele>338.65</ele>
        <time>2018-09-05T09:46:28Z</time>
      </trkpt>
      <trkpt lat="47.68818" lon="6.20909">
        <ele>338.7</ele>
        <time>2018-09-05T09:46:31Z</time>
      </trkpt>
      <trkpt lat="47.68818" lon="6.209">
        <ele>338.75</ele>
        <time>2018-09-05T09:46:34Z</time>
      </trkpt>
      <trkpt lat="47.68819" lon="6.20892">
        <ele>338.8</ele>
        <time>2018-09-05T09:46:37Z</time>
      </trkpt>
      <trkpt lat="47.68822" lon="6.20885">
        <ele>338.85</ele>
        <time>2018-09-05T09:46:40Z</time>
      </trkpt>
      <trkpt lat="47.68825" lon="6.20877">
        <ele>338.9</ele>
        <time>2018-09-05T09:46:43Z</time>
      </trkpt>
      <trkpt lat="47.68827" lon="6.2087">
        <ele>338.96</ele>
        <time>2018-09-05T09:46:47Z</time>
      </trkpt>
      <trkpt lat="47.68829" lon="6.20864">
        <ele>339.02</ele>
        <time>2018-09-05T09:46:51Z</time>
      </trkpt>
      <trkpt lat="47.68829" lon="6.20856">
        <ele>339.08</ele>
        <time>2018-09-05T09:46:55Z</time>
      </trkpt>
      <trkpt lat="47.6883" lon="6.20847">
        <ele>339.14</ele>
        <time>2018-09-05T09:46:59Z</time>
      </trkpt>
      <trkpt lat="47.68831" lon="6.20839">
        <ele>339.21</ele>
        <time>2018-09-05T09:47:03Z</time>
      </trkpt>
      <trkpt lat="47.68833" lon="6.2083">
        <ele>339.28</ele>
        <time>2018-09-05T09:47:07Z</time>
      </trkpt>
      <trkpt lat="47.68833" lon="6.20823">
        <ele>339.36</ele>
        <time>2018-09-05T09:47:11Z</time>
      </trkpt>
      <trkpt lat="47.68834" lon="6.20816">
        <ele>339.43</ele>
        <time>2018-09-05T09:47:15Z</time>
      </trkpt>
      <trkpt lat="47.68838" lon="6.20812">
        <ele>339.45</ele>
        <time>2018-09-05T09:47:18Z</time>
      </trkpt>
      <trkpt lat="47.68842" lon="6.2081">
        <ele>339.49</ele>
        <time>2018-09-05T09:47:31Z</time>
      </trkpt>
      <trkpt lat="47.68847" lon="6.20812">
        <ele>339.87</ele>
        <time>2018-09-05T09:50:05Z</time>
      </trkpt>
      <trkpt lat="47.68845" lon="6.20805">
        <ele>339.92</ele>
        <time>2018-09-05T09:51:08Z</time>
      </trkpt>
      <trkpt lat="47.68844" lon="6.20798">
        <ele>339.92</ele>
        <time>2018-09-05T09:51:10Z</time>
      </trkpt>
      <trkpt lat="47.68842" lon="6.20791">
        <ele>339.92</ele>
        <time>2018-09-05T09:51:12Z</time>
      </trkpt>
      <trkpt lat="47.6884" lon="6.20784">
        <ele>339.92</ele>
        <time>2018-09-05T09:51:14Z</time>
      </trkpt>
      <trkpt lat="47.68836" lon="6.20777">
        <ele>339.91</ele>
        <time>2018-09-05T09:51:17Z</time>
      </trkpt>
      <trkpt lat="47.68832" lon="6.20771">
        <ele>339.91</ele>
        <time>2018-09-05T09:51:20Z</time>
      </trkpt>
      <trkpt lat="47.68828" lon="6.20766">
        <ele>339.9</ele>
        <time>2018-09-05T09:51:24Z</time>
      </trkpt>
      <trkpt lat="47.68824" lon="6.2076">
        <ele>339.89</ele>
        <time>2018-09-05T09:51:28Z</time>
      </trkpt>
      <trkpt lat="47.68821" lon="6.20754">
        <ele>339.88</ele>
        <time>2018-09-05T09:51:32Z</time>
      </trkpt>
      <trkpt lat="47.68818" lon="6.20748">
        <ele>339.88</ele>
        <time>2018-09-05T09:51:36Z</time>
      </trkpt>
      <trkpt lat="47.68817" lon="6.2074">
        <ele>339.88</ele>
        <time>2018-09-05T09:51:40Z</time>
      </trkpt>
      <trkpt lat="47.68815" lon="6.20734">
        <ele>339.87</ele>
        <time>2018-09-05T09:51:42Z</time>
      </trkpt>
      <trkpt lat="47.68813" lon="6.20725">
        <ele>339.87</ele>
        <time>2018-09-05T09:51:45Z</time>
      </trkpt>
      <trkpt lat="47.6881" lon="6.20719">
        <ele>339.87</ele>
        <time>2018-09-05T09:51:47Z</time>
      </trkpt>
      <trkpt lat="47.68807" lon="6.20714">
        <ele>339.87</ele>
        <time>2018-09-05T09:51:49Z</time>
      </trkpt>
      <trkpt lat="47.68803" lon="6.20707">
        <ele>339.88</ele>
        <time>2018-09-05T09:51:52Z</time>
      </trkpt>
      <trkpt lat="47.688" lon="6.20701">
        <ele>339.88</ele>
        <time>2018-09-05T09:51:56Z</time>
      </trkpt>
      <trkpt lat="47.68797" lon="6.20695">
        <ele>339.89</ele>
        <time>2018-09-05T09:52:01Z</time>
      </trkpt>
      <trkpt lat="47.68794" lon="6.20688">
        <ele>339.9</ele>
        <time>2018-09-05T09:52:05Z</time>
      </trkpt>
      <trkpt lat="47.68791" lon="6.20682">
        <ele>339.9</ele>
        <time>2018-09-05T09:52:08Z</time>
      </trkpt>
      <trkpt lat="47.68786" lon="6.20674">
        <ele>339.91</ele>
        <time>2018-09-05T09:52:11Z</time>
      </trkpt>
      <trkpt lat="47.68784" lon="6.20666">
        <ele>339.91</ele>
        <time>2018-09-05T09:52:13Z</time>
      </trkpt>
      <trkpt lat="47.68782" lon="6.20657">
        <ele>339.92</ele>
        <time>2018-09-05T09:52:15Z</time>
      </trkpt>
      <trkpt lat="47.68782" lon="6.20646">
        <ele>339.92</ele>
        <time>2018-09-05T09:52:17Z</time>
      </trkpt>
      <trkpt lat="47.68782" lon="6.20636">
        <ele>339.94</ele>
        <time>2018-09-05T09:52:19Z</time>
      </trkpt>
      <trkpt lat="47.68781" lon="6.20623">
        <ele>339.94</ele>
        <time>2018-09-05T09:52:21Z</time>
      </trkpt>
      <trkpt lat="47.68779" lon="6.20611">
        <ele>339.95</ele>
        <time>2018-09-05T09:52:23Z</time>
      </trkpt>
      <trkpt lat="47.68776" lon="6.206">
        <ele>339.95</ele>
        <time>2018-09-05T09:52:25Z</time>
      </trkpt>
      <trkpt lat="47.68773" lon="6.20589">
        <ele>339.96</ele>
        <time>2018-09-05T09:52:27Z</time>
      </trkpt>
      <trkpt lat="47.68769" lon="6.20578">
        <ele>339.96</ele>
        <time>2018-09-05T09:52:29Z</time>
      </trkpt>
      <trkpt lat="47.68766" lon="6.20573">
        <ele>339.96</ele>
        <time>2018-09-05T09:52:30Z</time>
      </trkpt>
      <trkpt lat="47.68763" lon="6.20567">
        <ele>339.97</ele>
        <time>2018-09-05T09:52:31Z</time>
      </trkpt>
      <trkpt lat="47.68759" lon="6.20559">
        <ele>339.98</ele>
        <time>2018-09-05T09:52:33Z</time>
      </trkpt>
      <trkpt lat="47.68756" lon="6.20553">
        <ele>339.99</ele>
        <time>2018-09-05T09:52:35Z</time>
      </trkpt>
      <trkpt lat="47.68753" lon="6.20545">
        <ele>339.99</ele>
        <time>2018-09-05T09:52:37Z</time>
      </trkpt>
      <trkpt lat="47.68749" lon="6.20534">
        <ele>340</ele>
        <time>2018-09-05T09:52:39Z</time>
      </trkpt>
      <trkpt lat="47.68746" lon="6.20523">
        <ele>340.01</ele>
        <time>2018-09-05T09:52:41Z</time>
      </trkpt>
      <trkpt lat="47.68743" lon="6.20514">
        <ele>340.02</ele>
        <time>2018-09-05T09:52:43Z</time>
      </trkpt>
      <trkpt lat="47.6874" lon="6.20506">
        <ele>340.02</ele>
        <time>2018-09-05T09:52:45Z</time>
      </trkpt>
      <trkpt lat="47.68736" lon="6.20498">
        <ele>340.04</ele>
        <time>2018-09-05T09:52:48Z</time>
      </trkpt>
      <trkpt lat="47.68733" lon="6.2049">
        <ele>340.04</ele>
        <time>2018-09-05T09:52:50Z</time>
      </trkpt>
      <trkpt lat="47.68729" lon="6.20483">
        <ele>340.05</ele>
        <time>2018-09-05T09:52:52Z</time>
      </trkpt>
      <trkpt lat="47.68723" lon="6.20475">
        <ele>340.05</ele>
        <time>2018-09-05T09:52:54Z</time>
      </trkpt>
      <trkpt lat="47.68719" lon="6.20469">
        <ele>340.05</ele>
        <time>2018-09-05T09:52:55Z</time>
      </trkpt>
      <trkpt lat="47.68715" lon="6.20463">
        <ele>340.05</ele>
        <time>2018-09-05T09:52:56Z</time>
      </trkpt>
      <trkpt lat="47.68711" lon="6.20458">
        <ele>340.05</ele>
        <time>2018-09-05T09:52:57Z</time>
      </trkpt>
      <trkpt lat="47.68707" lon="6.20452">
        <ele>340.04</ele>
        <time>2018-09-05T09:52:58Z</time>
      </trkpt>
      <trkpt lat="47.68703" lon="6.20448">
        <ele>340.04</ele>
        <time>2018-09-05T09:52:59Z</time>
      </trkpt>
      <trkpt lat="47.687" lon="6.20443">
        <ele>340.04</ele>
        <time>2018-09-05T09:53:00Z</time>
      </trkpt>
      <trkpt lat="47.68694" lon="6.20434">
        <ele>340.03</ele>
        <time>2018-09-05T09:53:02Z</time>
      </trkpt>
      <trkpt lat="47.6869" lon="6.20427">
        <ele>340.02</ele>
        <time>2018-09-05T09:53:04Z</time>
      </trkpt>
      <trkpt lat="47.68685" lon="6.20418">
        <ele>340</ele>
        <time>2018-09-05T09:53:06Z</time>
      </trkpt>
      <trkpt lat="47.68683" lon="6.2041">
        <ele>339.99</ele>
        <time>2018-09-05T09:53:08Z</time>
      </trkpt>
      <trkpt lat="47.68682" lon="6.20403">
        <ele>339.97</ele>
        <time>2018-09-05T09:53:10Z</time>
      </trkpt>
      <trkpt lat="47.6868" lon="6.20396">
        <ele>339.94</ele>
        <time>2018-09-05T09:53:12Z</time>
      </trkpt>
      <trkpt lat="47.68678" lon="6.20388">
        <ele>339.9</ele>
        <time>2018-09-05T09:53:14Z</time>
      </trkpt>
      <trkpt lat="47.68676" lon="6.20382">
        <ele>339.86</ele>
        <time>2018-09-05T09:53:16Z</time>
      </trkpt>
      <trkpt lat="47.68673" lon="6.20374">
        <ele>339.82</ele>
        <time>2018-09-05T09:53:18Z</time>
      </trkpt>
      <trkpt lat="47.68669" lon="6.20365">
        <ele>339.77</ele>
        <time>2018-09-05T09:53:20Z</time>
      </trkpt>
      <trkpt lat="47.68665" lon="6.20354">
        <ele>339.71</ele>
        <time>2018-09-05T09:53:22Z</time>
      </trkpt>
      <trkpt lat="47.68663" lon="6.20348">
        <ele>339.68</ele>
        <time>2018-09-05T09:53:23Z</time>
      </trkpt>
      <trkpt lat="47.6866" lon="6.20338">
        <ele>339.62</ele>
        <time>2018-09-05T09:53:25Z</time>
      </trkpt>
      <trkpt lat="47.68657" lon="6.20329">
        <ele>339.55</ele>
        <time>2018-09-05T09:53:27Z</time>
      </trkpt>
      <trkpt lat="47.68656" lon="6.20322">
        <ele>339.48</ele>
        <time>2018-09-05T09:53:29Z</time>
      </trkpt>
      <trkpt lat="47.68655" lon="6.20312">
        <ele>339.4</ele>
        <time>2018-09-05T09:53:31Z</time>
      </trkpt>
      <trkpt lat="47.68654" lon="6.203">
        <ele>339.32</ele>
        <time>2018-09-05T09:53:33Z</time>
      </trkpt>
      <trkpt lat="47.68653" lon="6.20294">
        <ele>339.28</ele>
        <time>2018-09-05T09:53:34Z</time>
      </trkpt>
      <trkpt lat="47.68652" lon="6.20287">
        <ele>339.23</ele>
        <time>2018-09-05T09:53:35Z</time>
      </trkpt>
      <trkpt lat="47.68651" lon="6.20278">
        <ele>339.19</ele>
        <time>2018-09-05T09:53:36Z</time>
      </trkpt>
      <trkpt lat="47.6865" lon="6.20269">
        <ele>339.14</ele>
        <time>2018-09-05T09:53:37Z</time>
      </trkpt>
      <trkpt lat="47.68648" lon="6.2026">
        <ele>339.09</ele>
        <time>2018-09-05T09:53:38Z</time>
      </trkpt>
      <trkpt lat="47.68647" lon="6.20252">
        <ele>339.05</ele>
        <time>2018-09-05T09:53:39Z</time>
      </trkpt>
      <trkpt lat="47.68645" lon="6.20244">
        <ele>339</ele>
        <time>2018-09-05T09:53:40Z</time>
      </trkpt>
      <trkpt lat="47.68642" lon="6.20232">
        <ele>338.91</ele>
        <time>2018-09-05T09:53:42Z</time>
      </trkpt>
      <trkpt lat="47.68639" lon="6.20222">
        <ele>338.81</ele>
        <time>2018-09-05T09:53:44Z</time>
      </trkpt>
      <trkpt lat="47.68634" lon="6.20213">
        <ele>338.71</ele>
        <time>2018-09-05T09:53:46Z</time>
      </trkpt>
      <trkpt lat="47.6863" lon="6.20204">
        <ele>338.62</ele>
        <time>2018-09-05T09:53:48Z</time>
      </trkpt>
      <trkpt lat="47.68625" lon="6.20195">
        <ele>338.51</ele>
        <time>2018-09-05T09:53:50Z</time>
      </trkpt>
      <trkpt lat="47.6862" lon="6.20185">
        <ele>338.41</ele>
        <time>2018-09-05T09:53:52Z</time>
      </trkpt>
      <trkpt lat="47.68618" lon="6.20176">
        <ele>338.31</ele>
        <time>2018-09-05T09:53:54Z</time>
      </trkpt>
      <trkpt lat="47.68616" lon="6.20168">
        <ele>338.2</ele>
        <time>2018-09-05T09:53:56Z</time>
      </trkpt>
      <trkpt lat="47.68614" lon="6.2016">
        <ele>338.09</ele>
        <time>2018-09-05T09:53:58Z</time>
      </trkpt>
      <trkpt lat="47.68611" lon="6.2015">
        <ele>337.6</ele>
        <time>2018-09-05T09:54:00Z</time>
      </trkpt>
      <trkpt lat="47.68606" lon="6.2014">
        <ele>337.35</ele>
        <time>2018-09-05T09:54:02Z</time>
      </trkpt>
      <trkpt lat="47.68604" lon="6.20134">
        <ele>337.29</ele>
        <time>2018-09-05T09:54:03Z</time>
      </trkpt>
      <trkpt lat="47.686" lon="6.20124">
        <ele>337.18</ele>
        <time>2018-09-05T09:54:05Z</time>
      </trkpt>
      <trkpt lat="47.68596" lon="6.20114">
        <ele>337.07</ele>
        <time>2018-09-05T09:54:07Z</time>
      </trkpt>
      <trkpt lat="47.68593" lon="6.20106">
        <ele>336.96</ele>
        <time>2018-09-05T09:54:09Z</time>
      </trkpt>
      <trkpt lat="47.68589" lon="6.20098">
        <ele>336.84</ele>
        <time>2018-09-05T09:54:11Z</time>
      </trkpt>
      <trkpt lat="47.68583" lon="6.20089">
        <ele>336.71</ele>
        <time>2018-09-05T09:54:13Z</time>
      </trkpt>
      <trkpt lat="47.68578" lon="6.20081">
        <ele>336.59</ele>
        <time>2018-09-05T09:54:15Z</time>
      </trkpt>
      <trkpt lat="47.68574" lon="6.20072">
        <ele>336.46</ele>
        <time>2018-09-05T09:54:17Z</time>
      </trkpt>
      <trkpt lat="47.68572" lon="6.20062">
        <ele>336.33</ele>
        <time>2018-09-05T09:54:19Z</time>
      </trkpt>
      <trkpt lat="47.68569" lon="6.20047">
        <ele>336.19</ele>
        <time>2018-09-05T09:54:21Z</time>
      </trkpt>
      <trkpt lat="47.68567" lon="6.20038">
        <ele>335.7</ele>
        <time>2018-09-05T09:54:22Z</time>
      </trkpt>
      <trkpt lat="47.68564" lon="6.20028">
        <ele>335.52</ele>
        <time>2018-09-05T09:54:23Z</time>
      </trkpt>
      <trkpt lat="47.68561" lon="6.20018">
        <ele>335.42</ele>
        <time>2018-09-05T09:54:24Z</time>
      </trkpt>
      <trkpt lat="47.68558" lon="6.20008">
        <ele>335.01</ele>
        <time>2018-09-05T09:54:25Z</time>
      </trkpt>
      <trkpt lat="47.68555" lon="6.2">
        <ele>334.56</ele>
        <time>2018-09-05T09:54:26Z</time>
      </trkpt>
      <trkpt lat="47.68552" lon="6.19991">
        <ele>334.4</ele>
        <time>2018-09-05T09:54:27Z</time>
      </trkpt>
      <trkpt lat="47.6855" lon="6.19984">
        <ele>334.32</ele>
        <time>2018-09-05T09:54:28Z</time>
      </trkpt>
      <trkpt lat="47.68548" lon="6.19974">
        <ele>334.23</ele>
        <time>2018-09-05T09:54:30Z</time>
      </trkpt>
      <trkpt lat="47.68546" lon="6.19965">
        <ele>334.16</ele>
        <time>2018-09-05T09:54:32Z</time>
      </trkpt>
      <trkpt lat="47.68544" lon="6.19955">
        <ele>334.08</ele>
        <time>2018-09-05T09:54:34Z</time>
      </trkpt>
      <trkpt lat="47.68543" lon="6.19946">
        <ele>334.01</ele>
        <time>2018-09-05T09:54:36Z</time>
      </trkpt>
      <trkpt lat="47.68544" lon="6.19939">
        <ele>333.94</ele>
        <time>2018-09-05T09:54:38Z</time>
      </trkpt>
      <trkpt lat="47.68545" lon="6.19931">
        <ele>333.87</ele>
        <time>2018-09-05T09:54:40Z</time>
      </trkpt>
      <trkpt lat="47.68545" lon="6.19923">
        <ele>333.8</ele>
        <time>2018-09-05T09:54:42Z</time>
      </trkpt>
      <trkpt lat="47.68546" lon="6.19915">
        <ele>333.74</ele>
        <time>2018-09-05T09:54:44Z</time>
      </trkpt>
      <trkpt lat="47.68545" lon="6.19907">
        <ele>333.67</ele>
        <time>2018-09-05T09:54:46Z</time>
      </trkpt>
      <trkpt lat="47.68545" lon="6.19898">
        <ele>333.6</ele>
        <time>2018-09-05T09:54:48Z</time>
      </trkpt>
      <trkpt lat="47.68545" lon="6.19891">
        <ele>333.53</ele>
        <time>2018-09-05T09:54:50Z</time>
      </trkpt>
      <trkpt lat="47.68546" lon="6.19882">
        <ele>333.43</ele>
        <time>2018-09-05T09:54:53Z</time>
      </trkpt>
      <trkpt lat="47.6855" lon="6.19874">
        <ele>333.33</ele>
        <time>2018-09-05T09:54:56Z</time>
      </trkpt>
      <trkpt lat="47.68552" lon="6.19865">
        <ele>333.22</ele>
        <time>2018-09-05T09:54:59Z</time>
      </trkpt>
      <trkpt lat="47.68552" lon="6.19857">
        <ele>333.11</ele>
        <time>2018-09-05T09:55:02Z</time>
      </trkpt>
      <trkpt lat="47.6855" lon="6.19849">
        <ele>333.04</ele>
        <time>2018-09-05T09:55:04Z</time>
      </trkpt>
      <trkpt lat="47.68547" lon="6.19842">
        <ele>332.97</ele>
        <time>2018-09-05T09:55:06Z</time>
      </trkpt>
      <trkpt lat="47.68545" lon="6.19834">
        <ele>332.9</ele>
        <time>2018-09-05T09:55:08Z</time>
      </trkpt>
      <trkpt lat="47.68542" lon="6.19827">
        <ele>332.82</ele>
        <time>2018-09-05T09:55:10Z</time>
      </trkpt>
      <trkpt lat="47.6854" lon="6.19819">
        <ele>332.75</ele>
        <time>2018-09-05T09:55:12Z</time>
      </trkpt>
      <trkpt lat="47.68538" lon="6.19811">
        <ele>332.68</ele>
        <time>2018-09-05T09:55:14Z</time>
      </trkpt>
      <trkpt lat="47.68535" lon="6.19804">
        <ele>332.61</ele>
        <time>2018-09-05T09:55:16Z</time>
      </trkpt>
      <trkpt lat="47.68531" lon="6.19797">
        <ele>332.5</ele>
        <time>2018-09-05T09:55:19Z</time>
      </trkpt>
      <trkpt lat="47.68528" lon="6.1979">
        <ele>332.39</ele>
        <time>2018-09-05T09:55:22Z</time>
      </trkpt>
      <trkpt lat="47.68526" lon="6.19784">
        <ele>332.32</ele>
        <time>2018-09-05T09:55:24Z</time>
      </trkpt>
      <trkpt lat="47.68523" lon="6.19779">
        <ele>332.24</ele>
        <time>2018-09-05T09:55:26Z</time>
      </trkpt>
      <trkpt lat="47.68519" lon="6.19772">
        <ele>332.14</ele>
        <time>2018-09-05T09:55:29Z</time>
      </trkpt>
      <trkpt lat="47.68514" lon="6.19765">
        <ele>332.03</ele>
        <time>2018-09-05T09:55:32Z</time>
      </trkpt>
      <trkpt lat="47.6851" lon="6.19761">
        <ele>331.96</ele>
        <time>2018-09-05T09:55:34Z</time>
      </trkpt>
      <trkpt lat="47.68506" lon="6.19757">
        <ele>331.89</ele>
        <time>2018-09-05T09:55:36Z</time>
      </trkpt>
      <trkpt lat="47.68502" lon="6.19753">
        <ele>331.82</ele>
        <time>2018-09-05T09:55:38Z</time>
      </trkpt>
      <trkpt lat="47.68497" lon="6.19749">
        <ele>331.72</ele>
        <time>2018-09-05T09:55:41Z</time>
      </trkpt>
      <trkpt lat="47.68494" lon="6.19742">
        <ele>331.63</ele>
        <time>2018-09-05T09:55:44Z</time>
      </trkpt>
      <trkpt lat="47.68493" lon="6.19734">
        <ele>331.53</ele>
        <time>2018-09-05T09:55:47Z</time>
      </trkpt>
      <trkpt lat="47.68492" lon="6.19726">
        <ele>331.41</ele>
        <time>2018-09-05T09:55:51Z</time>
      </trkpt>
      <trkpt lat="47.68491" lon="6.19719">
        <ele>331.32</ele>
        <time>2018-09-05T09:55:54Z</time>
      </trkpt>
      <trkpt lat="47.68489" lon="6.19711">
        <ele>331.22</ele>
        <time>2018-09-05T09:55:57Z</time>
      </trkpt>
      <trkpt lat="47.68487" lon="6.19704">
        <ele>331.13</ele>
        <time>2018-09-05T09:56:00Z</time>
      </trkpt>
      <trkpt lat="47.68483" lon="6.19697">
        <ele>331.03</ele>
        <time>2018-09-05T09:56:03Z</time>
      </trkpt>
      <trkpt lat="47.6848" lon="6.19691">
        <ele>330.94</ele>
        <time>2018-09-05T09:56:06Z</time>
      </trkpt>
      <trkpt lat="47.68477" lon="6.19685">
        <ele>330.85</ele>
        <time>2018-09-05T09:56:09Z</time>
      </trkpt>
      <trkpt lat="47.68474" lon="6.19679">
        <ele>330.72</ele>
        <time>2018-09-05T09:56:13Z</time>
      </trkpt>
      <trkpt lat="47.68471" lon="6.19672">
        <ele>330.61</ele>
        <time>2018-09-05T09:56:17Z</time>
      </trkpt>
      <trkpt lat="47.68469" lon="6.19665">
        <ele>330.52</ele>
        <time>2018-09-05T09:56:20Z</time>
      </trkpt>
      <trkpt lat="47.68466" lon="6.19658">
        <ele>330.43</ele>
        <time>2018-09-05T09:56:23Z</time>
      </trkpt>
      <trkpt lat="47.68464" lon="6.19651">
        <ele>330.35</ele>
        <time>2018-09-05T09:56:26Z</time>
      </trkpt>
      <trkpt lat="47.68463" lon="6.19643">
        <ele>330.24</ele>
        <time>2018-09-05T09:56:30Z</time>
      </trkpt>
      <trkpt lat="47.68462" lon="6.19635">
        <ele>330.13</ele>
        <time>2018-09-05T09:56:34Z</time>
      </trkpt>
      <trkpt lat="47.68461" lon="6.19627">
        <ele>330.02</ele>
        <time>2018-09-05T09:56:38Z</time>
      </trkpt>
      <trkpt lat="47.6846" lon="6.1962">
        <ele>329.9</ele>
        <time>2018-09-05T09:56:42Z</time>
      </trkpt>
      <trkpt lat="47.68459" lon="6.19612">
        <ele>329.78</ele>
        <time>2018-09-05T09:56:46Z</time>
      </trkpt>
      <trkpt lat="47.68456" lon="6.19603">
        <ele>329.69</ele>
        <time>2018-09-05T09:56:49Z</time>
      </trkpt>
      <trkpt lat="47.68454" lon="6.19596">
        <ele>329.63</ele>
        <time>2018-09-05T09:56:51Z</time>
      </trkpt>
      <trkpt lat="47.68452" lon="6.19589">
        <ele>329.57</ele>
        <time>2018-09-05T09:56:53Z</time>
      </trkpt>
      <trkpt lat="47.68449" lon="6.1958">
        <ele>329.49</ele>
        <time>2018-09-05T09:56:56Z</time>
      </trkpt>
      <trkpt lat="47.68446" lon="6.19573">
        <ele>329.4</ele>
        <time>2018-09-05T09:56:59Z</time>
      </trkpt>
      <trkpt lat="47.68443" lon="6.19567">
        <ele>329.32</ele>
        <time>2018-09-05T09:57:02Z</time>
      </trkpt>
      <trkpt lat="47.68441" lon="6.19561">
        <ele>329.24</ele>
        <time>2018-09-05T09:57:05Z</time>
      </trkpt>
      <trkpt lat="47.68439" lon="6.19554">
        <ele>329.13</ele>
        <time>2018-09-05T09:57:09Z</time>
      </trkpt>
      <trkpt lat="47.68437" lon="6.19547">
        <ele>329.03</ele>
        <time>2018-09-05T09:57:13Z</time>
      </trkpt>
      <trkpt lat="47.68435" lon="6.1954">
        <ele>328.92</ele>
        <time>2018-09-05T09:57:17Z</time>
      </trkpt>
      <trkpt lat="47.68433" lon="6.19533">
        <ele>328.82</ele>
        <time>2018-09-05T09:57:21Z</time>
      </trkpt>
      <trkpt lat="47.68431" lon="6.19527">
        <ele>328.75</ele>
        <time>2018-09-05T09:57:24Z</time>
      </trkpt>
      <trkpt lat="47.6843" lon="6.19519">
        <ele>328.67</ele>
        <time>2018-09-05T09:57:27Z</time>
      </trkpt>
      <trkpt lat="47.68428" lon="6.19512">
        <ele>328.6</ele>
        <time>2018-09-05T09:57:30Z</time>
      </trkpt>
      <trkpt lat="47.68427" lon="6.19504">
        <ele>328.53</ele>
        <time>2018-09-05T09:57:33Z</time>
      </trkpt>
      <trkpt lat="47.68425" lon="6.19497">
        <ele>328.45</ele>
        <time>2018-09-05T09:57:36Z</time>
      </trkpt>
      <trkpt lat="47.68423" lon="6.19489">
        <ele>328.38</ele>
        <time>2018-09-05T09:57:39Z</time>
      </trkpt>
      <trkpt lat="47.68421" lon="6.19483">
        <ele>328.32</ele>
        <time>2018-09-05T09:57:46Z</time>
      </trkpt>
      <trkpt lat="47.68418" lon="6.19477">
        <ele>328.24</ele>
        <time>2018-09-05T09:58:12Z</time>
      </trkpt>
      <trkpt lat="47.68415" lon="6.19471">
        <ele>328.08</ele>
        <time>2018-09-05T09:58:35Z</time>
      </trkpt>
      <trkpt lat="47.68412" lon="6.19464">
        <ele>327.95</ele>
        <time>2018-09-05T09:58:38Z</time>
      </trkpt>
      <trkpt lat="47.68412" lon="6.19457">
        <ele>327.86</ele>
        <time>2018-09-05T09:58:40Z</time>
      </trkpt>
      <trkpt lat="47.68409" lon="6.1945">
        <ele>327.78</ele>
        <time>2018-09-05T09:58:42Z</time>
      </trkpt>
      <trkpt lat="47.68405" lon="6.19444">
        <ele>327.7</ele>
        <time>2018-09-05T09:58:44Z</time>
      </trkpt>
      <trkpt lat="47.68402" lon="6.1944">
        <ele>327.62</ele>
        <time>2018-09-05T09:58:46Z</time>
      </trkpt>
      <trkpt lat="47.68398" lon="6.19436">
        <ele>327.54</ele>
        <time>2018-09-05T09:58:48Z</time>
      </trkpt>
      <trkpt lat="47.68392" lon="6.19431">
        <ele>327.43</ele>
        <time>2018-09-05T09:58:51Z</time>
      </trkpt>
      <trkpt lat="47.68388" lon="6.19427">
        <ele>327.32</ele>
        <time>2018-09-05T09:58:54Z</time>
      </trkpt>
      <trkpt lat="47.68383" lon="6.19422">
        <ele>327.22</ele>
        <time>2018-09-05T09:58:57Z</time>
      </trkpt>
      <trkpt lat="47.68378" lon="6.19419">
        <ele>327.12</ele>
        <time>2018-09-05T09:59:00Z</time>
      </trkpt>
      <trkpt lat="47.68374" lon="6.19416">
        <ele>327.03</ele>
        <time>2018-09-05T09:59:03Z</time>
      </trkpt>
      <trkpt lat="47.68369" lon="6.19413">
        <ele>326.93</ele>
        <time>2018-09-05T09:59:06Z</time>
      </trkpt>
      <trkpt lat="47.68364" lon="6.19411">
        <ele>326.84</ele>
        <time>2018-09-05T09:59:09Z</time>
      </trkpt>
      <trkpt lat="47.6836" lon="6.19411">
        <ele>326.75</ele>
        <time>2018-09-05T09:59:12Z</time>
      </trkpt>
      <trkpt lat="47.68353" lon="6.19411">
        <ele>326.63</ele>
        <time>2018-09-05T09:59:16Z</time>
      </trkpt>
      <trkpt lat="47.68348" lon="6.19411">
        <ele>326.54</ele>
        <time>2018-09-05T09:59:19Z</time>
      </trkpt>
      <trkpt lat="47.68343" lon="6.19412">
        <ele>326.45</ele>
        <time>2018-09-05T09:59:22Z</time>
      </trkpt>
      <trkpt lat="47.68338" lon="6.19413">
        <ele>326.4</ele>
        <time>2018-09-05T09:59:24Z</time>
      </trkpt>
      <trkpt lat="47.68333" lon="6.19414">
        <ele>326.31</ele>
        <time>2018-09-05T09:59:27Z</time>
      </trkpt>
      <trkpt lat="47.68327" lon="6.19416">
        <ele>326.23</ele>
        <time>2018-09-05T09:59:30Z</time>
      </trkpt>
      <trkpt lat="47.68322" lon="6.19418">
        <ele>326.14</ele>
        <time>2018-09-05T09:59:33Z</time>
      </trkpt>
      <trkpt lat="47.68317" lon="6.1942">
        <ele>326.04</ele>
        <time>2018-09-05T09:59:36Z</time>
      </trkpt>
      <trkpt lat="47.68311" lon="6.19421">
        <ele>325.93</ele>
        <time>2018-09-05T09:59:39Z</time>
      </trkpt>
      <trkpt lat="47.68305" lon="6.19422">
        <ele>325.82</ele>
        <time>2018-09-05T09:59:42Z</time>
      </trkpt>
      <trkpt lat="47.683" lon="6.19423">
        <ele>325.75</ele>
        <time>2018-09-05T09:59:44Z</time>
      </trkpt>
      <trkpt lat="47.68294" lon="6.19423">
        <ele>325.65</ele>
        <time>2018-09-05T09:59:47Z</time>
      </trkpt>
      <trkpt lat="47.68289" lon="6.19422">
        <ele>325.58</ele>
        <time>2018-09-05T09:59:49Z</time>
      </trkpt>
      <trkpt lat="47.68285" lon="6.19419">
        <ele>325.52</ele>
        <time>2018-09-05T09:59:51Z</time>
      </trkpt>
      <trkpt lat="47.6828" lon="6.19415">
        <ele>325.45</ele>
        <time>2018-09-05T09:59:53Z</time>
      </trkpt>
      <trkpt lat="47.68276" lon="6.19407">
        <ele>325.36</ele>
        <time>2018-09-05T09:59:56Z</time>
      </trkpt>
      <trkpt lat="47.68272" lon="6.194">
        <ele>325.31</ele>
        <time>2018-09-05T09:59:58Z</time>
      </trkpt>
      <trkpt lat="47.68268" lon="6.19392">
        <ele>325.26</ele>
        <time>2018-09-05T10:00:00Z</time>
      </trkpt>
      <trkpt lat="47.68266" lon="6.19384">
        <ele>325.21</ele>
        <time>2018-09-05T10:00:02Z</time>
      </trkpt>
      <trkpt lat="47.68263" lon="6.19376">
        <ele>325.17</ele>
        <time>2018-09-05T10:00:04Z</time>
      </trkpt>
      <trkpt lat="47.6826" lon="6.19367">
        <ele>325.12</ele>
        <time>2018-09-05T10:00:06Z</time>
      </trkpt>
      <trkpt lat="47.68257" lon="6.19358">
        <ele>325.08</ele>
        <time>2018-09-05T10:00:08Z</time>
      </trkpt>
      <trkpt lat="47.68255" lon="6.19349">
        <ele>325.05</ele>
        <time>2018-09-05T10:00:10Z</time>
      </trkpt>
      <trkpt lat="47.68252" lon="6.1934">
        <ele>325.01</ele>
        <time>2018-09-05T10:00:12Z</time>
      </trkpt>
      <trkpt lat="47.68249" lon="6.19331">
        <ele>324.97</ele>
        <time>2018-09-05T10:00:14Z</time>
      </trkpt>
      <trkpt lat="47.68247" lon="6.19323">
        <ele>324.94</ele>
        <time>2018-09-05T10:00:16Z</time>
      </trkpt>
      <trkpt lat="47.68245" lon="6.19316">
        <ele>324.9</ele>
        <time>2018-09-05T10:00:18Z</time>
      </trkpt>
      <trkpt lat="47.68244" lon="6.1931">
        <ele>324.86</ele>
        <time>2018-09-05T10:00:20Z</time>
      </trkpt>
      <trkpt lat="47.68241" lon="6.19301">
        <ele>324.79</ele>
        <time>2018-09-05T10:00:23Z</time>
      </trkpt>
      <trkpt lat="47.68239" lon="6.19294">
        <ele>324.75</ele>
        <time>2018-09-05T10:00:25Z</time>
      </trkpt>
      <trkpt lat="47.68237" lon="6.19287">
        <ele>324.7</ele>
        <time>2018-09-05T10:00:27Z</time>
      </trkpt>
      <trkpt lat="47.68235" lon="6.19278">
        <ele>324.63</ele>
        <time>2018-09-05T10:00:30Z</time>
      </trkpt>
      <trkpt lat="47.68231" lon="6.19269">
        <ele>324.57</ele>
        <time>2018-09-05T10:00:33Z</time>
      </trkpt>
      <trkpt lat="47.68229" lon="6.19263">
        <ele>324.52</ele>
        <time>2018-09-05T10:00:35Z</time>
      </trkpt>
      <trkpt lat="47.68227" lon="6.19255">
        <ele>324.48</ele>
        <time>2018-09-05T10:00:37Z</time>
      </trkpt>
      <trkpt lat="47.68224" lon="6.19247">
        <ele>324.44</ele>
        <time>2018-09-05T10:00:39Z</time>
      </trkpt>
      <trkpt lat="47.68222" lon="6.19237">
        <ele>324.4</ele>
        <time>2018-09-05T10:00:41Z</time>
      </trkpt>
      <trkpt lat="47.68219" lon="6.19229">
        <ele>324.36</ele>
        <time>2018-09-05T10:00:43Z</time>
      </trkpt>
      <trkpt lat="47.68217" lon="6.1922">
        <ele>324.32</ele>
        <time>2018-09-05T10:00:45Z</time>
      </trkpt>
      <trkpt lat="47.68214" lon="6.19211">
        <ele>324.28</ele>
        <time>2018-09-05T10:00:47Z</time>
      </trkpt>
      <trkpt lat="47.68212" lon="6.19201">
        <ele>324.24</ele>
        <time>2018-09-05T10:00:49Z</time>
      </trkpt>
      <trkpt lat="47.68209" lon="6.19192">
        <ele>324.2</ele>
        <time>2018-09-05T10:00:51Z</time>
      </trkpt>
      <trkpt lat="47.68207" lon="6.19183">
        <ele>324.16</ele>
        <time>2018-09-05T10:00:53Z</time>
      </trkpt>
      <trkpt lat="47.68204" lon="6.19174">
        <ele>324.12</ele>
        <time>2018-09-05T10:00:55Z</time>
      </trkpt>
      <trkpt lat="47.68202" lon="6.19165">
        <ele>324.08</ele>
        <time>2018-09-05T10:00:57Z</time>
      </trkpt>
      <trkpt lat="47.682" lon="6.19156">
        <ele>324.04</ele>
        <time>2018-09-05T10:00:59Z</time>
      </trkpt>
      <trkpt lat="47.68198" lon="6.19147">
        <ele>324.01</ele>
        <time>2018-09-05T10:01:01Z</time>
      </trkpt>
      <trkpt lat="47.68196" lon="6.19139">
        <ele>323.97</ele>
        <time>2018-09-05T10:01:03Z</time>
      </trkpt>
      <trkpt lat="47.68194" lon="6.19131">
        <ele>323.93</ele>
        <time>2018-09-05T10:01:05Z</time>
      </trkpt>
      <trkpt lat="47.68192" lon="6.19124">
        <ele>323.89</ele>
        <time>2018-09-05T10:01:07Z</time>
      </trkpt>
      <trkpt lat="47.6819" lon="6.19116">
        <ele>323.85</ele>
        <time>2018-09-05T10:01:09Z</time>
      </trkpt>
      <trkpt lat="47.68187" lon="6.19108">
        <ele>323.79</ele>
        <time>2018-09-05T10:01:16Z</time>
      </trkpt>
      <trkpt lat="47.68186" lon="6.19102">
        <ele>323.75</ele>
        <time>2018-09-05T10:01:19Z</time>
      </trkpt>
      <trkpt lat="47.68184" lon="6.19093">
        <ele>323.7</ele>
        <time>2018-09-05T10:01:22Z</time>
      </trkpt>
      <trkpt lat="47.68182" lon="6.19085">
        <ele>323.67</ele>
        <time>2018-09-05T10:01:24Z</time>
      </trkpt>
      <trkpt lat="47.68179" lon="6.19076">
        <ele>323.63</ele>
        <time>2018-09-05T10:01:26Z</time>
      </trkpt>
      <trkpt lat="47.68177" lon="6.19066">
        <ele>323.6</ele>
        <time>2018-09-05T10:01:28Z</time>
      </trkpt>
      <trkpt lat="47.68173" lon="6.19054">
        <ele>323.32</ele>
        <time>2018-09-05T10:01:30Z</time>
      </trkpt>
      <trkpt lat="47.68171" lon="6.19048">
        <ele>323.19</ele>
        <time>2018-09-05T10:01:31Z</time>
      </trkpt>
      <trkpt lat="47.68168" lon="6.19042">
        <ele>323.07</ele>
        <time>2018-09-05T10:01:32Z</time>
      </trkpt>
      <trkpt lat="47.68166" lon="6.19036">
        <ele>322.97</ele>
        <time>2018-09-05T10:01:33Z</time>
      </trkpt>
      <trkpt lat="47.68162" lon="6.19023">
        <ele>322.85</ele>
        <time>2018-09-05T10:01:35Z</time>
      </trkpt>
      <trkpt lat="47.68159" lon="6.19016">
        <ele>322.83</ele>
        <time>2018-09-05T10:01:36Z</time>
      </trkpt>
      <trkpt lat="47.68158" lon="6.1901">
        <ele>322.83</ele>
        <time>2018-09-05T10:01:37Z</time>
      </trkpt>
      <trkpt lat="47.68155" lon="6.19">
        <ele>322.81</ele>
        <time>2018-09-05T10:01:39Z</time>
      </trkpt>
      <trkpt lat="47.68153" lon="6.18991">
        <ele>322.79</ele>
        <time>2018-09-05T10:01:41Z</time>
      </trkpt>
      <trkpt lat="47.68151" lon="6.18984">
        <ele>322.78</ele>
        <time>2018-09-05T10:01:43Z</time>
      </trkpt>
      <trkpt lat="47.68149" lon="6.18976">
        <ele>322.75</ele>
        <time>2018-09-05T10:01:46Z</time>
      </trkpt>
      <trkpt lat="47.68148" lon="6.18968">
        <ele>322.72</ele>
        <time>2018-09-05T10:01:49Z</time>
      </trkpt>
      <trkpt lat="47.6815" lon="6.18961">
        <ele>322.67</ele>
        <time>2018-09-05T10:01:53Z</time>
      </trkpt>
      <trkpt lat="47.68154" lon="6.18956">
        <ele>322.58</ele>
        <time>2018-09-05T10:01:59Z</time>
      </trkpt>
      <trkpt lat="47.68156" lon="6.18949">
        <ele>322.48</ele>
        <time>2018-09-05T10:02:04Z</time>
      </trkpt>
      <trkpt lat="47.6816" lon="6.18944">
        <ele>322.36</ele>
        <time>2018-09-05T10:02:09Z</time>
      </trkpt>
      <trkpt lat="47.68166" lon="6.18942">
        <ele>322.26</ele>
        <time>2018-09-05T10:02:13Z</time>
      </trkpt>
      <trkpt lat="47.68171" lon="6.18941">
        <ele>322.2</ele>
        <time>2018-09-05T10:02:15Z</time>
      </trkpt>
      <trkpt lat="47.68176" lon="6.18941">
        <ele>322.14</ele>
        <time>2018-09-05T10:02:17Z</time>
      </trkpt>
      <trkpt lat="47.68181" lon="6.18939">
        <ele>322.03</ele>
        <time>2018-09-05T10:02:21Z</time>
      </trkpt>
      <trkpt lat="47.68186" lon="6.1894">
        <ele>321.84</ele>
        <time>2018-09-05T10:02:41Z</time>
      </trkpt>
      <trkpt lat="47.68185" lon="6.18946">
        <ele>321.63</ele>
        <time>2018-09-05T10:02:57Z</time>
      </trkpt>
      <trkpt lat="47.68181" lon="6.18951">
        <ele>321.52</ele>
        <time>2018-09-05T10:03:03Z</time>
      </trkpt>
      <trkpt lat="47.68177" lon="6.18956">
        <ele>321.4</ele>
        <time>2018-09-05T10:03:08Z</time>
      </trkpt>
      <trkpt lat="47.68172" lon="6.18957">
        <ele>321.24</ele>
        <time>2018-09-05T10:03:12Z</time>
      </trkpt>
      <trkpt lat="47.68167" lon="6.18959">
        <ele>321.1</ele>
        <time>2018-09-05T10:03:16Z</time>
      </trkpt>
      <trkpt lat="47.68162" lon="6.18957">
        <ele>320.91</ele>
        <time>2018-09-05T10:03:22Z</time>
      </trkpt>
      <trkpt lat="47.68158" lon="6.18955">
        <ele>320.39</ele>
        <time>2018-09-05T10:04:01Z</time>
      </trkpt>
      <trkpt lat="47.68154" lon="6.18958">
        <ele>320.17</ele>
        <time>2018-09-05T10:04:07Z</time>
      </trkpt>
      <trkpt lat="47.6815" lon="6.18962">
        <ele>320</ele>
        <time>2018-09-05T10:04:12Z</time>
      </trkpt>
      <trkpt lat="47.68145" lon="6.18961">
        <ele>319.81</ele>
        <time>2018-09-05T10:04:19Z</time>
      </trkpt>
      <trkpt lat="47.68141" lon="6.18956">
        <ele>319.65</ele>
        <time>2018-09-05T10:04:36Z</time>
      </trkpt>
      <trkpt lat="47.68139" lon="6.18949">
        <ele>319.54</ele>
        <time>2018-09-05T10:04:42Z</time>
      </trkpt>
      <trkpt lat="47.68138" lon="6.18942">
        <ele>319.45</ele>
        <time>2018-09-05T10:04:47Z</time>
      </trkpt>
      <trkpt lat="47.68137" lon="6.18934">
        <ele>319.38</ele>
        <time>2018-09-05T10:04:52Z</time>
      </trkpt>
      <trkpt lat="47.68136" lon="6.18925">
        <ele>319.33</ele>
        <time>2018-09-05T10:04:55Z</time>
      </trkpt>
      <trkpt lat="47.68134" lon="6.18918">
        <ele>319.31</ele>
        <time>2018-09-05T10:04:57Z</time>
      </trkpt>
      <trkpt lat="47.68132" lon="6.18912">
        <ele>319.29</ele>
        <time>2018-09-05T10:05:02Z</time>
      </trkpt>
      <trkpt lat="47.68137" lon="6.18909">
        <ele>318.87</ele>
        <time>2018-09-05T10:05:36Z</time>
      </trkpt>
      <trkpt lat="47.68142" lon="6.18908">
        <ele>318.63</ele>
        <time>2018-09-05T10:05:45Z</time>
      </trkpt>
      <trkpt lat="47.68147" lon="6.18906">
        <ele>318.48</ele>
        <time>2018-09-05T10:05:57Z</time>
      </trkpt>
      <trkpt lat="47.68151" lon="6.18903">
        <ele>318.37</ele>
        <time>2018-09-05T10:06:02Z</time>
      </trkpt>
      <trkpt lat="47.68155" lon="6.18898">
        <ele>318.21</ele>
        <time>2018-09-05T10:06:06Z</time>
      </trkpt>
      <trkpt lat="47.6816" lon="6.18894">
        <ele>318.09</ele>
        <time>2018-09-05T10:06:09Z</time>
      </trkpt>
      <trkpt lat="47.68164" lon="6.1889">
        <ele>317.98</ele>
        <time>2018-09-05T10:06:12Z</time>
      </trkpt>
      <trkpt lat="47.68168" lon="6.18884">
        <ele>317.84</ele>
        <time>2018-09-05T10:06:16Z</time>
      </trkpt>
      <trkpt lat="47.68172" lon="6.18879">
        <ele>317.69</ele>
        <time>2018-09-05T10:06:20Z</time>
      </trkpt>
      <trkpt lat="47.68175" lon="6.18872">
        <ele>317.47</ele>
        <time>2018-09-05T10:06:26Z</time>
      </trkpt>
      <trkpt lat="47.68177" lon="6.18865">
        <ele>317.35</ele>
        <time>2018-09-05T10:06:29Z</time>
      </trkpt>
      <trkpt lat="47.68181" lon="6.1886">
        <ele>317.24</ele>
        <time>2018-09-05T10:06:32Z</time>
      </trkpt>
      <trkpt lat="47.6819" lon="6.1886">
        <ele>317.2</ele>
        <time>2018-09-05T10:06:33Z</time>
      </trkpt>
      <trkpt lat="47.68197" lon="6.18859">
        <ele>317.17</ele>
        <time>2018-09-05T10:06:34Z</time>
      </trkpt>
      <trkpt lat="47.68204" lon="6.18859">
        <ele>317.13</ele>
        <time>2018-09-05T10:06:35Z</time>
      </trkpt>
      <trkpt lat="47.68209" lon="6.18858">
        <ele>317.1</ele>
        <time>2018-09-05T10:06:36Z</time>
      </trkpt>
      <trkpt lat="47.68214" lon="6.18858">
        <ele>317.06</ele>
        <time>2018-09-05T10:06:37Z</time>
      </trkpt>
      <trkpt lat="47.68221" lon="6.18857">
        <ele>317</ele>
        <time>2018-09-05T10:06:39Z</time>
      </trkpt>
      <trkpt lat="47.68228" lon="6.18855">
        <ele>316.93</ele>
        <time>2018-09-05T10:06:41Z</time>
      </trkpt>
      <trkpt lat="47.68234" lon="6.18854">
        <ele>316.87</ele>
        <time>2018-09-05T10:06:43Z</time>
      </trkpt>
      <trkpt lat="47.68239" lon="6.18853">
        <ele>316.81</ele>
        <time>2018-09-05T10:06:45Z</time>
      </trkpt>
      <trkpt lat="47.68247" lon="6.18852">
        <ele>316.71</ele>
        <time>2018-09-05T10:06:48Z</time>
      </trkpt>
      <trkpt lat="47.68253" lon="6.18849">
        <ele>316.63</ele>
        <time>2018-09-05T10:06:51Z</time>
      </trkpt>
      <trkpt lat="47.68258" lon="6.18845">
        <ele>316.54</ele>
        <time>2018-09-05T10:06:54Z</time>
      </trkpt>
      <trkpt lat="47.68263" lon="6.18842">
        <ele>316.45</ele>
        <time>2018-09-05T10:06:57Z</time>
      </trkpt>
      <trkpt lat="47.68268" lon="6.18839">
        <ele>316.37</ele>
        <time>2018-09-05T10:07:00Z</time>
      </trkpt>
      <trkpt lat="47.68273" lon="6.18835">
        <ele>316.26</ele>
        <time>2018-09-05T10:07:04Z</time>
      </trkpt>
      <trkpt lat="47.68279" lon="6.1883">
        <ele>316.19</ele>
        <time>2018-09-05T10:07:07Z</time>
      </trkpt>
      <trkpt lat="47.68282" lon="6.18825">
        <ele>316.12</ele>
        <time>2018-09-05T10:07:10Z</time>
      </trkpt>
      <trkpt lat="47.68287" lon="6.1882">
        <ele>316.02</ele>
        <time>2018-09-05T10:07:14Z</time>
      </trkpt>
      <trkpt lat="47.6829" lon="6.18814">
        <ele>315.97</ele>
        <time>2018-09-05T10:07:16Z</time>
      </trkpt>
      <trkpt lat="47.68291" lon="6.18807">
        <ele>315.92</ele>
        <time>2018-09-05T10:07:18Z</time>
      </trkpt>
      <trkpt lat="47.68292" lon="6.18798">
        <ele>315.85</ele>
        <time>2018-09-05T10:07:21Z</time>
      </trkpt>
      <trkpt lat="47.68294" lon="6.18791">
        <ele>315.8</ele>
        <time>2018-09-05T10:07:23Z</time>
      </trkpt>
      <trkpt lat="47.68295" lon="6.18782">
        <ele>315.75</ele>
        <time>2018-09-05T10:07:26Z</time>
      </trkpt>
      <trkpt lat="47.68294" lon="6.18771">
        <ele>315.69</ele>
        <time>2018-09-05T10:07:28Z</time>
      </trkpt>
      <trkpt lat="47.68292" lon="6.18763">
        <ele>315.64</ele>
        <time>2018-09-05T10:07:30Z</time>
      </trkpt>
      <trkpt lat="47.6829" lon="6.18757">
        <ele>315.59</ele>
        <time>2018-09-05T10:07:32Z</time>
      </trkpt>
      <trkpt lat="47.68288" lon="6.18751">
        <ele>315.56</ele>
        <time>2018-09-05T10:07:41Z</time>
      </trkpt>
      <trkpt lat="47.68285" lon="6.18745">
        <ele>315.48</ele>
        <time>2018-09-05T10:07:52Z</time>
      </trkpt>
      <trkpt lat="47.68285" lon="6.18738">
        <ele>315.39</ele>
        <time>2018-09-05T10:07:58Z</time>
      </trkpt>
      <trkpt lat="47.68285" lon="6.18731">
        <ele>315.29</ele>
        <time>2018-09-05T10:08:14Z</time>
      </trkpt>
      <trkpt lat="47.68286" lon="6.18739">
        <ele>315.09</ele>
        <time>2018-09-05T10:08:36Z</time>
      </trkpt>
      <trkpt lat="47.68287" lon="6.18746">
        <ele>315.04</ele>
        <time>2018-09-05T10:08:39Z</time>
      </trkpt>
      <trkpt lat="47.68287" lon="6.18754">
        <ele>314.99</ele>
        <time>2018-09-05T10:08:42Z</time>
      </trkpt>
      <trkpt lat="47.68288" lon="6.18761">
        <ele>314.93</ele>
        <time>2018-09-05T10:08:46Z</time>
      </trkpt>
      <trkpt lat="47.6829" lon="6.18768">
        <ele>314.88</ele>
        <time>2018-09-05T10:08:49Z</time>
      </trkpt>
      <trkpt lat="47.68292" lon="6.18774">
        <ele>314.83</ele>
        <time>2018-09-05T10:08:52Z</time>
      </trkpt>
      <trkpt lat="47.68294" lon="6.18781">
        <ele>314.77</ele>
        <time>2018-09-05T10:08:56Z</time>
      </trkpt>
      <trkpt lat="47.68298" lon="6.18787">
        <ele>314.71</ele>
        <time>2018-09-05T10:09:00Z</time>
      </trkpt>
      <trkpt lat="47.68302" lon="6.18793">
        <ele>314.65</ele>
        <time>2018-09-05T10:09:04Z</time>
      </trkpt>
      <trkpt lat="47.68306" lon="6.18799">
        <ele>314.58</ele>
        <time>2018-09-05T10:09:08Z</time>
      </trkpt>
      <trkpt lat="47.6831" lon="6.18803">
        <ele>314.54</ele>
        <time>2018-09-05T10:09:11Z</time>
      </trkpt>
      <trkpt lat="47.68315" lon="6.18808">
        <ele>314.47</ele>
        <time>2018-09-05T10:09:15Z</time>
      </trkpt>
      <trkpt lat="47.68321" lon="6.18813">
        <ele>314.41</ele>
        <time>2018-09-05T10:09:19Z</time>
      </trkpt>
      <trkpt lat="47.68325" lon="6.18816">
        <ele>314.36</ele>
        <time>2018-09-05T10:09:22Z</time>
      </trkpt>
      <trkpt lat="47.68329" lon="6.1882">
        <ele>314.31</ele>
        <time>2018-09-05T10:09:26Z</time>
      </trkpt>
      <trkpt lat="47.68334" lon="6.18823">
        <ele>314.23</ele>
        <time>2018-09-05T10:09:40Z</time>
      </trkpt>
      <trkpt lat="47.68338" lon="6.18827">
        <ele>314.16</ele>
        <time>2018-09-05T10:09:44Z</time>
      </trkpt>
      <trkpt lat="47.68341" lon="6.1883">
        <ele>313.98</ele>
        <time>2018-09-05T10:10:00Z</time>
      </trkpt>
      <trkpt lat="47.68347" lon="6.18833">
        <ele>313.91</ele>
        <time>2018-09-05T10:10:04Z</time>
      </trkpt>
      <trkpt lat="47.68354" lon="6.18837">
        <ele>313.85</ele>
        <time>2018-09-05T10:10:07Z</time>
      </trkpt>
      <trkpt lat="47.68359" lon="6.1884">
        <ele>313.81</ele>
        <time>2018-09-05T10:10:09Z</time>
      </trkpt>
      <trkpt lat="47.68365" lon="6.18843">
        <ele>313.77</ele>
        <time>2018-09-05T10:10:11Z</time>
      </trkpt>
      <trkpt lat="47.68372" lon="6.18846">
        <ele>313.73</ele>
        <time>2018-09-05T10:10:13Z</time>
      </trkpt>
      <trkpt lat="47.68378" lon="6.18849">
        <ele>313.69</ele>
        <time>2018-09-05T10:10:15Z</time>
      </trkpt>
      <trkpt lat="47.68384" lon="6.18852">
        <ele>313.65</ele>
        <time>2018-09-05T10:10:17Z</time>
      </trkpt>
      <trkpt lat="47.68389" lon="6.18856">
        <ele>313.62</ele>
        <time>2018-09-05T10:10:19Z</time>
      </trkpt>
      <trkpt lat="47.68393" lon="6.18859">
        <ele>313.58</ele>
        <time>2018-09-05T10:10:21Z</time>
      </trkpt>
      <trkpt lat="47.68398" lon="6.18864">
        <ele>313.52</ele>
        <time>2018-09-05T10:10:24Z</time>
      </trkpt>
      <trkpt lat="47.68402" lon="6.18867">
        <ele>313.41</ele>
        <time>2018-09-05T10:10:31Z</time>
      </trkpt>
      <trkpt lat="47.68406" lon="6.18871">
        <ele>313.25</ele>
        <time>2018-09-05T10:10:52Z</time>
      </trkpt>
      <trkpt lat="47.68409" lon="6.18876">
        <ele>313.11</ele>
        <time>2018-09-05T10:10:57Z</time>
      </trkpt>
      <trkpt lat="47.68415" lon="6.1888">
        <ele>313</ele>
        <time>2018-09-05T10:11:01Z</time>
      </trkpt>
      <trkpt lat="47.68419" lon="6.18881">
        <ele>312.92</ele>
        <time>2018-09-05T10:11:04Z</time>
      </trkpt>
      <trkpt lat="47.68425" lon="6.1888">
        <ele>312.84</ele>
        <time>2018-09-05T10:11:07Z</time>
      </trkpt>
      <trkpt lat="47.68429" lon="6.18875">
        <ele>312.73</ele>
        <time>2018-09-05T10:11:11Z</time>
      </trkpt>
      <trkpt lat="47.68434" lon="6.18869">
        <ele>312.64</ele>
        <time>2018-09-05T10:11:14Z</time>
      </trkpt>
      <trkpt lat="47.68438" lon="6.18865">
        <ele>312.58</ele>
        <time>2018-09-05T10:11:16Z</time>
      </trkpt>
      <trkpt lat="47.68441" lon="6.18861">
        <ele>312.53</ele>
        <time>2018-09-05T10:11:18Z</time>
      </trkpt>
      <trkpt lat="47.68447" lon="6.18856">
        <ele>312.44</ele>
        <time>2018-09-05T10:11:21Z</time>
      </trkpt>
      <trkpt lat="47.68454" lon="6.18854">
        <ele>312.35</ele>
        <time>2018-09-05T10:11:24Z</time>
      </trkpt>
      <trkpt lat="47.68459" lon="6.18852">
        <ele>312.29</ele>
        <time>2018-09-05T10:11:26Z</time>
      </trkpt>
      <trkpt lat="47.68464" lon="6.18851">
        <ele>312.23</ele>
        <time>2018-09-05T10:11:28Z</time>
      </trkpt>
      <trkpt lat="47.68469" lon="6.1885">
        <ele>312.16</ele>
        <time>2018-09-05T10:11:30Z</time>
      </trkpt>
      <trkpt lat="47.68475" lon="6.18849">
        <ele>312.06</ele>
        <time>2018-09-05T10:11:33Z</time>
      </trkpt>
      <trkpt lat="47.6848" lon="6.1885">
        <ele>311.97</ele>
        <time>2018-09-05T10:11:36Z</time>
      </trkpt>
      <trkpt lat="47.68485" lon="6.18851">
        <ele>311.87</ele>
        <time>2018-09-05T10:11:39Z</time>
      </trkpt>
      <trkpt lat="47.6849" lon="6.18852">
        <ele>311.74</ele>
        <time>2018-09-05T10:11:43Z</time>
      </trkpt>
      <trkpt lat="47.68496" lon="6.18854">
        <ele>311.58</ele>
        <time>2018-09-05T10:11:48Z</time>
      </trkpt>
      <trkpt lat="47.68502" lon="6.18856">
        <ele>311.47</ele>
        <time>2018-09-05T10:11:51Z</time>
      </trkpt>
      <trkpt lat="47.68508" lon="6.18856">
        <ele>311.4</ele>
        <time>2018-09-05T10:11:53Z</time>
      </trkpt>
      <trkpt lat="47.68512" lon="6.18857">
        <ele>311.31</ele>
        <time>2018-09-05T10:11:55Z</time>
      </trkpt>
      <trkpt lat="47.68517" lon="6.18858">
        <ele>311.22</ele>
        <time>2018-09-05T10:11:57Z</time>
      </trkpt>
      <trkpt lat="47.68524" lon="6.18859">
        <ele>311.09</ele>
        <time>2018-09-05T10:12:00Z</time>
      </trkpt>
      <trkpt lat="47.68529" lon="6.1886">
        <ele>310.95</ele>
        <time>2018-09-05T10:12:03Z</time>
      </trkpt>
      <trkpt lat="47.68534" lon="6.18861">
        <ele>310.81</ele>
        <time>2018-09-05T10:12:06Z</time>
      </trkpt>
      <trkpt lat="47.6854" lon="6.18862">
        <ele>310.67</ele>
        <time>2018-09-05T10:12:09Z</time>
      </trkpt>
      <trkpt lat="47.68546" lon="6.18864">
        <ele>310.53</ele>
        <time>2018-09-05T10:12:12Z</time>
      </trkpt>
      <trkpt lat="47.68552" lon="6.18865">
        <ele>310.39</ele>
        <time>2018-09-05T10:12:15Z</time>
      </trkpt>
      <trkpt lat="47.68557" lon="6.18865">
        <ele>310.29</ele>
        <time>2018-09-05T10:12:17Z</time>
      </trkpt>
      <trkpt lat="47.68563" lon="6.18865">
        <ele>310.19</ele>
        <time>2018-09-05T10:12:19Z</time>
      </trkpt>
      <trkpt lat="47.68569" lon="6.18867">
        <ele>310.07</ele>
        <time>2018-09-05T10:12:21Z</time>
      </trkpt>
      <trkpt lat="47.68575" lon="6.18869">
        <ele>309.95</ele>
        <time>2018-09-05T10:12:23Z</time>
      </trkpt>
      <trkpt lat="47.6858" lon="6.18871">
        <ele>309.84</ele>
        <time>2018-09-05T10:12:25Z</time>
      </trkpt>
      <trkpt lat="47.68585" lon="6.18872">
        <ele>309.72</ele>
        <time>2018-09-05T10:12:27Z</time>
      </trkpt>
      <trkpt lat="47.6859" lon="6.18874">
        <ele>309.6</ele>
        <time>2018-09-05T10:12:29Z</time>
      </trkpt>
      <trkpt lat="47.68596" lon="6.18875">
        <ele>309.49</ele>
        <time>2018-09-05T10:12:31Z</time>
      </trkpt>
      <trkpt lat="47.68601" lon="6.18877">
        <ele>309.37</ele>
        <time>2018-09-05T10:12:33Z</time>
      </trkpt>
      <trkpt lat="47.68607" lon="6.18878">
        <ele>308.88</ele>
        <time>2018-09-05T10:12:35Z</time>
      </trkpt>
      <trkpt lat="47.68614" lon="6.1888">
        <ele>308.01</ele>
        <time>2018-09-05T10:12:37Z</time>
      </trkpt>
      <trkpt lat="47.68622" lon="6.18883">
        <ele>307.36</ele>
        <time>2018-09-05T10:12:39Z</time>
      </trkpt>
      <trkpt lat="47.68627" lon="6.18885">
        <ele>307.09</ele>
        <time>2018-09-05T10:12:40Z</time>
      </trkpt>
      <trkpt lat="47.68645" lon="6.18891">
        <ele>306.85</ele>
        <time>2018-09-05T10:12:41Z</time>
      </trkpt>
      <trkpt lat="47.68651" lon="6.18893">
        <ele>306.65</ele>
        <time>2018-09-05T10:12:42Z</time>
      </trkpt>
      <trkpt lat="47.6866" lon="6.18896">
        <ele>306.46</ele>
        <time>2018-09-05T10:12:43Z</time>
      </trkpt>
      <trkpt lat="47.68666" lon="6.18898">
        <ele>306.25</ele>
        <time>2018-09-05T10:12:44Z</time>
      </trkpt>
      <trkpt lat="47.68674" lon="6.18902">
        <ele>306.05</ele>
        <time>2018-09-05T10:12:45Z</time>
      </trkpt>
      <trkpt lat="47.68681" lon="6.18905">
        <ele>305.86</ele>
        <time>2018-09-05T10:12:46Z</time>
      </trkpt>
      <trkpt lat="47.68687" lon="6.18908">
        <ele>305.67</ele>
        <time>2018-09-05T10:12:47Z</time>
      </trkpt>
      <trkpt lat="47.68693" lon="6.18911">
        <ele>305.49</ele>
        <time>2018-09-05T10:12:48Z</time>
      </trkpt>
      <trkpt lat="47.68699" lon="6.18913">
        <ele>305.31</ele>
        <time>2018-09-05T10:12:49Z</time>
      </trkpt>
      <trkpt lat="47.68705" lon="6.18915">
        <ele>305.13</ele>
        <time>2018-09-05T10:12:50Z</time>
      </trkpt>
      <trkpt lat="47.6871" lon="6.18918">
        <ele>304.95</ele>
        <time>2018-09-05T10:12:51Z</time>
      </trkpt>
      <trkpt lat="47.68715" lon="6.18919">
        <ele>304.75</ele>
        <time>2018-09-05T10:12:52Z</time>
      </trkpt>
      <trkpt lat="47.6872" lon="6.1892">
        <ele>304.55</ele>
        <time>2018-09-05T10:12:53Z</time>
      </trkpt>
      <trkpt lat="47.68725" lon="6.18922">
        <ele>304.36</ele>
        <time>2018-09-05T10:12:54Z</time>
      </trkpt>
      <trkpt lat="47.68729" lon="6.18924">
        <ele>304.17</ele>
        <time>2018-09-05T10:12:55Z</time>
      </trkpt>
      <trkpt lat="47.68734" lon="6.18925">
        <ele>304</ele>
        <time>2018-09-05T10:12:56Z</time>
      </trkpt>
      <trkpt lat="47.68741" lon="6.18928">
        <ele>303.69</ele>
        <time>2018-09-05T10:12:58Z</time>
      </trkpt>
      <trkpt lat="47.68749" lon="6.18931">
        <ele>303.42</ele>
        <time>2018-09-05T10:13:00Z</time>
      </trkpt>
      <trkpt lat="47.68756" lon="6.18934">
        <ele>303.14</ele>
        <time>2018-09-05T10:13:02Z</time>
      </trkpt>
      <trkpt lat="47.68764" lon="6.18937">
        <ele>302.93</ele>
        <time>2018-09-05T10:13:04Z</time>
      </trkpt>
      <trkpt lat="47.68769" lon="6.18938">
        <ele>302.88</ele>
        <time>2018-09-05T10:13:06Z</time>
      </trkpt>
      <trkpt lat="47.68776" lon="6.1894">
        <ele>302.81</ele>
        <time>2018-09-05T10:13:09Z</time>
      </trkpt>
      <trkpt lat="47.68781" lon="6.18942">
        <ele>302.75</ele>
        <time>2018-09-05T10:13:11Z</time>
      </trkpt>
      <trkpt lat="47.68787" lon="6.18944">
        <ele>302.68</ele>
        <time>2018-09-05T10:13:13Z</time>
      </trkpt>
      <trkpt lat="47.68793" lon="6.18946">
        <ele>302.61</ele>
        <time>2018-09-05T10:13:15Z</time>
      </trkpt>
      <trkpt lat="47.68799" lon="6.18947">
        <ele>302.54</ele>
        <time>2018-09-05T10:13:17Z</time>
      </trkpt>
      <trkpt lat="47.68804" lon="6.18949">
        <ele>302.46</ele>
        <time>2018-09-05T10:13:19Z</time>
      </trkpt>
      <trkpt lat="47.6881" lon="6.18951">
        <ele>302.39</ele>
        <time>2018-09-05T10:13:21Z</time>
      </trkpt>
      <trkpt lat="47.68815" lon="6.18953">
        <ele>302.31</ele>
        <time>2018-09-05T10:13:23Z</time>
      </trkpt>
      <trkpt lat="47.6882" lon="6.18954">
        <ele>302.24</ele>
        <time>2018-09-05T10:13:25Z</time>
      </trkpt>
      <trkpt lat="47.68825" lon="6.18955">
        <ele>302.15</ele>
        <time>2018-09-05T10:13:27Z</time>
      </trkpt>
      <trkpt lat="47.6883" lon="6.18957">
        <ele>302.04</ele>
        <time>2018-09-05T10:13:29Z</time>
      </trkpt>
      <trkpt lat="47.6884" lon="6.18962">
        <ele>301.59</ele>
        <time>2018-09-05T10:13:30Z</time>
      </trkpt>
      <trkpt lat="47.68848" lon="6.18965">
        <ele>300.58</ele>
        <time>2018-09-05T10:13:32Z</time>
      </trkpt>
      <trkpt lat="47.68857" lon="6.18967">
        <ele>299.69</ele>
        <time>2018-09-05T10:13:34Z</time>
      </trkpt>
      <trkpt lat="47.68862" lon="6.18968">
        <ele>299.27</ele>
        <time>2018-09-05T10:13:35Z</time>
      </trkpt>
      <trkpt lat="47.68867" lon="6.18968">
        <ele>298.83</ele>
        <time>2018-09-05T10:13:36Z</time>
      </trkpt>
      <trkpt lat="47.68873" lon="6.18968">
        <ele>298.35</ele>
        <time>2018-09-05T10:13:37Z</time>
      </trkpt>
      <trkpt lat="47.68878" lon="6.18967">
        <ele>297.74</ele>
        <time>2018-09-05T10:13:38Z</time>
      </trkpt>
      <trkpt lat="47.68883" lon="6.18967">
        <ele>297.13</ele>
        <time>2018-09-05T10:13:39Z</time>
      </trkpt>
      <trkpt lat="47.68889" lon="6.18967">
        <ele>296.43</ele>
        <time>2018-09-05T10:13:40Z</time>
      </trkpt>
      <trkpt lat="47.68893" lon="6.18967">
        <ele>295.66</ele>
        <time>2018-09-05T10:13:41Z</time>
      </trkpt>
      <trkpt lat="47.68899" lon="6.18967">
        <ele>294.86</ele>
        <time>2018-09-05T10:13:42Z</time>
      </trkpt>
      <trkpt lat="47.68904" lon="6.18967">
        <ele>294.08</ele>
        <time>2018-09-05T10:13:43Z</time>
      </trkpt>
      <trkpt lat="47.6891" lon="6.18967">
        <ele>293.31</ele>
        <time>2018-09-05T10:13:44Z</time>
      </trkpt>
      <trkpt lat="47.68916" lon="6.18967">
        <ele>292.56</ele>
        <time>2018-09-05T10:13:45Z</time>
      </trkpt>
      <trkpt lat="47.68921" lon="6.18968">
        <ele>291.82</ele>
        <time>2018-09-05T10:13:46Z</time>
      </trkpt>
      <trkpt lat="47.68928" lon="6.18968">
        <ele>291.09</ele>
        <time>2018-09-05T10:13:47Z</time>
      </trkpt>
      <trkpt lat="47.68934" lon="6.18968">
        <ele>290.38</ele>
        <time>2018-09-05T10:13:48Z</time>
      </trkpt>
      <trkpt lat="47.6894" lon="6.18968">
        <ele>289.67</ele>
        <time>2018-09-05T10:13:49Z</time>
      </trkpt>
      <trkpt lat="47.68945" lon="6.18969">
        <ele>288.95</ele>
        <time>2018-09-05T10:13:50Z</time>
      </trkpt>
      <trkpt lat="47.6895" lon="6.18969">
        <ele>288.24</ele>
        <time>2018-09-05T10:13:51Z</time>
      </trkpt>
      <trkpt lat="47.68955" lon="6.1897">
        <ele>287.52</ele>
        <time>2018-09-05T10:13:52Z</time>
      </trkpt>
      <trkpt lat="47.6896" lon="6.1897">
        <ele>286.8</ele>
        <time>2018-09-05T10:13:53Z</time>
      </trkpt>
      <trkpt lat="47.68965" lon="6.18971">
        <ele>286.09</ele>
        <time>2018-09-05T10:13:54Z</time>
      </trkpt>
      <trkpt lat="47.68973" lon="6.18971">
        <ele>284.67</ele>
        <time>2018-09-05T10:13:56Z</time>
      </trkpt>
      <trkpt lat="47.68982" lon="6.18972">
        <ele>283.28</ele>
        <time>2018-09-05T10:13:58Z</time>
      </trkpt>
      <trkpt lat="47.68991" lon="6.18973">
        <ele>281.97</ele>
        <time>2018-09-05T10:14:00Z</time>
      </trkpt>
      <trkpt lat="47.68999" lon="6.18973">
        <ele>280.75</ele>
        <time>2018-09-05T10:14:02Z</time>
      </trkpt>
      <trkpt lat="47.69006" lon="6.18974">
        <ele>279.65</ele>
        <time>2018-09-05T10:14:04Z</time>
      </trkpt>
      <trkpt lat="47.69014" lon="6.18975">
        <ele>278.61</ele>
        <time>2018-09-05T10:14:06Z</time>
      </trkpt>
      <trkpt lat="47.69022" lon="6.18975">
        <ele>277.58</ele>
        <time>2018-09-05T10:14:08Z</time>
      </trkpt>
      <trkpt lat="47.69027" lon="6.18976">
        <ele>277.05</ele>
        <time>2018-09-05T10:14:09Z</time>
      </trkpt>
      <trkpt lat="47.69032" lon="6.18975">
        <ele>276.53</ele>
        <time>2018-09-05T10:14:10Z</time>
      </trkpt>
      <trkpt lat="47.69037" lon="6.18976">
        <ele>276</ele>
        <time>2018-09-05T10:14:11Z</time>
      </trkpt>
      <trkpt lat="47.69043" lon="6.18977">
        <ele>275.47</ele>
        <time>2018-09-05T10:14:12Z</time>
      </trkpt>
      <trkpt lat="47.69049" lon="6.18978">
        <ele>274.89</ele>
        <time>2018-09-05T10:14:13Z</time>
      </trkpt>
      <trkpt lat="47.69055" lon="6.18978">
        <ele>274.29</ele>
        <time>2018-09-05T10:14:14Z</time>
      </trkpt>
      <trkpt lat="47.69061" lon="6.18979">
        <ele>273.64</ele>
        <time>2018-09-05T10:14:15Z</time>
      </trkpt>
      <trkpt lat="47.69069" lon="6.1898">
        <ele>272.96</ele>
        <time>2018-09-05T10:14:16Z</time>
      </trkpt>
      <trkpt lat="47.69077" lon="6.1898">
        <ele>272.29</ele>
        <time>2018-09-05T10:14:17Z</time>
      </trkpt>
      <trkpt lat="47.69086" lon="6.18982">
        <ele>271.63</ele>
        <time>2018-09-05T10:14:18Z</time>
      </trkpt>
      <trkpt lat="47.69095" lon="6.18984">
        <ele>270.99</ele>
        <time>2018-09-05T10:14:19Z</time>
      </trkpt>
      <trkpt lat="47.69103" lon="6.18986">
        <ele>270.39</ele>
        <time>2018-09-05T10:14:20Z</time>
      </trkpt>
      <trkpt lat="47.69112" lon="6.18989">
        <ele>269.81</ele>
        <time>2018-09-05T10:14:21Z</time>
      </trkpt>
      <trkpt lat="47.69119" lon="6.18993">
        <ele>269.25</ele>
        <time>2018-09-05T10:14:22Z</time>
      </trkpt>
      <trkpt lat="47.69127" lon="6.18997">
        <ele>268.7</ele>
        <time>2018-09-05T10:14:23Z</time>
      </trkpt>
      <trkpt lat="47.69135" lon="6.18999">
        <ele>268.17</ele>
        <time>2018-09-05T10:14:24Z</time>
      </trkpt>
      <trkpt lat="47.69143" lon="6.19003">
        <ele>267.65</ele>
        <time>2018-09-05T10:14:25Z</time>
      </trkpt>
      <trkpt lat="47.69151" lon="6.19005">
        <ele>267.13</ele>
        <time>2018-09-05T10:14:26Z</time>
      </trkpt>
      <trkpt lat="47.69158" lon="6.19007">
        <ele>266.63</ele>
        <time>2018-09-05T10:14:27Z</time>
      </trkpt>
      <trkpt lat="47.69166" lon="6.1901">
        <ele>266.13</ele>
        <time>2018-09-05T10:14:28Z</time>
      </trkpt>
      <trkpt lat="47.69174" lon="6.19011">
        <ele>265.65</ele>
        <time>2018-09-05T10:14:29Z</time>
      </trkpt>
      <trkpt lat="47.69181" lon="6.19014">
        <ele>265.18</ele>
        <time>2018-09-05T10:14:30Z</time>
      </trkpt>
      <trkpt lat="47.69189" lon="6.19016">
        <ele>264.72</ele>
        <time>2018-09-05T10:14:31Z</time>
      </trkpt>
      <trkpt lat="47.69197" lon="6.19019">
        <ele>264.25</ele>
        <time>2018-09-05T10:14:32Z</time>
      </trkpt>
      <trkpt lat="47.69205" lon="6.1902">
        <ele>263.81</ele>
        <time>2018-09-05T10:14:33Z</time>
      </trkpt>
      <trkpt lat="47.69213" lon="6.19022">
        <ele>263.38</ele>
        <time>2018-09-05T10:14:34Z</time>
      </trkpt>
      <trkpt lat="47.69221" lon="6.19023">
        <ele>262.94</ele>
        <time>2018-09-05T10:14:35Z</time>
      </trkpt>
      <trkpt lat="47.69229" lon="6.19024">
        <ele>262.54</ele>
        <time>2018-09-05T10:14:36Z</time>
      </trkpt>
      <trkpt lat="47.69238" lon="6.19024">
        <ele>262.17</ele>
        <time>2018-09-05T10:14:37Z</time>
      </trkpt>
      <trkpt lat="47.69246" lon="6.19024">
        <ele>261.84</ele>
        <time>2018-09-05T10:14:38Z</time>
      </trkpt>
      <trkpt lat="47.69254" lon="6.19024">
        <ele>261.53</ele>
        <time>2018-09-05T10:14:39Z</time>
      </trkpt>
      <trkpt lat="47.69262" lon="6.19025">
        <ele>261.26</ele>
        <time>2018-09-05T10:14:40Z</time>
      </trkpt>
      <trkpt lat="47.6927" lon="6.19026">
        <ele>260.98</ele>
        <time>2018-09-05T10:14:41Z</time>
      </trkpt>
      <trkpt lat="47.69277" lon="6.19028">
        <ele>260.73</ele>
        <time>2018-09-05T10:14:42Z</time>
      </trkpt>
      <trkpt lat="47.69284" lon="6.1903">
        <ele>260.47</ele>
        <time>2018-09-05T10:14:43Z</time>
      </trkpt>
      <trkpt lat="47.69291" lon="6.19034">
        <ele>260.23</ele>
        <time>2018-09-05T10:14:44Z</time>
      </trkpt>
      <trkpt lat="47.69297" lon="6.19039">
        <ele>259.97</ele>
        <time>2018-09-05T10:14:45Z</time>
      </trkpt>
      <trkpt lat="47.69303" lon="6.19044">
        <ele>259.73</ele>
        <time>2018-09-05T10:14:46Z</time>
      </trkpt>
      <trkpt lat="47.69308" lon="6.19048">
        <ele>259.5</ele>
        <time>2018-09-05T10:14:47Z</time>
      </trkpt>
      <trkpt lat="47.69313" lon="6.19053">
        <ele>259.25</ele>
        <time>2018-09-05T10:14:48Z</time>
      </trkpt>
      <trkpt lat="47.69318" lon="6.19059">
        <ele>258.98</ele>
        <time>2018-09-05T10:14:49Z</time>
      </trkpt>
      <trkpt lat="47.69323" lon="6.19063">
        <ele>258.68</ele>
        <time>2018-09-05T10:14:50Z</time>
      </trkpt>
      <trkpt lat="47.69328" lon="6.19068">
        <ele>258.39</ele>
        <time>2018-09-05T10:14:51Z</time>
      </trkpt>
      <trkpt lat="47.69332" lon="6.19072">
        <ele>258.09</ele>
        <time>2018-09-05T10:14:52Z</time>
      </trkpt>
      <trkpt lat="47.69336" lon="6.19076">
        <ele>257.8</ele>
        <time>2018-09-05T10:14:53Z</time>
      </trkpt>
      <trkpt lat="47.6934" lon="6.1908">
        <ele>257.52</ele>
        <time>2018-09-05T10:14:54Z</time>
      </trkpt>
      <trkpt lat="47.69348" lon="6.19086">
        <ele>256.99</ele>
        <time>2018-09-05T10:14:56Z</time>
      </trkpt>
      <trkpt lat="47.69355" lon="6.19091">
        <ele>256.53</ele>
        <time>2018-09-05T10:14:58Z</time>
      </trkpt>
      <trkpt lat="47.69361" lon="6.19097">
        <ele>256.23</ele>
        <time>2018-09-05T10:15:00Z</time>
      </trkpt>
      <trkpt lat="47.69365" lon="6.19101">
        <ele>256.16</ele>
        <time>2018-09-05T10:15:02Z</time>
      </trkpt>
      <trkpt lat="47.69369" lon="6.19105">
        <ele>256.08</ele>
        <time>2018-09-05T10:15:04Z</time>
      </trkpt>
      <trkpt lat="47.69373" lon="6.19109">
        <ele>255.99</ele>
        <time>2018-09-05T10:15:06Z</time>
      </trkpt>
      <trkpt lat="47.69379" lon="6.19114">
        <ele>255.81</ele>
        <time>2018-09-05T10:15:09Z</time>
      </trkpt>
      <trkpt lat="47.69382" lon="6.19118">
        <ele>255.67</ele>
        <time>2018-09-05T10:15:11Z</time>
      </trkpt>
      <trkpt lat="47.69387" lon="6.19121">
        <ele>255.51</ele>
        <time>2018-09-05T10:15:13Z</time>
      </trkpt>
      <trkpt lat="47.69392" lon="6.19124">
        <ele>255.34</ele>
        <time>2018-09-05T10:15:15Z</time>
      </trkpt>
      <trkpt lat="47.69398" lon="6.19128">
        <ele>255.17</ele>
        <time>2018-09-05T10:15:17Z</time>
      </trkpt>
      <trkpt lat="47.69404" lon="6.19132">
        <ele>254.99</ele>
        <time>2018-09-05T10:15:19Z</time>
      </trkpt>
      <trkpt lat="47.69409" lon="6.19137">
        <ele>254.8</ele>
        <time>2018-09-05T10:15:21Z</time>
      </trkpt>
      <trkpt lat="47.69415" lon="6.19141">
        <ele>254.62</ele>
        <time>2018-09-05T10:15:23Z</time>
      </trkpt>
      <trkpt lat="47.69421" lon="6.19146">
        <ele>254.43</ele>
        <time>2018-09-05T10:15:25Z</time>
      </trkpt>
      <trkpt lat="47.69427" lon="6.1915">
        <ele>254.24</ele>
        <time>2018-09-05T10:15:27Z</time>
      </trkpt>
      <trkpt lat="47.69433" lon="6.19154">
        <ele>254.05</ele>
        <time>2018-09-05T10:15:29Z</time>
      </trkpt>
      <trkpt lat="47.69439" lon="6.19158">
        <ele>253.86</ele>
        <time>2018-09-05T10:15:31Z</time>
      </trkpt>
      <trkpt lat="47.69445" lon="6.19163">
        <ele>253.66</ele>
        <time>2018-09-05T10:15:33Z</time>
      </trkpt>
      <trkpt lat="47.69455" lon="6.1917">
        <ele>253.46</ele>
        <time>2018-09-05T10:15:35Z</time>
      </trkpt>
      <trkpt lat="47.69462" lon="6.19175">
        <ele>251.89</ele>
        <time>2018-09-05T10:15:37Z</time>
      </trkpt>
      <trkpt lat="47.6947" lon="6.1918">
        <ele>250.52</ele>
        <time>2018-09-05T10:15:39Z</time>
      </trkpt>
      <trkpt lat="47.69477" lon="6.19185">
        <ele>249.48</ele>
        <time>2018-09-05T10:15:41Z</time>
      </trkpt>
      <trkpt lat="47.69481" lon="6.19188">
        <ele>249.05</ele>
        <time>2018-09-05T10:15:42Z</time>
      </trkpt>
      <trkpt lat="47.69485" lon="6.19191">
        <ele>248.67</ele>
        <time>2018-09-05T10:15:43Z</time>
      </trkpt>
      <trkpt lat="47.69489" lon="6.19195">
        <ele>248.33</ele>
        <time>2018-09-05T10:15:44Z</time>
      </trkpt>
      <trkpt lat="47.69494" lon="6.19198">
        <ele>248.03</ele>
        <time>2018-09-05T10:15:45Z</time>
      </trkpt>
      <trkpt lat="47.69498" lon="6.19202">
        <ele>247.77</ele>
        <time>2018-09-05T10:15:46Z</time>
      </trkpt>
      <trkpt lat="47.69502" lon="6.19206">
        <ele>247.53</ele>
        <time>2018-09-05T10:15:47Z</time>
      </trkpt>
      <trkpt lat="47.69506" lon="6.19212">
        <ele>247.31</ele>
        <time>2018-09-05T10:15:48Z</time>
      </trkpt>
      <trkpt lat="47.69509" lon="6.19218">
        <ele>247.1</ele>
        <time>2018-09-05T10:15:49Z</time>
      </trkpt>
      <trkpt lat="47.69513" lon="6.19223">
        <ele>246.91</ele>
        <time>2018-09-05T10:15:50Z</time>
      </trkpt>
      <trkpt lat="47.69516" lon="6.19229">
        <ele>246.73</ele>
        <time>2018-09-05T10:15:51Z</time>
      </trkpt>
      <trkpt lat="47.6952" lon="6.19235">
        <ele>246.56</ele>
        <time>2018-09-05T10:15:52Z</time>
      </trkpt>
      <trkpt lat="47.69524" lon="6.19241">
        <ele>246.42</ele>
        <time>2018-09-05T10:15:53Z</time>
      </trkpt>
      <trkpt lat="47.69527" lon="6.19247">
        <ele>246.29</ele>
        <time>2018-09-05T10:15:54Z</time>
      </trkpt>
      <trkpt lat="47.69531" lon="6.19253">
        <ele>246.18</ele>
        <time>2018-09-05T10:15:55Z</time>
      </trkpt>
      <trkpt lat="47.69534" lon="6.19259">
        <ele>246.07</ele>
        <time>2018-09-05T10:15:56Z</time>
      </trkpt>
      <trkpt lat="47.69537" lon="6.19265">
        <ele>245.97</ele>
        <time>2018-09-05T10:15:57Z</time>
      </trkpt>
      <trkpt lat="47.69541" lon="6.1927">
        <ele>245.89</ele>
        <time>2018-09-05T10:15:58Z</time>
      </trkpt>
      <trkpt lat="47.69544" lon="6.19275">
        <ele>245.8</ele>
        <time>2018-09-05T10:15:59Z</time>
      </trkpt>
      <trkpt lat="47.69549" lon="6.19278">
        <ele>245.71</ele>
        <time>2018-09-05T10:16:00Z</time>
      </trkpt>
      <trkpt lat="47.69553" lon="6.1928">
        <ele>245.63</ele>
        <time>2018-09-05T10:16:01Z</time>
      </trkpt>
      <trkpt lat="47.69558" lon="6.19281">
        <ele>245.54</ele>
        <time>2018-09-05T10:16:02Z</time>
      </trkpt>
      <trkpt lat="47.69562" lon="6.19282">
        <ele>245.46</ele>
        <time>2018-09-05T10:16:03Z</time>
      </trkpt>
      <trkpt lat="47.69571" lon="6.1928">
        <ele>245.32</ele>
        <time>2018-09-05T10:16:05Z</time>
      </trkpt>
      <trkpt lat="47.69575" lon="6.19279">
        <ele>245.27</ele>
        <time>2018-09-05T10:16:06Z</time>
      </trkpt>
      <trkpt lat="47.6958" lon="6.19278">
        <ele>245.23</ele>
        <time>2018-09-05T10:16:07Z</time>
      </trkpt>
      <trkpt lat="47.69585" lon="6.19277">
        <ele>245.2</ele>
        <time>2018-09-05T10:16:08Z</time>
      </trkpt>
      <trkpt lat="47.6959" lon="6.19275">
        <ele>245.17</ele>
        <time>2018-09-05T10:16:09Z</time>
      </trkpt>
      <trkpt lat="47.69594" lon="6.19274">
        <ele>245.14</ele>
        <time>2018-09-05T10:16:10Z</time>
      </trkpt>
      <trkpt lat="47.69603" lon="6.19271">
        <ele>245.07</ele>
        <time>2018-09-05T10:16:12Z</time>
      </trkpt>
      <trkpt lat="47.69611" lon="6.19268">
        <ele>245.03</ele>
        <time>2018-09-05T10:16:14Z</time>
      </trkpt>
      <trkpt lat="47.69618" lon="6.19265">
        <ele>245.02</ele>
        <time>2018-09-05T10:16:16Z</time>
      </trkpt>
      <trkpt lat="47.69625" lon="6.19262">
        <ele>245.01</ele>
        <time>2018-09-05T10:16:18Z</time>
      </trkpt>
      <trkpt lat="47.69632" lon="6.19258">
        <ele>245</ele>
        <time>2018-09-05T10:16:20Z</time>
      </trkpt>
      <trkpt lat="47.69638" lon="6.19254">
        <ele>244.98</ele>
        <time>2018-09-05T10:16:22Z</time>
      </trkpt>
      <trkpt lat="47.69644" lon="6.1925">
        <ele>244.97</ele>
        <time>2018-09-05T10:16:24Z</time>
      </trkpt>
      <trkpt lat="47.6965" lon="6.19247">
        <ele>244.96</ele>
        <time>2018-09-05T10:16:26Z</time>
      </trkpt>
      <trkpt lat="47.69655" lon="6.19243">
        <ele>244.95</ele>
        <time>2018-09-05T10:16:28Z</time>
      </trkpt>
      <trkpt lat="47.69661" lon="6.1924">
        <ele>244.94</ele>
        <time>2018-09-05T10:16:30Z</time>
      </trkpt>
      <trkpt lat="47.69666" lon="6.19236">
        <ele>244.93</ele>
        <time>2018-09-05T10:16:32Z</time>
      </trkpt>
      <trkpt lat="47.69672" lon="6.19232">
        <ele>244.92</ele>
        <time>2018-09-05T10:16:34Z</time>
      </trkpt>
      <trkpt lat="47.6968" lon="6.19225">
        <ele>244.87</ele>
        <time>2018-09-05T10:16:35Z</time>
      </trkpt>
      <trkpt lat="47.69684" lon="6.19222">
        <ele>244.81</ele>
        <time>2018-09-05T10:16:36Z</time>
      </trkpt>
      <trkpt lat="47.69692" lon="6.19215">
        <ele>244.72</ele>
        <time>2018-09-05T10:16:38Z</time>
      </trkpt>
      <trkpt lat="47.69696" lon="6.19212">
        <ele>244.68</ele>
        <time>2018-09-05T10:16:39Z</time>
      </trkpt>
      <trkpt lat="47.69701" lon="6.19208">
        <ele>244.64</ele>
        <time>2018-09-05T10:16:40Z</time>
      </trkpt>
      <trkpt lat="47.69706" lon="6.19204">
        <ele>244.61</ele>
        <time>2018-09-05T10:16:41Z</time>
      </trkpt>
      <trkpt lat="47.69711" lon="6.192">
        <ele>244.58</ele>
        <time>2018-09-05T10:16:42Z</time>
      </trkpt>
      <trkpt lat="47.69715" lon="6.19196">
        <ele>244.56</ele>
        <time>2018-09-05T10:16:43Z</time>
      </trkpt>
      <trkpt lat="47.6972" lon="6.19191">
        <ele>244.53</ele>
        <time>2018-09-05T10:16:44Z</time>
      </trkpt>
      <trkpt lat="47.69725" lon="6.19187">
        <ele>244.51</ele>
        <time>2018-09-05T10:16:45Z</time>
      </trkpt>
      <trkpt lat="47.69729" lon="6.19183">
        <ele>244.49</ele>
        <time>2018-09-05T10:16:46Z</time>
      </trkpt>
      <trkpt lat="47.69734" lon="6.19179">
        <ele>244.48</ele>
        <time>2018-09-05T10:16:47Z</time>
      </trkpt>
      <trkpt lat="47.69739" lon="6.19175">
        <ele>244.46</ele>
        <time>2018-09-05T10:16:48Z</time>
      </trkpt>
      <trkpt lat="47.69743" lon="6.19171">
        <ele>244.44</ele>
        <time>2018-09-05T10:16:49Z</time>
      </trkpt>
      <trkpt lat="47.69748" lon="6.19168">
        <ele>244.43</ele>
        <time>2018-09-05T10:16:50Z</time>
      </trkpt>
      <trkpt lat="47.69752" lon="6.19165">
        <ele>244.42</ele>
        <time>2018-09-05T10:16:51Z</time>
      </trkpt>
      <trkpt lat="47.69757" lon="6.19162">
        <ele>244.41</ele>
        <time>2018-09-05T10:16:52Z</time>
      </trkpt>
      <trkpt lat="47.69761" lon="6.19158">
        <ele>244.4</ele>
        <time>2018-09-05T10:16:53Z</time>
      </trkpt>
      <trkpt lat="47.69765" lon="6.19155">
        <ele>244.4</ele>
        <time>2018-09-05T10:16:54Z</time>
      </trkpt>
      <trkpt lat="47.6977" lon="6.19151">
        <ele>244.39</ele>
        <time>2018-09-05T10:16:55Z</time>
      </trkpt>
      <trkpt lat="47.69774" lon="6.19148">
        <ele>244.39</ele>
        <time>2018-09-05T10:16:56Z</time>
      </trkpt>
      <trkpt lat="47.69778" lon="6.19145">
        <ele>244.39</ele>
        <time>2018-09-05T10:16:57Z</time>
      </trkpt>
      <trkpt lat="47.69783" lon="6.19142">
        <ele>244.39</ele>
        <time>2018-09-05T10:16:58Z</time>
      </trkpt>
      <trkpt lat="47.6979" lon="6.19137">
        <ele>244.38</ele>
        <time>2018-09-05T10:17:00Z</time>
      </trkpt>
      <trkpt lat="47.69797" lon="6.19133">
        <ele>244.38</ele>
        <time>2018-09-05T10:17:02Z</time>
      </trkpt>
      <trkpt lat="47.69803" lon="6.19128">
        <ele>244.38</ele>
        <time>2018-09-05T10:17:04Z</time>
      </trkpt>
      <trkpt lat="47.6981" lon="6.19123">
        <ele>244.38</ele>
        <time>2018-09-05T10:17:06Z</time>
      </trkpt>
      <trkpt lat="47.69817" lon="6.19118">
        <ele>244.38</ele>
        <time>2018-09-05T10:17:08Z</time>
      </trkpt>
      <trkpt lat="47.69825" lon="6.19112">
        <ele>244.36</ele>
        <time>2018-09-05T10:17:10Z</time>
      </trkpt>
      <trkpt lat="47.69833" lon="6.19109">
        <ele>244.35</ele>
        <time>2018-09-05T10:17:12Z</time>
      </trkpt>
      <trkpt lat="47.6984" lon="6.19107">
        <ele>244.33</ele>
        <time>2018-09-05T10:17:14Z</time>
      </trkpt>
      <trkpt lat="47.69848" lon="6.19105">
        <ele>244.31</ele>
        <time>2018-09-05T10:17:16Z</time>
      </trkpt>
      <trkpt lat="47.69854" lon="6.19103">
        <ele>244.31</ele>
        <time>2018-09-05T10:17:18Z</time>
      </trkpt>
      <trkpt lat="47.69861" lon="6.19101">
        <ele>244.31</ele>
        <time>2018-09-05T10:17:20Z</time>
      </trkpt>
      <trkpt lat="47.69867" lon="6.191">
        <ele>244.3</ele>
        <time>2018-09-05T10:17:22Z</time>
      </trkpt>
      <trkpt lat="47.69873" lon="6.19099">
        <ele>244.3</ele>
        <time>2018-09-05T10:17:24Z</time>
      </trkpt>
      <trkpt lat="47.69879" lon="6.19098">
        <ele>244.3</ele>
        <time>2018-09-05T10:17:27Z</time>
      </trkpt>
      <trkpt lat="47.69884" lon="6.19097">
        <ele>244.29</ele>
        <time>2018-09-05T10:17:29Z</time>
      </trkpt>
      <trkpt lat="47.69889" lon="6.19096">
        <ele>244.29</ele>
        <time>2018-09-05T10:17:31Z</time>
      </trkpt>
      <trkpt lat="47.69893" lon="6.19094">
        <ele>244.29</ele>
        <time>2018-09-05T10:17:33Z</time>
      </trkpt>
      <trkpt lat="47.69898" lon="6.19092">
        <ele>244.3</ele>
        <time>2018-09-05T10:17:35Z</time>
      </trkpt>
      <trkpt lat="47.69904" lon="6.19089">
        <ele>244.3</ele>
        <time>2018-09-05T10:17:38Z</time>
      </trkpt>
      <trkpt lat="47.69908" lon="6.19088">
        <ele>244.3</ele>
        <time>2018-09-05T10:17:40Z</time>
      </trkpt>
      <trkpt lat="47.69913" lon="6.19087">
        <ele>244.31</ele>
        <time>2018-09-05T10:17:42Z</time>
      </trkpt>
      <trkpt lat="47.69918" lon="6.19085">
        <ele>244.31</ele>
        <time>2018-09-05T10:17:44Z</time>
      </trkpt>
      <trkpt lat="47.69924" lon="6.19084">
        <ele>244.32</ele>
        <time>2018-09-05T10:17:46Z</time>
      </trkpt>
      <trkpt lat="47.6993" lon="6.19083">
        <ele>244.33</ele>
        <time>2018-09-05T10:17:48Z</time>
      </trkpt>
      <trkpt lat="47.69935" lon="6.19082">
        <ele>244.33</ele>
        <time>2018-09-05T10:17:50Z</time>
      </trkpt>
      <trkpt lat="47.6994" lon="6.1908">
        <ele>244.34</ele>
        <time>2018-09-05T10:17:52Z</time>
      </trkpt>
      <trkpt lat="47.69945" lon="6.19077">
        <ele>244.36</ele>
        <time>2018-09-05T10:17:54Z</time>
      </trkpt>
      <trkpt lat="47.69949" lon="6.19073">
        <ele>244.37</ele>
        <time>2018-09-05T10:17:56Z</time>
      </trkpt>
      <trkpt lat="47.69953" lon="6.1907">
        <ele>244.39</ele>
        <time>2018-09-05T10:17:58Z</time>
      </trkpt>
      <trkpt lat="47.69957" lon="6.19065">
        <ele>244.41</ele>
        <time>2018-09-05T10:18:00Z</time>
      </trkpt>
      <trkpt lat="47.69961" lon="6.19057">
        <ele>244.44</ele>
        <time>2018-09-05T10:18:03Z</time>
      </trkpt>
      <trkpt lat="47.69963" lon="6.19049">
        <ele>244.48</ele>
        <time>2018-09-05T10:18:06Z</time>
      </trkpt>
      <trkpt lat="47.69963" lon="6.19041">
        <ele>244.51</ele>
        <time>2018-09-05T10:18:08Z</time>
      </trkpt>
      <trkpt lat="47.69964" lon="6.19032">
        <ele>244.53</ele>
        <time>2018-09-05T10:18:10Z</time>
      </trkpt>
      <trkpt lat="47.69964" lon="6.19023">
        <ele>244.56</ele>
        <time>2018-09-05T10:18:12Z</time>
      </trkpt>
      <trkpt lat="47.69965" lon="6.19014">
        <ele>244.58</ele>
        <time>2018-09-05T10:18:14Z</time>
      </trkpt>
      <trkpt lat="47.69968" lon="6.19006">
        <ele>244.61</ele>
        <time>2018-09-05T10:18:16Z</time>
      </trkpt>
      <trkpt lat="47.6997" lon="6.18998">
        <ele>244.64</ele>
        <time>2018-09-05T10:18:18Z</time>
      </trkpt>
      <trkpt lat="47.69969" lon="6.18991">
        <ele>244.66</ele>
        <time>2018-09-05T10:18:20Z</time>
      </trkpt>
      <trkpt lat="47.69966" lon="6.18985">
        <ele>244.85</ele>
        <time>2018-09-05T10:18:22Z</time>
      </trkpt>
      <trkpt lat="47.6996" lon="6.18978">
        <ele>244.96</ele>
        <time>2018-09-05T10:18:24Z</time>
      </trkpt>
      <trkpt lat="47.69956" lon="6.18969">
        <ele>245.02</ele>
        <time>2018-09-05T10:18:26Z</time>
      </trkpt>
      <trkpt lat="47.69955" lon="6.18958">
        <ele>245.11</ele>
        <time>2018-09-05T10:18:28Z</time>
      </trkpt>
      <trkpt lat="47.69955" lon="6.18941">
        <ele>245.14</ele>
        <time>2018-09-05T10:18:29Z</time>
      </trkpt>
      <trkpt lat="47.69956" lon="6.18932">
        <ele>245.17</ele>
        <time>2018-09-05T10:18:30Z</time>
      </trkpt>
      <trkpt lat="47.69956" lon="6.18924">
        <ele>245.18</ele>
        <time>2018-09-05T10:18:31Z</time>
      </trkpt>
      <trkpt lat="47.69956" lon="6.18916">
        <ele>245.19</ele>
        <time>2018-09-05T10:18:32Z</time>
      </trkpt>
      <trkpt lat="47.69956" lon="6.18909">
        <ele>245.2</ele>
        <time>2018-09-05T10:18:33Z</time>
      </trkpt>
      <trkpt lat="47.69956" lon="6.18901">
        <ele>245.2</ele>
        <time>2018-09-05T10:18:34Z</time>
      </trkpt>
      <trkpt lat="47.69955" lon="6.18893">
        <ele>245.2</ele>
        <time>2018-09-05T10:18:35Z</time>
      </trkpt>
      <trkpt lat="47.69954" lon="6.18886">
        <ele>245.2</ele>
        <time>2018-09-05T10:18:36Z</time>
      </trkpt>
      <trkpt lat="47.69954" lon="6.18879">
        <ele>245.2</ele>
        <time>2018-09-05T10:18:37Z</time>
      </trkpt>
      <trkpt lat="47.69953" lon="6.18872">
        <ele>245.2</ele>
        <time>2018-09-05T10:18:38Z</time>
      </trkpt>
      <trkpt lat="47.69953" lon="6.1886">
        <ele>245.2</ele>
        <time>2018-09-05T10:18:40Z</time>
      </trkpt>
      <trkpt lat="47.69953" lon="6.1885">
        <ele>245.2</ele>
        <time>2018-09-05T10:18:42Z</time>
      </trkpt>
      <trkpt lat="47.69953" lon="6.18841">
        <ele>245.2</ele>
        <time>2018-09-05T10:18:44Z</time>
      </trkpt>
      <trkpt lat="47.69953" lon="6.18834">
        <ele>245.2</ele>
        <time>2018-09-05T10:18:46Z</time>
      </trkpt>
      <trkpt lat="47.69952" lon="6.18827">
        <ele>245.2</ele>
        <time>2018-09-05T10:18:48Z</time>
      </trkpt>
      <trkpt lat="47.69951" lon="6.18819">
        <ele>245.21</ele>
        <time>2018-09-05T10:18:50Z</time>
      </trkpt>
      <trkpt lat="47.69951" lon="6.1881">
        <ele>245.24</ele>
        <time>2018-09-05T10:18:52Z</time>
      </trkpt>
      <trkpt lat="47.69951" lon="6.18801">
        <ele>245.28</ele>
        <time>2018-09-05T10:18:54Z</time>
      </trkpt>
      <trkpt lat="47.6995" lon="6.18789">
        <ele>245.31</ele>
        <time>2018-09-05T10:18:56Z</time>
      </trkpt>
      <trkpt lat="47.6995" lon="6.18778">
        <ele>245.31</ele>
        <time>2018-09-05T10:18:58Z</time>
      </trkpt>
      <trkpt lat="47.6995" lon="6.18767">
        <ele>245.32</ele>
        <time>2018-09-05T10:19:00Z</time>
      </trkpt>
      <trkpt lat="47.69952" lon="6.18758">
        <ele>245.32</ele>
        <time>2018-09-05T10:19:02Z</time>
      </trkpt>
      <trkpt lat="47.69955" lon="6.18751">
        <ele>245.33</ele>
        <time>2018-09-05T10:19:04Z</time>
      </trkpt>
      <trkpt lat="47.6996" lon="6.18748">
        <ele>245.33</ele>
        <time>2018-09-05T10:19:06Z</time>
      </trkpt>
      <trkpt lat="47.69967" lon="6.18746">
        <ele>245.33</ele>
        <time>2018-09-05T10:19:08Z</time>
      </trkpt>
      <trkpt lat="47.69974" lon="6.18745">
        <ele>245.31</ele>
        <time>2018-09-05T10:19:10Z</time>
      </trkpt>
      <trkpt lat="47.69981" lon="6.18744">
        <ele>245.31</ele>
        <time>2018-09-05T10:19:12Z</time>
      </trkpt>
      <trkpt lat="47.69988" lon="6.18742">
        <ele>245.3</ele>
        <time>2018-09-05T10:19:14Z</time>
      </trkpt>
      <trkpt lat="47.69995" lon="6.18738">
        <ele>245.3</ele>
        <time>2018-09-05T10:19:16Z</time>
      </trkpt>
      <trkpt lat="47.70001" lon="6.18734">
        <ele>245.29</ele>
        <time>2018-09-05T10:19:18Z</time>
      </trkpt>
      <trkpt lat="47.70008" lon="6.1873">
        <ele>245.29</ele>
        <time>2018-09-05T10:19:20Z</time>
      </trkpt>
      <trkpt lat="47.70013" lon="6.18726">
        <ele>245.29</ele>
        <time>2018-09-05T10:19:22Z</time>
      </trkpt>
      <trkpt lat="47.70019" lon="6.18721">
        <ele>245.28</ele>
        <time>2018-09-05T10:19:24Z</time>
      </trkpt>
      <trkpt lat="47.70025" lon="6.18717">
        <ele>245.28</ele>
        <time>2018-09-05T10:19:26Z</time>
      </trkpt>
      <trkpt lat="47.7003" lon="6.18713">
        <ele>245.28</ele>
        <time>2018-09-05T10:19:28Z</time>
      </trkpt>
      <trkpt lat="47.70036" lon="6.18708">
        <ele>245.28</ele>
        <time>2018-09-05T10:19:30Z</time>
      </trkpt>
      <trkpt lat="47.70042" lon="6.18703">
        <ele>245.28</ele>
        <time>2018-09-05T10:19:32Z</time>
      </trkpt>
      <trkpt lat="47.70048" lon="6.18698">
        <ele>245.27</ele>
        <time>2018-09-05T10:19:34Z</time>
      </trkpt>
      <trkpt lat="47.70054" lon="6.18693">
        <ele>245.27</ele>
        <time>2018-09-05T10:19:36Z</time>
      </trkpt>
      <trkpt lat="47.7006" lon="6.18688">
        <ele>245.27</ele>
        <time>2018-09-05T10:19:38Z</time>
      </trkpt>
      <trkpt lat="47.70065" lon="6.18683">
        <ele>245.27</ele>
        <time>2018-09-05T10:19:40Z</time>
      </trkpt>
      <trkpt lat="47.70071" lon="6.18678">
        <ele>245.27</ele>
        <time>2018-09-05T10:19:42Z</time>
      </trkpt>
      <trkpt lat="47.70076" lon="6.18674">
        <ele>245.28</ele>
        <time>2018-09-05T10:19:44Z</time>
      </trkpt>
      <trkpt lat="47.70083" lon="6.18669">
        <ele>245.28</ele>
        <time>2018-09-05T10:19:46Z</time>
      </trkpt>
      <trkpt lat="47.70088" lon="6.18665">
        <ele>245.28</ele>
        <time>2018-09-05T10:19:48Z</time>
      </trkpt>
      <trkpt lat="47.70094" lon="6.18661">
        <ele>245.29</ele>
        <time>2018-09-05T10:19:50Z</time>
      </trkpt>
      <trkpt lat="47.701" lon="6.18657">
        <ele>245.29</ele>
        <time>2018-09-05T10:19:52Z</time>
      </trkpt>
      <trkpt lat="47.70105" lon="6.18654">
        <ele>245.29</ele>
        <time>2018-09-05T10:19:54Z</time>
      </trkpt>
      <trkpt lat="47.70111" lon="6.18651">
        <ele>245.3</ele>
        <time>2018-09-05T10:19:56Z</time>
      </trkpt>
      <trkpt lat="47.70117" lon="6.18649">
        <ele>245.3</ele>
        <time>2018-09-05T10:19:58Z</time>
      </trkpt>
      <trkpt lat="47.70122" lon="6.18646">
        <ele>245.31</ele>
        <time>2018-09-05T10:20:00Z</time>
      </trkpt>
      <trkpt lat="47.70127" lon="6.18644">
        <ele>245.32</ele>
        <time>2018-09-05T10:20:02Z</time>
      </trkpt>
      <trkpt lat="47.70133" lon="6.18642">
        <ele>245.33</ele>
        <time>2018-09-05T10:20:04Z</time>
      </trkpt>
      <trkpt lat="47.70138" lon="6.18641">
        <ele>245.34</ele>
        <time>2018-09-05T10:20:06Z</time>
      </trkpt>
      <trkpt lat="47.70144" lon="6.18639">
        <ele>245.35</ele>
        <time>2018-09-05T10:20:08Z</time>
      </trkpt>
      <trkpt lat="47.70149" lon="6.18638">
        <ele>245.36</ele>
        <time>2018-09-05T10:20:10Z</time>
      </trkpt>
      <trkpt lat="47.70155" lon="6.18636">
        <ele>245.37</ele>
        <time>2018-09-05T10:20:12Z</time>
      </trkpt>
      <trkpt lat="47.70159" lon="6.18635">
        <ele>245.39</ele>
        <time>2018-09-05T10:20:14Z</time>
      </trkpt>
      <trkpt lat="47.70165" lon="6.18634">
        <ele>245.4</ele>
        <time>2018-09-05T10:20:16Z</time>
      </trkpt>
      <trkpt lat="47.7017" lon="6.18632">
        <ele>245.42</ele>
        <time>2018-09-05T10:20:18Z</time>
      </trkpt>
      <trkpt lat="47.70176" lon="6.18632">
        <ele>245.44</ele>
        <time>2018-09-05T10:20:20Z</time>
      </trkpt>
      <trkpt lat="47.70181" lon="6.18631">
        <ele>245.45</ele>
        <time>2018-09-05T10:20:22Z</time>
      </trkpt>
      <trkpt lat="47.70185" lon="6.1863">
        <ele>245.47</ele>
        <time>2018-09-05T10:20:24Z</time>
      </trkpt>
      <trkpt lat="47.70191" lon="6.1863">
        <ele>245.49</ele>
        <time>2018-09-05T10:20:26Z</time>
      </trkpt>
      <trkpt lat="47.70195" lon="6.18629">
        <ele>245.51</ele>
        <time>2018-09-05T10:20:28Z</time>
      </trkpt>
      <trkpt lat="47.702" lon="6.18629">
        <ele>245.53</ele>
        <time>2018-09-05T10:20:30Z</time>
      </trkpt>
      <trkpt lat="47.70206" lon="6.18626">
        <ele>245.56</ele>
        <time>2018-09-05T10:20:33Z</time>
      </trkpt>
      <trkpt lat="47.70211" lon="6.18622">
        <ele>245.58</ele>
        <time>2018-09-05T10:20:35Z</time>
      </trkpt>
      <trkpt lat="47.70215" lon="6.18616">
        <ele>245.61</ele>
        <time>2018-09-05T10:20:38Z</time>
      </trkpt>
      <trkpt lat="47.70218" lon="6.1861">
        <ele>245.65</ele>
        <time>2018-09-05T10:20:41Z</time>
      </trkpt>
      <trkpt lat="47.70221" lon="6.18603">
        <ele>245.68</ele>
        <time>2018-09-05T10:20:44Z</time>
      </trkpt>
      <trkpt lat="47.70223" lon="6.18596">
        <ele>245.72</ele>
        <time>2018-09-05T10:20:47Z</time>
      </trkpt>
      <trkpt lat="47.70225" lon="6.18589">
        <ele>245.76</ele>
        <time>2018-09-05T10:20:50Z</time>
      </trkpt>
      <trkpt lat="47.70228" lon="6.18583">
        <ele>245.8</ele>
        <time>2018-09-05T10:20:53Z</time>
      </trkpt>
      <trkpt lat="47.70232" lon="6.18577">
        <ele>245.86</ele>
        <time>2018-09-05T10:20:57Z</time>
      </trkpt>
      <trkpt lat="47.70234" lon="6.1857">
        <ele>245.93</ele>
        <time>2018-09-05T10:21:01Z</time>
      </trkpt>
      <trkpt lat="47.70237" lon="6.18564">
        <ele>245.98</ele>
        <time>2018-09-05T10:21:04Z</time>
      </trkpt>
      <trkpt lat="47.70239" lon="6.18558">
        <ele>246.06</ele>
        <time>2018-09-05T10:21:08Z</time>
      </trkpt>
      <trkpt lat="47.70241" lon="6.18552">
        <ele>246.14</ele>
        <time>2018-09-05T10:21:12Z</time>
      </trkpt>
      <trkpt lat="47.70244" lon="6.18545">
        <ele>246.22</ele>
        <time>2018-09-05T10:21:16Z</time>
      </trkpt>
      <trkpt lat="47.70245" lon="6.18538">
        <ele>246.31</ele>
        <time>2018-09-05T10:21:20Z</time>
      </trkpt>
      <trkpt lat="47.70248" lon="6.18532">
        <ele>246.39</ele>
        <time>2018-09-05T10:21:24Z</time>
      </trkpt>
      <trkpt lat="47.7025" lon="6.18525">
        <ele>246.49</ele>
        <time>2018-09-05T10:21:28Z</time>
      </trkpt>
      <trkpt lat="47.70251" lon="6.18518">
        <ele>246.59</ele>
        <time>2018-09-05T10:21:32Z</time>
      </trkpt>
      <trkpt lat="47.70253" lon="6.18511">
        <ele>246.69</ele>
        <time>2018-09-05T10:21:36Z</time>
      </trkpt>
      <trkpt lat="47.70255" lon="6.18505">
        <ele>246.79</ele>
        <time>2018-09-05T10:21:40Z</time>
      </trkpt>
      <trkpt lat="47.70257" lon="6.18498">
        <ele>246.91</ele>
        <time>2018-09-05T10:21:44Z</time>
      </trkpt>
      <trkpt lat="47.70259" lon="6.18491">
        <ele>247.02</ele>
        <time>2018-09-05T10:21:48Z</time>
      </trkpt>
      <trkpt lat="47.70261" lon="6.18485">
        <ele>247.14</ele>
        <time>2018-09-05T10:21:52Z</time>
      </trkpt>
      <trkpt lat="47.70263" lon="6.18478">
        <ele>247.26</ele>
        <time>2018-09-05T10:21:56Z</time>
      </trkpt>
      <trkpt lat="47.70265" lon="6.18472">
        <ele>247.39</ele>
        <time>2018-09-05T10:22:00Z</time>
      </trkpt>
      <trkpt lat="47.70267" lon="6.18465">
        <ele>247.52</ele>
        <time>2018-09-05T10:22:04Z</time>
      </trkpt>
      <trkpt lat="47.70269" lon="6.18459">
        <ele>247.65</ele>
        <time>2018-09-05T10:22:08Z</time>
      </trkpt>
      <trkpt lat="47.70271" lon="6.18452">
        <ele>247.79</ele>
        <time>2018-09-05T10:22:12Z</time>
      </trkpt>
      <trkpt lat="47.70274" lon="6.18446">
        <ele>247.93</ele>
        <time>2018-09-05T10:22:16Z</time>
      </trkpt>
      <trkpt lat="47.70276" lon="6.1844">
        <ele>248.07</ele>
        <time>2018-09-05T10:22:20Z</time>
      </trkpt>
      <trkpt lat="47.70278" lon="6.18433">
        <ele>248.22</ele>
        <time>2018-09-05T10:22:24Z</time>
      </trkpt>
      <trkpt lat="47.70281" lon="6.18426">
        <ele>248.37</ele>
        <time>2018-09-05T10:22:28Z</time>
      </trkpt>
      <trkpt lat="47.70284" lon="6.1842">
        <ele>248.52</ele>
        <time>2018-09-05T10:22:32Z</time>
      </trkpt>
      <trkpt lat="47.70287" lon="6.18413">
        <ele>248.68</ele>
        <time>2018-09-05T10:22:36Z</time>
      </trkpt>
      <trkpt lat="47.7029" lon="6.18406">
        <ele>248.84</ele>
        <time>2018-09-05T10:22:40Z</time>
      </trkpt>
      <trkpt lat="47.70293" lon="6.18398">
        <ele>249.01</ele>
        <time>2018-09-05T10:22:44Z</time>
      </trkpt>
      <trkpt lat="47.70295" lon="6.18391">
        <ele>249.14</ele>
        <time>2018-09-05T10:22:47Z</time>
      </trkpt>
      <trkpt lat="47.70297" lon="6.18383">
        <ele>249.26</ele>
        <time>2018-09-05T10:22:50Z</time>
      </trkpt>
      <trkpt lat="47.70298" lon="6.18375">
        <ele>249.39</ele>
        <time>2018-09-05T10:22:53Z</time>
      </trkpt>
      <trkpt lat="47.70299" lon="6.18366">
        <ele>249.52</ele>
        <time>2018-09-05T10:22:56Z</time>
      </trkpt>
      <trkpt lat="47.70301" lon="6.18358">
        <ele>249.64</ele>
        <time>2018-09-05T10:22:59Z</time>
      </trkpt>
      <trkpt lat="47.70302" lon="6.18351">
        <ele>249.77</ele>
        <time>2018-09-05T10:23:02Z</time>
      </trkpt>
      <trkpt lat="47.70304" lon="6.18344">
        <ele>249.89</ele>
        <time>2018-09-05T10:23:05Z</time>
      </trkpt>
      <trkpt lat="47.70305" lon="6.18336">
        <ele>250.01</ele>
        <time>2018-09-05T10:23:08Z</time>
      </trkpt>
      <trkpt lat="47.70306" lon="6.18329">
        <ele>250.13</ele>
        <time>2018-09-05T10:23:11Z</time>
      </trkpt>
      <trkpt lat="47.70308" lon="6.18321">
        <ele>250.24</ele>
        <time>2018-09-05T10:23:14Z</time>
      </trkpt>
      <trkpt lat="47.70309" lon="6.18312">
        <ele>250.35</ele>
        <time>2018-09-05T10:23:17Z</time>
      </trkpt>
      <trkpt lat="47.70311" lon="6.18304">
        <ele>250.46</ele>
        <time>2018-09-05T10:23:20Z</time>
      </trkpt>
      <trkpt lat="47.70312" lon="6.18296">
        <ele>250.57</ele>
        <time>2018-09-05T10:23:23Z</time>
      </trkpt>
      <trkpt lat="47.70313" lon="6.18289">
        <ele>250.67</ele>
        <time>2018-09-05T10:23:26Z</time>
      </trkpt>
      <trkpt lat="47.70314" lon="6.18281">
        <ele>250.77</ele>
        <time>2018-09-05T10:23:29Z</time>
      </trkpt>
      <trkpt lat="47.70315" lon="6.18272">
        <ele>250.88</ele>
        <time>2018-09-05T10:23:32Z</time>
      </trkpt>
      <trkpt lat="47.70317" lon="6.18264">
        <ele>250.98</ele>
        <time>2018-09-05T10:23:35Z</time>
      </trkpt>
      <trkpt lat="47.70318" lon="6.18256">
        <ele>251.09</ele>
        <time>2018-09-05T10:23:38Z</time>
      </trkpt>
      <trkpt lat="47.70319" lon="6.18248">
        <ele>251.19</ele>
        <time>2018-09-05T10:23:41Z</time>
      </trkpt>
      <trkpt lat="47.7032" lon="6.1824">
        <ele>251.3</ele>
        <time>2018-09-05T10:23:44Z</time>
      </trkpt>
      <trkpt lat="47.70322" lon="6.18233">
        <ele>251.41</ele>
        <time>2018-09-05T10:23:47Z</time>
      </trkpt>
      <trkpt lat="47.70323" lon="6.18226">
        <ele>251.51</ele>
        <time>2018-09-05T10:23:50Z</time>
      </trkpt>
      <trkpt lat="47.70324" lon="6.18218">
        <ele>251.62</ele>
        <time>2018-09-05T10:23:53Z</time>
      </trkpt>
      <trkpt lat="47.70325" lon="6.18211">
        <ele>251.73</ele>
        <time>2018-09-05T10:23:56Z</time>
      </trkpt>
      <trkpt lat="47.70327" lon="6.18203">
        <ele>251.83</ele>
        <time>2018-09-05T10:23:59Z</time>
      </trkpt>
      <trkpt lat="47.70328" lon="6.18195">
        <ele>251.94</ele>
        <time>2018-09-05T10:24:02Z</time>
      </trkpt>
      <trkpt lat="47.7033" lon="6.18187">
        <ele>252.05</ele>
        <time>2018-09-05T10:24:05Z</time>
      </trkpt>
      <trkpt lat="47.70332" lon="6.18178">
        <ele>252.16</ele>
        <time>2018-09-05T10:24:08Z</time>
      </trkpt>
      <trkpt lat="47.70334" lon="6.18171">
        <ele>252.23</ele>
        <time>2018-09-05T10:24:10Z</time>
      </trkpt>
      <trkpt lat="47.70335" lon="6.18165">
        <ele>252.3</ele>
        <time>2018-09-05T10:24:12Z</time>
      </trkpt>
      <trkpt lat="47.70339" lon="6.18156">
        <ele>252.42</ele>
        <time>2018-09-05T10:24:15Z</time>
      </trkpt>
      <trkpt lat="47.70341" lon="6.1815">
        <ele>252.5</ele>
        <time>2018-09-05T10:24:17Z</time>
      </trkpt>
      <trkpt lat="47.70343" lon="6.18144">
        <ele>252.58</ele>
        <time>2018-09-05T10:24:19Z</time>
      </trkpt>
      <trkpt lat="47.70345" lon="6.18138">
        <ele>252.66</ele>
        <time>2018-09-05T10:24:21Z</time>
      </trkpt>
      <trkpt lat="47.70348" lon="6.18132">
        <ele>252.74</ele>
        <time>2018-09-05T10:24:23Z</time>
      </trkpt>
      <trkpt lat="47.70351" lon="6.18126">
        <ele>252.83</ele>
        <time>2018-09-05T10:24:25Z</time>
      </trkpt>
      <trkpt lat="47.70354" lon="6.1812">
        <ele>252.91</ele>
        <time>2018-09-05T10:24:27Z</time>
      </trkpt>
      <trkpt lat="47.70357" lon="6.18115">
        <ele>253</ele>
        <time>2018-09-05T10:24:29Z</time>
      </trkpt>
      <trkpt lat="47.7036" lon="6.18109">
        <ele>253.09</ele>
        <time>2018-09-05T10:24:31Z</time>
      </trkpt>
      <trkpt lat="47.70363" lon="6.18104">
        <ele>253.18</ele>
        <time>2018-09-05T10:24:33Z</time>
      </trkpt>
      <trkpt lat="47.70366" lon="6.18099">
        <ele>253.27</ele>
        <time>2018-09-05T10:24:35Z</time>
      </trkpt>
      <trkpt lat="47.70369" lon="6.18093">
        <ele>253.35</ele>
        <time>2018-09-05T10:24:37Z</time>
      </trkpt>
      <trkpt lat="47.70373" lon="6.18086">
        <ele>253.49</ele>
        <time>2018-09-05T10:24:40Z</time>
      </trkpt>
      <trkpt lat="47.70376" lon="6.18081">
        <ele>253.58</ele>
        <time>2018-09-05T10:24:42Z</time>
      </trkpt>
      <trkpt lat="47.70379" lon="6.18076">
        <ele>253.67</ele>
        <time>2018-09-05T10:24:44Z</time>
      </trkpt>
      <trkpt lat="47.70383" lon="6.1807">
        <ele>253.77</ele>
        <time>2018-09-05T10:24:46Z</time>
      </trkpt>
      <trkpt lat="47.70387" lon="6.18063">
        <ele>253.91</ele>
        <time>2018-09-05T10:24:50Z</time>
      </trkpt>
      <trkpt lat="47.70392" lon="6.18056">
        <ele>254.05</ele>
        <time>2018-09-05T10:24:53Z</time>
      </trkpt>
      <trkpt lat="47.70396" lon="6.18049">
        <ele>254.19</ele>
        <time>2018-09-05T10:24:56Z</time>
      </trkpt>
      <trkpt lat="47.704" lon="6.18043">
        <ele>254.29</ele>
        <time>2018-09-05T10:24:58Z</time>
      </trkpt>
      <trkpt lat="47.70404" lon="6.18038">
        <ele>254.38</ele>
        <time>2018-09-05T10:25:00Z</time>
      </trkpt>
      <trkpt lat="47.70408" lon="6.18031">
        <ele>254.48</ele>
        <time>2018-09-05T10:25:02Z</time>
      </trkpt>
      <trkpt lat="47.70411" lon="6.18025">
        <ele>254.58</ele>
        <time>2018-09-05T10:25:04Z</time>
      </trkpt>
      <trkpt lat="47.70415" lon="6.1802">
        <ele>254.67</ele>
        <time>2018-09-05T10:25:06Z</time>
      </trkpt>
      <trkpt lat="47.70418" lon="6.18015">
        <ele>254.77</ele>
        <time>2018-09-05T10:25:08Z</time>
      </trkpt>
      <trkpt lat="47.70422" lon="6.1801">
        <ele>254.87</ele>
        <time>2018-09-05T10:25:10Z</time>
      </trkpt>
      <trkpt lat="47.70425" lon="6.18004">
        <ele>254.97</ele>
        <time>2018-09-05T10:25:12Z</time>
      </trkpt>
      <trkpt lat="47.70428" lon="6.17999">
        <ele>255.07</ele>
        <time>2018-09-05T10:25:14Z</time>
      </trkpt>
      <trkpt lat="47.70431" lon="6.17993">
        <ele>255.16</ele>
        <time>2018-09-05T10:25:16Z</time>
      </trkpt>
      <trkpt lat="47.70434" lon="6.17988">
        <ele>255.26</ele>
        <time>2018-09-05T10:25:18Z</time>
      </trkpt>
      <trkpt lat="47.70438" lon="6.17982">
        <ele>255.41</ele>
        <time>2018-09-05T10:25:21Z</time>
      </trkpt>
      <trkpt lat="47.70442" lon="6.17975">
        <ele>255.55</ele>
        <time>2018-09-05T10:25:24Z</time>
      </trkpt>
      <trkpt lat="47.70445" lon="6.17968">
        <ele>255.7</ele>
        <time>2018-09-05T10:25:27Z</time>
      </trkpt>
      <trkpt lat="47.70449" lon="6.17962">
        <ele>255.84</ele>
        <time>2018-09-05T10:25:30Z</time>
      </trkpt>
      <trkpt lat="47.70452" lon="6.17957">
        <ele>255.98</ele>
        <time>2018-09-05T10:25:33Z</time>
      </trkpt>
      <trkpt lat="47.70456" lon="6.1795">
        <ele>256.17</ele>
        <time>2018-09-05T10:25:37Z</time>
      </trkpt>
      <trkpt lat="47.7046" lon="6.17944">
        <ele>256.36</ele>
        <time>2018-09-05T10:25:41Z</time>
      </trkpt>
      <trkpt lat="47.70462" lon="6.17938">
        <ele>256.49</ele>
        <time>2018-09-05T10:25:44Z</time>
      </trkpt>
      <trkpt lat="47.70465" lon="6.17932">
        <ele>256.63</ele>
        <time>2018-09-05T10:25:47Z</time>
      </trkpt>
      <trkpt lat="47.70468" lon="6.17927">
        <ele>256.77</ele>
        <time>2018-09-05T10:25:50Z</time>
      </trkpt>
      <trkpt lat="47.70471" lon="6.1792">
        <ele>256.91</ele>
        <time>2018-09-05T10:25:53Z</time>
      </trkpt>
      <trkpt lat="47.70474" lon="6.17913">
        <ele>257.05</ele>
        <time>2018-09-05T10:25:56Z</time>
      </trkpt>
      <trkpt lat="47.70477" lon="6.17906">
        <ele>257.19</ele>
        <time>2018-09-05T10:25:59Z</time>
      </trkpt>
      <trkpt lat="47.7048" lon="6.17899">
        <ele>257.33</ele>
        <time>2018-09-05T10:26:02Z</time>
      </trkpt>
      <trkpt lat="47.70483" lon="6.17893">
        <ele>257.48</ele>
        <time>2018-09-05T10:26:05Z</time>
      </trkpt>
      <trkpt lat="47.70486" lon="6.17886">
        <ele>257.62</ele>
        <time>2018-09-05T10:26:08Z</time>
      </trkpt>
      <trkpt lat="47.7049" lon="6.17879">
        <ele>257.78</ele>
        <time>2018-09-05T10:26:11Z</time>
      </trkpt>
      <trkpt lat="47.70494" lon="6.17874">
        <ele>257.93</ele>
        <time>2018-09-05T10:26:14Z</time>
      </trkpt>
      <trkpt lat="47.70497" lon="6.17868">
        <ele>258.08</ele>
        <time>2018-09-05T10:26:17Z</time>
      </trkpt>
      <trkpt lat="47.705" lon="6.17862">
        <ele>258.24</ele>
        <time>2018-09-05T10:26:20Z</time>
      </trkpt>
      <trkpt lat="47.70504" lon="6.17856">
        <ele>258.41</ele>
        <time>2018-09-05T10:26:23Z</time>
      </trkpt>
      <trkpt lat="47.70507" lon="6.17852">
        <ele>258.57</ele>
        <time>2018-09-05T10:26:26Z</time>
      </trkpt>
      <trkpt lat="47.70511" lon="6.17847">
        <ele>258.74</ele>
        <time>2018-09-05T10:26:29Z</time>
      </trkpt>
      <trkpt lat="47.70515" lon="6.17841">
        <ele>258.9</ele>
        <time>2018-09-05T10:26:32Z</time>
      </trkpt>
      <trkpt lat="47.70518" lon="6.17836">
        <ele>259.07</ele>
        <time>2018-09-05T10:26:35Z</time>
      </trkpt>
      <trkpt lat="47.70522" lon="6.17831">
        <ele>259.24</ele>
        <time>2018-09-05T10:26:38Z</time>
      </trkpt>
      <trkpt lat="47.70525" lon="6.17825">
        <ele>259.41</ele>
        <time>2018-09-05T10:26:41Z</time>
      </trkpt>
      <trkpt lat="47.70527" lon="6.17819">
        <ele>259.58</ele>
        <time>2018-09-05T10:26:44Z</time>
      </trkpt>
      <trkpt lat="47.7053" lon="6.17813">
        <ele>259.76</ele>
        <time>2018-09-05T10:26:47Z</time>
      </trkpt>
      <trkpt lat="47.70533" lon="6.17808">
        <ele>259.94</ele>
        <time>2018-09-05T10:26:50Z</time>
      </trkpt>
      <trkpt lat="47.70536" lon="6.17802">
        <ele>260.11</ele>
        <time>2018-09-05T10:26:53Z</time>
      </trkpt>
      <trkpt lat="47.70541" lon="6.17795">
        <ele>260.29</ele>
        <time>2018-09-05T10:26:56Z</time>
      </trkpt>
      <trkpt lat="47.70546" lon="6.17789">
        <ele>260.47</ele>
        <time>2018-09-05T10:26:59Z</time>
      </trkpt>
      <trkpt lat="47.7055" lon="6.17785">
        <ele>260.7</ele>
        <time>2018-09-05T10:27:03Z</time>
      </trkpt>
      <trkpt lat="47.70555" lon="6.17782">
        <ele>260.94</ele>
        <time>2018-09-05T10:27:07Z</time>
      </trkpt>
      <trkpt lat="47.7056" lon="6.17781">
        <ele>261.22</ele>
        <time>2018-09-05T10:27:12Z</time>
      </trkpt>
      <trkpt lat="47.70566" lon="6.17782">
        <ele>261.44</ele>
        <time>2018-09-05T10:27:16Z</time>
      </trkpt>
      <trkpt lat="47.70571" lon="6.17782">
        <ele>261.66</ele>
        <time>2018-09-05T10:27:20Z</time>
      </trkpt>
      <trkpt lat="47.70577" lon="6.17782">
        <ele>261.86</ele>
        <time>2018-09-05T10:27:24Z</time>
      </trkpt>
      <trkpt lat="47.70582" lon="6.17781">
        <ele>262.06</ele>
        <time>2018-09-05T10:27:28Z</time>
      </trkpt>
      <trkpt lat="47.70589" lon="6.17781">
        <ele>262.16</ele>
        <time>2018-09-05T10:27:30Z</time>
      </trkpt>
      <trkpt lat="47.70597" lon="6.17779">
        <ele>262.27</ele>
        <time>2018-09-05T10:27:32Z</time>
      </trkpt>
      <trkpt lat="47.70603" lon="6.17778">
        <ele>262.37</ele>
        <time>2018-09-05T10:27:34Z</time>
      </trkpt>
      <trkpt lat="47.70609" lon="6.17777">
        <ele>262.48</ele>
        <time>2018-09-05T10:27:36Z</time>
      </trkpt>
      <trkpt lat="47.70614" lon="6.17774">
        <ele>262.64</ele>
        <time>2018-09-05T10:27:39Z</time>
      </trkpt>
      <trkpt lat="47.70619" lon="6.17772">
        <ele>262.8</ele>
        <time>2018-09-05T10:27:42Z</time>
      </trkpt>
      <trkpt lat="47.70621" lon="6.17766">
        <ele>263.13</ele>
        <time>2018-09-05T10:28:05Z</time>
      </trkpt>
      <trkpt lat="47.70625" lon="6.1776">
        <ele>263.3</ele>
        <time>2018-09-05T10:28:08Z</time>
      </trkpt>
      <trkpt lat="47.70628" lon="6.17753">
        <ele>263.48</ele>
        <time>2018-09-05T10:28:11Z</time>
      </trkpt>
      <trkpt lat="47.70633" lon="6.17746">
        <ele>263.64</ele>
        <time>2018-09-05T10:28:14Z</time>
      </trkpt>
      <trkpt lat="47.70636" lon="6.17737">
        <ele>263.74</ele>
        <time>2018-09-05T10:28:16Z</time>
      </trkpt>
      <trkpt lat="47.70639" lon="6.17731">
        <ele>264.1</ele>
        <time>2018-09-05T10:28:17Z</time>
      </trkpt>
      <trkpt lat="47.70642" lon="6.17725">
        <ele>264.23</ele>
        <time>2018-09-05T10:28:18Z</time>
      </trkpt>
      <trkpt lat="47.70645" lon="6.17719">
        <ele>264.54</ele>
        <time>2018-09-05T10:28:19Z</time>
      </trkpt>
      <trkpt lat="47.70649" lon="6.17713">
        <ele>264.66</ele>
        <time>2018-09-05T10:28:20Z</time>
      </trkpt>
      <trkpt lat="47.70653" lon="6.17709">
        <ele>264.71</ele>
        <time>2018-09-05T10:28:21Z</time>
      </trkpt>
      <trkpt lat="47.70657" lon="6.17705">
        <ele>264.75</ele>
        <time>2018-09-05T10:28:22Z</time>
      </trkpt>
      <trkpt lat="47.70663" lon="6.17698">
        <ele>264.81</ele>
        <time>2018-09-05T10:28:24Z</time>
      </trkpt>
      <trkpt lat="47.7067" lon="6.17693">
        <ele>264.87</ele>
        <time>2018-09-05T10:28:26Z</time>
      </trkpt>
      <trkpt lat="47.70678" lon="6.1769">
        <ele>264.93</ele>
        <time>2018-09-05T10:28:28Z</time>
      </trkpt>
      <trkpt lat="47.70686" lon="6.17689">
        <ele>264.99</ele>
        <time>2018-09-05T10:28:30Z</time>
      </trkpt>
      <trkpt lat="47.70694" lon="6.17688">
        <ele>265.05</ele>
        <time>2018-09-05T10:28:32Z</time>
      </trkpt>
      <trkpt lat="47.70702" lon="6.17688">
        <ele>265.11</ele>
        <time>2018-09-05T10:28:34Z</time>
      </trkpt>
      <trkpt lat="47.70709" lon="6.17687">
        <ele>265.17</ele>
        <time>2018-09-05T10:28:36Z</time>
      </trkpt>
      <trkpt lat="47.70714" lon="6.17686">
        <ele>265.23</ele>
        <time>2018-09-05T10:28:38Z</time>
      </trkpt>
      <trkpt lat="47.7072" lon="6.17685">
        <ele>265.29</ele>
        <time>2018-09-05T10:28:40Z</time>
      </trkpt>
      <trkpt lat="47.70727" lon="6.17683">
        <ele>265.35</ele>
        <time>2018-09-05T10:28:42Z</time>
      </trkpt>
      <trkpt lat="47.70733" lon="6.17681">
        <ele>265.42</ele>
        <time>2018-09-05T10:28:44Z</time>
      </trkpt>
      <trkpt lat="47.70738" lon="6.17679">
        <ele>265.48</ele>
        <time>2018-09-05T10:28:46Z</time>
      </trkpt>
      <trkpt lat="47.70742" lon="6.17677">
        <ele>265.55</ele>
        <time>2018-09-05T10:28:48Z</time>
      </trkpt>
      <trkpt lat="47.70748" lon="6.17674">
        <ele>265.61</ele>
        <time>2018-09-05T10:28:50Z</time>
      </trkpt>
      <trkpt lat="47.70753" lon="6.17672">
        <ele>265.68</ele>
        <time>2018-09-05T10:28:52Z</time>
      </trkpt>
      <trkpt lat="47.70758" lon="6.17669">
        <ele>265.77</ele>
        <time>2018-09-05T10:28:55Z</time>
      </trkpt>
      <trkpt lat="47.70762" lon="6.17665">
        <ele>265.87</ele>
        <time>2018-09-05T10:28:58Z</time>
      </trkpt>
      <trkpt lat="47.70766" lon="6.17659">
        <ele>266.02</ele>
        <time>2018-09-05T10:29:02Z</time>
      </trkpt>
      <trkpt lat="47.70769" lon="6.17653">
        <ele>266.14</ele>
        <time>2018-09-05T10:29:05Z</time>
      </trkpt>
      <trkpt lat="47.70771" lon="6.17647">
        <ele>266.26</ele>
        <time>2018-09-05T10:29:08Z</time>
      </trkpt>
      <trkpt lat="47.70773" lon="6.17641">
        <ele>266.37</ele>
        <time>2018-09-05T10:29:11Z</time>
      </trkpt>
      <trkpt lat="47.70777" lon="6.17634">
        <ele>266.53</ele>
        <time>2018-09-05T10:29:15Z</time>
      </trkpt>
      <trkpt lat="47.7078" lon="6.17628">
        <ele>266.69</ele>
        <time>2018-09-05T10:29:19Z</time>
      </trkpt>
      <trkpt lat="47.70783" lon="6.17622">
        <ele>266.8</ele>
        <time>2018-09-05T10:29:22Z</time>
      </trkpt>
      <trkpt lat="47.70785" lon="6.17616">
        <ele>266.92</ele>
        <time>2018-09-05T10:29:25Z</time>
      </trkpt>
      <trkpt lat="47.70788" lon="6.17609">
        <ele>267.08</ele>
        <time>2018-09-05T10:29:29Z</time>
      </trkpt>
      <trkpt lat="47.7079" lon="6.17602">
        <ele>267.2</ele>
        <time>2018-09-05T10:29:32Z</time>
      </trkpt>
      <trkpt lat="47.70792" lon="6.17595">
        <ele>267.32</ele>
        <time>2018-09-05T10:29:35Z</time>
      </trkpt>
      <trkpt lat="47.70795" lon="6.17588">
        <ele>267.43</ele>
        <time>2018-09-05T10:29:38Z</time>
      </trkpt>
      <trkpt lat="47.70798" lon="6.17582">
        <ele>267.55</ele>
        <time>2018-09-05T10:29:41Z</time>
      </trkpt>
      <trkpt lat="47.70801" lon="6.17576">
        <ele>267.7</ele>
        <time>2018-09-05T10:29:45Z</time>
      </trkpt>
      <trkpt lat="47.70805" lon="6.17571">
        <ele>267.82</ele>
        <time>2018-09-05T10:29:48Z</time>
      </trkpt>
      <trkpt lat="47.70808" lon="6.17565">
        <ele>267.93</ele>
        <time>2018-09-05T10:29:51Z</time>
      </trkpt>
      <trkpt lat="47.7081" lon="6.17557">
        <ele>268.07</ele>
        <time>2018-09-05T10:29:54Z</time>
      </trkpt>
      <trkpt lat="47.7081" lon="6.17549">
        <ele>268.12</ele>
        <time>2018-09-05T10:29:56Z</time>
      </trkpt>
      <trkpt lat="47.7081" lon="6.17538">
        <ele>268.08</ele>
        <time>2018-09-05T10:29:58Z</time>
      </trkpt>
      <trkpt lat="47.7081" lon="6.17526">
        <ele>267.98</ele>
        <time>2018-09-05T10:30:00Z</time>
      </trkpt>
      <trkpt lat="47.70809" lon="6.17518">
        <ele>267.9</ele>
        <time>2018-09-05T10:30:01Z</time>
      </trkpt>
      <trkpt lat="47.70809" lon="6.17512">
        <ele>267.79</ele>
        <time>2018-09-05T10:30:02Z</time>
      </trkpt>
      <trkpt lat="47.70809" lon="6.17499">
        <ele>267.56</ele>
        <time>2018-09-05T10:30:04Z</time>
      </trkpt>
      <trkpt lat="47.70809" lon="6.17492">
        <ele>267.42</ele>
        <time>2018-09-05T10:30:05Z</time>
      </trkpt>
      <trkpt lat="47.70809" lon="6.17481">
        <ele>267.15</ele>
        <time>2018-09-05T10:30:07Z</time>
      </trkpt>
      <trkpt lat="47.70808" lon="6.1747">
        <ele>266.9</ele>
        <time>2018-09-05T10:30:09Z</time>
      </trkpt>
      <trkpt lat="47.70807" lon="6.17461">
        <ele>266.68</ele>
        <time>2018-09-05T10:30:11Z</time>
      </trkpt>
      <trkpt lat="47.70805" lon="6.17452">
        <ele>266.52</ele>
        <time>2018-09-05T10:30:13Z</time>
      </trkpt>
      <trkpt lat="47.70803" lon="6.17444">
        <ele>266.4</ele>
        <time>2018-09-05T10:30:16Z</time>
      </trkpt>
      <trkpt lat="47.70802" lon="6.17436">
        <ele>266.43</ele>
        <time>2018-09-05T10:30:19Z</time>
      </trkpt>
      <trkpt lat="47.708" lon="6.17429">
        <ele>266.58</ele>
        <time>2018-09-05T10:30:22Z</time>
      </trkpt>
      <trkpt lat="47.70799" lon="6.17422">
        <ele>266.81</ele>
        <time>2018-09-05T10:30:25Z</time>
      </trkpt>
      <trkpt lat="47.70797" lon="6.17414">
        <ele>267.11</ele>
        <time>2018-09-05T10:30:28Z</time>
      </trkpt>
      <trkpt lat="47.70795" lon="6.17405">
        <ele>267.5</ele>
        <time>2018-09-05T10:30:31Z</time>
      </trkpt>
      <trkpt lat="47.70793" lon="6.17399">
        <ele>267.94</ele>
        <time>2018-09-05T10:30:34Z</time>
      </trkpt>
      <trkpt lat="47.70791" lon="6.17391">
        <ele>268.41</ele>
        <time>2018-09-05T10:30:37Z</time>
      </trkpt>
      <trkpt lat="47.7079" lon="6.17384">
        <ele>268.74</ele>
        <time>2018-09-05T10:30:39Z</time>
      </trkpt>
      <trkpt lat="47.70788" lon="6.17377">
        <ele>269.12</ele>
        <time>2018-09-05T10:30:41Z</time>
      </trkpt>
      <trkpt lat="47.70787" lon="6.17369">
        <ele>269.51</ele>
        <time>2018-09-05T10:30:43Z</time>
      </trkpt>
      <trkpt lat="47.70786" lon="6.1736">
        <ele>269.94</ele>
        <time>2018-09-05T10:30:45Z</time>
      </trkpt>
      <trkpt lat="47.70785" lon="6.17353">
        <ele>270.39</ele>
        <time>2018-09-05T10:30:47Z</time>
      </trkpt>
      <trkpt lat="47.70784" lon="6.17346">
        <ele>270.86</ele>
        <time>2018-09-05T10:30:49Z</time>
      </trkpt>
      <trkpt lat="47.70783" lon="6.17338">
        <ele>271.59</ele>
        <time>2018-09-05T10:30:52Z</time>
      </trkpt>
      <trkpt lat="47.70782" lon="6.1733">
        <ele>272.32</ele>
        <time>2018-09-05T10:30:55Z</time>
      </trkpt>
      <trkpt lat="47.7078" lon="6.17321">
        <ele>273.07</ele>
        <time>2018-09-05T10:30:58Z</time>
      </trkpt>
      <trkpt lat="47.70778" lon="6.17313">
        <ele>273.81</ele>
        <time>2018-09-05T10:31:01Z</time>
      </trkpt>
      <trkpt lat="47.70776" lon="6.17306">
        <ele>274.55</ele>
        <time>2018-09-05T10:31:04Z</time>
      </trkpt>
      <trkpt lat="47.70775" lon="6.17297">
        <ele>275.27</ele>
        <time>2018-09-05T10:31:07Z</time>
      </trkpt>
      <trkpt lat="47.70774" lon="6.17286">
        <ele>275.95</ele>
        <time>2018-09-05T10:31:10Z</time>
      </trkpt>
      <trkpt lat="47.70773" lon="6.17278">
        <ele>276.6</ele>
        <time>2018-09-05T10:31:13Z</time>
      </trkpt>
      <trkpt lat="47.70772" lon="6.17271">
        <ele>277.02</ele>
        <time>2018-09-05T10:31:15Z</time>
      </trkpt>
      <trkpt lat="47.70771" lon="6.17264">
        <ele>277.43</ele>
        <time>2018-09-05T10:31:17Z</time>
      </trkpt>
      <trkpt lat="47.7077" lon="6.17254">
        <ele>278.01</ele>
        <time>2018-09-05T10:31:20Z</time>
      </trkpt>
      <trkpt lat="47.70768" lon="6.17248">
        <ele>278.4</ele>
        <time>2018-09-05T10:31:22Z</time>
      </trkpt>
      <trkpt lat="47.70767" lon="6.17241">
        <ele>278.79</ele>
        <time>2018-09-05T10:31:24Z</time>
      </trkpt>
      <trkpt lat="47.70766" lon="6.17232">
        <ele>279.19</ele>
        <time>2018-09-05T10:31:26Z</time>
      </trkpt>
      <trkpt lat="47.70765" lon="6.17225">
        <ele>279.4</ele>
        <time>2018-09-05T10:31:27Z</time>
      </trkpt>
      <trkpt lat="47.70763" lon="6.17215">
        <ele>279.84</ele>
        <time>2018-09-05T10:31:29Z</time>
      </trkpt>
      <trkpt lat="47.70761" lon="6.17206">
        <ele>280.3</ele>
        <time>2018-09-05T10:31:31Z</time>
      </trkpt>
      <trkpt lat="47.70759" lon="6.17196">
        <ele>280.77</ele>
        <time>2018-09-05T10:31:33Z</time>
      </trkpt>
      <trkpt lat="47.70757" lon="6.17187">
        <ele>281.24</ele>
        <time>2018-09-05T10:31:35Z</time>
      </trkpt>
      <trkpt lat="47.70755" lon="6.17178">
        <ele>281.72</ele>
        <time>2018-09-05T10:31:37Z</time>
      </trkpt>
      <trkpt lat="47.70753" lon="6.17169">
        <ele>282.2</ele>
        <time>2018-09-05T10:31:39Z</time>
      </trkpt>
      <trkpt lat="47.70751" lon="6.17161">
        <ele>282.68</ele>
        <time>2018-09-05T10:31:41Z</time>
      </trkpt>
      <trkpt lat="47.70749" lon="6.17152">
        <ele>283.15</ele>
        <time>2018-09-05T10:31:43Z</time>
      </trkpt>
      <trkpt lat="47.70747" lon="6.17142">
        <ele>283.61</ele>
        <time>2018-09-05T10:31:45Z</time>
      </trkpt>
      <trkpt lat="47.70746" lon="6.17133">
        <ele>284.07</ele>
        <time>2018-09-05T10:31:47Z</time>
      </trkpt>
      <trkpt lat="47.70744" lon="6.17125">
        <ele>284.53</ele>
        <time>2018-09-05T10:31:49Z</time>
      </trkpt>
      <trkpt lat="47.70742" lon="6.17116">
        <ele>284.98</ele>
        <time>2018-09-05T10:31:51Z</time>
      </trkpt>
      <trkpt lat="47.70741" lon="6.17108">
        <ele>285.41</ele>
        <time>2018-09-05T10:31:53Z</time>
      </trkpt>
      <trkpt lat="47.70739" lon="6.17099">
        <ele>285.84</ele>
        <time>2018-09-05T10:31:55Z</time>
      </trkpt>
      <trkpt lat="47.70736" lon="6.17087">
        <ele>286.25</ele>
        <time>2018-09-05T10:31:57Z</time>
      </trkpt>
      <trkpt lat="47.70733" lon="6.17075">
        <ele>286.67</ele>
        <time>2018-09-05T10:31:59Z</time>
      </trkpt>
      <trkpt lat="47.7073" lon="6.17064">
        <ele>287.08</ele>
        <time>2018-09-05T10:32:01Z</time>
      </trkpt>
      <trkpt lat="47.70728" lon="6.17055">
        <ele>287.5</ele>
        <time>2018-09-05T10:32:03Z</time>
      </trkpt>
      <trkpt lat="47.70726" lon="6.17046">
        <ele>287.91</ele>
        <time>2018-09-05T10:32:05Z</time>
      </trkpt>
      <trkpt lat="47.70724" lon="6.17035">
        <ele>288.31</ele>
        <time>2018-09-05T10:32:07Z</time>
      </trkpt>
      <trkpt lat="47.70722" lon="6.17026">
        <ele>288.71</ele>
        <time>2018-09-05T10:32:09Z</time>
      </trkpt>
      <trkpt lat="47.7072" lon="6.17017">
        <ele>289.1</ele>
        <time>2018-09-05T10:32:11Z</time>
      </trkpt>
      <trkpt lat="47.70719" lon="6.1701">
        <ele>289.48</ele>
        <time>2018-09-05T10:32:13Z</time>
      </trkpt>
      <trkpt lat="47.70717" lon="6.17001">
        <ele>289.85</ele>
        <time>2018-09-05T10:32:15Z</time>
      </trkpt>
      <trkpt lat="47.70716" lon="6.16992">
        <ele>290.39</ele>
        <time>2018-09-05T10:32:18Z</time>
      </trkpt>
      <trkpt lat="47.70714" lon="6.16983">
        <ele>290.9</ele>
        <time>2018-09-05T10:32:21Z</time>
      </trkpt>
      <trkpt lat="47.70714" lon="6.16976">
        <ele>291.24</ele>
        <time>2018-09-05T10:32:23Z</time>
      </trkpt>
      <trkpt lat="47.70714" lon="6.16967">
        <ele>291.58</ele>
        <time>2018-09-05T10:32:25Z</time>
      </trkpt>
      <trkpt lat="47.70714" lon="6.16959">
        <ele>291.92</ele>
        <time>2018-09-05T10:32:27Z</time>
      </trkpt>
      <trkpt lat="47.70715" lon="6.16952">
        <ele>292.26</ele>
        <time>2018-09-05T10:32:29Z</time>
      </trkpt>
      <trkpt lat="47.70714" lon="6.16945">
        <ele>292.59</ele>
        <time>2018-09-05T10:32:31Z</time>
      </trkpt>
      <trkpt lat="47.70712" lon="6.16938">
        <ele>292.92</ele>
        <time>2018-09-05T10:32:33Z</time>
      </trkpt>
      <trkpt lat="47.70711" lon="6.16928">
        <ele>293.24</ele>
        <time>2018-09-05T10:32:35Z</time>
      </trkpt>
      <trkpt lat="47.70709" lon="6.16919">
        <ele>293.56</ele>
        <time>2018-09-05T10:32:37Z</time>
      </trkpt>
      <trkpt lat="47.70707" lon="6.16909">
        <ele>294.04</ele>
        <time>2018-09-05T10:32:40Z</time>
      </trkpt>
      <trkpt lat="47.70707" lon="6.16902">
        <ele>294.41</ele>
        <time>2018-09-05T10:32:50Z</time>
      </trkpt>
      <trkpt lat="47.70704" lon="6.16896">
        <ele>295.79</ele>
        <time>2018-09-05T10:33:02Z</time>
      </trkpt>
      <trkpt lat="47.70704" lon="6.16889">
        <ele>296.35</ele>
        <time>2018-09-05T10:33:05Z</time>
      </trkpt>
      <trkpt lat="47.70703" lon="6.16881">
        <ele>296.88</ele>
        <time>2018-09-05T10:33:08Z</time>
      </trkpt>
      <trkpt lat="47.70702" lon="6.16872">
        <ele>297.38</ele>
        <time>2018-09-05T10:33:11Z</time>
      </trkpt>
      <trkpt lat="47.70701" lon="6.16866">
        <ele>297.71</ele>
        <time>2018-09-05T10:33:13Z</time>
      </trkpt>
      <trkpt lat="47.707" lon="6.16857">
        <ele>298.18</ele>
        <time>2018-09-05T10:33:16Z</time>
      </trkpt>
      <trkpt lat="47.70698" lon="6.16848">
        <ele>298.63</ele>
        <time>2018-09-05T10:33:19Z</time>
      </trkpt>
      <trkpt lat="47.70697" lon="6.1684">
        <ele>298.92</ele>
        <time>2018-09-05T10:33:21Z</time>
      </trkpt>
      <trkpt lat="47.70695" lon="6.1683">
        <ele>299.19</ele>
        <time>2018-09-05T10:33:23Z</time>
      </trkpt>
      <trkpt lat="47.70692" lon="6.16821">
        <ele>299.46</ele>
        <time>2018-09-05T10:33:25Z</time>
      </trkpt>
      <trkpt lat="47.70691" lon="6.16814">
        <ele>299.72</ele>
        <time>2018-09-05T10:33:27Z</time>
      </trkpt>
      <trkpt lat="47.70689" lon="6.16807">
        <ele>299.96</ele>
        <time>2018-09-05T10:33:29Z</time>
      </trkpt>
      <trkpt lat="47.70688" lon="6.168">
        <ele>300.21</ele>
        <time>2018-09-05T10:33:31Z</time>
      </trkpt>
      <trkpt lat="47.70686" lon="6.16792">
        <ele>300.44</ele>
        <time>2018-09-05T10:33:33Z</time>
      </trkpt>
      <trkpt lat="47.70685" lon="6.16785">
        <ele>300.66</ele>
        <time>2018-09-05T10:33:35Z</time>
      </trkpt>
      <trkpt lat="47.70684" lon="6.16776">
        <ele>300.97</ele>
        <time>2018-09-05T10:33:38Z</time>
      </trkpt>
      <trkpt lat="47.70682" lon="6.1677">
        <ele>301.24</ele>
        <time>2018-09-05T10:33:41Z</time>
      </trkpt>
      <trkpt lat="47.70683" lon="6.16763">
        <ele>301.45</ele>
        <time>2018-09-05T10:33:45Z</time>
      </trkpt>
      <trkpt lat="47.70679" lon="6.16757">
        <ele>301.6</ele>
        <time>2018-09-05T10:33:49Z</time>
      </trkpt>
      <trkpt lat="47.70674" lon="6.16749">
        <ele>301.68</ele>
        <time>2018-09-05T10:33:50Z</time>
      </trkpt>
      <trkpt lat="47.70671" lon="6.16744">
        <ele>301.71</ele>
        <time>2018-09-05T10:33:51Z</time>
      </trkpt>
      <trkpt lat="47.70669" lon="6.16738">
        <ele>301.95</ele>
        <time>2018-09-05T10:33:54Z</time>
      </trkpt>
      <trkpt lat="47.70669" lon="6.16731">
        <ele>302.91</ele>
        <time>2018-09-05T10:34:06Z</time>
      </trkpt>
      <trkpt lat="47.70669" lon="6.16723">
        <ele>303.22</ele>
        <time>2018-09-05T10:34:10Z</time>
      </trkpt>
      <trkpt lat="47.70669" lon="6.16714">
        <ele>303.51</ele>
        <time>2018-09-05T10:34:14Z</time>
      </trkpt>
      <trkpt lat="47.70668" lon="6.16706">
        <ele>303.78</ele>
        <time>2018-09-05T10:34:18Z</time>
      </trkpt>
      <trkpt lat="47.70668" lon="6.16698">
        <ele>303.97</ele>
        <time>2018-09-05T10:34:21Z</time>
      </trkpt>
      <trkpt lat="47.70668" lon="6.16691">
        <ele>304.14</ele>
        <time>2018-09-05T10:34:24Z</time>
      </trkpt>
      <trkpt lat="47.70667" lon="6.16684">
        <ele>304.3</ele>
        <time>2018-09-05T10:34:27Z</time>
      </trkpt>
      <trkpt lat="47.70666" lon="6.16677">
        <ele>304.49</ele>
        <time>2018-09-05T10:34:31Z</time>
      </trkpt>
      <trkpt lat="47.70665" lon="6.16669">
        <ele>304.62</ele>
        <time>2018-09-05T10:34:34Z</time>
      </trkpt>
      <trkpt lat="47.70663" lon="6.16661">
        <ele>304.74</ele>
        <time>2018-09-05T10:34:37Z</time>
      </trkpt>
      <trkpt lat="47.70663" lon="6.16653">
        <ele>304.85</ele>
        <time>2018-09-05T10:34:40Z</time>
      </trkpt>
      <trkpt lat="47.70663" lon="6.16646">
        <ele>304.96</ele>
        <time>2018-09-05T10:34:43Z</time>
      </trkpt>
      <trkpt lat="47.70663" lon="6.16638">
        <ele>305.05</ele>
        <time>2018-09-05T10:34:46Z</time>
      </trkpt>
      <trkpt lat="47.70663" lon="6.1663">
        <ele>305.15</ele>
        <time>2018-09-05T10:34:50Z</time>
      </trkpt>
      <trkpt lat="47.70662" lon="6.16622">
        <ele>305.24</ele>
        <time>2018-09-05T10:34:54Z</time>
      </trkpt>
      <trkpt lat="47.70662" lon="6.16614">
        <ele>305.33</ele>
        <time>2018-09-05T10:34:58Z</time>
      </trkpt>
      <trkpt lat="47.70663" lon="6.16605">
        <ele>305.42</ele>
        <time>2018-09-05T10:35:02Z</time>
      </trkpt>
      <trkpt lat="47.70663" lon="6.16598">
        <ele>305.47</ele>
        <time>2018-09-05T10:35:05Z</time>
      </trkpt>
      <trkpt lat="47.70663" lon="6.16589">
        <ele>305.51</ele>
        <time>2018-09-05T10:35:08Z</time>
      </trkpt>
      <trkpt lat="47.70663" lon="6.16583">
        <ele>305.56</ele>
        <time>2018-09-05T10:35:12Z</time>
      </trkpt>
      <trkpt lat="47.70663" lon="6.16575">
        <ele>305.59</ele>
        <time>2018-09-05T10:35:15Z</time>
      </trkpt>
      <trkpt lat="47.70662" lon="6.16567">
        <ele>305.61</ele>
        <time>2018-09-05T10:35:18Z</time>
      </trkpt>
      <trkpt lat="47.70661" lon="6.16559">
        <ele>305.62</ele>
        <time>2018-09-05T10:35:21Z</time>
      </trkpt>
      <trkpt lat="47.70661" lon="6.16551">
        <ele>305.64</ele>
        <time>2018-09-05T10:35:24Z</time>
      </trkpt>
      <trkpt lat="47.7066" lon="6.16543">
        <ele>305.64</ele>
        <time>2018-09-05T10:35:26Z</time>
      </trkpt>
      <trkpt lat="47.7066" lon="6.16536">
        <ele>305.64</ele>
        <time>2018-09-05T10:35:28Z</time>
      </trkpt>
      <trkpt lat="47.70659" lon="6.16529">
        <ele>305.65</ele>
        <time>2018-09-05T10:35:30Z</time>
      </trkpt>
      <trkpt lat="47.70657" lon="6.16523">
        <ele>305.65</ele>
        <time>2018-09-05T10:35:32Z</time>
      </trkpt>
      <trkpt lat="47.70656" lon="6.16514">
        <ele>305.64</ele>
        <time>2018-09-05T10:35:35Z</time>
      </trkpt>
      <trkpt lat="47.70654" lon="6.16504">
        <ele>305.64</ele>
        <time>2018-09-05T10:35:38Z</time>
      </trkpt>
      <trkpt lat="47.70652" lon="6.16498">
        <ele>305.64</ele>
        <time>2018-09-05T10:35:40Z</time>
      </trkpt>
      <trkpt lat="47.70651" lon="6.16491">
        <ele>305.63</ele>
        <time>2018-09-05T10:35:42Z</time>
      </trkpt>
      <trkpt lat="47.7065" lon="6.16484">
        <ele>305.62</ele>
        <time>2018-09-05T10:35:45Z</time>
      </trkpt>
      <trkpt lat="47.7065" lon="6.16475">
        <ele>305.61</ele>
        <time>2018-09-05T10:35:49Z</time>
      </trkpt>
      <trkpt lat="47.7065" lon="6.16467">
        <ele>305.61</ele>
        <time>2018-09-05T10:35:51Z</time>
      </trkpt>
      <trkpt lat="47.70649" lon="6.16458">
        <ele>305.6</ele>
        <time>2018-09-05T10:35:53Z</time>
      </trkpt>
      <trkpt lat="47.70648" lon="6.16449">
        <ele>305.61</ele>
        <time>2018-09-05T10:35:55Z</time>
      </trkpt>
      <trkpt lat="47.70647" lon="6.16441">
        <ele>305.61</ele>
        <time>2018-09-05T10:35:57Z</time>
      </trkpt>
      <trkpt lat="47.70647" lon="6.16433">
        <ele>305.61</ele>
        <time>2018-09-05T10:35:59Z</time>
      </trkpt>
      <trkpt lat="47.70646" lon="6.16424">
        <ele>305.61</ele>
        <time>2018-09-05T10:36:02Z</time>
      </trkpt>
      <trkpt lat="47.70647" lon="6.16417">
        <ele>305.6</ele>
        <time>2018-09-05T10:36:05Z</time>
      </trkpt>
      <trkpt lat="47.70649" lon="6.16407">
        <ele>305.6</ele>
        <time>2018-09-05T10:36:08Z</time>
      </trkpt>
      <trkpt lat="47.7065" lon="6.16399">
        <ele>305.6</ele>
        <time>2018-09-05T10:36:11Z</time>
      </trkpt>
      <trkpt lat="47.70649" lon="6.1639">
        <ele>305.59</ele>
        <time>2018-09-05T10:36:14Z</time>
      </trkpt>
      <trkpt lat="47.70649" lon="6.16382">
        <ele>305.56</ele>
        <time>2018-09-05T10:36:17Z</time>
      </trkpt>
      <trkpt lat="47.70649" lon="6.16375">
        <ele>305.52</ele>
        <time>2018-09-05T10:36:20Z</time>
      </trkpt>
      <trkpt lat="47.70648" lon="6.16367">
        <ele>305.46</ele>
        <time>2018-09-05T10:36:23Z</time>
      </trkpt>
      <trkpt lat="47.70648" lon="6.1636">
        <ele>305.41</ele>
        <time>2018-09-05T10:36:25Z</time>
      </trkpt>
      <trkpt lat="47.70647" lon="6.1635">
        <ele>305.35</ele>
        <time>2018-09-05T10:36:27Z</time>
      </trkpt>
      <trkpt lat="47.70645" lon="6.16339">
        <ele>305.29</ele>
        <time>2018-09-05T10:36:29Z</time>
      </trkpt>
      <trkpt lat="47.70645" lon="6.16329">
        <ele>305.23</ele>
        <time>2018-09-05T10:36:31Z</time>
      </trkpt>
      <trkpt lat="47.70644" lon="6.16319">
        <ele>305.19</ele>
        <time>2018-09-05T10:36:33Z</time>
      </trkpt>
      <trkpt lat="47.70644" lon="6.16311">
        <ele>305.15</ele>
        <time>2018-09-05T10:36:35Z</time>
      </trkpt>
      <trkpt lat="47.70643" lon="6.16304">
        <ele>305.11</ele>
        <time>2018-09-05T10:36:37Z</time>
      </trkpt>
      <trkpt lat="47.70643" lon="6.16296">
        <ele>305.07</ele>
        <time>2018-09-05T10:36:40Z</time>
      </trkpt>
      <trkpt lat="47.70643" lon="6.16288">
        <ele>305.04</ele>
        <time>2018-09-05T10:36:44Z</time>
      </trkpt>
      <trkpt lat="47.70644" lon="6.16281">
        <ele>305.01</ele>
        <time>2018-09-05T10:36:47Z</time>
      </trkpt>
      <trkpt lat="47.70643" lon="6.16271">
        <ele>304.98</ele>
        <time>2018-09-05T10:36:50Z</time>
      </trkpt>
      <trkpt lat="47.70642" lon="6.16263">
        <ele>304.96</ele>
        <time>2018-09-05T10:36:53Z</time>
      </trkpt>
      <trkpt lat="47.70641" lon="6.16253">
        <ele>304.94</ele>
        <time>2018-09-05T10:36:56Z</time>
      </trkpt>
      <trkpt lat="47.70639" lon="6.16246">
        <ele>304.94</ele>
        <time>2018-09-05T10:36:58Z</time>
      </trkpt>
      <trkpt lat="47.70638" lon="6.16239">
        <ele>304.94</ele>
        <time>2018-09-05T10:37:00Z</time>
      </trkpt>
      <trkpt lat="47.70637" lon="6.16232">
        <ele>304.94</ele>
        <time>2018-09-05T10:37:03Z</time>
      </trkpt>
      <trkpt lat="47.70636" lon="6.16225">
        <ele>304.96</ele>
        <time>2018-09-05T10:37:06Z</time>
      </trkpt>
      <trkpt lat="47.70634" lon="6.16217">
        <ele>304.97</ele>
        <time>2018-09-05T10:37:09Z</time>
      </trkpt>
      <trkpt lat="47.70632" lon="6.16211">
        <ele>305</ele>
        <time>2018-09-05T10:37:13Z</time>
      </trkpt>
      <trkpt lat="47.70627" lon="6.16209">
        <ele>305.03</ele>
        <time>2018-09-05T10:37:27Z</time>
      </trkpt>
      <trkpt lat="47.70622" lon="6.16206">
        <ele>305.05</ele>
        <time>2018-09-05T10:37:30Z</time>
      </trkpt>
      <trkpt lat="47.70617" lon="6.16205">
        <ele>305.05</ele>
        <time>2018-09-05T10:37:32Z</time>
      </trkpt>
      <trkpt lat="47.70611" lon="6.16204">
        <ele>305.05</ele>
        <time>2018-09-05T10:37:34Z</time>
      </trkpt>
      <trkpt lat="47.70604" lon="6.16206">
        <ele>305.04</ele>
        <time>2018-09-05T10:37:36Z</time>
      </trkpt>
      <trkpt lat="47.70599" lon="6.16208">
        <ele>305.04</ele>
        <time>2018-09-05T10:37:37Z</time>
      </trkpt>
      <trkpt lat="47.70591" lon="6.16209">
        <ele>305.02</ele>
        <time>2018-09-05T10:37:39Z</time>
      </trkpt>
      <trkpt lat="47.70583" lon="6.1621">
        <ele>304.9</ele>
        <time>2018-09-05T10:37:41Z</time>
      </trkpt>
      <trkpt lat="47.70578" lon="6.16211">
        <ele>304.79</ele>
        <time>2018-09-05T10:37:42Z</time>
      </trkpt>
      <trkpt lat="47.70574" lon="6.16212">
        <ele>304.68</ele>
        <time>2018-09-05T10:37:43Z</time>
      </trkpt>
      <trkpt lat="47.70569" lon="6.16213">
        <ele>304.58</ele>
        <time>2018-09-05T10:37:44Z</time>
      </trkpt>
      <trkpt lat="47.70564" lon="6.16214">
        <ele>304.48</ele>
        <time>2018-09-05T10:37:45Z</time>
      </trkpt>
      <trkpt lat="47.7056" lon="6.16216">
        <ele>304.4</ele>
        <time>2018-09-05T10:37:46Z</time>
      </trkpt>
      <trkpt lat="47.70555" lon="6.16217">
        <ele>304.31</ele>
        <time>2018-09-05T10:37:47Z</time>
      </trkpt>
      <trkpt lat="47.70551" lon="6.16218">
        <ele>304.22</ele>
        <time>2018-09-05T10:37:48Z</time>
      </trkpt>
      <trkpt lat="47.70546" lon="6.16219">
        <ele>304.14</ele>
        <time>2018-09-05T10:37:49Z</time>
      </trkpt>
      <trkpt lat="47.70538" lon="6.16219">
        <ele>304.02</ele>
        <time>2018-09-05T10:37:51Z</time>
      </trkpt>
      <trkpt lat="47.70526" lon="6.16221">
        <ele>303.92</ele>
        <time>2018-09-05T10:37:52Z</time>
      </trkpt>
      <trkpt lat="47.70521" lon="6.16223">
        <ele>303.83</ele>
        <time>2018-09-05T10:37:53Z</time>
      </trkpt>
      <trkpt lat="47.70511" lon="6.16223">
        <ele>303.64</ele>
        <time>2018-09-05T10:37:55Z</time>
      </trkpt>
      <trkpt lat="47.70506" lon="6.16224">
        <ele>303.55</ele>
        <time>2018-09-05T10:37:56Z</time>
      </trkpt>
      <trkpt lat="47.70501" lon="6.16225">
        <ele>303.45</ele>
        <time>2018-09-05T10:37:57Z</time>
      </trkpt>
      <trkpt lat="47.70496" lon="6.16225">
        <ele>303.35</ele>
        <time>2018-09-05T10:37:58Z</time>
      </trkpt>
      <trkpt lat="47.70491" lon="6.16226">
        <ele>303.25</ele>
        <time>2018-09-05T10:37:59Z</time>
      </trkpt>
      <trkpt lat="47.70485" lon="6.16228">
        <ele>303.16</ele>
        <time>2018-09-05T10:38:00Z</time>
      </trkpt>
      <trkpt lat="47.7048" lon="6.16229">
        <ele>303.06</ele>
        <time>2018-09-05T10:38:01Z</time>
      </trkpt>
      <trkpt lat="47.70476" lon="6.1623">
        <ele>302.97</ele>
        <time>2018-09-05T10:38:02Z</time>
      </trkpt>
      <trkpt lat="47.7047" lon="6.16233">
        <ele>302.89</ele>
        <time>2018-09-05T10:38:03Z</time>
      </trkpt>
      <trkpt lat="47.70465" lon="6.16234">
        <ele>302.81</ele>
        <time>2018-09-05T10:38:04Z</time>
      </trkpt>
      <trkpt lat="47.70457" lon="6.16234">
        <ele>302.63</ele>
        <time>2018-09-05T10:38:06Z</time>
      </trkpt>
      <trkpt lat="47.70448" lon="6.16234">
        <ele>302.5</ele>
        <time>2018-09-05T10:38:08Z</time>
      </trkpt>
      <trkpt lat="47.70441" lon="6.16235">
        <ele>302.37</ele>
        <time>2018-09-05T10:38:10Z</time>
      </trkpt>
      <trkpt lat="47.70434" lon="6.16232">
        <ele>302.2</ele>
        <time>2018-09-05T10:38:12Z</time>
      </trkpt>
      <trkpt lat="47.70425" lon="6.16232">
        <ele>301.99</ele>
        <time>2018-09-05T10:38:14Z</time>
      </trkpt>
      <trkpt lat="47.70418" lon="6.16232">
        <ele>301.94</ele>
        <time>2018-09-05T10:38:16Z</time>
      </trkpt>
      <trkpt lat="47.70414" lon="6.16236">
        <ele>301.92</ele>
        <time>2018-09-05T10:38:17Z</time>
      </trkpt>
      <trkpt lat="47.70405" lon="6.16237">
        <ele>301.7</ele>
        <time>2018-09-05T10:38:19Z</time>
      </trkpt>
      <trkpt lat="47.70397" lon="6.16239">
        <ele>301.64</ele>
        <time>2018-09-05T10:38:21Z</time>
      </trkpt>
      <trkpt lat="47.7039" lon="6.1624">
        <ele>301.6</ele>
        <time>2018-09-05T10:38:23Z</time>
      </trkpt>
      <trkpt lat="47.70383" lon="6.16241">
        <ele>301.55</ele>
        <time>2018-09-05T10:38:25Z</time>
      </trkpt>
      <trkpt lat="47.70376" lon="6.16242">
        <ele>301.49</ele>
        <time>2018-09-05T10:38:27Z</time>
      </trkpt>
      <trkpt lat="47.70368" lon="6.16241">
        <ele>301.43</ele>
        <time>2018-09-05T10:38:29Z</time>
      </trkpt>
      <trkpt lat="47.70364" lon="6.16241">
        <ele>301.37</ele>
        <time>2018-09-05T10:38:31Z</time>
      </trkpt>
      <trkpt lat="47.70356" lon="6.16245">
        <ele>301.31</ele>
        <time>2018-09-05T10:38:33Z</time>
      </trkpt>
      <trkpt lat="47.70348" lon="6.16249">
        <ele>301.24</ele>
        <time>2018-09-05T10:38:35Z</time>
      </trkpt>
      <trkpt lat="47.70341" lon="6.16252">
        <ele>301.18</ele>
        <time>2018-09-05T10:38:37Z</time>
      </trkpt>
      <trkpt lat="47.70334" lon="6.16254">
        <ele>301.11</ele>
        <time>2018-09-05T10:38:39Z</time>
      </trkpt>
      <trkpt lat="47.70326" lon="6.16256">
        <ele>301.04</ele>
        <time>2018-09-05T10:38:41Z</time>
      </trkpt>
      <trkpt lat="47.70318" lon="6.16257">
        <ele>300.97</ele>
        <time>2018-09-05T10:38:43Z</time>
      </trkpt>
      <trkpt lat="47.7031" lon="6.16258">
        <ele>300.89</ele>
        <time>2018-09-05T10:38:45Z</time>
      </trkpt>
      <trkpt lat="47.70303" lon="6.16258">
        <ele>300.55</ele>
        <time>2018-09-05T10:38:47Z</time>
      </trkpt>
      <trkpt lat="47.70295" lon="6.16259">
        <ele>299.91</ele>
        <time>2018-09-05T10:38:49Z</time>
      </trkpt>
      <trkpt lat="47.70278" lon="6.16261">
        <ele>299.39</ele>
        <time>2018-09-05T10:38:51Z</time>
      </trkpt>
      <trkpt lat="47.70273" lon="6.16262">
        <ele>299.18</ele>
        <time>2018-09-05T10:38:52Z</time>
      </trkpt>
      <trkpt lat="47.70268" lon="6.16262">
        <ele>298.98</ele>
        <time>2018-09-05T10:38:53Z</time>
      </trkpt>
      <trkpt lat="47.70264" lon="6.16263">
        <ele>298.81</ele>
        <time>2018-09-05T10:38:54Z</time>
      </trkpt>
      <trkpt lat="47.70259" lon="6.16264">
        <ele>298.64</ele>
        <time>2018-09-05T10:38:55Z</time>
      </trkpt>
      <trkpt lat="47.70254" lon="6.16264">
        <ele>298.5</ele>
        <time>2018-09-05T10:38:56Z</time>
      </trkpt>
      <trkpt lat="47.70249" lon="6.16265">
        <ele>298.38</ele>
        <time>2018-09-05T10:38:57Z</time>
      </trkpt>
      <trkpt lat="47.70244" lon="6.16265">
        <ele>298.28</ele>
        <time>2018-09-05T10:38:58Z</time>
      </trkpt>
      <trkpt lat="47.70239" lon="6.16265">
        <ele>298.2</ele>
        <time>2018-09-05T10:38:59Z</time>
      </trkpt>
      <trkpt lat="47.70234" lon="6.16266">
        <ele>298.13</ele>
        <time>2018-09-05T10:39:00Z</time>
      </trkpt>
      <trkpt lat="47.70228" lon="6.16266">
        <ele>298.06</ele>
        <time>2018-09-05T10:39:01Z</time>
      </trkpt>
      <trkpt lat="47.70222" lon="6.16265">
        <ele>297.97</ele>
        <time>2018-09-05T10:39:02Z</time>
      </trkpt>
      <trkpt lat="47.70217" lon="6.16266">
        <ele>297.87</ele>
        <time>2018-09-05T10:39:03Z</time>
      </trkpt>
      <trkpt lat="47.70212" lon="6.16267">
        <ele>297.79</ele>
        <time>2018-09-05T10:39:04Z</time>
      </trkpt>
      <trkpt lat="47.70206" lon="6.16268">
        <ele>297.7</ele>
        <time>2018-09-05T10:39:05Z</time>
      </trkpt>
      <trkpt lat="47.70201" lon="6.16269">
        <ele>297.6</ele>
        <time>2018-09-05T10:39:06Z</time>
      </trkpt>
      <trkpt lat="47.70195" lon="6.1627">
        <ele>297.5</ele>
        <time>2018-09-05T10:39:07Z</time>
      </trkpt>
      <trkpt lat="47.70189" lon="6.16271">
        <ele>297.4</ele>
        <time>2018-09-05T10:39:08Z</time>
      </trkpt>
      <trkpt lat="47.70184" lon="6.16272">
        <ele>297.29</ele>
        <time>2018-09-05T10:39:09Z</time>
      </trkpt>
      <trkpt lat="47.70179" lon="6.16273">
        <ele>297.18</ele>
        <time>2018-09-05T10:39:10Z</time>
      </trkpt>
      <trkpt lat="47.70173" lon="6.16274">
        <ele>297.08</ele>
        <time>2018-09-05T10:39:11Z</time>
      </trkpt>
      <trkpt lat="47.70168" lon="6.16275">
        <ele>296.99</ele>
        <time>2018-09-05T10:39:12Z</time>
      </trkpt>
      <trkpt lat="47.70163" lon="6.16276">
        <ele>296.89</ele>
        <time>2018-09-05T10:39:13Z</time>
      </trkpt>
      <trkpt lat="47.70158" lon="6.16277">
        <ele>296.8</ele>
        <time>2018-09-05T10:39:14Z</time>
      </trkpt>
      <trkpt lat="47.70149" lon="6.16278">
        <ele>296.61</ele>
        <time>2018-09-05T10:39:16Z</time>
      </trkpt>
      <trkpt lat="47.70144" lon="6.16279">
        <ele>296.52</ele>
        <time>2018-09-05T10:39:17Z</time>
      </trkpt>
      <trkpt lat="47.7014" lon="6.1628">
        <ele>296.42</ele>
        <time>2018-09-05T10:39:18Z</time>
      </trkpt>
      <trkpt lat="47.70135" lon="6.1628">
        <ele>296.32</ele>
        <time>2018-09-05T10:39:19Z</time>
      </trkpt>
      <trkpt lat="47.70126" lon="6.16282">
        <ele>296.14</ele>
        <time>2018-09-05T10:39:21Z</time>
      </trkpt>
      <trkpt lat="47.70121" lon="6.16283">
        <ele>296.04</ele>
        <time>2018-09-05T10:39:22Z</time>
      </trkpt>
      <trkpt lat="47.70117" lon="6.16283">
        <ele>295.95</ele>
        <time>2018-09-05T10:39:23Z</time>
      </trkpt>
      <trkpt lat="47.70112" lon="6.16284">
        <ele>295.85</ele>
        <time>2018-09-05T10:39:24Z</time>
      </trkpt>
      <trkpt lat="47.70107" lon="6.16284">
        <ele>295.75</ele>
        <time>2018-09-05T10:39:25Z</time>
      </trkpt>
      <trkpt lat="47.70103" lon="6.16286">
        <ele>295.65</ele>
        <time>2018-09-05T10:39:26Z</time>
      </trkpt>
      <trkpt lat="47.70094" lon="6.16287">
        <ele>295.49</ele>
        <time>2018-09-05T10:39:28Z</time>
      </trkpt>
      <trkpt lat="47.70089" lon="6.16288">
        <ele>295.4</ele>
        <time>2018-09-05T10:39:29Z</time>
      </trkpt>
      <trkpt lat="47.70085" lon="6.16289">
        <ele>295.32</ele>
        <time>2018-09-05T10:39:30Z</time>
      </trkpt>
      <trkpt lat="47.7008" lon="6.1629">
        <ele>295.25</ele>
        <time>2018-09-05T10:39:31Z</time>
      </trkpt>
      <trkpt lat="47.70075" lon="6.16291">
        <ele>295.18</ele>
        <time>2018-09-05T10:39:32Z</time>
      </trkpt>
      <trkpt lat="47.7007" lon="6.16291">
        <ele>295.1</ele>
        <time>2018-09-05T10:39:33Z</time>
      </trkpt>
      <trkpt lat="47.70065" lon="6.16292">
        <ele>295.04</ele>
        <time>2018-09-05T10:39:34Z</time>
      </trkpt>
      <trkpt lat="47.7006" lon="6.16292">
        <ele>294.97</ele>
        <time>2018-09-05T10:39:35Z</time>
      </trkpt>
      <trkpt lat="47.70051" lon="6.16294">
        <ele>294.81</ele>
        <time>2018-09-05T10:39:37Z</time>
      </trkpt>
      <trkpt lat="47.70042" lon="6.16296">
        <ele>294.66</ele>
        <time>2018-09-05T10:39:39Z</time>
      </trkpt>
      <trkpt lat="47.70032" lon="6.16297">
        <ele>294.53</ele>
        <time>2018-09-05T10:39:41Z</time>
      </trkpt>
      <trkpt lat="47.70027" lon="6.16298">
        <ele>294.47</ele>
        <time>2018-09-05T10:39:42Z</time>
      </trkpt>
      <trkpt lat="47.70021" lon="6.16298">
        <ele>294.42</ele>
        <time>2018-09-05T10:39:43Z</time>
      </trkpt>
      <trkpt lat="47.70015" lon="6.16298">
        <ele>294.36</ele>
        <time>2018-09-05T10:39:44Z</time>
      </trkpt>
      <trkpt lat="47.70008" lon="6.16297">
        <ele>294.28</ele>
        <time>2018-09-05T10:39:45Z</time>
      </trkpt>
      <trkpt lat="47.70001" lon="6.16298">
        <ele>294.2</ele>
        <time>2018-09-05T10:39:46Z</time>
      </trkpt>
      <trkpt lat="47.69995" lon="6.16298">
        <ele>294.12</ele>
        <time>2018-09-05T10:39:47Z</time>
      </trkpt>
      <trkpt lat="47.69989" lon="6.16299">
        <ele>294.01</ele>
        <time>2018-09-05T10:39:48Z</time>
      </trkpt>
      <trkpt lat="47.69983" lon="6.16299">
        <ele>293.9</ele>
        <time>2018-09-05T10:39:49Z</time>
      </trkpt>
      <trkpt lat="47.69977" lon="6.16299">
        <ele>293.79</ele>
        <time>2018-09-05T10:39:50Z</time>
      </trkpt>
      <trkpt lat="47.6997" lon="6.16298">
        <ele>293.67</ele>
        <time>2018-09-05T10:39:51Z</time>
      </trkpt>
      <trkpt lat="47.69964" lon="6.16297">
        <ele>293.57</ele>
        <time>2018-09-05T10:39:52Z</time>
      </trkpt>
      <trkpt lat="47.69958" lon="6.16295">
        <ele>293.47</ele>
        <time>2018-09-05T10:39:53Z</time>
      </trkpt>
      <trkpt lat="47.69953" lon="6.16294">
        <ele>293.37</ele>
        <time>2018-09-05T10:39:54Z</time>
      </trkpt>
      <trkpt lat="47.69948" lon="6.1629">
        <ele>293.28</ele>
        <time>2018-09-05T10:39:55Z</time>
      </trkpt>
      <trkpt lat="47.69944" lon="6.16284">
        <ele>293.19</ele>
        <time>2018-09-05T10:39:56Z</time>
      </trkpt>
      <trkpt lat="47.69942" lon="6.16279">
        <ele>293.11</ele>
        <time>2018-09-05T10:39:57Z</time>
      </trkpt>
      <trkpt lat="47.69939" lon="6.16272">
        <ele>293.01</ele>
        <time>2018-09-05T10:39:58Z</time>
      </trkpt>
      <trkpt lat="47.69937" lon="6.16265">
        <ele>292.91</ele>
        <time>2018-09-05T10:39:59Z</time>
      </trkpt>
      <trkpt lat="47.69933" lon="6.16254">
        <ele>292.67</ele>
        <time>2018-09-05T10:40:01Z</time>
      </trkpt>
      <trkpt lat="47.6993" lon="6.16242">
        <ele>292.4</ele>
        <time>2018-09-05T10:40:03Z</time>
      </trkpt>
      <trkpt lat="47.69929" lon="6.16235">
        <ele>292.27</ele>
        <time>2018-09-05T10:40:04Z</time>
      </trkpt>
      <trkpt lat="47.69926" lon="6.16229">
        <ele>292.13</ele>
        <time>2018-09-05T10:40:05Z</time>
      </trkpt>
      <trkpt lat="47.69922" lon="6.16218">
        <ele>291.86</ele>
        <time>2018-09-05T10:40:07Z</time>
      </trkpt>
      <trkpt lat="47.6992" lon="6.16212">
        <ele>291.74</ele>
        <time>2018-09-05T10:40:08Z</time>
      </trkpt>
      <trkpt lat="47.69918" lon="6.16205">
        <ele>291.64</ele>
        <time>2018-09-05T10:40:09Z</time>
      </trkpt>
      <trkpt lat="47.69916" lon="6.16198">
        <ele>291.55</ele>
        <time>2018-09-05T10:40:10Z</time>
      </trkpt>
      <trkpt lat="47.69914" lon="6.16192">
        <ele>291.44</ele>
        <time>2018-09-05T10:40:11Z</time>
      </trkpt>
      <trkpt lat="47.69911" lon="6.16186">
        <ele>291.33</ele>
        <time>2018-09-05T10:40:12Z</time>
      </trkpt>
      <trkpt lat="47.69908" lon="6.1618">
        <ele>291.2</ele>
        <time>2018-09-05T10:40:13Z</time>
      </trkpt>
      <trkpt lat="47.69905" lon="6.16174">
        <ele>291.05</ele>
        <time>2018-09-05T10:40:14Z</time>
      </trkpt>
      <trkpt lat="47.69902" lon="6.16167">
        <ele>290.88</ele>
        <time>2018-09-05T10:40:15Z</time>
      </trkpt>
      <trkpt lat="47.69898" lon="6.16162">
        <ele>290.7</ele>
        <time>2018-09-05T10:40:16Z</time>
      </trkpt>
      <trkpt lat="47.69893" lon="6.16156">
        <ele>290.52</ele>
        <time>2018-09-05T10:40:17Z</time>
      </trkpt>
      <trkpt lat="47.69889" lon="6.1615">
        <ele>290.34</ele>
        <time>2018-09-05T10:40:18Z</time>
      </trkpt>
      <trkpt lat="47.69885" lon="6.16144">
        <ele>290.17</ele>
        <time>2018-09-05T10:40:19Z</time>
      </trkpt>
      <trkpt lat="47.69881" lon="6.16138">
        <ele>290</ele>
        <time>2018-09-05T10:40:20Z</time>
      </trkpt>
      <trkpt lat="47.69877" lon="6.16133">
        <ele>289.83</ele>
        <time>2018-09-05T10:40:21Z</time>
      </trkpt>
      <trkpt lat="47.69873" lon="6.16128">
        <ele>289.66</ele>
        <time>2018-09-05T10:40:22Z</time>
      </trkpt>
      <trkpt lat="47.6987" lon="6.16122">
        <ele>289.49</ele>
        <time>2018-09-05T10:40:23Z</time>
      </trkpt>
      <trkpt lat="47.69866" lon="6.16117">
        <ele>289.32</ele>
        <time>2018-09-05T10:40:24Z</time>
      </trkpt>
      <trkpt lat="47.69862" lon="6.16111">
        <ele>289.14</ele>
        <time>2018-09-05T10:40:25Z</time>
      </trkpt>
      <trkpt lat="47.69859" lon="6.16107">
        <ele>288.96</ele>
        <time>2018-09-05T10:40:26Z</time>
      </trkpt>
      <trkpt lat="47.69854" lon="6.16101">
        <ele>288.76</ele>
        <time>2018-09-05T10:40:27Z</time>
      </trkpt>
      <trkpt lat="47.69849" lon="6.16095">
        <ele>288.57</ele>
        <time>2018-09-05T10:40:28Z</time>
      </trkpt>
      <trkpt lat="47.69844" lon="6.1609">
        <ele>288.39</ele>
        <time>2018-09-05T10:40:29Z</time>
      </trkpt>
      <trkpt lat="47.69839" lon="6.16085">
        <ele>288.21</ele>
        <time>2018-09-05T10:40:30Z</time>
      </trkpt>
      <trkpt lat="47.69834" lon="6.1608">
        <ele>288.04</ele>
        <time>2018-09-05T10:40:31Z</time>
      </trkpt>
      <trkpt lat="47.69829" lon="6.16075">
        <ele>287.86</ele>
        <time>2018-09-05T10:40:32Z</time>
      </trkpt>
      <trkpt lat="47.69823" lon="6.16071">
        <ele>287.69</ele>
        <time>2018-09-05T10:40:33Z</time>
      </trkpt>
      <trkpt lat="47.69818" lon="6.16066">
        <ele>287.53</ele>
        <time>2018-09-05T10:40:34Z</time>
      </trkpt>
      <trkpt lat="47.69812" lon="6.16062">
        <ele>287.38</ele>
        <time>2018-09-05T10:40:35Z</time>
      </trkpt>
      <trkpt lat="47.69807" lon="6.16058">
        <ele>287.23</ele>
        <time>2018-09-05T10:40:36Z</time>
      </trkpt>
      <trkpt lat="47.69801" lon="6.16054">
        <ele>287.08</ele>
        <time>2018-09-05T10:40:37Z</time>
      </trkpt>
      <trkpt lat="47.69796" lon="6.16051">
        <ele>286.94</ele>
        <time>2018-09-05T10:40:38Z</time>
      </trkpt>
      <trkpt lat="47.6979" lon="6.16046">
        <ele>286.82</ele>
        <time>2018-09-05T10:40:39Z</time>
      </trkpt>
      <trkpt lat="47.69785" lon="6.16042">
        <ele>286.7</ele>
        <time>2018-09-05T10:40:40Z</time>
      </trkpt>
      <trkpt lat="47.6978" lon="6.16037">
        <ele>286.59</ele>
        <time>2018-09-05T10:40:41Z</time>
      </trkpt>
      <trkpt lat="47.69775" lon="6.16033">
        <ele>286.49</ele>
        <time>2018-09-05T10:40:42Z</time>
      </trkpt>
      <trkpt lat="47.6977" lon="6.1603">
        <ele>286.4</ele>
        <time>2018-09-05T10:40:43Z</time>
      </trkpt>
      <trkpt lat="47.69766" lon="6.16027">
        <ele>286.3</ele>
        <time>2018-09-05T10:40:44Z</time>
      </trkpt>
      <trkpt lat="47.69761" lon="6.16026">
        <ele>286.2</ele>
        <time>2018-09-05T10:40:45Z</time>
      </trkpt>
      <trkpt lat="47.69756" lon="6.16026">
        <ele>286.06</ele>
        <time>2018-09-05T10:40:46Z</time>
      </trkpt>
      <trkpt lat="47.69748" lon="6.16031">
        <ele>285.72</ele>
        <time>2018-09-05T10:40:48Z</time>
      </trkpt>
      <trkpt lat="47.6974" lon="6.16036">
        <ele>285.41</ele>
        <time>2018-09-05T10:40:50Z</time>
      </trkpt>
      <trkpt lat="47.69733" lon="6.16042">
        <ele>285.33</ele>
        <time>2018-09-05T10:40:52Z</time>
      </trkpt>
      <trkpt lat="47.69727" lon="6.1605">
        <ele>285.26</ele>
        <time>2018-09-05T10:40:55Z</time>
      </trkpt>
      <trkpt lat="47.69723" lon="6.16057">
        <ele>285.2</ele>
        <time>2018-09-05T10:40:57Z</time>
      </trkpt>
      <trkpt lat="47.69718" lon="6.16063">
        <ele>285.14</ele>
        <time>2018-09-05T10:40:59Z</time>
      </trkpt>
      <trkpt lat="47.69713" lon="6.1607">
        <ele>285.08</ele>
        <time>2018-09-05T10:41:01Z</time>
      </trkpt>
      <trkpt lat="47.69704" lon="6.16082">
        <ele>284.79</ele>
        <time>2018-09-05T10:41:03Z</time>
      </trkpt>
      <trkpt lat="47.69698" lon="6.1609">
        <ele>284.26</ele>
        <time>2018-09-05T10:41:05Z</time>
      </trkpt>
      <trkpt lat="47.69691" lon="6.16098">
        <ele>283.83</ele>
        <time>2018-09-05T10:41:07Z</time>
      </trkpt>
      <trkpt lat="47.69684" lon="6.16105">
        <ele>283.53</ele>
        <time>2018-09-05T10:41:09Z</time>
      </trkpt>
      <trkpt lat="47.69676" lon="6.16112">
        <ele>283.31</ele>
        <time>2018-09-05T10:41:11Z</time>
      </trkpt>
      <trkpt lat="47.6967" lon="6.16117">
        <ele>283.25</ele>
        <time>2018-09-05T10:41:13Z</time>
      </trkpt>
      <trkpt lat="47.69663" lon="6.16124">
        <ele>283.22</ele>
        <time>2018-09-05T10:41:15Z</time>
      </trkpt>
      <trkpt lat="47.69658" lon="6.16129">
        <ele>283.19</ele>
        <time>2018-09-05T10:41:17Z</time>
      </trkpt>
      <trkpt lat="47.69652" lon="6.16133">
        <ele>283.16</ele>
        <time>2018-09-05T10:41:19Z</time>
      </trkpt>
      <trkpt lat="47.69648" lon="6.16136">
        <ele>283.1</ele>
        <time>2018-09-05T10:41:22Z</time>
      </trkpt>
      <trkpt lat="47.69643" lon="6.1614">
        <ele>283.03</ele>
        <time>2018-09-05T10:41:25Z</time>
      </trkpt>
      <trkpt lat="47.69637" lon="6.16145">
        <ele>282.93</ele>
        <time>2018-09-05T10:41:28Z</time>
      </trkpt>
      <trkpt lat="47.69631" lon="6.1615">
        <ele>282.81</ele>
        <time>2018-09-05T10:41:31Z</time>
      </trkpt>
      <trkpt lat="47.69625" lon="6.16153">
        <ele>282.68</ele>
        <time>2018-09-05T10:41:34Z</time>
      </trkpt>
      <trkpt lat="47.69621" lon="6.16156">
        <ele>282.58</ele>
        <time>2018-09-05T10:41:36Z</time>
      </trkpt>
      <trkpt lat="47.69616" lon="6.1616">
        <ele>282.47</ele>
        <time>2018-09-05T10:41:38Z</time>
      </trkpt>
      <trkpt lat="47.6961" lon="6.16164">
        <ele>281.6</ele>
        <time>2018-09-05T10:41:40Z</time>
      </trkpt>
      <trkpt lat="47.69603" lon="6.16169">
        <ele>280.79</ele>
        <time>2018-09-05T10:41:42Z</time>
      </trkpt>
      <trkpt lat="47.69595" lon="6.16175">
        <ele>280.18</ele>
        <time>2018-09-05T10:41:44Z</time>
      </trkpt>
      <trkpt lat="47.69591" lon="6.16179">
        <ele>279.92</ele>
        <time>2018-09-05T10:41:45Z</time>
      </trkpt>
      <trkpt lat="47.69579" lon="6.16188">
        <ele>279.71</ele>
        <time>2018-09-05T10:41:46Z</time>
      </trkpt>
      <trkpt lat="47.69574" lon="6.16192">
        <ele>279.51</ele>
        <time>2018-09-05T10:41:47Z</time>
      </trkpt>
      <trkpt lat="47.69571" lon="6.16195">
        <ele>279.32</ele>
        <time>2018-09-05T10:41:48Z</time>
      </trkpt>
      <trkpt lat="47.69566" lon="6.162">
        <ele>279.13</ele>
        <time>2018-09-05T10:41:49Z</time>
      </trkpt>
      <trkpt lat="47.69562" lon="6.16205">
        <ele>278.95</ele>
        <time>2018-09-05T10:41:50Z</time>
      </trkpt>
      <trkpt lat="47.69557" lon="6.16209">
        <ele>278.79</ele>
        <time>2018-09-05T10:41:51Z</time>
      </trkpt>
      <trkpt lat="47.69552" lon="6.16215">
        <ele>278.65</ele>
        <time>2018-09-05T10:41:52Z</time>
      </trkpt>
      <trkpt lat="47.69548" lon="6.1622">
        <ele>278.52</ele>
        <time>2018-09-05T10:41:53Z</time>
      </trkpt>
      <trkpt lat="47.69543" lon="6.16225">
        <ele>278.38</ele>
        <time>2018-09-05T10:41:54Z</time>
      </trkpt>
      <trkpt lat="47.69538" lon="6.1623">
        <ele>278.25</ele>
        <time>2018-09-05T10:41:55Z</time>
      </trkpt>
      <trkpt lat="47.69534" lon="6.16235">
        <ele>278.12</ele>
        <time>2018-09-05T10:41:56Z</time>
      </trkpt>
      <trkpt lat="47.69529" lon="6.1624">
        <ele>278</ele>
        <time>2018-09-05T10:41:57Z</time>
      </trkpt>
      <trkpt lat="47.69524" lon="6.16246">
        <ele>277.88</ele>
        <time>2018-09-05T10:41:58Z</time>
      </trkpt>
      <trkpt lat="47.69519" lon="6.16253">
        <ele>277.76</ele>
        <time>2018-09-05T10:41:59Z</time>
      </trkpt>
      <trkpt lat="47.69514" lon="6.16258">
        <ele>277.64</ele>
        <time>2018-09-05T10:42:00Z</time>
      </trkpt>
      <trkpt lat="47.69509" lon="6.16264">
        <ele>277.49</ele>
        <time>2018-09-05T10:42:01Z</time>
      </trkpt>
      <trkpt lat="47.69504" lon="6.16269">
        <ele>277.31</ele>
        <time>2018-09-05T10:42:02Z</time>
      </trkpt>
      <trkpt lat="47.69499" lon="6.16275">
        <ele>277.13</ele>
        <time>2018-09-05T10:42:03Z</time>
      </trkpt>
      <trkpt lat="47.69494" lon="6.16281">
        <ele>276.93</ele>
        <time>2018-09-05T10:42:04Z</time>
      </trkpt>
      <trkpt lat="47.69489" lon="6.16286">
        <ele>276.75</ele>
        <time>2018-09-05T10:42:05Z</time>
      </trkpt>
      <trkpt lat="47.69485" lon="6.16292">
        <ele>276.57</ele>
        <time>2018-09-05T10:42:06Z</time>
      </trkpt>
      <trkpt lat="47.6948" lon="6.16297">
        <ele>276.39</ele>
        <time>2018-09-05T10:42:07Z</time>
      </trkpt>
      <trkpt lat="47.69476" lon="6.16301">
        <ele>276.22</ele>
        <time>2018-09-05T10:42:08Z</time>
      </trkpt>
      <trkpt lat="47.69472" lon="6.16306">
        <ele>276.06</ele>
        <time>2018-09-05T10:42:09Z</time>
      </trkpt>
      <trkpt lat="47.69467" lon="6.16309">
        <ele>275.89</ele>
        <time>2018-09-05T10:42:10Z</time>
      </trkpt>
      <trkpt lat="47.69462" lon="6.16311">
        <ele>275.73</ele>
        <time>2018-09-05T10:42:11Z</time>
      </trkpt>
      <trkpt lat="47.69456" lon="6.16312">
        <ele>275.54</ele>
        <time>2018-09-05T10:42:12Z</time>
      </trkpt>
      <trkpt lat="47.69451" lon="6.16312">
        <ele>275.35</ele>
        <time>2018-09-05T10:42:13Z</time>
      </trkpt>
      <trkpt lat="47.69445" lon="6.16311">
        <ele>275.16</ele>
        <time>2018-09-05T10:42:14Z</time>
      </trkpt>
      <trkpt lat="47.6944" lon="6.1631">
        <ele>274.95</ele>
        <time>2018-09-05T10:42:15Z</time>
      </trkpt>
      <trkpt lat="47.69435" lon="6.16308">
        <ele>274.71</ele>
        <time>2018-09-05T10:42:16Z</time>
      </trkpt>
      <trkpt lat="47.69431" lon="6.16306">
        <ele>274.47</ele>
        <time>2018-09-05T10:42:17Z</time>
      </trkpt>
      <trkpt lat="47.69422" lon="6.16301">
        <ele>273.96</ele>
        <time>2018-09-05T10:42:19Z</time>
      </trkpt>
      <trkpt lat="47.69418" lon="6.16298">
        <ele>273.71</ele>
        <time>2018-09-05T10:42:20Z</time>
      </trkpt>
      <trkpt lat="47.69409" lon="6.16293">
        <ele>273.2</ele>
        <time>2018-09-05T10:42:22Z</time>
      </trkpt>
      <trkpt lat="47.69403" lon="6.16292">
        <ele>272.94</ele>
        <time>2018-09-05T10:42:23Z</time>
      </trkpt>
      <trkpt lat="47.69396" lon="6.16293">
        <ele>272.65</ele>
        <time>2018-09-05T10:42:24Z</time>
      </trkpt>
      <trkpt lat="47.69388" lon="6.16295">
        <ele>272.36</ele>
        <time>2018-09-05T10:42:25Z</time>
      </trkpt>
      <trkpt lat="47.6938" lon="6.16299">
        <ele>271.98</ele>
        <time>2018-09-05T10:42:26Z</time>
      </trkpt>
      <trkpt lat="47.69373" lon="6.16304">
        <ele>271.57</ele>
        <time>2018-09-05T10:42:27Z</time>
      </trkpt>
      <trkpt lat="47.69365" lon="6.1631">
        <ele>271.07</ele>
        <time>2018-09-05T10:42:28Z</time>
      </trkpt>
      <trkpt lat="47.69357" lon="6.16317">
        <ele>270.54</ele>
        <time>2018-09-05T10:42:29Z</time>
      </trkpt>
      <trkpt lat="47.69349" lon="6.16324">
        <ele>270.03</ele>
        <time>2018-09-05T10:42:30Z</time>
      </trkpt>
      <trkpt lat="47.69341" lon="6.16331">
        <ele>269.58</ele>
        <time>2018-09-05T10:42:31Z</time>
      </trkpt>
      <trkpt lat="47.69333" lon="6.16338">
        <ele>269.24</ele>
        <time>2018-09-05T10:42:32Z</time>
      </trkpt>
      <trkpt lat="47.69325" lon="6.16345">
        <ele>269.03</ele>
        <time>2018-09-05T10:42:33Z</time>
      </trkpt>
      <trkpt lat="47.69317" lon="6.16351">
        <ele>268.87</ele>
        <time>2018-09-05T10:42:34Z</time>
      </trkpt>
      <trkpt lat="47.69309" lon="6.16357">
        <ele>268.72</ele>
        <time>2018-09-05T10:42:35Z</time>
      </trkpt>
      <trkpt lat="47.69302" lon="6.16363">
        <ele>268.56</ele>
        <time>2018-09-05T10:42:36Z</time>
      </trkpt>
      <trkpt lat="47.69295" lon="6.16368">
        <ele>268.41</ele>
        <time>2018-09-05T10:42:37Z</time>
      </trkpt>
      <trkpt lat="47.69288" lon="6.16373">
        <ele>268.26</ele>
        <time>2018-09-05T10:42:38Z</time>
      </trkpt>
      <trkpt lat="47.69282" lon="6.16378">
        <ele>268.1</ele>
        <time>2018-09-05T10:42:39Z</time>
      </trkpt>
      <trkpt lat="47.69275" lon="6.16382">
        <ele>267.94</ele>
        <time>2018-09-05T10:42:40Z</time>
      </trkpt>
      <trkpt lat="47.69269" lon="6.16386">
        <ele>267.73</ele>
        <time>2018-09-05T10:42:41Z</time>
      </trkpt>
      <trkpt lat="47.69262" lon="6.1639">
        <ele>267.53</ele>
        <time>2018-09-05T10:42:42Z</time>
      </trkpt>
      <trkpt lat="47.69256" lon="6.16393">
        <ele>267.34</ele>
        <time>2018-09-05T10:42:43Z</time>
      </trkpt>
      <trkpt lat="47.6925" lon="6.16396">
        <ele>267.16</ele>
        <time>2018-09-05T10:42:44Z</time>
      </trkpt>
      <trkpt lat="47.69244" lon="6.16399">
        <ele>266.98</ele>
        <time>2018-09-05T10:42:45Z</time>
      </trkpt>
      <trkpt lat="47.69238" lon="6.16401">
        <ele>266.79</ele>
        <time>2018-09-05T10:42:46Z</time>
      </trkpt>
      <trkpt lat="47.69233" lon="6.16403">
        <ele>266.58</ele>
        <time>2018-09-05T10:42:47Z</time>
      </trkpt>
      <trkpt lat="47.69227" lon="6.16405">
        <ele>266.36</ele>
        <time>2018-09-05T10:42:48Z</time>
      </trkpt>
      <trkpt lat="47.69222" lon="6.16406">
        <ele>266.13</ele>
        <time>2018-09-05T10:42:49Z</time>
      </trkpt>
      <trkpt lat="47.69217" lon="6.16408">
        <ele>265.89</ele>
        <time>2018-09-05T10:42:50Z</time>
      </trkpt>
      <trkpt lat="47.69212" lon="6.16409">
        <ele>265.65</ele>
        <time>2018-09-05T10:42:51Z</time>
      </trkpt>
      <trkpt lat="47.69207" lon="6.16411">
        <ele>265.39</ele>
        <time>2018-09-05T10:42:52Z</time>
      </trkpt>
      <trkpt lat="47.69202" lon="6.16413">
        <ele>265.13</ele>
        <time>2018-09-05T10:42:53Z</time>
      </trkpt>
      <trkpt lat="47.69196" lon="6.16414">
        <ele>264.87</ele>
        <time>2018-09-05T10:42:54Z</time>
      </trkpt>
      <trkpt lat="47.69191" lon="6.16415">
        <ele>264.63</ele>
        <time>2018-09-05T10:42:55Z</time>
      </trkpt>
      <trkpt lat="47.69185" lon="6.16416">
        <ele>264.41</ele>
        <time>2018-09-05T10:42:56Z</time>
      </trkpt>
      <trkpt lat="47.69179" lon="6.16417">
        <ele>264.2</ele>
        <time>2018-09-05T10:42:57Z</time>
      </trkpt>
      <trkpt lat="47.69173" lon="6.16418">
        <ele>264.03</ele>
        <time>2018-09-05T10:42:58Z</time>
      </trkpt>
      <trkpt lat="47.69167" lon="6.16418">
        <ele>263.89</ele>
        <time>2018-09-05T10:42:59Z</time>
      </trkpt>
      <trkpt lat="47.69161" lon="6.16418">
        <ele>263.72</ele>
        <time>2018-09-05T10:43:00Z</time>
      </trkpt>
      <trkpt lat="47.69156" lon="6.16417">
        <ele>263.54</ele>
        <time>2018-09-05T10:43:01Z</time>
      </trkpt>
      <trkpt lat="47.6915" lon="6.16417">
        <ele>263.44</ele>
        <time>2018-09-05T10:43:02Z</time>
      </trkpt>
      <trkpt lat="47.69145" lon="6.16416">
        <ele>263.36</ele>
        <time>2018-09-05T10:43:03Z</time>
      </trkpt>
      <trkpt lat="47.6914" lon="6.16415">
        <ele>263.32</ele>
        <time>2018-09-05T10:43:04Z</time>
      </trkpt>
      <trkpt lat="47.69135" lon="6.16415">
        <ele>263.27</ele>
        <time>2018-09-05T10:43:05Z</time>
      </trkpt>
      <trkpt lat="47.69131" lon="6.16414">
        <ele>263.22</ele>
        <time>2018-09-05T10:43:06Z</time>
      </trkpt>
      <trkpt lat="47.69122" lon="6.16413">
        <ele>263.18</ele>
        <time>2018-09-05T10:43:08Z</time>
      </trkpt>
      <trkpt lat="47.69115" lon="6.16412">
        <ele>263.15</ele>
        <time>2018-09-05T10:43:10Z</time>
      </trkpt>
      <trkpt lat="47.69108" lon="6.16412">
        <ele>263.13</ele>
        <time>2018-09-05T10:43:13Z</time>
      </trkpt>
      <trkpt lat="47.69103" lon="6.16411">
        <ele>263.14</ele>
        <time>2018-09-05T10:43:15Z</time>
      </trkpt>
      <trkpt lat="47.69098" lon="6.16411">
        <ele>263.14</ele>
        <time>2018-09-05T10:43:17Z</time>
      </trkpt>
      <trkpt lat="47.69093" lon="6.1641">
        <ele>263.13</ele>
        <time>2018-09-05T10:43:19Z</time>
      </trkpt>
      <trkpt lat="47.69087" lon="6.16409">
        <ele>263.13</ele>
        <time>2018-09-05T10:43:22Z</time>
      </trkpt>
      <trkpt lat="47.69082" lon="6.16408">
        <ele>263.14</ele>
        <time>2018-09-05T10:43:24Z</time>
      </trkpt>
      <trkpt lat="47.69076" lon="6.16407">
        <ele>263.16</ele>
        <time>2018-09-05T10:43:27Z</time>
      </trkpt>
      <trkpt lat="47.6907" lon="6.16407">
        <ele>263.18</ele>
        <time>2018-09-05T10:43:30Z</time>
      </trkpt>
      <trkpt lat="47.69064" lon="6.16405">
        <ele>263.2</ele>
        <time>2018-09-05T10:43:33Z</time>
      </trkpt>
      <trkpt lat="47.69058" lon="6.16404">
        <ele>263.22</ele>
        <time>2018-09-05T10:43:36Z</time>
      </trkpt>
      <trkpt lat="47.69053" lon="6.16404">
        <ele>263.24</ele>
        <time>2018-09-05T10:43:38Z</time>
      </trkpt>
      <trkpt lat="47.69047" lon="6.16404">
        <ele>263.3</ele>
        <time>2018-09-05T10:43:41Z</time>
      </trkpt>
      <trkpt lat="47.69041" lon="6.16403">
        <ele>263.37</ele>
        <time>2018-09-05T10:43:44Z</time>
      </trkpt>
      <trkpt lat="47.69035" lon="6.16403">
        <ele>263.41</ele>
        <time>2018-09-05T10:43:46Z</time>
      </trkpt>
      <trkpt lat="47.6903" lon="6.16402">
        <ele>263.46</ele>
        <time>2018-09-05T10:43:48Z</time>
      </trkpt>
      <trkpt lat="47.69025" lon="6.16401">
        <ele>263.51</ele>
        <time>2018-09-05T10:43:50Z</time>
      </trkpt>
      <trkpt lat="47.6902" lon="6.164">
        <ele>263.57</ele>
        <time>2018-09-05T10:43:52Z</time>
      </trkpt>
      <trkpt lat="47.69014" lon="6.16399">
        <ele>263.63</ele>
        <time>2018-09-05T10:43:54Z</time>
      </trkpt>
      <trkpt lat="47.69008" lon="6.16399">
        <ele>263.69</ele>
        <time>2018-09-05T10:43:56Z</time>
      </trkpt>
      <trkpt lat="47.69002" lon="6.16398">
        <ele>263.76</ele>
        <time>2018-09-05T10:43:58Z</time>
      </trkpt>
      <trkpt lat="47.68991" lon="6.16397">
        <ele>264.21</ele>
        <time>2018-09-05T10:44:00Z</time>
      </trkpt>
      <trkpt lat="47.68982" lon="6.16396">
        <ele>264.57</ele>
        <time>2018-09-05T10:44:02Z</time>
      </trkpt>
      <trkpt lat="47.68978" lon="6.16396">
        <ele>264.7</ele>
        <time>2018-09-05T10:44:03Z</time>
      </trkpt>
      <trkpt lat="47.68973" lon="6.16396">
        <ele>264.78</ele>
        <time>2018-09-05T10:44:04Z</time>
      </trkpt>
      <trkpt lat="47.68968" lon="6.16396">
        <ele>264.85</ele>
        <time>2018-09-05T10:44:05Z</time>
      </trkpt>
      <trkpt lat="47.68963" lon="6.16395">
        <ele>264.89</ele>
        <time>2018-09-05T10:44:06Z</time>
      </trkpt>
      <trkpt lat="47.68958" lon="6.16394">
        <ele>264.91</ele>
        <time>2018-09-05T10:44:07Z</time>
      </trkpt>
      <trkpt lat="47.68953" lon="6.16395">
        <ele>264.92</ele>
        <time>2018-09-05T10:44:08Z</time>
      </trkpt>
      <trkpt lat="47.68947" lon="6.16396">
        <ele>264.92</ele>
        <time>2018-09-05T10:44:09Z</time>
      </trkpt>
      <trkpt lat="47.68942" lon="6.16398">
        <ele>264.93</ele>
        <time>2018-09-05T10:44:10Z</time>
      </trkpt>
      <trkpt lat="47.68937" lon="6.164">
        <ele>264.89</ele>
        <time>2018-09-05T10:44:11Z</time>
      </trkpt>
      <trkpt lat="47.68931" lon="6.16403">
        <ele>264.83</ele>
        <time>2018-09-05T10:44:12Z</time>
      </trkpt>
      <trkpt lat="47.68925" lon="6.16405">
        <ele>264.77</ele>
        <time>2018-09-05T10:44:13Z</time>
      </trkpt>
      <trkpt lat="47.68919" lon="6.16408">
        <ele>264.7</ele>
        <time>2018-09-05T10:44:14Z</time>
      </trkpt>
      <trkpt lat="47.68913" lon="6.16411">
        <ele>264.63</ele>
        <time>2018-09-05T10:44:15Z</time>
      </trkpt>
      <trkpt lat="47.68907" lon="6.16414">
        <ele>264.54</ele>
        <time>2018-09-05T10:44:16Z</time>
      </trkpt>
      <trkpt lat="47.689" lon="6.16417">
        <ele>264.44</ele>
        <time>2018-09-05T10:44:17Z</time>
      </trkpt>
      <trkpt lat="47.68894" lon="6.16422">
        <ele>264.32</ele>
        <time>2018-09-05T10:44:18Z</time>
      </trkpt>
      <trkpt lat="47.68887" lon="6.16426">
        <ele>264.18</ele>
        <time>2018-09-05T10:44:19Z</time>
      </trkpt>
      <trkpt lat="47.6888" lon="6.1643">
        <ele>264.03</ele>
        <time>2018-09-05T10:44:20Z</time>
      </trkpt>
      <trkpt lat="47.68873" lon="6.16434">
        <ele>263.88</ele>
        <time>2018-09-05T10:44:21Z</time>
      </trkpt>
      <trkpt lat="47.68866" lon="6.16439">
        <ele>263.71</ele>
        <time>2018-09-05T10:44:22Z</time>
      </trkpt>
      <trkpt lat="47.68858" lon="6.16443">
        <ele>263.55</ele>
        <time>2018-09-05T10:44:23Z</time>
      </trkpt>
      <trkpt lat="47.68851" lon="6.16447">
        <ele>263.4</ele>
        <time>2018-09-05T10:44:24Z</time>
      </trkpt>
      <trkpt lat="47.68844" lon="6.16451">
        <ele>263.26</ele>
        <time>2018-09-05T10:44:25Z</time>
      </trkpt>
      <trkpt lat="47.68837" lon="6.16455">
        <ele>263.15</ele>
        <time>2018-09-05T10:44:26Z</time>
      </trkpt>
      <trkpt lat="47.6883" lon="6.1646">
        <ele>263.09</ele>
        <time>2018-09-05T10:44:27Z</time>
      </trkpt>
      <trkpt lat="47.68822" lon="6.16464">
        <ele>263.04</ele>
        <time>2018-09-05T10:44:28Z</time>
      </trkpt>
      <trkpt lat="47.68815" lon="6.16466">
        <ele>262.98</ele>
        <time>2018-09-05T10:44:29Z</time>
      </trkpt>
      <trkpt lat="47.68808" lon="6.16468">
        <ele>262.92</ele>
        <time>2018-09-05T10:44:30Z</time>
      </trkpt>
      <trkpt lat="47.68801" lon="6.16469">
        <ele>262.84</ele>
        <time>2018-09-05T10:44:31Z</time>
      </trkpt>
      <trkpt lat="47.68794" lon="6.16468">
        <ele>262.81</ele>
        <time>2018-09-05T10:44:32Z</time>
      </trkpt>
      <trkpt lat="47.68788" lon="6.16466">
        <ele>262.76</ele>
        <time>2018-09-05T10:44:33Z</time>
      </trkpt>
      <trkpt lat="47.68781" lon="6.16463">
        <ele>262.72</ele>
        <time>2018-09-05T10:44:34Z</time>
      </trkpt>
      <trkpt lat="47.68775" lon="6.16461">
        <ele>262.67</ele>
        <time>2018-09-05T10:44:35Z</time>
      </trkpt>
      <trkpt lat="47.68769" lon="6.16458">
        <ele>262.61</ele>
        <time>2018-09-05T10:44:36Z</time>
      </trkpt>
      <trkpt lat="47.68764" lon="6.16456">
        <ele>262.54</ele>
        <time>2018-09-05T10:44:37Z</time>
      </trkpt>
      <trkpt lat="47.68758" lon="6.16453">
        <ele>262.48</ele>
        <time>2018-09-05T10:44:38Z</time>
      </trkpt>
      <trkpt lat="47.68752" lon="6.16451">
        <ele>262.4</ele>
        <time>2018-09-05T10:44:39Z</time>
      </trkpt>
      <trkpt lat="47.68747" lon="6.16448">
        <ele>262.3</ele>
        <time>2018-09-05T10:44:40Z</time>
      </trkpt>
      <trkpt lat="47.68742" lon="6.16446">
        <ele>262.21</ele>
        <time>2018-09-05T10:44:41Z</time>
      </trkpt>
      <trkpt lat="47.68736" lon="6.16444">
        <ele>262.11</ele>
        <time>2018-09-05T10:44:42Z</time>
      </trkpt>
      <trkpt lat="47.68731" lon="6.16441">
        <ele>262.01</ele>
        <time>2018-09-05T10:44:43Z</time>
      </trkpt>
      <trkpt lat="47.68726" lon="6.16439">
        <ele>261.91</ele>
        <time>2018-09-05T10:44:44Z</time>
      </trkpt>
      <trkpt lat="47.68721" lon="6.16437">
        <ele>261.81</ele>
        <time>2018-09-05T10:44:45Z</time>
      </trkpt>
      <trkpt lat="47.68716" lon="6.16435">
        <ele>261.7</ele>
        <time>2018-09-05T10:44:46Z</time>
      </trkpt>
      <trkpt lat="47.68711" lon="6.16434">
        <ele>261.59</ele>
        <time>2018-09-05T10:44:47Z</time>
      </trkpt>
      <trkpt lat="47.68706" lon="6.16433">
        <ele>261.44</ele>
        <time>2018-09-05T10:44:48Z</time>
      </trkpt>
      <trkpt lat="47.68701" lon="6.16433">
        <ele>261.27</ele>
        <time>2018-09-05T10:44:49Z</time>
      </trkpt>
      <trkpt lat="47.68696" lon="6.16434">
        <ele>261.1</ele>
        <time>2018-09-05T10:44:50Z</time>
      </trkpt>
      <trkpt lat="47.68691" lon="6.16435">
        <ele>260.94</ele>
        <time>2018-09-05T10:44:51Z</time>
      </trkpt>
      <trkpt lat="47.68686" lon="6.16439">
        <ele>260.77</ele>
        <time>2018-09-05T10:44:52Z</time>
      </trkpt>
      <trkpt lat="47.68681" lon="6.16443">
        <ele>260.62</ele>
        <time>2018-09-05T10:44:53Z</time>
      </trkpt>
      <trkpt lat="47.68676" lon="6.16447">
        <ele>260.47</ele>
        <time>2018-09-05T10:44:54Z</time>
      </trkpt>
      <trkpt lat="47.68671" lon="6.16451">
        <ele>260.31</ele>
        <time>2018-09-05T10:44:55Z</time>
      </trkpt>
      <trkpt lat="47.68666" lon="6.16456">
        <ele>260.11</ele>
        <time>2018-09-05T10:44:56Z</time>
      </trkpt>
      <trkpt lat="47.6866" lon="6.16461">
        <ele>259.89</ele>
        <time>2018-09-05T10:44:57Z</time>
      </trkpt>
      <trkpt lat="47.68655" lon="6.16466">
        <ele>259.64</ele>
        <time>2018-09-05T10:44:58Z</time>
      </trkpt>
      <trkpt lat="47.6865" lon="6.16471">
        <ele>259.39</ele>
        <time>2018-09-05T10:44:59Z</time>
      </trkpt>
      <trkpt lat="47.68644" lon="6.16477">
        <ele>259.14</ele>
        <time>2018-09-05T10:45:00Z</time>
      </trkpt>
      <trkpt lat="47.68639" lon="6.16482">
        <ele>258.91</ele>
        <time>2018-09-05T10:45:01Z</time>
      </trkpt>
      <trkpt lat="47.68633" lon="6.16487">
        <ele>258.66</ele>
        <time>2018-09-05T10:45:02Z</time>
      </trkpt>
      <trkpt lat="47.68627" lon="6.16491">
        <ele>258.4</ele>
        <time>2018-09-05T10:45:03Z</time>
      </trkpt>
      <trkpt lat="47.6862" lon="6.16494">
        <ele>258.16</ele>
        <time>2018-09-05T10:45:04Z</time>
      </trkpt>
      <trkpt lat="47.68614" lon="6.16497">
        <ele>257.93</ele>
        <time>2018-09-05T10:45:05Z</time>
      </trkpt>
      <trkpt lat="47.68607" lon="6.16499">
        <ele>257.71</ele>
        <time>2018-09-05T10:45:06Z</time>
      </trkpt>
      <trkpt lat="47.686" lon="6.16499">
        <ele>257.49</ele>
        <time>2018-09-05T10:45:07Z</time>
      </trkpt>
      <trkpt lat="47.68593" lon="6.16501">
        <ele>257.31</ele>
        <time>2018-09-05T10:45:08Z</time>
      </trkpt>
      <trkpt lat="47.68586" lon="6.16502">
        <ele>257.14</ele>
        <time>2018-09-05T10:45:09Z</time>
      </trkpt>
      <trkpt lat="47.68579" lon="6.16501">
        <ele>256.96</ele>
        <time>2018-09-05T10:45:10Z</time>
      </trkpt>
      <trkpt lat="47.68572" lon="6.16502">
        <ele>256.78</ele>
        <time>2018-09-05T10:45:11Z</time>
      </trkpt>
      <trkpt lat="47.68565" lon="6.16501">
        <ele>256.62</ele>
        <time>2018-09-05T10:45:12Z</time>
      </trkpt>
      <trkpt lat="47.68558" lon="6.165">
        <ele>256.47</ele>
        <time>2018-09-05T10:45:13Z</time>
      </trkpt>
      <trkpt lat="47.68552" lon="6.16499">
        <ele>256.29</ele>
        <time>2018-09-05T10:45:14Z</time>
      </trkpt>
      <trkpt lat="47.68544" lon="6.16498">
        <ele>256.13</ele>
        <time>2018-09-05T10:45:15Z</time>
      </trkpt>
      <trkpt lat="47.68537" lon="6.16497">
        <ele>255.93</ele>
        <time>2018-09-05T10:45:16Z</time>
      </trkpt>
      <trkpt lat="47.6853" lon="6.16496">
        <ele>255.72</ele>
        <time>2018-09-05T10:45:17Z</time>
      </trkpt>
      <trkpt lat="47.68523" lon="6.16494">
        <ele>255.5</ele>
        <time>2018-09-05T10:45:18Z</time>
      </trkpt>
      <trkpt lat="47.68516" lon="6.16492">
        <ele>255.26</ele>
        <time>2018-09-05T10:45:19Z</time>
      </trkpt>
      <trkpt lat="47.6851" lon="6.1649">
        <ele>254.97</ele>
        <time>2018-09-05T10:45:20Z</time>
      </trkpt>
      <trkpt lat="47.68504" lon="6.16488">
        <ele>254.69</ele>
        <time>2018-09-05T10:45:21Z</time>
      </trkpt>
      <trkpt lat="47.68499" lon="6.16486">
        <ele>254.44</ele>
        <time>2018-09-05T10:45:22Z</time>
      </trkpt>
      <trkpt lat="47.68494" lon="6.16483">
        <ele>254.23</ele>
        <time>2018-09-05T10:45:23Z</time>
      </trkpt>
      <trkpt lat="47.68489" lon="6.16479">
        <ele>254.07</ele>
        <time>2018-09-05T10:45:24Z</time>
      </trkpt>
      <trkpt lat="47.68485" lon="6.16474">
        <ele>253.92</ele>
        <time>2018-09-05T10:45:25Z</time>
      </trkpt>
      <trkpt lat="47.68479" lon="6.16465">
        <ele>253.71</ele>
        <time>2018-09-05T10:45:27Z</time>
      </trkpt>
      <trkpt lat="47.68475" lon="6.16457">
        <ele>253.65</ele>
        <time>2018-09-05T10:45:30Z</time>
      </trkpt>
      <trkpt lat="47.68471" lon="6.16451">
        <ele>253.59</ele>
        <time>2018-09-05T10:45:32Z</time>
      </trkpt>
      <trkpt lat="47.68466" lon="6.16445">
        <ele>253.53</ele>
        <time>2018-09-05T10:45:34Z</time>
      </trkpt>
      <trkpt lat="47.68461" lon="6.16437">
        <ele>253.47</ele>
        <time>2018-09-05T10:45:36Z</time>
      </trkpt>
      <trkpt lat="47.68457" lon="6.16431">
        <ele>253.42</ele>
        <time>2018-09-05T10:45:38Z</time>
      </trkpt>
      <trkpt lat="47.68451" lon="6.16423">
        <ele>253.39</ele>
        <time>2018-09-05T10:45:40Z</time>
      </trkpt>
      <trkpt lat="47.68446" lon="6.16416">
        <ele>253.41</ele>
        <time>2018-09-05T10:45:42Z</time>
      </trkpt>
      <trkpt lat="47.68442" lon="6.16409">
        <ele>253.46</ele>
        <time>2018-09-05T10:45:44Z</time>
      </trkpt>
      <trkpt lat="47.68438" lon="6.16404">
        <ele>253.51</ele>
        <time>2018-09-05T10:45:46Z</time>
      </trkpt>
      <trkpt lat="47.68433" lon="6.16399">
        <ele>253.53</ele>
        <time>2018-09-05T10:45:48Z</time>
      </trkpt>
      <trkpt lat="47.68429" lon="6.16394">
        <ele>253.56</ele>
        <time>2018-09-05T10:45:50Z</time>
      </trkpt>
      <trkpt lat="47.68423" lon="6.16389">
        <ele>253.57</ele>
        <time>2018-09-05T10:45:52Z</time>
      </trkpt>
      <trkpt lat="47.68418" lon="6.16385">
        <ele>253.57</ele>
        <time>2018-09-05T10:45:54Z</time>
      </trkpt>
      <trkpt lat="47.68412" lon="6.1638">
        <ele>253.57</ele>
        <time>2018-09-05T10:45:56Z</time>
      </trkpt>
      <trkpt lat="47.68406" lon="6.16374">
        <ele>253.56</ele>
        <time>2018-09-05T10:45:58Z</time>
      </trkpt>
      <trkpt lat="47.68401" lon="6.1637">
        <ele>253.53</ele>
        <time>2018-09-05T10:46:00Z</time>
      </trkpt>
      <trkpt lat="47.68393" lon="6.16364">
        <ele>253.5</ele>
        <time>2018-09-05T10:46:01Z</time>
      </trkpt>
      <trkpt lat="47.68386" lon="6.16359">
        <ele>253.07</ele>
        <time>2018-09-05T10:46:03Z</time>
      </trkpt>
      <trkpt lat="47.68379" lon="6.16354">
        <ele>252.61</ele>
        <time>2018-09-05T10:46:05Z</time>
      </trkpt>
      <trkpt lat="47.68371" lon="6.16351">
        <ele>252.18</ele>
        <time>2018-09-05T10:46:07Z</time>
      </trkpt>
      <trkpt lat="47.68366" lon="6.1635">
        <ele>251.96</ele>
        <time>2018-09-05T10:46:08Z</time>
      </trkpt>
      <trkpt lat="47.68361" lon="6.1635">
        <ele>251.75</ele>
        <time>2018-09-05T10:46:09Z</time>
      </trkpt>
      <trkpt lat="47.68356" lon="6.16351">
        <ele>251.55</ele>
        <time>2018-09-05T10:46:10Z</time>
      </trkpt>
      <trkpt lat="47.68351" lon="6.1635">
        <ele>251.36</ele>
        <time>2018-09-05T10:46:11Z</time>
      </trkpt>
      <trkpt lat="47.68347" lon="6.16346">
        <ele>251.19</ele>
        <time>2018-09-05T10:46:12Z</time>
      </trkpt>
      <trkpt lat="47.68341" lon="6.16341">
        <ele>251.03</ele>
        <time>2018-09-05T10:46:13Z</time>
      </trkpt>
      <trkpt lat="47.68336" lon="6.16337">
        <ele>250.86</ele>
        <time>2018-09-05T10:46:14Z</time>
      </trkpt>
      <trkpt lat="47.6833" lon="6.16332">
        <ele>250.68</ele>
        <time>2018-09-05T10:46:15Z</time>
      </trkpt>
      <trkpt lat="47.68325" lon="6.16327">
        <ele>250.51</ele>
        <time>2018-09-05T10:46:16Z</time>
      </trkpt>
      <trkpt lat="47.68321" lon="6.16322">
        <ele>250.34</ele>
        <time>2018-09-05T10:46:17Z</time>
      </trkpt>
      <trkpt lat="47.68316" lon="6.16318">
        <ele>250.25</ele>
        <time>2018-09-05T10:46:19Z</time>
      </trkpt>
      <trkpt lat="47.68311" lon="6.16318">
        <ele>250.2</ele>
        <time>2018-09-05T10:46:21Z</time>
      </trkpt>
      <trkpt lat="47.68307" lon="6.16321">
        <ele>250.13</ele>
        <time>2018-09-05T10:46:23Z</time>
      </trkpt>
      <trkpt lat="47.683" lon="6.16324">
        <ele>250.02</ele>
        <time>2018-09-05T10:46:26Z</time>
      </trkpt>
      <trkpt lat="47.68294" lon="6.16321">
        <ele>249.93</ele>
        <time>2018-09-05T10:46:28Z</time>
      </trkpt>
      <trkpt lat="47.68287" lon="6.16318">
        <ele>249.83</ele>
        <time>2018-09-05T10:46:30Z</time>
      </trkpt>
      <trkpt lat="47.68281" lon="6.16315">
        <ele>249.73</ele>
        <time>2018-09-05T10:46:32Z</time>
      </trkpt>
      <trkpt lat="47.68274" lon="6.16311">
        <ele>249.63</ele>
        <time>2018-09-05T10:46:34Z</time>
      </trkpt>
      <trkpt lat="47.68268" lon="6.16308">
        <ele>249.52</ele>
        <time>2018-09-05T10:46:36Z</time>
      </trkpt>
      <trkpt lat="47.68256" lon="6.163">
        <ele>249.41</ele>
        <time>2018-09-05T10:46:38Z</time>
      </trkpt>
      <trkpt lat="47.68252" lon="6.16298">
        <ele>249.29</ele>
        <time>2018-09-05T10:46:40Z</time>
      </trkpt>
      <trkpt lat="47.68247" lon="6.16293">
        <ele>249.18</ele>
        <time>2018-09-05T10:46:42Z</time>
      </trkpt>
      <trkpt lat="47.68243" lon="6.16289">
        <ele>249.07</ele>
        <time>2018-09-05T10:46:44Z</time>
      </trkpt>
      <trkpt lat="47.68238" lon="6.16285">
        <ele>248.95</ele>
        <time>2018-09-05T10:46:46Z</time>
      </trkpt>
      <trkpt lat="47.68228" lon="6.16276">
        <ele>248.01</ele>
        <time>2018-09-05T10:46:48Z</time>
      </trkpt>
      <trkpt lat="47.68224" lon="6.16272">
        <ele>247.56</ele>
        <time>2018-09-05T10:46:49Z</time>
      </trkpt>
      <trkpt lat="47.6822" lon="6.16268">
        <ele>247.16</ele>
        <time>2018-09-05T10:46:50Z</time>
      </trkpt>
      <trkpt lat="47.68213" lon="6.16262">
        <ele>246.69</ele>
        <time>2018-09-05T10:46:52Z</time>
      </trkpt>
      <trkpt lat="47.68209" lon="6.16258">
        <ele>246.59</ele>
        <time>2018-09-05T10:46:54Z</time>
      </trkpt>
      <trkpt lat="47.68205" lon="6.16254">
        <ele>246.52</ele>
        <time>2018-09-05T10:46:56Z</time>
      </trkpt>
      <trkpt lat="47.682" lon="6.16249">
        <ele>246.45</ele>
        <time>2018-09-05T10:46:58Z</time>
      </trkpt>
      <trkpt lat="47.68194" lon="6.16247">
        <ele>246.39</ele>
        <time>2018-09-05T10:47:00Z</time>
      </trkpt>
      <trkpt lat="47.68189" lon="6.16246">
        <ele>246.32</ele>
        <time>2018-09-05T10:47:02Z</time>
      </trkpt>
      <trkpt lat="47.68183" lon="6.16249">
        <ele>246.25</ele>
        <time>2018-09-05T10:47:04Z</time>
      </trkpt>
      <trkpt lat="47.68178" lon="6.16255">
        <ele>246.18</ele>
        <time>2018-09-05T10:47:06Z</time>
      </trkpt>
      <trkpt lat="47.68175" lon="6.16263">
        <ele>246.11</ele>
        <time>2018-09-05T10:47:08Z</time>
      </trkpt>
      <trkpt lat="47.68174" lon="6.16271">
        <ele>246.03</ele>
        <time>2018-09-05T10:47:10Z</time>
      </trkpt>
      <trkpt lat="47.68174" lon="6.16281">
        <ele>245.95</ele>
        <time>2018-09-05T10:47:12Z</time>
      </trkpt>
      <trkpt lat="47.68174" lon="6.16291">
        <ele>245.87</ele>
        <time>2018-09-05T10:47:14Z</time>
      </trkpt>
      <trkpt lat="47.68173" lon="6.16301">
        <ele>245.78</ele>
        <time>2018-09-05T10:47:16Z</time>
      </trkpt>
      <trkpt lat="47.68172" lon="6.16312">
        <ele>245.7</ele>
        <time>2018-09-05T10:47:18Z</time>
      </trkpt>
      <trkpt lat="47.68171" lon="6.16323">
        <ele>245.62</ele>
        <time>2018-09-05T10:47:20Z</time>
      </trkpt>
      <trkpt lat="47.68169" lon="6.16334">
        <ele>245.22</ele>
        <time>2018-09-05T10:47:22Z</time>
      </trkpt>
      <trkpt lat="47.68167" lon="6.16345">
        <ele>245.12</ele>
        <time>2018-09-05T10:47:24Z</time>
      </trkpt>
      <trkpt lat="47.68164" lon="6.16355">
        <ele>245.05</ele>
        <time>2018-09-05T10:47:26Z</time>
      </trkpt>
      <trkpt lat="47.68161" lon="6.16365">
        <ele>244.98</ele>
        <time>2018-09-05T10:47:28Z</time>
      </trkpt>
      <trkpt lat="47.68159" lon="6.16374">
        <ele>244.91</ele>
        <time>2018-09-05T10:47:30Z</time>
      </trkpt>
      <trkpt lat="47.68155" lon="6.16385">
        <ele>244.84</ele>
        <time>2018-09-05T10:47:32Z</time>
      </trkpt>
      <trkpt lat="47.68153" lon="6.16395">
        <ele>244.77</ele>
        <time>2018-09-05T10:47:34Z</time>
      </trkpt>
      <trkpt lat="47.6815" lon="6.16404">
        <ele>244.7</ele>
        <time>2018-09-05T10:47:36Z</time>
      </trkpt>
      <trkpt lat="47.68147" lon="6.16414">
        <ele>244.62</ele>
        <time>2018-09-05T10:47:38Z</time>
      </trkpt>
      <trkpt lat="47.68144" lon="6.16423">
        <ele>244.55</ele>
        <time>2018-09-05T10:47:40Z</time>
      </trkpt>
      <trkpt lat="47.68142" lon="6.16432">
        <ele>244.48</ele>
        <time>2018-09-05T10:47:42Z</time>
      </trkpt>
      <trkpt lat="47.6814" lon="6.16441">
        <ele>244.41</ele>
        <time>2018-09-05T10:47:44Z</time>
      </trkpt>
      <trkpt lat="47.68138" lon="6.16449">
        <ele>244.34</ele>
        <time>2018-09-05T10:47:46Z</time>
      </trkpt>
      <trkpt lat="47.68137" lon="6.16455">
        <ele>244.27</ele>
        <time>2018-09-05T10:47:48Z</time>
      </trkpt>
      <trkpt lat="47.68135" lon="6.16462">
        <ele>244.2</ele>
        <time>2018-09-05T10:47:50Z</time>
      </trkpt>
      <trkpt lat="47.68134" lon="6.16469">
        <ele>244.13</ele>
        <time>2018-09-05T10:47:52Z</time>
      </trkpt>
      <trkpt lat="47.68132" lon="6.16476">
        <ele>244.07</ele>
        <time>2018-09-05T10:47:54Z</time>
      </trkpt>
      <trkpt lat="47.6813" lon="6.16483">
        <ele>244.01</ele>
        <time>2018-09-05T10:47:56Z</time>
      </trkpt>
      <trkpt lat="47.68124" lon="6.16487">
        <ele>243.95</ele>
        <time>2018-09-05T10:47:58Z</time>
      </trkpt>
      <trkpt lat="47.68119" lon="6.16487">
        <ele>243.89</ele>
        <time>2018-09-05T10:48:00Z</time>
      </trkpt>
      <trkpt lat="47.68115" lon="6.16486">
        <ele>243.84</ele>
        <time>2018-09-05T10:48:02Z</time>
      </trkpt>
      <trkpt lat="47.6811" lon="6.16485">
        <ele>243.79</ele>
        <time>2018-09-05T10:48:04Z</time>
      </trkpt>
      <trkpt lat="47.68106" lon="6.16483">
        <ele>243.74</ele>
        <time>2018-09-05T10:48:06Z</time>
      </trkpt>
      <trkpt lat="47.681" lon="6.1648">
        <ele>243.7</ele>
        <time>2018-09-05T10:48:08Z</time>
      </trkpt>
      <trkpt lat="47.68095" lon="6.16477">
        <ele>243.66</ele>
        <time>2018-09-05T10:48:10Z</time>
      </trkpt>
      <trkpt lat="47.68089" lon="6.16474">
        <ele>243.61</ele>
        <time>2018-09-05T10:48:12Z</time>
      </trkpt>
      <trkpt lat="47.68084" lon="6.16472">
        <ele>243.57</ele>
        <time>2018-09-05T10:48:14Z</time>
      </trkpt>
      <trkpt lat="47.68078" lon="6.16469">
        <ele>243.52</ele>
        <time>2018-09-05T10:48:17Z</time>
      </trkpt>
      <trkpt lat="47.68073" lon="6.16466">
        <ele>243.48</ele>
        <time>2018-09-05T10:48:19Z</time>
      </trkpt>
      <trkpt lat="47.68067" lon="6.16462">
        <ele>243.45</ele>
        <time>2018-09-05T10:48:21Z</time>
      </trkpt>
      <trkpt lat="47.68063" lon="6.16457">
        <ele>243.42</ele>
        <time>2018-09-05T10:48:23Z</time>
      </trkpt>
      <trkpt lat="47.6806" lon="6.16451">
        <ele>243.38</ele>
        <time>2018-09-05T10:48:25Z</time>
      </trkpt>
      <trkpt lat="47.68057" lon="6.16444">
        <ele>243.34</ele>
        <time>2018-09-05T10:48:27Z</time>
      </trkpt>
      <trkpt lat="47.68053" lon="6.16437">
        <ele>243.31</ele>
        <time>2018-09-05T10:48:29Z</time>
      </trkpt>
      <trkpt lat="47.68049" lon="6.16429">
        <ele>243.26</ele>
        <time>2018-09-05T10:48:32Z</time>
      </trkpt>
      <trkpt lat="47.68045" lon="6.16424">
        <ele>243.23</ele>
        <time>2018-09-05T10:48:34Z</time>
      </trkpt>
      <trkpt lat="47.68041" lon="6.1642">
        <ele>243.2</ele>
        <time>2018-09-05T10:48:36Z</time>
      </trkpt>
      <trkpt lat="47.68037" lon="6.16417">
        <ele>243.18</ele>
        <time>2018-09-05T10:48:38Z</time>
      </trkpt>
      <trkpt lat="47.68032" lon="6.16414">
        <ele>243.15</ele>
        <time>2018-09-05T10:48:40Z</time>
      </trkpt>
      <trkpt lat="47.68025" lon="6.16411">
        <ele>243.12</ele>
        <time>2018-09-05T10:48:43Z</time>
      </trkpt>
      <trkpt lat="47.6802" lon="6.16409">
        <ele>243.1</ele>
        <time>2018-09-05T10:48:45Z</time>
      </trkpt>
      <trkpt lat="47.68014" lon="6.16408">
        <ele>243.08</ele>
        <time>2018-09-05T10:48:47Z</time>
      </trkpt>
      <trkpt lat="47.68009" lon="6.16405">
        <ele>243.06</ele>
        <time>2018-09-05T10:48:49Z</time>
      </trkpt>
      <trkpt lat="47.68002" lon="6.16403">
        <ele>243.05</ele>
        <time>2018-09-05T10:48:51Z</time>
      </trkpt>
      <trkpt lat="47.67996" lon="6.16401">
        <ele>243.04</ele>
        <time>2018-09-05T10:48:53Z</time>
      </trkpt>
      <trkpt lat="47.67991" lon="6.16399">
        <ele>243.03</ele>
        <time>2018-09-05T10:48:55Z</time>
      </trkpt>
      <trkpt lat="47.67985" lon="6.16397">
        <ele>243.02</ele>
        <time>2018-09-05T10:48:57Z</time>
      </trkpt>
      <trkpt lat="47.6798" lon="6.16395">
        <ele>243.01</ele>
        <time>2018-09-05T10:48:59Z</time>
      </trkpt>
      <trkpt lat="47.67974" lon="6.16393">
        <ele>243</ele>
        <time>2018-09-05T10:49:01Z</time>
      </trkpt>
      <trkpt lat="47.67969" lon="6.1639">
        <ele>243</ele>
        <time>2018-09-05T10:49:03Z</time>
      </trkpt>
      <trkpt lat="47.67963" lon="6.16387">
        <ele>243</ele>
        <time>2018-09-05T10:49:05Z</time>
      </trkpt>
      <trkpt lat="47.67957" lon="6.16384">
        <ele>243</ele>
        <time>2018-09-05T10:49:07Z</time>
      </trkpt>
      <trkpt lat="47.67953" lon="6.16381">
        <ele>243.01</ele>
        <time>2018-09-05T10:49:09Z</time>
      </trkpt>
      <trkpt lat="47.67948" lon="6.16377">
        <ele>243.01</ele>
        <time>2018-09-05T10:49:11Z</time>
      </trkpt>
      <trkpt lat="47.67944" lon="6.16373">
        <ele>243.02</ele>
        <time>2018-09-05T10:49:13Z</time>
      </trkpt>
      <trkpt lat="47.67939" lon="6.16368">
        <ele>243.03</ele>
        <time>2018-09-05T10:49:15Z</time>
      </trkpt>
      <trkpt lat="47.67934" lon="6.16362">
        <ele>243.04</ele>
        <time>2018-09-05T10:49:17Z</time>
      </trkpt>
      <trkpt lat="47.6793" lon="6.16357">
        <ele>243.05</ele>
        <time>2018-09-05T10:49:19Z</time>
      </trkpt>
      <trkpt lat="47.67927" lon="6.1635">
        <ele>243.07</ele>
        <time>2018-09-05T10:49:21Z</time>
      </trkpt>
      <trkpt lat="47.67923" lon="6.16343">
        <ele>243.08</ele>
        <time>2018-09-05T10:49:23Z</time>
      </trkpt>
      <trkpt lat="47.67921" lon="6.16336">
        <ele>243.09</ele>
        <time>2018-09-05T10:49:25Z</time>
      </trkpt>
      <trkpt lat="47.67918" lon="6.16328">
        <ele>243.11</ele>
        <time>2018-09-05T10:49:27Z</time>
      </trkpt>
      <trkpt lat="47.67915" lon="6.1632">
        <ele>243.13</ele>
        <time>2018-09-05T10:49:29Z</time>
      </trkpt>
      <trkpt lat="47.67913" lon="6.16312">
        <ele>243.15</ele>
        <time>2018-09-05T10:49:31Z</time>
      </trkpt>
      <trkpt lat="47.67911" lon="6.16305">
        <ele>243.16</ele>
        <time>2018-09-05T10:49:33Z</time>
      </trkpt>
      <trkpt lat="47.67909" lon="6.16297">
        <ele>243.18</ele>
        <time>2018-09-05T10:49:35Z</time>
      </trkpt>
      <trkpt lat="47.67906" lon="6.16289">
        <ele>243.2</ele>
        <time>2018-09-05T10:49:37Z</time>
      </trkpt>
      <trkpt lat="47.67904" lon="6.1628">
        <ele>243.22</ele>
        <time>2018-09-05T10:49:39Z</time>
      </trkpt>
      <trkpt lat="47.67902" lon="6.16272">
        <ele>243.23</ele>
        <time>2018-09-05T10:49:41Z</time>
      </trkpt>
      <trkpt lat="47.67899" lon="6.16262">
        <ele>243.25</ele>
        <time>2018-09-05T10:49:43Z</time>
      </trkpt>
      <trkpt lat="47.67897" lon="6.16252">
        <ele>243.35</ele>
        <time>2018-09-05T10:49:45Z</time>
      </trkpt>
      <trkpt lat="47.67894" lon="6.16241">
        <ele>243.42</ele>
        <time>2018-09-05T10:49:47Z</time>
      </trkpt>
      <trkpt lat="47.67891" lon="6.16231">
        <ele>243.46</ele>
        <time>2018-09-05T10:49:49Z</time>
      </trkpt>
      <trkpt lat="47.67888" lon="6.16221">
        <ele>243.46</ele>
        <time>2018-09-05T10:49:51Z</time>
      </trkpt>
      <trkpt lat="47.67885" lon="6.16211">
        <ele>243.46</ele>
        <time>2018-09-05T10:49:53Z</time>
      </trkpt>
      <trkpt lat="47.67882" lon="6.16201">
        <ele>243.46</ele>
        <time>2018-09-05T10:49:55Z</time>
      </trkpt>
      <trkpt lat="47.67879" lon="6.1619">
        <ele>243.46</ele>
        <time>2018-09-05T10:49:57Z</time>
      </trkpt>
      <trkpt lat="47.67876" lon="6.16179">
        <ele>243.46</ele>
        <time>2018-09-05T10:49:59Z</time>
      </trkpt>
      <trkpt lat="47.67872" lon="6.16169">
        <ele>243.46</ele>
        <time>2018-09-05T10:50:01Z</time>
      </trkpt>
      <trkpt lat="47.67868" lon="6.1616">
        <ele>243.47</ele>
        <time>2018-09-05T10:50:03Z</time>
      </trkpt>
      <trkpt lat="47.67863" lon="6.16151">
        <ele>243.47</ele>
        <time>2018-09-05T10:50:05Z</time>
      </trkpt>
      <trkpt lat="47.67858" lon="6.16144">
        <ele>243.48</ele>
        <time>2018-09-05T10:50:07Z</time>
      </trkpt>
      <trkpt lat="47.67852" lon="6.16138">
        <ele>243.51</ele>
        <time>2018-09-05T10:50:09Z</time>
      </trkpt>
      <trkpt lat="47.67846" lon="6.16134">
        <ele>243.56</ele>
        <time>2018-09-05T10:50:11Z</time>
      </trkpt>
      <trkpt lat="47.67831" lon="6.1613">
        <ele>243.6</ele>
        <time>2018-09-05T10:50:13Z</time>
      </trkpt>
      <trkpt lat="47.67824" lon="6.16129">
        <ele>243.66</ele>
        <time>2018-09-05T10:50:15Z</time>
      </trkpt>
      <trkpt lat="47.67815" lon="6.16127">
        <ele>243.71</ele>
        <time>2018-09-05T10:50:17Z</time>
      </trkpt>
      <trkpt lat="47.67806" lon="6.16125">
        <ele>243.75</ele>
        <time>2018-09-05T10:50:19Z</time>
      </trkpt>
      <trkpt lat="47.67801" lon="6.16123">
        <ele>243.77</ele>
        <time>2018-09-05T10:50:20Z</time>
      </trkpt>
      <trkpt lat="47.67796" lon="6.16122">
        <ele>243.8</ele>
        <time>2018-09-05T10:50:21Z</time>
      </trkpt>
      <trkpt lat="47.67792" lon="6.1612">
        <ele>243.82</ele>
        <time>2018-09-05T10:50:22Z</time>
      </trkpt>
      <trkpt lat="47.67787" lon="6.16119">
        <ele>243.84</ele>
        <time>2018-09-05T10:50:23Z</time>
      </trkpt>
      <trkpt lat="47.67782" lon="6.16118">
        <ele>243.86</ele>
        <time>2018-09-05T10:50:24Z</time>
      </trkpt>
      <trkpt lat="47.67778" lon="6.16116">
        <ele>243.88</ele>
        <time>2018-09-05T10:50:25Z</time>
      </trkpt>
      <trkpt lat="47.67773" lon="6.16114">
        <ele>243.89</ele>
        <time>2018-09-05T10:50:26Z</time>
      </trkpt>
      <trkpt lat="47.67768" lon="6.16113">
        <ele>243.9</ele>
        <time>2018-09-05T10:50:27Z</time>
      </trkpt>
      <trkpt lat="47.67764" lon="6.16112">
        <ele>243.92</ele>
        <time>2018-09-05T10:50:28Z</time>
      </trkpt>
      <trkpt lat="47.67759" lon="6.16111">
        <ele>243.93</ele>
        <time>2018-09-05T10:50:29Z</time>
      </trkpt>
      <trkpt lat="47.67754" lon="6.1611">
        <ele>243.94</ele>
        <time>2018-09-05T10:50:30Z</time>
      </trkpt>
      <trkpt lat="47.6775" lon="6.16108">
        <ele>243.95</ele>
        <time>2018-09-05T10:50:31Z</time>
      </trkpt>
      <trkpt lat="47.67745" lon="6.16108">
        <ele>243.96</ele>
        <time>2018-09-05T10:50:32Z</time>
      </trkpt>
      <trkpt lat="47.67736" lon="6.16106">
        <ele>243.98</ele>
        <time>2018-09-05T10:50:34Z</time>
      </trkpt>
      <trkpt lat="47.67732" lon="6.16106">
        <ele>243.99</ele>
        <time>2018-09-05T10:50:35Z</time>
      </trkpt>
      <trkpt lat="47.67727" lon="6.16106">
        <ele>244</ele>
        <time>2018-09-05T10:50:36Z</time>
      </trkpt>
      <trkpt lat="47.67722" lon="6.16106">
        <ele>244.01</ele>
        <time>2018-09-05T10:50:37Z</time>
      </trkpt>
      <trkpt lat="47.67717" lon="6.16106">
        <ele>244.02</ele>
        <time>2018-09-05T10:50:38Z</time>
      </trkpt>
      <trkpt lat="47.67713" lon="6.16106">
        <ele>244.03</ele>
        <time>2018-09-05T10:50:39Z</time>
      </trkpt>
      <trkpt lat="47.67708" lon="6.16107">
        <ele>244.03</ele>
        <time>2018-09-05T10:50:40Z</time>
      </trkpt>
      <trkpt lat="47.67703" lon="6.16107">
        <ele>244.04</ele>
        <time>2018-09-05T10:50:41Z</time>
      </trkpt>
      <trkpt lat="47.67698" lon="6.16108">
        <ele>244.04</ele>
        <time>2018-09-05T10:50:42Z</time>
      </trkpt>
      <trkpt lat="47.67693" lon="6.16109">
        <ele>244.05</ele>
        <time>2018-09-05T10:50:43Z</time>
      </trkpt>
      <trkpt lat="47.67688" lon="6.1611">
        <ele>244.05</ele>
        <time>2018-09-05T10:50:44Z</time>
      </trkpt>
      <trkpt lat="47.67683" lon="6.16111">
        <ele>244.06</ele>
        <time>2018-09-05T10:50:45Z</time>
      </trkpt>
      <trkpt lat="47.67678" lon="6.16112">
        <ele>244.06</ele>
        <time>2018-09-05T10:50:46Z</time>
      </trkpt>
      <trkpt lat="47.67674" lon="6.16113">
        <ele>244.07</ele>
        <time>2018-09-05T10:50:47Z</time>
      </trkpt>
      <trkpt lat="47.67669" lon="6.16114">
        <ele>244.08</ele>
        <time>2018-09-05T10:50:48Z</time>
      </trkpt>
      <trkpt lat="47.67664" lon="6.16116">
        <ele>244.09</ele>
        <time>2018-09-05T10:50:49Z</time>
      </trkpt>
      <trkpt lat="47.67659" lon="6.16116">
        <ele>244.1</ele>
        <time>2018-09-05T10:50:50Z</time>
      </trkpt>
      <trkpt lat="47.67655" lon="6.16118">
        <ele>244.11</ele>
        <time>2018-09-05T10:50:51Z</time>
      </trkpt>
      <trkpt lat="47.6765" lon="6.16119">
        <ele>244.12</ele>
        <time>2018-09-05T10:50:52Z</time>
      </trkpt>
      <trkpt lat="47.67645" lon="6.1612">
        <ele>244.13</ele>
        <time>2018-09-05T10:50:53Z</time>
      </trkpt>
      <trkpt lat="47.6764" lon="6.16121">
        <ele>244.14</ele>
        <time>2018-09-05T10:50:54Z</time>
      </trkpt>
      <trkpt lat="47.67635" lon="6.16122">
        <ele>244.15</ele>
        <time>2018-09-05T10:50:55Z</time>
      </trkpt>
      <trkpt lat="47.6763" lon="6.16123">
        <ele>244.16</ele>
        <time>2018-09-05T10:50:56Z</time>
      </trkpt>
      <trkpt lat="47.67625" lon="6.16124">
        <ele>244.17</ele>
        <time>2018-09-05T10:50:57Z</time>
      </trkpt>
      <trkpt lat="47.6762" lon="6.16124">
        <ele>244.18</ele>
        <time>2018-09-05T10:50:58Z</time>
      </trkpt>
      <trkpt lat="47.67615" lon="6.16126">
        <ele>244.2</ele>
        <time>2018-09-05T10:50:59Z</time>
      </trkpt>
      <trkpt lat="47.6761" lon="6.16127">
        <ele>244.21</ele>
        <time>2018-09-05T10:51:00Z</time>
      </trkpt>
      <trkpt lat="47.67606" lon="6.16127">
        <ele>244.21</ele>
        <time>2018-09-05T10:51:01Z</time>
      </trkpt>
      <trkpt lat="47.67601" lon="6.16128">
        <ele>244.22</ele>
        <time>2018-09-05T10:51:02Z</time>
      </trkpt>
      <trkpt lat="47.67596" lon="6.1613">
        <ele>244.23</ele>
        <time>2018-09-05T10:51:03Z</time>
      </trkpt>
      <trkpt lat="47.67591" lon="6.16131">
        <ele>244.24</ele>
        <time>2018-09-05T10:51:04Z</time>
      </trkpt>
      <trkpt lat="47.67586" lon="6.16132">
        <ele>244.24</ele>
        <time>2018-09-05T10:51:05Z</time>
      </trkpt>
      <trkpt lat="47.67581" lon="6.16133">
        <ele>244.25</ele>
        <time>2018-09-05T10:51:06Z</time>
      </trkpt>
      <trkpt lat="47.67576" lon="6.16134">
        <ele>244.25</ele>
        <time>2018-09-05T10:51:07Z</time>
      </trkpt>
      <trkpt lat="47.67571" lon="6.16135">
        <ele>244.26</ele>
        <time>2018-09-05T10:51:08Z</time>
      </trkpt>
      <trkpt lat="47.67566" lon="6.16137">
        <ele>244.27</ele>
        <time>2018-09-05T10:51:09Z</time>
      </trkpt>
      <trkpt lat="47.67561" lon="6.16138">
        <ele>244.28</ele>
        <time>2018-09-05T10:51:10Z</time>
      </trkpt>
      <trkpt lat="47.67556" lon="6.1614">
        <ele>244.28</ele>
        <time>2018-09-05T10:51:11Z</time>
      </trkpt>
      <trkpt lat="47.67552" lon="6.16142">
        <ele>244.29</ele>
        <time>2018-09-05T10:51:12Z</time>
      </trkpt>
      <trkpt lat="47.67547" lon="6.16144">
        <ele>244.3</ele>
        <time>2018-09-05T10:51:13Z</time>
      </trkpt>
      <trkpt lat="47.67542" lon="6.16146">
        <ele>244.3</ele>
        <time>2018-09-05T10:51:14Z</time>
      </trkpt>
      <trkpt lat="47.67538" lon="6.16149">
        <ele>244.31</ele>
        <time>2018-09-05T10:51:15Z</time>
      </trkpt>
      <trkpt lat="47.67533" lon="6.16152">
        <ele>244.31</ele>
        <time>2018-09-05T10:51:16Z</time>
      </trkpt>
      <trkpt lat="47.67528" lon="6.16155">
        <ele>244.32</ele>
        <time>2018-09-05T10:51:17Z</time>
      </trkpt>
      <trkpt lat="47.67523" lon="6.16158">
        <ele>244.32</ele>
        <time>2018-09-05T10:51:18Z</time>
      </trkpt>
      <trkpt lat="47.67518" lon="6.16161">
        <ele>244.33</ele>
        <time>2018-09-05T10:51:19Z</time>
      </trkpt>
      <trkpt lat="47.67513" lon="6.16164">
        <ele>244.34</ele>
        <time>2018-09-05T10:51:20Z</time>
      </trkpt>
      <trkpt lat="47.67508" lon="6.16168">
        <ele>244.35</ele>
        <time>2018-09-05T10:51:21Z</time>
      </trkpt>
      <trkpt lat="47.67503" lon="6.16171">
        <ele>244.36</ele>
        <time>2018-09-05T10:51:22Z</time>
      </trkpt>
      <trkpt lat="47.67499" lon="6.16174">
        <ele>244.37</ele>
        <time>2018-09-05T10:51:23Z</time>
      </trkpt>
      <trkpt lat="47.67494" lon="6.16177">
        <ele>244.38</ele>
        <time>2018-09-05T10:51:24Z</time>
      </trkpt>
      <trkpt lat="47.67489" lon="6.1618">
        <ele>244.39</ele>
        <time>2018-09-05T10:51:25Z</time>
      </trkpt>
      <trkpt lat="47.67483" lon="6.16183">
        <ele>244.4</ele>
        <time>2018-09-05T10:51:26Z</time>
      </trkpt>
      <trkpt lat="47.67479" lon="6.16185">
        <ele>244.41</ele>
        <time>2018-09-05T10:51:27Z</time>
      </trkpt>
      <trkpt lat="47.67473" lon="6.16189">
        <ele>244.42</ele>
        <time>2018-09-05T10:51:28Z</time>
      </trkpt>
      <trkpt lat="47.67468" lon="6.16192">
        <ele>244.43</ele>
        <time>2018-09-05T10:51:29Z</time>
      </trkpt>
      <trkpt lat="47.67463" lon="6.16195">
        <ele>244.43</ele>
        <time>2018-09-05T10:51:30Z</time>
      </trkpt>
      <trkpt lat="47.67457" lon="6.16198">
        <ele>244.44</ele>
        <time>2018-09-05T10:51:31Z</time>
      </trkpt>
      <trkpt lat="47.67452" lon="6.16201">
        <ele>244.45</ele>
        <time>2018-09-05T10:51:32Z</time>
      </trkpt>
      <trkpt lat="47.67447" lon="6.16204">
        <ele>244.46</ele>
        <time>2018-09-05T10:51:33Z</time>
      </trkpt>
      <trkpt lat="47.67442" lon="6.16207">
        <ele>244.47</ele>
        <time>2018-09-05T10:51:34Z</time>
      </trkpt>
      <trkpt lat="47.67436" lon="6.1621">
        <ele>244.47</ele>
        <time>2018-09-05T10:51:35Z</time>
      </trkpt>
      <trkpt lat="47.67431" lon="6.16213">
        <ele>244.47</ele>
        <time>2018-09-05T10:51:36Z</time>
      </trkpt>
      <trkpt lat="47.67426" lon="6.16216">
        <ele>244.47</ele>
        <time>2018-09-05T10:51:37Z</time>
      </trkpt>
      <trkpt lat="47.6742" lon="6.16219">
        <ele>244.46</ele>
        <time>2018-09-05T10:51:38Z</time>
      </trkpt>
      <trkpt lat="47.67415" lon="6.16222">
        <ele>244.45</ele>
        <time>2018-09-05T10:51:39Z</time>
      </trkpt>
      <trkpt lat="47.6741" lon="6.16224">
        <ele>244.44</ele>
        <time>2018-09-05T10:51:40Z</time>
      </trkpt>
      <trkpt lat="47.67404" lon="6.16227">
        <ele>244.42</ele>
        <time>2018-09-05T10:51:41Z</time>
      </trkpt>
      <trkpt lat="47.67399" lon="6.16229">
        <ele>244.41</ele>
        <time>2018-09-05T10:51:42Z</time>
      </trkpt>
      <trkpt lat="47.67393" lon="6.16231">
        <ele>244.4</ele>
        <time>2018-09-05T10:51:43Z</time>
      </trkpt>
      <trkpt lat="47.67388" lon="6.16233">
        <ele>244.38</ele>
        <time>2018-09-05T10:51:44Z</time>
      </trkpt>
      <trkpt lat="47.67382" lon="6.16235">
        <ele>244.37</ele>
        <time>2018-09-05T10:51:45Z</time>
      </trkpt>
      <trkpt lat="47.67377" lon="6.16237">
        <ele>244.36</ele>
        <time>2018-09-05T10:51:46Z</time>
      </trkpt>
      <trkpt lat="47.67371" lon="6.16239">
        <ele>244.34</ele>
        <time>2018-09-05T10:51:47Z</time>
      </trkpt>
      <trkpt lat="47.67365" lon="6.16242">
        <ele>244.32</ele>
        <time>2018-09-05T10:51:48Z</time>
      </trkpt>
      <trkpt lat="47.67359" lon="6.16244">
        <ele>244.32</ele>
        <time>2018-09-05T10:51:49Z</time>
      </trkpt>
      <trkpt lat="47.67353" lon="6.16247">
        <ele>244.31</ele>
        <time>2018-09-05T10:51:50Z</time>
      </trkpt>
      <trkpt lat="47.67348" lon="6.16249">
        <ele>244.31</ele>
        <time>2018-09-05T10:51:51Z</time>
      </trkpt>
      <trkpt lat="47.67342" lon="6.16251">
        <ele>244.31</ele>
        <time>2018-09-05T10:51:52Z</time>
      </trkpt>
      <trkpt lat="47.67336" lon="6.16253">
        <ele>244.31</ele>
        <time>2018-09-05T10:51:53Z</time>
      </trkpt>
      <trkpt lat="47.6733" lon="6.16255">
        <ele>244.31</ele>
        <time>2018-09-05T10:51:54Z</time>
      </trkpt>
      <trkpt lat="47.67324" lon="6.16257">
        <ele>244.3</ele>
        <time>2018-09-05T10:51:55Z</time>
      </trkpt>
      <trkpt lat="47.67319" lon="6.1626">
        <ele>244.3</ele>
        <time>2018-09-05T10:51:56Z</time>
      </trkpt>
      <trkpt lat="47.67313" lon="6.16262">
        <ele>244.29</ele>
        <time>2018-09-05T10:51:57Z</time>
      </trkpt>
      <trkpt lat="47.67307" lon="6.16264">
        <ele>244.28</ele>
        <time>2018-09-05T10:51:58Z</time>
      </trkpt>
      <trkpt lat="47.67301" lon="6.16266">
        <ele>244.27</ele>
        <time>2018-09-05T10:51:59Z</time>
      </trkpt>
      <trkpt lat="47.67295" lon="6.16268">
        <ele>244.26</ele>
        <time>2018-09-05T10:52:00Z</time>
      </trkpt>
      <trkpt lat="47.6729" lon="6.1627">
        <ele>244.25</ele>
        <time>2018-09-05T10:52:01Z</time>
      </trkpt>
      <trkpt lat="47.67284" lon="6.16273">
        <ele>244.24</ele>
        <time>2018-09-05T10:52:02Z</time>
      </trkpt>
      <trkpt lat="47.67279" lon="6.16276">
        <ele>244.23</ele>
        <time>2018-09-05T10:52:03Z</time>
      </trkpt>
      <trkpt lat="47.67274" lon="6.16278">
        <ele>244.21</ele>
        <time>2018-09-05T10:52:04Z</time>
      </trkpt>
      <trkpt lat="47.67269" lon="6.16281">
        <ele>244.2</ele>
        <time>2018-09-05T10:52:05Z</time>
      </trkpt>
      <trkpt lat="47.67264" lon="6.16284">
        <ele>244.18</ele>
        <time>2018-09-05T10:52:06Z</time>
      </trkpt>
      <trkpt lat="47.67259" lon="6.16287">
        <ele>244.17</ele>
        <time>2018-09-05T10:52:07Z</time>
      </trkpt>
      <trkpt lat="47.67255" lon="6.16291">
        <ele>244.16</ele>
        <time>2018-09-05T10:52:08Z</time>
      </trkpt>
      <trkpt lat="47.6725" lon="6.16295">
        <ele>244.14</ele>
        <time>2018-09-05T10:52:09Z</time>
      </trkpt>
      <trkpt lat="47.67246" lon="6.16299">
        <ele>244.13</ele>
        <time>2018-09-05T10:52:10Z</time>
      </trkpt>
      <trkpt lat="47.67241" lon="6.16304">
        <ele>244.12</ele>
        <time>2018-09-05T10:52:11Z</time>
      </trkpt>
      <trkpt lat="47.67236" lon="6.16308">
        <ele>244.1</ele>
        <time>2018-09-05T10:52:12Z</time>
      </trkpt>
      <trkpt lat="47.67231" lon="6.16313">
        <ele>244.08</ele>
        <time>2018-09-05T10:52:13Z</time>
      </trkpt>
      <trkpt lat="47.67227" lon="6.16317">
        <ele>244.07</ele>
        <time>2018-09-05T10:52:14Z</time>
      </trkpt>
      <trkpt lat="47.67223" lon="6.16322">
        <ele>244.05</ele>
        <time>2018-09-05T10:52:15Z</time>
      </trkpt>
      <trkpt lat="47.67218" lon="6.16327">
        <ele>244.03</ele>
        <time>2018-09-05T10:52:16Z</time>
      </trkpt>
      <trkpt lat="47.67213" lon="6.16331">
        <ele>244.02</ele>
        <time>2018-09-05T10:52:17Z</time>
      </trkpt>
      <trkpt lat="47.67209" lon="6.16336">
        <ele>244.01</ele>
        <time>2018-09-05T10:52:18Z</time>
      </trkpt>
      <trkpt lat="47.67204" lon="6.16341">
        <ele>244</ele>
        <time>2018-09-05T10:52:19Z</time>
      </trkpt>
      <trkpt lat="47.67199" lon="6.16345">
        <ele>243.98</ele>
        <time>2018-09-05T10:52:20Z</time>
      </trkpt>
      <trkpt lat="47.67195" lon="6.16349">
        <ele>243.97</ele>
        <time>2018-09-05T10:52:21Z</time>
      </trkpt>
      <trkpt lat="47.6719" lon="6.16354">
        <ele>243.95</ele>
        <time>2018-09-05T10:52:22Z</time>
      </trkpt>
      <trkpt lat="47.67185" lon="6.16358">
        <ele>243.93</ele>
        <time>2018-09-05T10:52:23Z</time>
      </trkpt>
      <trkpt lat="47.67181" lon="6.16363">
        <ele>243.91</ele>
        <time>2018-09-05T10:52:24Z</time>
      </trkpt>
      <trkpt lat="47.67175" lon="6.16367">
        <ele>243.88</ele>
        <time>2018-09-05T10:52:25Z</time>
      </trkpt>
      <trkpt lat="47.6717" lon="6.16372">
        <ele>243.86</ele>
        <time>2018-09-05T10:52:26Z</time>
      </trkpt>
      <trkpt lat="47.67166" lon="6.16377">
        <ele>243.83</ele>
        <time>2018-09-05T10:52:27Z</time>
      </trkpt>
      <trkpt lat="47.67161" lon="6.16382">
        <ele>243.81</ele>
        <time>2018-09-05T10:52:28Z</time>
      </trkpt>
      <trkpt lat="47.67157" lon="6.16386">
        <ele>243.79</ele>
        <time>2018-09-05T10:52:29Z</time>
      </trkpt>
      <trkpt lat="47.67152" lon="6.16391">
        <ele>243.77</ele>
        <time>2018-09-05T10:52:30Z</time>
      </trkpt>
      <trkpt lat="47.67148" lon="6.16396">
        <ele>243.75</ele>
        <time>2018-09-05T10:52:31Z</time>
      </trkpt>
      <trkpt lat="47.67143" lon="6.16401">
        <ele>243.73</ele>
        <time>2018-09-05T10:52:32Z</time>
      </trkpt>
      <trkpt lat="47.67138" lon="6.16405">
        <ele>243.71</ele>
        <time>2018-09-05T10:52:33Z</time>
      </trkpt>
      <trkpt lat="47.67133" lon="6.16409">
        <ele>243.69</ele>
        <time>2018-09-05T10:52:34Z</time>
      </trkpt>
      <trkpt lat="47.67128" lon="6.16412">
        <ele>243.67</ele>
        <time>2018-09-05T10:52:35Z</time>
      </trkpt>
      <trkpt lat="47.67122" lon="6.16415">
        <ele>243.65</ele>
        <time>2018-09-05T10:52:36Z</time>
      </trkpt>
      <trkpt lat="47.67117" lon="6.16417">
        <ele>243.63</ele>
        <time>2018-09-05T10:52:37Z</time>
      </trkpt>
      <trkpt lat="47.67112" lon="6.16421">
        <ele>243.62</ele>
        <time>2018-09-05T10:52:38Z</time>
      </trkpt>
      <trkpt lat="47.67106" lon="6.16424">
        <ele>243.6</ele>
        <time>2018-09-05T10:52:39Z</time>
      </trkpt>
      <trkpt lat="47.67101" lon="6.16429">
        <ele>243.59</ele>
        <time>2018-09-05T10:52:40Z</time>
      </trkpt>
      <trkpt lat="47.67097" lon="6.16435">
        <ele>243.58</ele>
        <time>2018-09-05T10:52:41Z</time>
      </trkpt>
      <trkpt lat="47.67093" lon="6.16441">
        <ele>243.57</ele>
        <time>2018-09-05T10:52:42Z</time>
      </trkpt>
      <trkpt lat="47.6709" lon="6.16448">
        <ele>243.56</ele>
        <time>2018-09-05T10:52:43Z</time>
      </trkpt>
      <trkpt lat="47.67085" lon="6.16454">
        <ele>243.55</ele>
        <time>2018-09-05T10:52:44Z</time>
      </trkpt>
      <trkpt lat="47.6708" lon="6.16459">
        <ele>243.53</ele>
        <time>2018-09-05T10:52:45Z</time>
      </trkpt>
      <trkpt lat="47.67075" lon="6.16463">
        <ele>243.52</ele>
        <time>2018-09-05T10:52:46Z</time>
      </trkpt>
      <trkpt lat="47.67071" lon="6.16467">
        <ele>243.5</ele>
        <time>2018-09-05T10:52:47Z</time>
      </trkpt>
      <trkpt lat="47.67066" lon="6.16471">
        <ele>243.48</ele>
        <time>2018-09-05T10:52:48Z</time>
      </trkpt>
      <trkpt lat="47.6706" lon="6.16472">
        <ele>243.46</ele>
        <time>2018-09-05T10:52:49Z</time>
      </trkpt>
      <trkpt lat="47.67054" lon="6.16474">
        <ele>243.44</ele>
        <time>2018-09-05T10:52:50Z</time>
      </trkpt>
      <trkpt lat="47.67049" lon="6.16475">
        <ele>243.42</ele>
        <time>2018-09-05T10:52:51Z</time>
      </trkpt>
      <trkpt lat="47.67043" lon="6.16475">
        <ele>243.4</ele>
        <time>2018-09-05T10:52:52Z</time>
      </trkpt>
      <trkpt lat="47.67037" lon="6.16475">
        <ele>243.38</ele>
        <time>2018-09-05T10:52:53Z</time>
      </trkpt>
      <trkpt lat="47.67032" lon="6.16474">
        <ele>243.37</ele>
        <time>2018-09-05T10:52:54Z</time>
      </trkpt>
      <trkpt lat="47.67026" lon="6.16473">
        <ele>243.35</ele>
        <time>2018-09-05T10:52:55Z</time>
      </trkpt>
      <trkpt lat="47.67021" lon="6.16472">
        <ele>243.34</ele>
        <time>2018-09-05T10:52:56Z</time>
      </trkpt>
      <trkpt lat="47.67016" lon="6.16471">
        <ele>243.33</ele>
        <time>2018-09-05T10:52:57Z</time>
      </trkpt>
      <trkpt lat="47.67011" lon="6.1647">
        <ele>243.32</ele>
        <time>2018-09-05T10:52:58Z</time>
      </trkpt>
      <trkpt lat="47.67006" lon="6.16469">
        <ele>243.31</ele>
        <time>2018-09-05T10:52:59Z</time>
      </trkpt>
      <trkpt lat="47.67" lon="6.16468">
        <ele>243.3</ele>
        <time>2018-09-05T10:53:00Z</time>
      </trkpt>
      <trkpt lat="47.66995" lon="6.16467">
        <ele>243.3</ele>
        <time>2018-09-05T10:53:01Z</time>
      </trkpt>
      <trkpt lat="47.6699" lon="6.16466">
        <ele>243.3</ele>
        <time>2018-09-05T10:53:02Z</time>
      </trkpt>
      <trkpt lat="47.66984" lon="6.16465">
        <ele>243.3</ele>
        <time>2018-09-05T10:53:03Z</time>
      </trkpt>
      <trkpt lat="47.66979" lon="6.16464">
        <ele>243.3</ele>
        <time>2018-09-05T10:53:04Z</time>
      </trkpt>
      <trkpt lat="47.66974" lon="6.16463">
        <ele>243.3</ele>
        <time>2018-09-05T10:53:05Z</time>
      </trkpt>
      <trkpt lat="47.66969" lon="6.16462">
        <ele>243.3</ele>
        <time>2018-09-05T10:53:06Z</time>
      </trkpt>
      <trkpt lat="47.66964" lon="6.1646">
        <ele>243.3</ele>
        <time>2018-09-05T10:53:07Z</time>
      </trkpt>
      <trkpt lat="47.66957" lon="6.16463">
        <ele>243.29</ele>
        <time>2018-09-05T10:53:09Z</time>
      </trkpt>
      <trkpt lat="47.66954" lon="6.16468">
        <ele>243.28</ele>
        <time>2018-09-05T10:53:10Z</time>
      </trkpt>
      <trkpt lat="47.66952" lon="6.16477">
        <ele>243.28</ele>
        <time>2018-09-05T10:53:11Z</time>
      </trkpt>
      <trkpt lat="47.66951" lon="6.16486">
        <ele>243.26</ele>
        <time>2018-09-05T10:53:12Z</time>
      </trkpt>
      <trkpt lat="47.66952" lon="6.16497">
        <ele>243.24</ele>
        <time>2018-09-05T10:53:13Z</time>
      </trkpt>
      <trkpt lat="47.66951" lon="6.16507">
        <ele>243.22</ele>
        <time>2018-09-05T10:53:14Z</time>
      </trkpt>
      <trkpt lat="47.66951" lon="6.16517">
        <ele>243.2</ele>
        <time>2018-09-05T10:53:15Z</time>
      </trkpt>
      <trkpt lat="47.66952" lon="6.16527">
        <ele>243.18</ele>
        <time>2018-09-05T10:53:16Z</time>
      </trkpt>
      <trkpt lat="47.66952" lon="6.16536">
        <ele>243.16</ele>
        <time>2018-09-05T10:53:17Z</time>
      </trkpt>
      <trkpt lat="47.66951" lon="6.16546">
        <ele>243.14</ele>
        <time>2018-09-05T10:53:18Z</time>
      </trkpt>
      <trkpt lat="47.66949" lon="6.16555">
        <ele>243.11</ele>
        <time>2018-09-05T10:53:19Z</time>
      </trkpt>
      <trkpt lat="47.66948" lon="6.16563">
        <ele>243.08</ele>
        <time>2018-09-05T10:53:20Z</time>
      </trkpt>
      <trkpt lat="47.66947" lon="6.16571">
        <ele>243.06</ele>
        <time>2018-09-05T10:53:21Z</time>
      </trkpt>
      <trkpt lat="47.66945" lon="6.16578">
        <ele>243.04</ele>
        <time>2018-09-05T10:53:22Z</time>
      </trkpt>
      <trkpt lat="47.66944" lon="6.16585">
        <ele>243.02</ele>
        <time>2018-09-05T10:53:23Z</time>
      </trkpt>
      <trkpt lat="47.66943" lon="6.16591">
        <ele>243</ele>
        <time>2018-09-05T10:53:24Z</time>
      </trkpt>
      <trkpt lat="47.66941" lon="6.16598">
        <ele>243.03</ele>
        <time>2018-09-05T10:53:25Z</time>
      </trkpt>
      <trkpt lat="47.6694" lon="6.16605">
        <ele>243.07</ele>
        <time>2018-09-05T10:53:26Z</time>
      </trkpt>
      <trkpt lat="47.6694" lon="6.16612">
        <ele>243.09</ele>
        <time>2018-09-05T10:53:27Z</time>
      </trkpt>
      <trkpt lat="47.66939" lon="6.16619">
        <ele>243.1</ele>
        <time>2018-09-05T10:53:28Z</time>
      </trkpt>
      <trkpt lat="47.66938" lon="6.16626">
        <ele>243.12</ele>
        <time>2018-09-05T10:53:29Z</time>
      </trkpt>
      <trkpt lat="47.66938" lon="6.16633">
        <ele>243.14</ele>
        <time>2018-09-05T10:53:30Z</time>
      </trkpt>
      <trkpt lat="47.66937" lon="6.1664">
        <ele>243.16</ele>
        <time>2018-09-05T10:53:31Z</time>
      </trkpt>
      <trkpt lat="47.66936" lon="6.16646">
        <ele>243.16</ele>
        <time>2018-09-05T10:53:32Z</time>
      </trkpt>
      <trkpt lat="47.66935" lon="6.16653">
        <ele>243.13</ele>
        <time>2018-09-05T10:53:33Z</time>
      </trkpt>
      <trkpt lat="47.66933" lon="6.1666">
        <ele>243.1</ele>
        <time>2018-09-05T10:53:34Z</time>
      </trkpt>
      <trkpt lat="47.66932" lon="6.16666">
        <ele>243.06</ele>
        <time>2018-09-05T10:53:35Z</time>
      </trkpt>
      <trkpt lat="47.6693" lon="6.16678">
        <ele>242.98</ele>
        <time>2018-09-05T10:53:37Z</time>
      </trkpt>
      <trkpt lat="47.66929" lon="6.1669">
        <ele>242.93</ele>
        <time>2018-09-05T10:53:39Z</time>
      </trkpt>
      <trkpt lat="47.66928" lon="6.16703">
        <ele>242.86</ele>
        <time>2018-09-05T10:53:41Z</time>
      </trkpt>
      <trkpt lat="47.6693" lon="6.16715">
        <ele>242.8</ele>
        <time>2018-09-05T10:53:43Z</time>
      </trkpt>
      <trkpt lat="47.66932" lon="6.16726">
        <ele>242.69</ele>
        <time>2018-09-05T10:53:45Z</time>
      </trkpt>
      <trkpt lat="47.66933" lon="6.16738">
        <ele>242.56</ele>
        <time>2018-09-05T10:53:47Z</time>
      </trkpt>
      <trkpt lat="47.66936" lon="6.1675">
        <ele>242.43</ele>
        <time>2018-09-05T10:53:49Z</time>
      </trkpt>
      <trkpt lat="47.6694" lon="6.16761">
        <ele>242.27</ele>
        <time>2018-09-05T10:53:51Z</time>
      </trkpt>
      <trkpt lat="47.66943" lon="6.16766">
        <ele>242.2</ele>
        <time>2018-09-05T10:53:52Z</time>
      </trkpt>
      <trkpt lat="47.66946" lon="6.16772">
        <ele>242.13</ele>
        <time>2018-09-05T10:53:53Z</time>
      </trkpt>
      <trkpt lat="47.66952" lon="6.16781">
        <ele>242</ele>
        <time>2018-09-05T10:53:55Z</time>
      </trkpt>
      <trkpt lat="47.66956" lon="6.16785">
        <ele>241.93</ele>
        <time>2018-09-05T10:53:56Z</time>
      </trkpt>
      <trkpt lat="47.6696" lon="6.16789">
        <ele>241.85</ele>
        <time>2018-09-05T10:53:57Z</time>
      </trkpt>
      <trkpt lat="47.66967" lon="6.16796">
        <ele>241.7</ele>
        <time>2018-09-05T10:53:59Z</time>
      </trkpt>
      <trkpt lat="47.66971" lon="6.168">
        <ele>241.63</ele>
        <time>2018-09-05T10:54:00Z</time>
      </trkpt>
      <trkpt lat="47.66975" lon="6.16804">
        <ele>241.58</ele>
        <time>2018-09-05T10:54:01Z</time>
      </trkpt>
      <trkpt lat="47.66979" lon="6.16807">
        <ele>241.52</ele>
        <time>2018-09-05T10:54:02Z</time>
      </trkpt>
      <trkpt lat="47.66983" lon="6.16811">
        <ele>241.48</ele>
        <time>2018-09-05T10:54:03Z</time>
      </trkpt>
      <trkpt lat="47.66987" lon="6.16815">
        <ele>241.43</ele>
        <time>2018-09-05T10:54:04Z</time>
      </trkpt>
      <trkpt lat="47.66991" lon="6.16818">
        <ele>241.38</ele>
        <time>2018-09-05T10:54:05Z</time>
      </trkpt>
      <trkpt lat="47.66996" lon="6.16822">
        <ele>241.31</ele>
        <time>2018-09-05T10:54:06Z</time>
      </trkpt>
      <trkpt lat="47.67001" lon="6.16826">
        <ele>241.24</ele>
        <time>2018-09-05T10:54:07Z</time>
      </trkpt>
      <trkpt lat="47.67006" lon="6.1683">
        <ele>241.16</ele>
        <time>2018-09-05T10:54:08Z</time>
      </trkpt>
      <trkpt lat="47.67011" lon="6.16835">
        <ele>241.09</ele>
        <time>2018-09-05T10:54:09Z</time>
      </trkpt>
      <trkpt lat="47.67015" lon="6.1684">
        <ele>241.03</ele>
        <time>2018-09-05T10:54:10Z</time>
      </trkpt>
      <trkpt lat="47.6702" lon="6.16844">
        <ele>240.95</ele>
        <time>2018-09-05T10:54:11Z</time>
      </trkpt>
      <trkpt lat="47.67025" lon="6.16848">
        <ele>240.85</ele>
        <time>2018-09-05T10:54:12Z</time>
      </trkpt>
      <trkpt lat="47.67029" lon="6.16851">
        <ele>240.75</ele>
        <time>2018-09-05T10:54:13Z</time>
      </trkpt>
      <trkpt lat="47.67034" lon="6.16857">
        <ele>240.63</ele>
        <time>2018-09-05T10:54:14Z</time>
      </trkpt>
      <trkpt lat="47.67038" lon="6.16863">
        <ele>240.52</ele>
        <time>2018-09-05T10:54:15Z</time>
      </trkpt>
      <trkpt lat="47.67043" lon="6.16869">
        <ele>240.38</ele>
        <time>2018-09-05T10:54:16Z</time>
      </trkpt>
      <trkpt lat="47.67048" lon="6.16876">
        <ele>240.22</ele>
        <time>2018-09-05T10:54:17Z</time>
      </trkpt>
      <trkpt lat="47.67053" lon="6.16883">
        <ele>240.04</ele>
        <time>2018-09-05T10:54:18Z</time>
      </trkpt>
      <trkpt lat="47.67058" lon="6.1689">
        <ele>239.86</ele>
        <time>2018-09-05T10:54:19Z</time>
      </trkpt>
      <trkpt lat="47.67062" lon="6.16898">
        <ele>239.68</ele>
        <time>2018-09-05T10:54:20Z</time>
      </trkpt>
      <trkpt lat="47.67066" lon="6.16907">
        <ele>239.51</ele>
        <time>2018-09-05T10:54:21Z</time>
      </trkpt>
      <trkpt lat="47.67069" lon="6.16917">
        <ele>239.35</ele>
        <time>2018-09-05T10:54:22Z</time>
      </trkpt>
      <trkpt lat="47.67072" lon="6.16927">
        <ele>239.22</ele>
        <time>2018-09-05T10:54:23Z</time>
      </trkpt>
      <trkpt lat="47.67072" lon="6.16937">
        <ele>239.1</ele>
        <time>2018-09-05T10:54:24Z</time>
      </trkpt>
      <trkpt lat="47.67071" lon="6.16946">
        <ele>239</ele>
        <time>2018-09-05T10:54:25Z</time>
      </trkpt>
      <trkpt lat="47.6707" lon="6.16955">
        <ele>238.9</ele>
        <time>2018-09-05T10:54:26Z</time>
      </trkpt>
      <trkpt lat="47.67069" lon="6.16964">
        <ele>238.79</ele>
        <time>2018-09-05T10:54:27Z</time>
      </trkpt>
      <trkpt lat="47.67067" lon="6.16973">
        <ele>238.75</ele>
        <time>2018-09-05T10:54:28Z</time>
      </trkpt>
      <trkpt lat="47.67065" lon="6.16982">
        <ele>238.7</ele>
        <time>2018-09-05T10:54:29Z</time>
      </trkpt>
      <trkpt lat="47.67064" lon="6.1699">
        <ele>238.67</ele>
        <time>2018-09-05T10:54:30Z</time>
      </trkpt>
      <trkpt lat="47.67062" lon="6.16999">
        <ele>238.65</ele>
        <time>2018-09-05T10:54:31Z</time>
      </trkpt>
      <trkpt lat="47.67061" lon="6.17006">
        <ele>238.63</ele>
        <time>2018-09-05T10:54:32Z</time>
      </trkpt>
      <trkpt lat="47.67059" lon="6.17014">
        <ele>238.6</ele>
        <time>2018-09-05T10:54:33Z</time>
      </trkpt>
      <trkpt lat="47.67057" lon="6.17021">
        <ele>238.6</ele>
        <time>2018-09-05T10:54:34Z</time>
      </trkpt>
      <trkpt lat="47.67056" lon="6.17028">
        <ele>238.59</ele>
        <time>2018-09-05T10:54:35Z</time>
      </trkpt>
      <trkpt lat="47.67055" lon="6.17035">
        <ele>238.6</ele>
        <time>2018-09-05T10:54:36Z</time>
      </trkpt>
      <trkpt lat="47.67054" lon="6.17042">
        <ele>238.6</ele>
        <time>2018-09-05T10:54:37Z</time>
      </trkpt>
      <trkpt lat="47.67054" lon="6.17049">
        <ele>238.59</ele>
        <time>2018-09-05T10:54:38Z</time>
      </trkpt>
      <trkpt lat="47.67054" lon="6.17056">
        <ele>238.57</ele>
        <time>2018-09-05T10:54:39Z</time>
      </trkpt>
      <trkpt lat="47.67054" lon="6.17063">
        <ele>238.53</ele>
        <time>2018-09-05T10:54:40Z</time>
      </trkpt>
      <trkpt lat="47.67055" lon="6.17071">
        <ele>238.42</ele>
        <time>2018-09-05T10:54:41Z</time>
      </trkpt>
      <trkpt lat="47.67054" lon="6.17079">
        <ele>238.33</ele>
        <time>2018-09-05T10:54:42Z</time>
      </trkpt>
      <trkpt lat="47.67055" lon="6.17087">
        <ele>238.27</ele>
        <time>2018-09-05T10:54:43Z</time>
      </trkpt>
      <trkpt lat="47.67054" lon="6.17096">
        <ele>238.21</ele>
        <time>2018-09-05T10:54:44Z</time>
      </trkpt>
      <trkpt lat="47.67055" lon="6.17105">
        <ele>238.21</ele>
        <time>2018-09-05T10:54:45Z</time>
      </trkpt>
      <trkpt lat="47.67056" lon="6.17114">
        <ele>238.26</ele>
        <time>2018-09-05T10:54:46Z</time>
      </trkpt>
      <trkpt lat="47.67057" lon="6.17123">
        <ele>238.31</ele>
        <time>2018-09-05T10:54:47Z</time>
      </trkpt>
      <trkpt lat="47.67058" lon="6.17131">
        <ele>238.37</ele>
        <time>2018-09-05T10:54:48Z</time>
      </trkpt>
      <trkpt lat="47.67059" lon="6.1714">
        <ele>238.42</ele>
        <time>2018-09-05T10:54:49Z</time>
      </trkpt>
      <trkpt lat="47.67059" lon="6.17148">
        <ele>238.47</ele>
        <time>2018-09-05T10:54:50Z</time>
      </trkpt>
      <trkpt lat="47.6706" lon="6.17157">
        <ele>238.52</ele>
        <time>2018-09-05T10:54:51Z</time>
      </trkpt>
      <trkpt lat="47.6706" lon="6.17166">
        <ele>238.56</ele>
        <time>2018-09-05T10:54:52Z</time>
      </trkpt>
      <trkpt lat="47.67061" lon="6.17174">
        <ele>238.62</ele>
        <time>2018-09-05T10:54:53Z</time>
      </trkpt>
      <trkpt lat="47.67061" lon="6.17183">
        <ele>238.66</ele>
        <time>2018-09-05T10:54:54Z</time>
      </trkpt>
      <trkpt lat="47.67062" lon="6.17191">
        <ele>238.68</ele>
        <time>2018-09-05T10:54:55Z</time>
      </trkpt>
      <trkpt lat="47.67062" lon="6.172">
        <ele>238.69</ele>
        <time>2018-09-05T10:54:56Z</time>
      </trkpt>
      <trkpt lat="47.67062" lon="6.17209">
        <ele>238.69</ele>
        <time>2018-09-05T10:54:57Z</time>
      </trkpt>
      <trkpt lat="47.67062" lon="6.17217">
        <ele>238.69</ele>
        <time>2018-09-05T10:54:58Z</time>
      </trkpt>
      <trkpt lat="47.67061" lon="6.17225">
        <ele>238.67</ele>
        <time>2018-09-05T10:54:59Z</time>
      </trkpt>
      <trkpt lat="47.6706" lon="6.17233">
        <ele>238.66</ele>
        <time>2018-09-05T10:55:00Z</time>
      </trkpt>
      <trkpt lat="47.67058" lon="6.17241">
        <ele>238.64</ele>
        <time>2018-09-05T10:55:01Z</time>
      </trkpt>
      <trkpt lat="47.67056" lon="6.17249">
        <ele>238.62</ele>
        <time>2018-09-05T10:55:02Z</time>
      </trkpt>
      <trkpt lat="47.67054" lon="6.17256">
        <ele>238.59</ele>
        <time>2018-09-05T10:55:03Z</time>
      </trkpt>
      <trkpt lat="47.67051" lon="6.17263">
        <ele>238.56</ele>
        <time>2018-09-05T10:55:04Z</time>
      </trkpt>
      <trkpt lat="47.67049" lon="6.17269">
        <ele>238.54</ele>
        <time>2018-09-05T10:55:05Z</time>
      </trkpt>
      <trkpt lat="47.67046" lon="6.17276">
        <ele>238.51</ele>
        <time>2018-09-05T10:55:06Z</time>
      </trkpt>
      <trkpt lat="47.67044" lon="6.17282">
        <ele>238.5</ele>
        <time>2018-09-05T10:55:07Z</time>
      </trkpt>
      <trkpt lat="47.6704" lon="6.17293">
        <ele>238.52</ele>
        <time>2018-09-05T10:55:09Z</time>
      </trkpt>
      <trkpt lat="47.67038" lon="6.17299">
        <ele>238.54</ele>
        <time>2018-09-05T10:55:10Z</time>
      </trkpt>
      <trkpt lat="47.67033" lon="6.1731">
        <ele>238.59</ele>
        <time>2018-09-05T10:55:12Z</time>
      </trkpt>
      <trkpt lat="47.6703" lon="6.17316">
        <ele>238.6</ele>
        <time>2018-09-05T10:55:13Z</time>
      </trkpt>
      <trkpt lat="47.67026" lon="6.17321">
        <ele>238.62</ele>
        <time>2018-09-05T10:55:14Z</time>
      </trkpt>
      <trkpt lat="47.67023" lon="6.17327">
        <ele>238.63</ele>
        <time>2018-09-05T10:55:15Z</time>
      </trkpt>
      <trkpt lat="47.67017" lon="6.17335">
        <ele>238.66</ele>
        <time>2018-09-05T10:55:17Z</time>
      </trkpt>
      <trkpt lat="47.67011" lon="6.17342">
        <ele>238.66</ele>
        <time>2018-09-05T10:55:19Z</time>
      </trkpt>
      <trkpt lat="47.67004" lon="6.17348">
        <ele>238.65</ele>
        <time>2018-09-05T10:55:21Z</time>
      </trkpt>
      <trkpt lat="47.66997" lon="6.17354">
        <ele>238.65</ele>
        <time>2018-09-05T10:55:23Z</time>
      </trkpt>
      <trkpt lat="47.6699" lon="6.17358">
        <ele>238.67</ele>
        <time>2018-09-05T10:55:26Z</time>
      </trkpt>
      <trkpt lat="47.66983" lon="6.1736">
        <ele>238.67</ele>
        <time>2018-09-05T10:55:27Z</time>
      </trkpt>
      <trkpt lat="47.66976" lon="6.17366">
        <ele>238.73</ele>
        <time>2018-09-05T10:55:29Z</time>
      </trkpt>
      <trkpt lat="47.66968" lon="6.17369">
        <ele>238.76</ele>
        <time>2018-09-05T10:55:31Z</time>
      </trkpt>
      <trkpt lat="47.66961" lon="6.17374">
        <ele>238.84</ele>
        <time>2018-09-05T10:55:33Z</time>
      </trkpt>
      <trkpt lat="47.66953" lon="6.17379">
        <ele>238.93</ele>
        <time>2018-09-05T10:55:35Z</time>
      </trkpt>
      <trkpt lat="47.66946" lon="6.17384">
        <ele>239.07</ele>
        <time>2018-09-05T10:55:37Z</time>
      </trkpt>
      <trkpt lat="47.66938" lon="6.17388">
        <ele>239.17</ele>
        <time>2018-09-05T10:55:39Z</time>
      </trkpt>
      <trkpt lat="47.6693" lon="6.17393">
        <ele>239.24</ele>
        <time>2018-09-05T10:55:41Z</time>
      </trkpt>
      <trkpt lat="47.66923" lon="6.17398">
        <ele>239.33</ele>
        <time>2018-09-05T10:55:43Z</time>
      </trkpt>
      <trkpt lat="47.66916" lon="6.17403">
        <ele>239.42</ele>
        <time>2018-09-05T10:55:45Z</time>
      </trkpt>
      <trkpt lat="47.66908" lon="6.17407">
        <ele>239.52</ele>
        <time>2018-09-05T10:55:47Z</time>
      </trkpt>
      <trkpt lat="47.66901" lon="6.17412">
        <ele>239.6</ele>
        <time>2018-09-05T10:55:49Z</time>
      </trkpt>
      <trkpt lat="47.66894" lon="6.17415">
        <ele>239.63</ele>
        <time>2018-09-05T10:55:51Z</time>
      </trkpt>
      <trkpt lat="47.66887" lon="6.17419">
        <ele>239.68</ele>
        <time>2018-09-05T10:55:53Z</time>
      </trkpt>
      <trkpt lat="47.6688" lon="6.17422">
        <ele>239.69</ele>
        <time>2018-09-05T10:55:55Z</time>
      </trkpt>
      <trkpt lat="47.66872" lon="6.17425">
        <ele>239.67</ele>
        <time>2018-09-05T10:55:57Z</time>
      </trkpt>
      <trkpt lat="47.66864" lon="6.17427">
        <ele>239.65</ele>
        <time>2018-09-05T10:55:59Z</time>
      </trkpt>
      <trkpt lat="47.66855" lon="6.17428">
        <ele>239.62</ele>
        <time>2018-09-05T10:56:01Z</time>
      </trkpt>
      <trkpt lat="47.66851" lon="6.17427">
        <ele>239.61</ele>
        <time>2018-09-05T10:56:02Z</time>
      </trkpt>
      <trkpt lat="47.66846" lon="6.17427">
        <ele>239.61</ele>
        <time>2018-09-05T10:56:03Z</time>
      </trkpt>
      <trkpt lat="47.66838" lon="6.17427">
        <ele>239.59</ele>
        <time>2018-09-05T10:56:05Z</time>
      </trkpt>
      <trkpt lat="47.66829" lon="6.17427">
        <ele>239.56</ele>
        <time>2018-09-05T10:56:07Z</time>
      </trkpt>
      <trkpt lat="47.66824" lon="6.17426">
        <ele>239.55</ele>
        <time>2018-09-05T10:56:08Z</time>
      </trkpt>
      <trkpt lat="47.66819" lon="6.17426">
        <ele>239.54</ele>
        <time>2018-09-05T10:56:09Z</time>
      </trkpt>
      <trkpt lat="47.66815" lon="6.17426">
        <ele>239.53</ele>
        <time>2018-09-05T10:56:10Z</time>
      </trkpt>
      <trkpt lat="47.6681" lon="6.17426">
        <ele>239.53</ele>
        <time>2018-09-05T10:56:11Z</time>
      </trkpt>
      <trkpt lat="47.66805" lon="6.17425">
        <ele>239.52</ele>
        <time>2018-09-05T10:56:12Z</time>
      </trkpt>
      <trkpt lat="47.668" lon="6.17426">
        <ele>239.5</ele>
        <time>2018-09-05T10:56:13Z</time>
      </trkpt>
      <trkpt lat="47.66796" lon="6.17426">
        <ele>239.48</ele>
        <time>2018-09-05T10:56:14Z</time>
      </trkpt>
      <trkpt lat="47.66791" lon="6.17426">
        <ele>239.45</ele>
        <time>2018-09-05T10:56:15Z</time>
      </trkpt>
      <trkpt lat="47.66786" lon="6.17427">
        <ele>239.41</ele>
        <time>2018-09-05T10:56:16Z</time>
      </trkpt>
      <trkpt lat="47.66781" lon="6.17428">
        <ele>239.37</ele>
        <time>2018-09-05T10:56:17Z</time>
      </trkpt>
      <trkpt lat="47.66776" lon="6.17429">
        <ele>239.34</ele>
        <time>2018-09-05T10:56:18Z</time>
      </trkpt>
      <trkpt lat="47.66771" lon="6.1743">
        <ele>239.31</ele>
        <time>2018-09-05T10:56:19Z</time>
      </trkpt>
      <trkpt lat="47.66766" lon="6.1743">
        <ele>239.27</ele>
        <time>2018-09-05T10:56:20Z</time>
      </trkpt>
      <trkpt lat="47.66761" lon="6.17431">
        <ele>239.24</ele>
        <time>2018-09-05T10:56:21Z</time>
      </trkpt>
      <trkpt lat="47.66756" lon="6.17432">
        <ele>239.2</ele>
        <time>2018-09-05T10:56:22Z</time>
      </trkpt>
      <trkpt lat="47.66751" lon="6.17432">
        <ele>239.16</ele>
        <time>2018-09-05T10:56:23Z</time>
      </trkpt>
      <trkpt lat="47.66746" lon="6.17434">
        <ele>239.12</ele>
        <time>2018-09-05T10:56:24Z</time>
      </trkpt>
      <trkpt lat="47.66742" lon="6.17435">
        <ele>239.09</ele>
        <time>2018-09-05T10:56:25Z</time>
      </trkpt>
      <trkpt lat="47.66737" lon="6.17435">
        <ele>239.07</ele>
        <time>2018-09-05T10:56:26Z</time>
      </trkpt>
      <trkpt lat="47.66733" lon="6.17436">
        <ele>239.03</ele>
        <time>2018-09-05T10:56:27Z</time>
      </trkpt>
      <trkpt lat="47.66724" lon="6.17437">
        <ele>238.95</ele>
        <time>2018-09-05T10:56:29Z</time>
      </trkpt>
      <trkpt lat="47.66719" lon="6.17438">
        <ele>238.89</ele>
        <time>2018-09-05T10:56:30Z</time>
      </trkpt>
      <trkpt lat="47.66714" lon="6.1744">
        <ele>238.85</ele>
        <time>2018-09-05T10:56:31Z</time>
      </trkpt>
      <trkpt lat="47.66709" lon="6.1744">
        <ele>238.81</ele>
        <time>2018-09-05T10:56:32Z</time>
      </trkpt>
      <trkpt lat="47.66704" lon="6.17441">
        <ele>238.77</ele>
        <time>2018-09-05T10:56:33Z</time>
      </trkpt>
      <trkpt lat="47.66699" lon="6.17442">
        <ele>238.74</ele>
        <time>2018-09-05T10:56:34Z</time>
      </trkpt>
      <trkpt lat="47.66694" lon="6.17442">
        <ele>238.71</ele>
        <time>2018-09-05T10:56:35Z</time>
      </trkpt>
      <trkpt lat="47.66689" lon="6.17443">
        <ele>238.69</ele>
        <time>2018-09-05T10:56:36Z</time>
      </trkpt>
      <trkpt lat="47.66683" lon="6.17445">
        <ele>238.67</ele>
        <time>2018-09-05T10:56:37Z</time>
      </trkpt>
      <trkpt lat="47.66678" lon="6.17446">
        <ele>238.65</ele>
        <time>2018-09-05T10:56:38Z</time>
      </trkpt>
      <trkpt lat="47.66673" lon="6.17448">
        <ele>238.62</ele>
        <time>2018-09-05T10:56:39Z</time>
      </trkpt>
      <trkpt lat="47.66668" lon="6.1745">
        <ele>238.59</ele>
        <time>2018-09-05T10:56:40Z</time>
      </trkpt>
      <trkpt lat="47.66662" lon="6.17451">
        <ele>238.55</ele>
        <time>2018-09-05T10:56:41Z</time>
      </trkpt>
      <trkpt lat="47.66657" lon="6.17454">
        <ele>238.5</ele>
        <time>2018-09-05T10:56:42Z</time>
      </trkpt>
      <trkpt lat="47.66651" lon="6.17456">
        <ele>238.46</ele>
        <time>2018-09-05T10:56:43Z</time>
      </trkpt>
      <trkpt lat="47.66646" lon="6.17458">
        <ele>238.42</ele>
        <time>2018-09-05T10:56:44Z</time>
      </trkpt>
      <trkpt lat="47.66641" lon="6.1746">
        <ele>238.36</ele>
        <time>2018-09-05T10:56:45Z</time>
      </trkpt>
      <trkpt lat="47.66635" lon="6.17462">
        <ele>238.29</ele>
        <time>2018-09-05T10:56:46Z</time>
      </trkpt>
      <trkpt lat="47.6663" lon="6.17465">
        <ele>238.24</ele>
        <time>2018-09-05T10:56:47Z</time>
      </trkpt>
      <trkpt lat="47.66624" lon="6.17468">
        <ele>238.19</ele>
        <time>2018-09-05T10:56:48Z</time>
      </trkpt>
      <trkpt lat="47.66619" lon="6.17471">
        <ele>238.14</ele>
        <time>2018-09-05T10:56:49Z</time>
      </trkpt>
      <trkpt lat="47.66613" lon="6.17474">
        <ele>238.09</ele>
        <time>2018-09-05T10:56:50Z</time>
      </trkpt>
      <trkpt lat="47.66608" lon="6.17476">
        <ele>238.04</ele>
        <time>2018-09-05T10:56:51Z</time>
      </trkpt>
      <trkpt lat="47.66603" lon="6.17478">
        <ele>237.99</ele>
        <time>2018-09-05T10:56:52Z</time>
      </trkpt>
      <trkpt lat="47.66597" lon="6.1748">
        <ele>237.94</ele>
        <time>2018-09-05T10:56:53Z</time>
      </trkpt>
      <trkpt lat="47.66592" lon="6.17483">
        <ele>237.89</ele>
        <time>2018-09-05T10:56:54Z</time>
      </trkpt>
      <trkpt lat="47.66587" lon="6.17485">
        <ele>237.84</ele>
        <time>2018-09-05T10:56:55Z</time>
      </trkpt>
      <trkpt lat="47.66582" lon="6.17488">
        <ele>237.79</ele>
        <time>2018-09-05T10:56:56Z</time>
      </trkpt>
      <trkpt lat="47.66576" lon="6.17491">
        <ele>237.73</ele>
        <time>2018-09-05T10:56:57Z</time>
      </trkpt>
      <trkpt lat="47.66571" lon="6.17493">
        <ele>237.66</ele>
        <time>2018-09-05T10:56:58Z</time>
      </trkpt>
      <trkpt lat="47.66566" lon="6.17496">
        <ele>237.6</ele>
        <time>2018-09-05T10:56:59Z</time>
      </trkpt>
      <trkpt lat="47.66561" lon="6.17499">
        <ele>237.54</ele>
        <time>2018-09-05T10:57:00Z</time>
      </trkpt>
      <trkpt lat="47.66556" lon="6.17501">
        <ele>237.48</ele>
        <time>2018-09-05T10:57:01Z</time>
      </trkpt>
      <trkpt lat="47.66551" lon="6.17505">
        <ele>237.42</ele>
        <time>2018-09-05T10:57:02Z</time>
      </trkpt>
      <trkpt lat="47.66546" lon="6.17508">
        <ele>237.37</ele>
        <time>2018-09-05T10:57:03Z</time>
      </trkpt>
      <trkpt lat="47.66541" lon="6.17511">
        <ele>237.31</ele>
        <time>2018-09-05T10:57:04Z</time>
      </trkpt>
      <trkpt lat="47.66537" lon="6.17515">
        <ele>237.24</ele>
        <time>2018-09-05T10:57:05Z</time>
      </trkpt>
      <trkpt lat="47.66532" lon="6.17518">
        <ele>237.18</ele>
        <time>2018-09-05T10:57:06Z</time>
      </trkpt>
      <trkpt lat="47.66527" lon="6.17521">
        <ele>237.13</ele>
        <time>2018-09-05T10:57:07Z</time>
      </trkpt>
      <trkpt lat="47.66523" lon="6.17524">
        <ele>237.08</ele>
        <time>2018-09-05T10:57:08Z</time>
      </trkpt>
      <trkpt lat="47.66518" lon="6.17528">
        <ele>237.02</ele>
        <time>2018-09-05T10:57:09Z</time>
      </trkpt>
      <trkpt lat="47.66513" lon="6.17531">
        <ele>236.96</ele>
        <time>2018-09-05T10:57:10Z</time>
      </trkpt>
      <trkpt lat="47.66509" lon="6.17535">
        <ele>236.9</ele>
        <time>2018-09-05T10:57:11Z</time>
      </trkpt>
      <trkpt lat="47.66505" lon="6.17538">
        <ele>236.84</ele>
        <time>2018-09-05T10:57:12Z</time>
      </trkpt>
      <trkpt lat="47.665" lon="6.17542">
        <ele>236.79</ele>
        <time>2018-09-05T10:57:13Z</time>
      </trkpt>
      <trkpt lat="47.66495" lon="6.17545">
        <ele>236.73</ele>
        <time>2018-09-05T10:57:14Z</time>
      </trkpt>
      <trkpt lat="47.66491" lon="6.17548">
        <ele>236.67</ele>
        <time>2018-09-05T10:57:15Z</time>
      </trkpt>
      <trkpt lat="47.66486" lon="6.17551">
        <ele>236.63</ele>
        <time>2018-09-05T10:57:16Z</time>
      </trkpt>
      <trkpt lat="47.66481" lon="6.17554">
        <ele>236.57</ele>
        <time>2018-09-05T10:57:17Z</time>
      </trkpt>
      <trkpt lat="47.66476" lon="6.17557">
        <ele>236.52</ele>
        <time>2018-09-05T10:57:18Z</time>
      </trkpt>
      <trkpt lat="47.66471" lon="6.1756">
        <ele>236.47</ele>
        <time>2018-09-05T10:57:19Z</time>
      </trkpt>
      <trkpt lat="47.66466" lon="6.17563">
        <ele>236.41</ele>
        <time>2018-09-05T10:57:20Z</time>
      </trkpt>
      <trkpt lat="47.66461" lon="6.17566">
        <ele>236.36</ele>
        <time>2018-09-05T10:57:21Z</time>
      </trkpt>
      <trkpt lat="47.66456" lon="6.17569">
        <ele>236.33</ele>
        <time>2018-09-05T10:57:22Z</time>
      </trkpt>
      <trkpt lat="47.66451" lon="6.17573">
        <ele>236.31</ele>
        <time>2018-09-05T10:57:23Z</time>
      </trkpt>
      <trkpt lat="47.66446" lon="6.17576">
        <ele>236.3</ele>
        <time>2018-09-05T10:57:24Z</time>
      </trkpt>
      <trkpt lat="47.66442" lon="6.17579">
        <ele>236.3</ele>
        <time>2018-09-05T10:57:25Z</time>
      </trkpt>
      <trkpt lat="47.66437" lon="6.17582">
        <ele>236.3</ele>
        <time>2018-09-05T10:57:26Z</time>
      </trkpt>
      <trkpt lat="47.66432" lon="6.17585">
        <ele>236.32</ele>
        <time>2018-09-05T10:57:27Z</time>
      </trkpt>
      <trkpt lat="47.66427" lon="6.17589">
        <ele>236.34</ele>
        <time>2018-09-05T10:57:28Z</time>
      </trkpt>
      <trkpt lat="47.66423" lon="6.17592">
        <ele>236.35</ele>
        <time>2018-09-05T10:57:29Z</time>
      </trkpt>
      <trkpt lat="47.66418" lon="6.17595">
        <ele>236.36</ele>
        <time>2018-09-05T10:57:30Z</time>
      </trkpt>
      <trkpt lat="47.66414" lon="6.17599">
        <ele>236.35</ele>
        <time>2018-09-05T10:57:31Z</time>
      </trkpt>
      <trkpt lat="47.66409" lon="6.17603">
        <ele>236.34</ele>
        <time>2018-09-05T10:57:32Z</time>
      </trkpt>
      <trkpt lat="47.66405" lon="6.17608">
        <ele>236.32</ele>
        <time>2018-09-05T10:57:33Z</time>
      </trkpt>
      <trkpt lat="47.66401" lon="6.17612">
        <ele>236.28</ele>
        <time>2018-09-05T10:57:34Z</time>
      </trkpt>
      <trkpt lat="47.66398" lon="6.17618">
        <ele>236.25</ele>
        <time>2018-09-05T10:57:35Z</time>
      </trkpt>
      <trkpt lat="47.66394" lon="6.17623">
        <ele>236.22</ele>
        <time>2018-09-05T10:57:36Z</time>
      </trkpt>
      <trkpt lat="47.66391" lon="6.17629">
        <ele>236.2</ele>
        <time>2018-09-05T10:57:37Z</time>
      </trkpt>
      <trkpt lat="47.66388" lon="6.17634">
        <ele>236.17</ele>
        <time>2018-09-05T10:57:38Z</time>
      </trkpt>
      <trkpt lat="47.66384" lon="6.17639">
        <ele>236.14</ele>
        <time>2018-09-05T10:57:39Z</time>
      </trkpt>
      <trkpt lat="47.66381" lon="6.17644">
        <ele>236.11</ele>
        <time>2018-09-05T10:57:40Z</time>
      </trkpt>
      <trkpt lat="47.66378" lon="6.1765">
        <ele>236.1</ele>
        <time>2018-09-05T10:57:41Z</time>
      </trkpt>
      <trkpt lat="47.66372" lon="6.17661">
        <ele>236.08</ele>
        <time>2018-09-05T10:57:43Z</time>
      </trkpt>
      <trkpt lat="47.66369" lon="6.17666">
        <ele>236.07</ele>
        <time>2018-09-05T10:57:44Z</time>
      </trkpt>
      <trkpt lat="47.66363" lon="6.17677">
        <ele>236.03</ele>
        <time>2018-09-05T10:57:46Z</time>
      </trkpt>
      <trkpt lat="47.6636" lon="6.17683">
        <ele>235.99</ele>
        <time>2018-09-05T10:57:47Z</time>
      </trkpt>
      <trkpt lat="47.66358" lon="6.17689">
        <ele>235.95</ele>
        <time>2018-09-05T10:57:48Z</time>
      </trkpt>
      <trkpt lat="47.66355" lon="6.17695">
        <ele>235.92</ele>
        <time>2018-09-05T10:57:49Z</time>
      </trkpt>
      <trkpt lat="47.66353" lon="6.17701">
        <ele>235.89</ele>
        <time>2018-09-05T10:57:50Z</time>
      </trkpt>
      <trkpt lat="47.66351" lon="6.17708">
        <ele>235.84</ele>
        <time>2018-09-05T10:57:51Z</time>
      </trkpt>
      <trkpt lat="47.6635" lon="6.17715">
        <ele>235.8</ele>
        <time>2018-09-05T10:57:52Z</time>
      </trkpt>
      <trkpt lat="47.66348" lon="6.17723">
        <ele>235.76</ele>
        <time>2018-09-05T10:57:53Z</time>
      </trkpt>
      <trkpt lat="47.66347" lon="6.1773">
        <ele>235.72</ele>
        <time>2018-09-05T10:57:54Z</time>
      </trkpt>
      <trkpt lat="47.66345" lon="6.17738">
        <ele>235.67</ele>
        <time>2018-09-05T10:57:55Z</time>
      </trkpt>
      <trkpt lat="47.66344" lon="6.17745">
        <ele>235.63</ele>
        <time>2018-09-05T10:57:56Z</time>
      </trkpt>
      <trkpt lat="47.66343" lon="6.17752">
        <ele>235.6</ele>
        <time>2018-09-05T10:57:57Z</time>
      </trkpt>
      <trkpt lat="47.66342" lon="6.17759">
        <ele>235.56</ele>
        <time>2018-09-05T10:57:58Z</time>
      </trkpt>
      <trkpt lat="47.66341" lon="6.17767">
        <ele>235.52</ele>
        <time>2018-09-05T10:57:59Z</time>
      </trkpt>
      <trkpt lat="47.66339" lon="6.17774">
        <ele>235.49</ele>
        <time>2018-09-05T10:58:00Z</time>
      </trkpt>
      <trkpt lat="47.66337" lon="6.17788">
        <ele>235.43</ele>
        <time>2018-09-05T10:58:02Z</time>
      </trkpt>
      <trkpt lat="47.66336" lon="6.17795">
        <ele>235.41</ele>
        <time>2018-09-05T10:58:03Z</time>
      </trkpt>
      <trkpt lat="47.66335" lon="6.17802">
        <ele>235.39</ele>
        <time>2018-09-05T10:58:04Z</time>
      </trkpt>
      <trkpt lat="47.66334" lon="6.17809">
        <ele>235.37</ele>
        <time>2018-09-05T10:58:05Z</time>
      </trkpt>
      <trkpt lat="47.66333" lon="6.17823">
        <ele>235.29</ele>
        <time>2018-09-05T10:58:07Z</time>
      </trkpt>
      <trkpt lat="47.66333" lon="6.1783">
        <ele>235.25</ele>
        <time>2018-09-05T10:58:08Z</time>
      </trkpt>
      <trkpt lat="47.66332" lon="6.17843">
        <ele>235.2</ele>
        <time>2018-09-05T10:58:10Z</time>
      </trkpt>
      <trkpt lat="47.66331" lon="6.17855">
        <ele>235.18</ele>
        <time>2018-09-05T10:58:12Z</time>
      </trkpt>
      <trkpt lat="47.66331" lon="6.17862">
        <ele>235.17</ele>
        <time>2018-09-05T10:58:13Z</time>
      </trkpt>
      <trkpt lat="47.6633" lon="6.17869">
        <ele>235.17</ele>
        <time>2018-09-05T10:58:14Z</time>
      </trkpt>
      <trkpt lat="47.6633" lon="6.17876">
        <ele>235.18</ele>
        <time>2018-09-05T10:58:15Z</time>
      </trkpt>
      <trkpt lat="47.66329" lon="6.17888">
        <ele>235.21</ele>
        <time>2018-09-05T10:58:17Z</time>
      </trkpt>
      <trkpt lat="47.66329" lon="6.179">
        <ele>235.27</ele>
        <time>2018-09-05T10:58:19Z</time>
      </trkpt>
      <trkpt lat="47.66329" lon="6.17912">
        <ele>235.4</ele>
        <time>2018-09-05T10:58:21Z</time>
      </trkpt>
      <trkpt lat="47.66328" lon="6.17924">
        <ele>235.55</ele>
        <time>2018-09-05T10:58:23Z</time>
      </trkpt>
      <trkpt lat="47.66327" lon="6.17936">
        <ele>235.69</ele>
        <time>2018-09-05T10:58:25Z</time>
      </trkpt>
      <trkpt lat="47.66326" lon="6.17947">
        <ele>235.84</ele>
        <time>2018-09-05T10:58:27Z</time>
      </trkpt>
      <trkpt lat="47.66325" lon="6.17959">
        <ele>235.94</ele>
        <time>2018-09-05T10:58:29Z</time>
      </trkpt>
      <trkpt lat="47.66322" lon="6.17969">
        <ele>236</ele>
        <time>2018-09-05T10:58:31Z</time>
      </trkpt>
      <trkpt lat="47.66315" lon="6.17975">
        <ele>236.01</ele>
        <time>2018-09-05T10:58:33Z</time>
      </trkpt>
      <trkpt lat="47.66308" lon="6.17975">
        <ele>236.02</ele>
        <time>2018-09-05T10:58:35Z</time>
      </trkpt>
      <trkpt lat="47.663" lon="6.17975">
        <ele>236.04</ele>
        <time>2018-09-05T10:58:37Z</time>
      </trkpt>
      <trkpt lat="47.66293" lon="6.17974">
        <ele>236.04</ele>
        <time>2018-09-05T10:58:39Z</time>
      </trkpt>
      <trkpt lat="47.66285" lon="6.17972">
        <ele>236.05</ele>
        <time>2018-09-05T10:58:41Z</time>
      </trkpt>
      <trkpt lat="47.66279" lon="6.17971">
        <ele>236.06</ele>
        <time>2018-09-05T10:58:43Z</time>
      </trkpt>
      <trkpt lat="47.66275" lon="6.1797">
        <ele>236.08</ele>
        <time>2018-09-05T10:58:45Z</time>
      </trkpt>
      <trkpt lat="47.66269" lon="6.17969">
        <ele>236.11</ele>
        <time>2018-09-05T10:58:47Z</time>
      </trkpt>
      <trkpt lat="47.66264" lon="6.17967">
        <ele>236.14</ele>
        <time>2018-09-05T10:58:49Z</time>
      </trkpt>
      <trkpt lat="47.66258" lon="6.17967">
        <ele>236.19</ele>
        <time>2018-09-05T10:58:51Z</time>
      </trkpt>
      <trkpt lat="47.66253" lon="6.17966">
        <ele>236.23</ele>
        <time>2018-09-05T10:58:53Z</time>
      </trkpt>
      <trkpt lat="47.66247" lon="6.17965">
        <ele>236.29</ele>
        <time>2018-09-05T10:58:55Z</time>
      </trkpt>
      <trkpt lat="47.66243" lon="6.17964">
        <ele>236.34</ele>
        <time>2018-09-05T10:58:57Z</time>
      </trkpt>
      <trkpt lat="47.66238" lon="6.17963">
        <ele>236.41</ele>
        <time>2018-09-05T10:58:59Z</time>
      </trkpt>
      <trkpt lat="47.66233" lon="6.17963">
        <ele>236.47</ele>
        <time>2018-09-05T10:59:01Z</time>
      </trkpt>
      <trkpt lat="47.66227" lon="6.17963">
        <ele>236.53</ele>
        <time>2018-09-05T10:59:03Z</time>
      </trkpt>
      <trkpt lat="47.66222" lon="6.17961">
        <ele>236.59</ele>
        <time>2018-09-05T10:59:05Z</time>
      </trkpt>
      <trkpt lat="47.66217" lon="6.17959">
        <ele>236.65</ele>
        <time>2018-09-05T10:59:07Z</time>
      </trkpt>
      <trkpt lat="47.66212" lon="6.17957">
        <ele>236.71</ele>
        <time>2018-09-05T10:59:09Z</time>
      </trkpt>
      <trkpt lat="47.66206" lon="6.17956">
        <ele>236.77</ele>
        <time>2018-09-05T10:59:11Z</time>
      </trkpt>
      <trkpt lat="47.662" lon="6.17954">
        <ele>236.82</ele>
        <time>2018-09-05T10:59:13Z</time>
      </trkpt>
      <trkpt lat="47.66194" lon="6.17953">
        <ele>236.88</ele>
        <time>2018-09-05T10:59:15Z</time>
      </trkpt>
      <trkpt lat="47.66188" lon="6.17951">
        <ele>236.93</ele>
        <time>2018-09-05T10:59:17Z</time>
      </trkpt>
      <trkpt lat="47.66181" lon="6.1795">
        <ele>236.98</ele>
        <time>2018-09-05T10:59:19Z</time>
      </trkpt>
      <trkpt lat="47.66168" lon="6.17948">
        <ele>237.21</ele>
        <time>2018-09-05T10:59:21Z</time>
      </trkpt>
      <trkpt lat="47.6616" lon="6.17947">
        <ele>237.62</ele>
        <time>2018-09-05T10:59:23Z</time>
      </trkpt>
      <trkpt lat="47.66151" lon="6.17946">
        <ele>237.9</ele>
        <time>2018-09-05T10:59:25Z</time>
      </trkpt>
      <trkpt lat="47.66142" lon="6.17947">
        <ele>238.07</ele>
        <time>2018-09-05T10:59:27Z</time>
      </trkpt>
      <trkpt lat="47.66137" lon="6.17947">
        <ele>238.13</ele>
        <time>2018-09-05T10:59:28Z</time>
      </trkpt>
      <trkpt lat="47.66132" lon="6.17948">
        <ele>238.17</ele>
        <time>2018-09-05T10:59:29Z</time>
      </trkpt>
      <trkpt lat="47.66127" lon="6.17948">
        <ele>238.19</ele>
        <time>2018-09-05T10:59:30Z</time>
      </trkpt>
      <trkpt lat="47.66122" lon="6.17948">
        <ele>238.21</ele>
        <time>2018-09-05T10:59:31Z</time>
      </trkpt>
      <trkpt lat="47.66117" lon="6.17948">
        <ele>238.23</ele>
        <time>2018-09-05T10:59:32Z</time>
      </trkpt>
      <trkpt lat="47.66112" lon="6.17948">
        <ele>238.25</ele>
        <time>2018-09-05T10:59:33Z</time>
      </trkpt>
      <trkpt lat="47.66107" lon="6.17948">
        <ele>238.26</ele>
        <time>2018-09-05T10:59:34Z</time>
      </trkpt>
      <trkpt lat="47.66102" lon="6.17948">
        <ele>238.26</ele>
        <time>2018-09-05T10:59:35Z</time>
      </trkpt>
      <trkpt lat="47.66096" lon="6.17948">
        <ele>238.24</ele>
        <time>2018-09-05T10:59:36Z</time>
      </trkpt>
      <trkpt lat="47.66091" lon="6.17949">
        <ele>238.22</ele>
        <time>2018-09-05T10:59:37Z</time>
      </trkpt>
      <trkpt lat="47.66086" lon="6.17949">
        <ele>238.19</ele>
        <time>2018-09-05T10:59:38Z</time>
      </trkpt>
      <trkpt lat="47.6608" lon="6.17949">
        <ele>238.16</ele>
        <time>2018-09-05T10:59:39Z</time>
      </trkpt>
      <trkpt lat="47.66075" lon="6.17948">
        <ele>238.12</ele>
        <time>2018-09-05T10:59:40Z</time>
      </trkpt>
      <trkpt lat="47.6607" lon="6.17948">
        <ele>238.09</ele>
        <time>2018-09-05T10:59:41Z</time>
      </trkpt>
      <trkpt lat="47.66065" lon="6.17948">
        <ele>238.06</ele>
        <time>2018-09-05T10:59:42Z</time>
      </trkpt>
      <trkpt lat="47.66059" lon="6.17948">
        <ele>238.03</ele>
        <time>2018-09-05T10:59:43Z</time>
      </trkpt>
      <trkpt lat="47.66054" lon="6.17948">
        <ele>238</ele>
        <time>2018-09-05T10:59:44Z</time>
      </trkpt>
      <trkpt lat="47.66049" lon="6.17947">
        <ele>237.98</ele>
        <time>2018-09-05T10:59:45Z</time>
      </trkpt>
      <trkpt lat="47.66043" lon="6.17947">
        <ele>237.96</ele>
        <time>2018-09-05T10:59:46Z</time>
      </trkpt>
      <trkpt lat="47.66039" lon="6.17947">
        <ele>237.94</ele>
        <time>2018-09-05T10:59:47Z</time>
      </trkpt>
      <trkpt lat="47.66034" lon="6.17946">
        <ele>237.92</ele>
        <time>2018-09-05T10:59:48Z</time>
      </trkpt>
      <trkpt lat="47.66029" lon="6.17946">
        <ele>237.91</ele>
        <time>2018-09-05T10:59:49Z</time>
      </trkpt>
      <trkpt lat="47.66024" lon="6.17946">
        <ele>237.88</ele>
        <time>2018-09-05T10:59:50Z</time>
      </trkpt>
      <trkpt lat="47.66019" lon="6.17946">
        <ele>237.86</ele>
        <time>2018-09-05T10:59:51Z</time>
      </trkpt>
      <trkpt lat="47.66015" lon="6.17946">
        <ele>237.84</ele>
        <time>2018-09-05T10:59:52Z</time>
      </trkpt>
      <trkpt lat="47.6601" lon="6.17946">
        <ele>237.83</ele>
        <time>2018-09-05T10:59:53Z</time>
      </trkpt>
      <trkpt lat="47.66002" lon="6.17946">
        <ele>237.8</ele>
        <time>2018-09-05T10:59:55Z</time>
      </trkpt>
      <trkpt lat="47.65994" lon="6.17945">
        <ele>237.79</ele>
        <time>2018-09-05T10:59:57Z</time>
      </trkpt>
      <trkpt lat="47.65986" lon="6.17944">
        <ele>237.79</ele>
        <time>2018-09-05T10:59:59Z</time>
      </trkpt>
      <trkpt lat="47.65979" lon="6.17944">
        <ele>237.79</ele>
        <time>2018-09-05T11:00:01Z</time>
      </trkpt>
      <trkpt lat="47.65972" lon="6.17944">
        <ele>237.79</ele>
        <time>2018-09-05T11:00:03Z</time>
      </trkpt>
      <trkpt lat="47.65965" lon="6.17943">
        <ele>237.79</ele>
        <time>2018-09-05T11:00:05Z</time>
      </trkpt>
      <trkpt lat="47.65958" lon="6.17943">
        <ele>237.79</ele>
        <time>2018-09-05T11:00:07Z</time>
      </trkpt>
      <trkpt lat="47.6595" lon="6.17942">
        <ele>237.79</ele>
        <time>2018-09-05T11:00:09Z</time>
      </trkpt>
      <trkpt lat="47.65942" lon="6.17944">
        <ele>237.79</ele>
        <time>2018-09-05T11:00:11Z</time>
      </trkpt>
      <trkpt lat="47.65934" lon="6.17944">
        <ele>237.79</ele>
        <time>2018-09-05T11:00:13Z</time>
      </trkpt>
      <trkpt lat="47.65926" lon="6.17945">
        <ele>237.78</ele>
        <time>2018-09-05T11:00:15Z</time>
      </trkpt>
      <trkpt lat="47.65919" lon="6.17946">
        <ele>237.78</ele>
        <time>2018-09-05T11:00:17Z</time>
      </trkpt>
      <trkpt lat="47.65911" lon="6.17946">
        <ele>237.78</ele>
        <time>2018-09-05T11:00:19Z</time>
      </trkpt>
      <trkpt lat="47.65904" lon="6.17946">
        <ele>237.78</ele>
        <time>2018-09-05T11:00:21Z</time>
      </trkpt>
      <trkpt lat="47.65898" lon="6.17947">
        <ele>237.78</ele>
        <time>2018-09-05T11:00:23Z</time>
      </trkpt>
      <trkpt lat="47.65893" lon="6.17948">
        <ele>237.78</ele>
        <time>2018-09-05T11:00:25Z</time>
      </trkpt>
      <trkpt lat="47.65888" lon="6.17949">
        <ele>237.78</ele>
        <time>2018-09-05T11:00:27Z</time>
      </trkpt>
      <trkpt lat="47.65882" lon="6.17951">
        <ele>237.79</ele>
        <time>2018-09-05T11:00:29Z</time>
      </trkpt>
      <trkpt lat="47.65873" lon="6.17953">
        <ele>237.81</ele>
        <time>2018-09-05T11:00:30Z</time>
      </trkpt>
      <trkpt lat="47.65866" lon="6.17956">
        <ele>237.82</ele>
        <time>2018-09-05T11:00:32Z</time>
      </trkpt>
      <trkpt lat="47.65861" lon="6.17957">
        <ele>237.82</ele>
        <time>2018-09-05T11:00:34Z</time>
      </trkpt>
      <trkpt lat="47.65856" lon="6.1796">
        <ele>237.83</ele>
        <time>2018-09-05T11:00:36Z</time>
      </trkpt>
      <trkpt lat="47.65851" lon="6.17962">
        <ele>237.83</ele>
        <time>2018-09-05T11:00:38Z</time>
      </trkpt>
      <trkpt lat="47.65846" lon="6.17966">
        <ele>237.84</ele>
        <time>2018-09-05T11:00:40Z</time>
      </trkpt>
      <trkpt lat="47.65841" lon="6.17969">
        <ele>237.86</ele>
        <time>2018-09-05T11:00:42Z</time>
      </trkpt>
      <trkpt lat="47.65837" lon="6.17973">
        <ele>237.87</ele>
        <time>2018-09-05T11:00:44Z</time>
      </trkpt>
      <trkpt lat="47.65832" lon="6.17976">
        <ele>237.88</ele>
        <time>2018-09-05T11:00:46Z</time>
      </trkpt>
      <trkpt lat="47.65827" lon="6.17979">
        <ele>237.9</ele>
        <time>2018-09-05T11:00:48Z</time>
      </trkpt>
      <trkpt lat="47.65824" lon="6.17984">
        <ele>237.91</ele>
        <time>2018-09-05T11:00:50Z</time>
      </trkpt>
      <trkpt lat="47.65819" lon="6.17987">
        <ele>237.92</ele>
        <time>2018-09-05T11:00:52Z</time>
      </trkpt>
      <trkpt lat="47.65815" lon="6.17989">
        <ele>237.93</ele>
        <time>2018-09-05T11:00:54Z</time>
      </trkpt>
      <trkpt lat="47.6581" lon="6.17991">
        <ele>237.94</ele>
        <time>2018-09-05T11:00:56Z</time>
      </trkpt>
      <trkpt lat="47.65806" lon="6.17994">
        <ele>237.94</ele>
        <time>2018-09-05T11:00:58Z</time>
      </trkpt>
      <trkpt lat="47.65801" lon="6.17998">
        <ele>237.95</ele>
        <time>2018-09-05T11:01:00Z</time>
      </trkpt>
      <trkpt lat="47.65798" lon="6.18002">
        <ele>237.96</ele>
        <time>2018-09-05T11:01:02Z</time>
      </trkpt>
      <trkpt lat="47.65793" lon="6.18005">
        <ele>237.97</ele>
        <time>2018-09-05T11:01:04Z</time>
      </trkpt>
      <trkpt lat="47.65789" lon="6.18009">
        <ele>237.98</ele>
        <time>2018-09-05T11:01:06Z</time>
      </trkpt>
      <trkpt lat="47.65785" lon="6.18013">
        <ele>237.99</ele>
        <time>2018-09-05T11:01:08Z</time>
      </trkpt>
      <trkpt lat="47.6578" lon="6.18018">
        <ele>238.01</ele>
        <time>2018-09-05T11:01:10Z</time>
      </trkpt>
      <trkpt lat="47.65775" lon="6.18023">
        <ele>238.11</ele>
        <time>2018-09-05T11:01:12Z</time>
      </trkpt>
      <trkpt lat="47.65768" lon="6.18028">
        <ele>238.2</ele>
        <time>2018-09-05T11:01:14Z</time>
      </trkpt>
      <trkpt lat="47.6576" lon="6.18033">
        <ele>238.29</ele>
        <time>2018-09-05T11:01:16Z</time>
      </trkpt>
      <trkpt lat="47.65747" lon="6.18041">
        <ele>238.34</ele>
        <time>2018-09-05T11:01:17Z</time>
      </trkpt>
      <trkpt lat="47.65742" lon="6.18043">
        <ele>238.4</ele>
        <time>2018-09-05T11:01:18Z</time>
      </trkpt>
      <trkpt lat="47.65736" lon="6.18047">
        <ele>238.46</ele>
        <time>2018-09-05T11:01:19Z</time>
      </trkpt>
      <trkpt lat="47.6573" lon="6.18052">
        <ele>238.52</ele>
        <time>2018-09-05T11:01:20Z</time>
      </trkpt>
      <trkpt lat="47.65723" lon="6.18056">
        <ele>238.57</ele>
        <time>2018-09-05T11:01:21Z</time>
      </trkpt>
      <trkpt lat="47.65717" lon="6.18061">
        <ele>238.61</ele>
        <time>2018-09-05T11:01:22Z</time>
      </trkpt>
      <trkpt lat="47.65711" lon="6.18067">
        <ele>238.64</ele>
        <time>2018-09-05T11:01:23Z</time>
      </trkpt>
      <trkpt lat="47.65706" lon="6.18074">
        <ele>238.67</ele>
        <time>2018-09-05T11:01:24Z</time>
      </trkpt>
      <trkpt lat="47.65701" lon="6.18081">
        <ele>238.69</ele>
        <time>2018-09-05T11:01:25Z</time>
      </trkpt>
      <trkpt lat="47.65696" lon="6.18089">
        <ele>238.68</ele>
        <time>2018-09-05T11:01:26Z</time>
      </trkpt>
      <trkpt lat="47.65691" lon="6.18098">
        <ele>238.66</ele>
        <time>2018-09-05T11:01:27Z</time>
      </trkpt>
      <trkpt lat="47.65687" lon="6.18106">
        <ele>238.63</ele>
        <time>2018-09-05T11:01:28Z</time>
      </trkpt>
      <trkpt lat="47.65683" lon="6.18114">
        <ele>238.62</ele>
        <time>2018-09-05T11:01:29Z</time>
      </trkpt>
      <trkpt lat="47.6568" lon="6.18122">
        <ele>238.64</ele>
        <time>2018-09-05T11:01:30Z</time>
      </trkpt>
      <trkpt lat="47.65676" lon="6.1813">
        <ele>238.67</ele>
        <time>2018-09-05T11:01:31Z</time>
      </trkpt>
      <trkpt lat="47.65672" lon="6.18135">
        <ele>238.72</ele>
        <time>2018-09-05T11:01:32Z</time>
      </trkpt>
      <trkpt lat="47.65667" lon="6.1814">
        <ele>238.75</ele>
        <time>2018-09-05T11:01:33Z</time>
      </trkpt>
      <trkpt lat="47.65663" lon="6.18145">
        <ele>238.76</ele>
        <time>2018-09-05T11:01:34Z</time>
      </trkpt>
      <trkpt lat="47.65659" lon="6.18149">
        <ele>238.76</ele>
        <time>2018-09-05T11:01:35Z</time>
      </trkpt>
      <trkpt lat="47.65655" lon="6.18153">
        <ele>238.72</ele>
        <time>2018-09-05T11:01:36Z</time>
      </trkpt>
      <trkpt lat="47.65651" lon="6.18156">
        <ele>238.61</ele>
        <time>2018-09-05T11:01:37Z</time>
      </trkpt>
      <trkpt lat="47.65646" lon="6.18161">
        <ele>238.47</ele>
        <time>2018-09-05T11:01:38Z</time>
      </trkpt>
      <trkpt lat="47.65641" lon="6.18165">
        <ele>238.39</ele>
        <time>2018-09-05T11:01:39Z</time>
      </trkpt>
      <trkpt lat="47.65635" lon="6.18167">
        <ele>238.17</ele>
        <time>2018-09-05T11:01:40Z</time>
      </trkpt>
      <trkpt lat="47.65628" lon="6.18168">
        <ele>237.96</ele>
        <time>2018-09-05T11:01:41Z</time>
      </trkpt>
      <trkpt lat="47.65621" lon="6.18166">
        <ele>237.77</ele>
        <time>2018-09-05T11:01:42Z</time>
      </trkpt>
      <trkpt lat="47.65614" lon="6.18166">
        <ele>237.63</ele>
        <time>2018-09-05T11:01:43Z</time>
      </trkpt>
      <trkpt lat="47.65608" lon="6.18169">
        <ele>237.5</ele>
        <time>2018-09-05T11:01:44Z</time>
      </trkpt>
      <trkpt lat="47.65603" lon="6.18172">
        <ele>237.48</ele>
        <time>2018-09-05T11:01:45Z</time>
      </trkpt>
      <trkpt lat="47.65598" lon="6.18177">
        <ele>237.53</ele>
        <time>2018-09-05T11:01:46Z</time>
      </trkpt>
      <trkpt lat="47.65594" lon="6.18182">
        <ele>237.57</ele>
        <time>2018-09-05T11:01:47Z</time>
      </trkpt>
      <trkpt lat="47.65591" lon="6.18187">
        <ele>237.62</ele>
        <time>2018-09-05T11:01:48Z</time>
      </trkpt>
      <trkpt lat="47.65586" lon="6.18196">
        <ele>237.65</ele>
        <time>2018-09-05T11:01:50Z</time>
      </trkpt>
      <trkpt lat="47.65579" lon="6.18205">
        <ele>237.7</ele>
        <time>2018-09-05T11:01:52Z</time>
      </trkpt>
      <trkpt lat="47.65572" lon="6.18212">
        <ele>237.98</ele>
        <time>2018-09-05T11:01:54Z</time>
      </trkpt>
      <trkpt lat="47.65567" lon="6.18218">
        <ele>238.11</ele>
        <time>2018-09-05T11:01:57Z</time>
      </trkpt>
      <trkpt lat="47.65562" lon="6.18223">
        <ele>238.19</ele>
        <time>2018-09-05T11:01:59Z</time>
      </trkpt>
      <trkpt lat="47.65557" lon="6.18228">
        <ele>238.26</ele>
        <time>2018-09-05T11:02:01Z</time>
      </trkpt>
      <trkpt lat="47.65549" lon="6.18234">
        <ele>238.43</ele>
        <time>2018-09-05T11:02:02Z</time>
      </trkpt>
      <trkpt lat="47.65544" lon="6.18237">
        <ele>238.6</ele>
        <time>2018-09-05T11:02:03Z</time>
      </trkpt>
      <trkpt lat="47.65539" lon="6.18239">
        <ele>238.75</ele>
        <time>2018-09-05T11:02:04Z</time>
      </trkpt>
      <trkpt lat="47.65534" lon="6.18241">
        <ele>238.8</ele>
        <time>2018-09-05T11:02:05Z</time>
      </trkpt>
      <trkpt lat="47.65528" lon="6.18244">
        <ele>238.85</ele>
        <time>2018-09-05T11:02:06Z</time>
      </trkpt>
      <trkpt lat="47.65522" lon="6.18246">
        <ele>238.86</ele>
        <time>2018-09-05T11:02:07Z</time>
      </trkpt>
      <trkpt lat="47.65515" lon="6.18249">
        <ele>238.82</ele>
        <time>2018-09-05T11:02:08Z</time>
      </trkpt>
      <trkpt lat="47.65509" lon="6.18251">
        <ele>238.77</ele>
        <time>2018-09-05T11:02:09Z</time>
      </trkpt>
      <trkpt lat="47.65502" lon="6.18254">
        <ele>238.7</ele>
        <time>2018-09-05T11:02:10Z</time>
      </trkpt>
      <trkpt lat="47.65495" lon="6.18256">
        <ele>238.63</ele>
        <time>2018-09-05T11:02:11Z</time>
      </trkpt>
      <trkpt lat="47.65488" lon="6.18259">
        <ele>238.51</ele>
        <time>2018-09-05T11:02:12Z</time>
      </trkpt>
      <trkpt lat="47.65481" lon="6.1826">
        <ele>238.34</ele>
        <time>2018-09-05T11:02:13Z</time>
      </trkpt>
      <trkpt lat="47.65474" lon="6.18261">
        <ele>238.18</ele>
        <time>2018-09-05T11:02:14Z</time>
      </trkpt>
      <trkpt lat="47.65466" lon="6.1826">
        <ele>237.99</ele>
        <time>2018-09-05T11:02:15Z</time>
      </trkpt>
      <trkpt lat="47.65458" lon="6.1826">
        <ele>237.76</ele>
        <time>2018-09-05T11:02:16Z</time>
      </trkpt>
      <trkpt lat="47.6545" lon="6.18259">
        <ele>237.57</ele>
        <time>2018-09-05T11:02:17Z</time>
      </trkpt>
      <trkpt lat="47.65442" lon="6.18256">
        <ele>237.4</ele>
        <time>2018-09-05T11:02:18Z</time>
      </trkpt>
      <trkpt lat="47.65434" lon="6.18252">
        <ele>237.23</ele>
        <time>2018-09-05T11:02:19Z</time>
      </trkpt>
      <trkpt lat="47.65426" lon="6.18248">
        <ele>237.07</ele>
        <time>2018-09-05T11:02:20Z</time>
      </trkpt>
      <trkpt lat="47.65418" lon="6.18244">
        <ele>236.92</ele>
        <time>2018-09-05T11:02:21Z</time>
      </trkpt>
      <trkpt lat="47.6541" lon="6.18239">
        <ele>236.75</ele>
        <time>2018-09-05T11:02:22Z</time>
      </trkpt>
      <trkpt lat="47.65402" lon="6.18234">
        <ele>236.61</ele>
        <time>2018-09-05T11:02:23Z</time>
      </trkpt>
      <trkpt lat="47.65394" lon="6.18229">
        <ele>236.48</ele>
        <time>2018-09-05T11:02:24Z</time>
      </trkpt>
      <trkpt lat="47.65387" lon="6.18223">
        <ele>236.38</ele>
        <time>2018-09-05T11:02:25Z</time>
      </trkpt>
      <trkpt lat="47.6538" lon="6.18216">
        <ele>236.3</ele>
        <time>2018-09-05T11:02:26Z</time>
      </trkpt>
      <trkpt lat="47.65374" lon="6.1821">
        <ele>236.25</ele>
        <time>2018-09-05T11:02:27Z</time>
      </trkpt>
      <trkpt lat="47.65367" lon="6.18204">
        <ele>236.18</ele>
        <time>2018-09-05T11:02:28Z</time>
      </trkpt>
      <trkpt lat="47.6536" lon="6.18198">
        <ele>236.08</ele>
        <time>2018-09-05T11:02:29Z</time>
      </trkpt>
      <trkpt lat="47.65354" lon="6.18191">
        <ele>235.95</ele>
        <time>2018-09-05T11:02:30Z</time>
      </trkpt>
      <trkpt lat="47.65348" lon="6.18185">
        <ele>235.8</ele>
        <time>2018-09-05T11:02:31Z</time>
      </trkpt>
      <trkpt lat="47.65343" lon="6.18178">
        <ele>235.66</ele>
        <time>2018-09-05T11:02:32Z</time>
      </trkpt>
      <trkpt lat="47.65338" lon="6.18171">
        <ele>235.57</ele>
        <time>2018-09-05T11:02:33Z</time>
      </trkpt>
      <trkpt lat="47.65334" lon="6.18164">
        <ele>235.52</ele>
        <time>2018-09-05T11:02:34Z</time>
      </trkpt>
      <trkpt lat="47.65331" lon="6.18156">
        <ele>235.39</ele>
        <time>2018-09-05T11:02:35Z</time>
      </trkpt>
      <trkpt lat="47.65327" lon="6.18149">
        <ele>235.27</ele>
        <time>2018-09-05T11:02:36Z</time>
      </trkpt>
      <trkpt lat="47.65323" lon="6.18141">
        <ele>235.16</ele>
        <time>2018-09-05T11:02:37Z</time>
      </trkpt>
      <trkpt lat="47.65321" lon="6.18133">
        <ele>235.05</ele>
        <time>2018-09-05T11:02:38Z</time>
      </trkpt>
      <trkpt lat="47.65318" lon="6.18125">
        <ele>234.96</ele>
        <time>2018-09-05T11:02:39Z</time>
      </trkpt>
      <trkpt lat="47.65315" lon="6.18117">
        <ele>234.89</ele>
        <time>2018-09-05T11:02:40Z</time>
      </trkpt>
      <trkpt lat="47.65313" lon="6.18107">
        <ele>234.83</ele>
        <time>2018-09-05T11:02:41Z</time>
      </trkpt>
      <trkpt lat="47.65312" lon="6.18099">
        <ele>234.77</ele>
        <time>2018-09-05T11:02:42Z</time>
      </trkpt>
      <trkpt lat="47.65311" lon="6.18091">
        <ele>234.74</ele>
        <time>2018-09-05T11:02:43Z</time>
      </trkpt>
      <trkpt lat="47.6531" lon="6.18083">
        <ele>234.76</ele>
        <time>2018-09-05T11:02:44Z</time>
      </trkpt>
      <trkpt lat="47.65308" lon="6.18075">
        <ele>234.8</ele>
        <time>2018-09-05T11:02:45Z</time>
      </trkpt>
      <trkpt lat="47.65307" lon="6.18067">
        <ele>234.82</ele>
        <time>2018-09-05T11:02:46Z</time>
      </trkpt>
      <trkpt lat="47.65306" lon="6.18059">
        <ele>234.83</ele>
        <time>2018-09-05T11:02:47Z</time>
      </trkpt>
      <trkpt lat="47.65304" lon="6.18051">
        <ele>234.84</ele>
        <time>2018-09-05T11:02:48Z</time>
      </trkpt>
      <trkpt lat="47.65302" lon="6.18044">
        <ele>234.86</ele>
        <time>2018-09-05T11:02:49Z</time>
      </trkpt>
      <trkpt lat="47.65301" lon="6.18037">
        <ele>234.89</ele>
        <time>2018-09-05T11:02:50Z</time>
      </trkpt>
      <trkpt lat="47.653" lon="6.1803">
        <ele>234.9</ele>
        <time>2018-09-05T11:02:51Z</time>
      </trkpt>
      <trkpt lat="47.65298" lon="6.18023">
        <ele>234.85</ele>
        <time>2018-09-05T11:02:52Z</time>
      </trkpt>
      <trkpt lat="47.65297" lon="6.18017">
        <ele>234.81</ele>
        <time>2018-09-05T11:02:53Z</time>
      </trkpt>
      <trkpt lat="47.65295" lon="6.18011">
        <ele>234.79</ele>
        <time>2018-09-05T11:02:54Z</time>
      </trkpt>
      <trkpt lat="47.65292" lon="6.18005">
        <ele>234.9</ele>
        <time>2018-09-05T11:02:55Z</time>
      </trkpt>
      <trkpt lat="47.65289" lon="6.17999">
        <ele>234.95</ele>
        <time>2018-09-05T11:02:56Z</time>
      </trkpt>
      <trkpt lat="47.65283" lon="6.1799">
        <ele>235.01</ele>
        <time>2018-09-05T11:02:58Z</time>
      </trkpt>
      <trkpt lat="47.65277" lon="6.17986">
        <ele>235.25</ele>
        <time>2018-09-05T11:03:00Z</time>
      </trkpt>
      <trkpt lat="47.65272" lon="6.17982">
        <ele>235.38</ele>
        <time>2018-09-05T11:03:02Z</time>
      </trkpt>
      <trkpt lat="47.65266" lon="6.17978">
        <ele>235.44</ele>
        <time>2018-09-05T11:03:04Z</time>
      </trkpt>
      <trkpt lat="47.6525" lon="6.17971">
        <ele>235.65</ele>
        <time>2018-09-05T11:03:06Z</time>
      </trkpt>
      <trkpt lat="47.65242" lon="6.17969">
        <ele>235.97</ele>
        <time>2018-09-05T11:03:08Z</time>
      </trkpt>
      <trkpt lat="47.65234" lon="6.1797">
        <ele>236.42</ele>
        <time>2018-09-05T11:03:10Z</time>
      </trkpt>
      <trkpt lat="47.65226" lon="6.17972">
        <ele>236.54</ele>
        <time>2018-09-05T11:03:12Z</time>
      </trkpt>
      <trkpt lat="47.65218" lon="6.17978">
        <ele>236.52</ele>
        <time>2018-09-05T11:03:14Z</time>
      </trkpt>
      <trkpt lat="47.6521" lon="6.17984">
        <ele>236.58</ele>
        <time>2018-09-05T11:03:16Z</time>
      </trkpt>
      <trkpt lat="47.65204" lon="6.17992">
        <ele>236.56</ele>
        <time>2018-09-05T11:03:18Z</time>
      </trkpt>
      <trkpt lat="47.652" lon="6.17996">
        <ele>236.53</ele>
        <time>2018-09-05T11:03:19Z</time>
      </trkpt>
      <trkpt lat="47.65196" lon="6.18001">
        <ele>236.47</ele>
        <time>2018-09-05T11:03:20Z</time>
      </trkpt>
      <trkpt lat="47.65193" lon="6.18005">
        <ele>236.38</ele>
        <time>2018-09-05T11:03:21Z</time>
      </trkpt>
      <trkpt lat="47.65186" lon="6.18014">
        <ele>236.17</ele>
        <time>2018-09-05T11:03:23Z</time>
      </trkpt>
      <trkpt lat="47.65183" lon="6.1802">
        <ele>236.08</ele>
        <time>2018-09-05T11:03:24Z</time>
      </trkpt>
      <trkpt lat="47.6518" lon="6.18024">
        <ele>236</ele>
        <time>2018-09-05T11:03:25Z</time>
      </trkpt>
      <trkpt lat="47.65176" lon="6.1803">
        <ele>235.91</ele>
        <time>2018-09-05T11:03:26Z</time>
      </trkpt>
      <trkpt lat="47.65173" lon="6.18037">
        <ele>235.8</ele>
        <time>2018-09-05T11:03:27Z</time>
      </trkpt>
      <trkpt lat="47.65169" lon="6.18044">
        <ele>235.67</ele>
        <time>2018-09-05T11:03:28Z</time>
      </trkpt>
      <trkpt lat="47.65166" lon="6.18051">
        <ele>235.54</ele>
        <time>2018-09-05T11:03:29Z</time>
      </trkpt>
      <trkpt lat="47.65162" lon="6.18057">
        <ele>235.43</ele>
        <time>2018-09-05T11:03:30Z</time>
      </trkpt>
      <trkpt lat="47.65157" lon="6.18062">
        <ele>235.36</ele>
        <time>2018-09-05T11:03:31Z</time>
      </trkpt>
      <trkpt lat="47.65153" lon="6.18067">
        <ele>235.32</ele>
        <time>2018-09-05T11:03:32Z</time>
      </trkpt>
      <trkpt lat="47.65149" lon="6.18073">
        <ele>235.29</ele>
        <time>2018-09-05T11:03:33Z</time>
      </trkpt>
      <trkpt lat="47.65145" lon="6.18078">
        <ele>235.29</ele>
        <time>2018-09-05T11:03:34Z</time>
      </trkpt>
      <trkpt lat="47.6514" lon="6.18083">
        <ele>235.3</ele>
        <time>2018-09-05T11:03:35Z</time>
      </trkpt>
      <trkpt lat="47.65135" lon="6.18087">
        <ele>235.31</ele>
        <time>2018-09-05T11:03:36Z</time>
      </trkpt>
      <trkpt lat="47.6513" lon="6.1809">
        <ele>235.32</ele>
        <time>2018-09-05T11:03:37Z</time>
      </trkpt>
      <trkpt lat="47.65125" lon="6.18093">
        <ele>235.33</ele>
        <time>2018-09-05T11:03:38Z</time>
      </trkpt>
      <trkpt lat="47.6512" lon="6.18095">
        <ele>235.34</ele>
        <time>2018-09-05T11:03:39Z</time>
      </trkpt>
      <trkpt lat="47.65115" lon="6.18097">
        <ele>235.35</ele>
        <time>2018-09-05T11:03:40Z</time>
      </trkpt>
      <trkpt lat="47.6511" lon="6.18098">
        <ele>235.35</ele>
        <time>2018-09-05T11:03:41Z</time>
      </trkpt>
      <trkpt lat="47.65105" lon="6.18099">
        <ele>235.35</ele>
        <time>2018-09-05T11:03:42Z</time>
      </trkpt>
      <trkpt lat="47.651" lon="6.18099">
        <ele>235.35</ele>
        <time>2018-09-05T11:03:43Z</time>
      </trkpt>
      <trkpt lat="47.65095" lon="6.181">
        <ele>235.33</ele>
        <time>2018-09-05T11:03:44Z</time>
      </trkpt>
      <trkpt lat="47.6509" lon="6.18099">
        <ele>235.31</ele>
        <time>2018-09-05T11:03:45Z</time>
      </trkpt>
      <trkpt lat="47.65085" lon="6.18097">
        <ele>235.28</ele>
        <time>2018-09-05T11:03:46Z</time>
      </trkpt>
      <trkpt lat="47.6508" lon="6.18096">
        <ele>235.25</ele>
        <time>2018-09-05T11:03:47Z</time>
      </trkpt>
      <trkpt lat="47.65076" lon="6.18095">
        <ele>235.2</ele>
        <time>2018-09-05T11:03:48Z</time>
      </trkpt>
      <trkpt lat="47.65067" lon="6.18092">
        <ele>235.07</ele>
        <time>2018-09-05T11:03:50Z</time>
      </trkpt>
      <trkpt lat="47.65059" lon="6.18089">
        <ele>234.92</ele>
        <time>2018-09-05T11:03:52Z</time>
      </trkpt>
      <trkpt lat="47.65051" lon="6.18086">
        <ele>234.83</ele>
        <time>2018-09-05T11:03:54Z</time>
      </trkpt>
      <trkpt lat="47.65042" lon="6.18086">
        <ele>234.71</ele>
        <time>2018-09-05T11:03:56Z</time>
      </trkpt>
      <trkpt lat="47.65033" lon="6.18086">
        <ele>234.61</ele>
        <time>2018-09-05T11:03:58Z</time>
      </trkpt>
      <trkpt lat="47.65024" lon="6.18088">
        <ele>234.55</ele>
        <time>2018-09-05T11:04:00Z</time>
      </trkpt>
      <trkpt lat="47.65017" lon="6.18089">
        <ele>234.52</ele>
        <time>2018-09-05T11:04:02Z</time>
      </trkpt>
      <trkpt lat="47.65009" lon="6.18088">
        <ele>234.48</ele>
        <time>2018-09-05T11:04:04Z</time>
      </trkpt>
      <trkpt lat="47.65001" lon="6.18089">
        <ele>234.45</ele>
        <time>2018-09-05T11:04:06Z</time>
      </trkpt>
      <trkpt lat="47.64992" lon="6.18091">
        <ele>234.43</ele>
        <time>2018-09-05T11:04:08Z</time>
      </trkpt>
      <trkpt lat="47.64988" lon="6.18091">
        <ele>234.44</ele>
        <time>2018-09-05T11:04:09Z</time>
      </trkpt>
      <trkpt lat="47.6498" lon="6.18091">
        <ele>234.44</ele>
        <time>2018-09-05T11:04:11Z</time>
      </trkpt>
      <trkpt lat="47.64971" lon="6.18092">
        <ele>234.48</ele>
        <time>2018-09-05T11:04:13Z</time>
      </trkpt>
      <trkpt lat="47.64962" lon="6.18092">
        <ele>234.52</ele>
        <time>2018-09-05T11:04:15Z</time>
      </trkpt>
      <trkpt lat="47.64953" lon="6.18092">
        <ele>234.56</ele>
        <time>2018-09-05T11:04:17Z</time>
      </trkpt>
      <trkpt lat="47.64948" lon="6.18092">
        <ele>234.57</ele>
        <time>2018-09-05T11:04:18Z</time>
      </trkpt>
      <trkpt lat="47.6494" lon="6.18091">
        <ele>234.61</ele>
        <time>2018-09-05T11:04:20Z</time>
      </trkpt>
      <trkpt lat="47.64932" lon="6.18089">
        <ele>234.63</ele>
        <time>2018-09-05T11:04:22Z</time>
      </trkpt>
      <trkpt lat="47.64923" lon="6.18088">
        <ele>234.61</ele>
        <time>2018-09-05T11:04:24Z</time>
      </trkpt>
      <trkpt lat="47.64914" lon="6.18086">
        <ele>234.58</ele>
        <time>2018-09-05T11:04:26Z</time>
      </trkpt>
      <trkpt lat="47.64909" lon="6.18085">
        <ele>234.55</ele>
        <time>2018-09-05T11:04:27Z</time>
      </trkpt>
      <trkpt lat="47.64902" lon="6.18084">
        <ele>234.51</ele>
        <time>2018-09-05T11:04:29Z</time>
      </trkpt>
      <trkpt lat="47.64893" lon="6.18082">
        <ele>234.44</ele>
        <time>2018-09-05T11:04:31Z</time>
      </trkpt>
      <trkpt lat="47.64884" lon="6.1808">
        <ele>234.36</ele>
        <time>2018-09-05T11:04:33Z</time>
      </trkpt>
      <trkpt lat="47.6488" lon="6.18079">
        <ele>234.33</ele>
        <time>2018-09-05T11:04:34Z</time>
      </trkpt>
      <trkpt lat="47.64872" lon="6.18077">
        <ele>234.26</ele>
        <time>2018-09-05T11:04:36Z</time>
      </trkpt>
      <trkpt lat="47.64864" lon="6.18076">
        <ele>234.2</ele>
        <time>2018-09-05T11:04:38Z</time>
      </trkpt>
      <trkpt lat="47.64857" lon="6.18074">
        <ele>234.1</ele>
        <time>2018-09-05T11:04:40Z</time>
      </trkpt>
      <trkpt lat="47.6485" lon="6.18072">
        <ele>234.04</ele>
        <time>2018-09-05T11:04:42Z</time>
      </trkpt>
      <trkpt lat="47.64843" lon="6.1807">
        <ele>233.93</ele>
        <time>2018-09-05T11:04:44Z</time>
      </trkpt>
      <trkpt lat="47.64834" lon="6.18067">
        <ele>233.82</ele>
        <time>2018-09-05T11:04:46Z</time>
      </trkpt>
      <trkpt lat="47.64829" lon="6.18066">
        <ele>233.77</ele>
        <time>2018-09-05T11:04:47Z</time>
      </trkpt>
      <trkpt lat="47.64825" lon="6.18066">
        <ele>233.72</ele>
        <time>2018-09-05T11:04:48Z</time>
      </trkpt>
      <trkpt lat="47.64819" lon="6.18065">
        <ele>233.68</ele>
        <time>2018-09-05T11:04:49Z</time>
      </trkpt>
      <trkpt lat="47.64813" lon="6.18064">
        <ele>233.63</ele>
        <time>2018-09-05T11:04:50Z</time>
      </trkpt>
      <trkpt lat="47.64808" lon="6.18062">
        <ele>233.59</ele>
        <time>2018-09-05T11:04:51Z</time>
      </trkpt>
      <trkpt lat="47.64802" lon="6.1806">
        <ele>233.56</ele>
        <time>2018-09-05T11:04:52Z</time>
      </trkpt>
      <trkpt lat="47.64796" lon="6.18059">
        <ele>233.53</ele>
        <time>2018-09-05T11:04:53Z</time>
      </trkpt>
      <trkpt lat="47.64791" lon="6.18057">
        <ele>233.5</ele>
        <time>2018-09-05T11:04:54Z</time>
      </trkpt>
      <trkpt lat="47.64786" lon="6.18055">
        <ele>233.47</ele>
        <time>2018-09-05T11:04:55Z</time>
      </trkpt>
      <trkpt lat="47.64781" lon="6.18051">
        <ele>233.44</ele>
        <time>2018-09-05T11:04:56Z</time>
      </trkpt>
      <trkpt lat="47.64777" lon="6.18048">
        <ele>233.41</ele>
        <time>2018-09-05T11:04:57Z</time>
      </trkpt>
      <trkpt lat="47.64773" lon="6.18044">
        <ele>233.38</ele>
        <time>2018-09-05T11:04:58Z</time>
      </trkpt>
      <trkpt lat="47.64765" lon="6.18038">
        <ele>233.3</ele>
        <time>2018-09-05T11:05:00Z</time>
      </trkpt>
      <trkpt lat="47.64758" lon="6.18031">
        <ele>233.27</ele>
        <time>2018-09-05T11:05:02Z</time>
      </trkpt>
      <trkpt lat="47.64755" lon="6.18026">
        <ele>233.27</ele>
        <time>2018-09-05T11:05:03Z</time>
      </trkpt>
      <trkpt lat="47.6475" lon="6.1802">
        <ele>233.25</ele>
        <time>2018-09-05T11:05:05Z</time>
      </trkpt>
      <trkpt lat="47.64746" lon="6.18013">
        <ele>233.24</ele>
        <time>2018-09-05T11:05:07Z</time>
      </trkpt>
      <trkpt lat="47.64743" lon="6.18008">
        <ele>233.22</ele>
        <time>2018-09-05T11:05:09Z</time>
      </trkpt>
      <trkpt lat="47.64739" lon="6.18003">
        <ele>233.2</ele>
        <time>2018-09-05T11:05:12Z</time>
      </trkpt>
      <trkpt lat="47.64736" lon="6.17997">
        <ele>233.19</ele>
        <time>2018-09-05T11:05:15Z</time>
      </trkpt>
      <trkpt lat="47.64733" lon="6.17992">
        <ele>233.17</ele>
        <time>2018-09-05T11:05:18Z</time>
      </trkpt>
      <trkpt lat="47.64729" lon="6.17984">
        <ele>233.16</ele>
        <time>2018-09-05T11:05:21Z</time>
      </trkpt>
      <trkpt lat="47.64727" lon="6.17978">
        <ele>233.15</ele>
        <time>2018-09-05T11:05:23Z</time>
      </trkpt>
      <trkpt lat="47.64724" lon="6.17971">
        <ele>233.1</ele>
        <time>2018-09-05T11:05:25Z</time>
      </trkpt>
      <trkpt lat="47.6472" lon="6.17962">
        <ele>233</ele>
        <time>2018-09-05T11:05:27Z</time>
      </trkpt>
      <trkpt lat="47.64717" lon="6.17957">
        <ele>232.95</ele>
        <time>2018-09-05T11:05:28Z</time>
      </trkpt>
      <trkpt lat="47.64713" lon="6.17951">
        <ele>232.92</ele>
        <time>2018-09-05T11:05:29Z</time>
      </trkpt>
      <trkpt lat="47.64709" lon="6.17946">
        <ele>232.88</ele>
        <time>2018-09-05T11:05:30Z</time>
      </trkpt>
      <trkpt lat="47.64697" lon="6.17929">
        <ele>232.85</ele>
        <time>2018-09-05T11:05:31Z</time>
      </trkpt>
      <trkpt lat="47.64693" lon="6.17923">
        <ele>232.82</ele>
        <time>2018-09-05T11:05:32Z</time>
      </trkpt>
      <trkpt lat="47.64688" lon="6.17918">
        <ele>232.79</ele>
        <time>2018-09-05T11:05:33Z</time>
      </trkpt>
      <trkpt lat="47.64683" lon="6.17913">
        <ele>232.76</ele>
        <time>2018-09-05T11:05:34Z</time>
      </trkpt>
      <trkpt lat="47.64678" lon="6.17908">
        <ele>232.73</ele>
        <time>2018-09-05T11:05:35Z</time>
      </trkpt>
      <trkpt lat="47.64673" lon="6.17905">
        <ele>232.7</ele>
        <time>2018-09-05T11:05:36Z</time>
      </trkpt>
      <trkpt lat="47.64668" lon="6.17902">
        <ele>232.66</ele>
        <time>2018-09-05T11:05:37Z</time>
      </trkpt>
      <trkpt lat="47.64663" lon="6.17898">
        <ele>232.63</ele>
        <time>2018-09-05T11:05:38Z</time>
      </trkpt>
      <trkpt lat="47.64658" lon="6.17895">
        <ele>232.59</ele>
        <time>2018-09-05T11:05:39Z</time>
      </trkpt>
      <trkpt lat="47.64653" lon="6.17893">
        <ele>232.55</ele>
        <time>2018-09-05T11:05:40Z</time>
      </trkpt>
      <trkpt lat="47.64648" lon="6.17891">
        <ele>232.52</ele>
        <time>2018-09-05T11:05:41Z</time>
      </trkpt>
      <trkpt lat="47.64644" lon="6.17889">
        <ele>232.5</ele>
        <time>2018-09-05T11:05:42Z</time>
      </trkpt>
      <trkpt lat="47.64639" lon="6.17887">
        <ele>232.48</ele>
        <time>2018-09-05T11:05:43Z</time>
      </trkpt>
      <trkpt lat="47.64634" lon="6.17885">
        <ele>232.46</ele>
        <time>2018-09-05T11:05:44Z</time>
      </trkpt>
      <trkpt lat="47.64629" lon="6.17884">
        <ele>232.43</ele>
        <time>2018-09-05T11:05:45Z</time>
      </trkpt>
      <trkpt lat="47.64624" lon="6.17882">
        <ele>232.41</ele>
        <time>2018-09-05T11:05:46Z</time>
      </trkpt>
      <trkpt lat="47.64619" lon="6.17882">
        <ele>232.39</ele>
        <time>2018-09-05T11:05:47Z</time>
      </trkpt>
      <trkpt lat="47.64614" lon="6.17882">
        <ele>232.37</ele>
        <time>2018-09-05T11:05:48Z</time>
      </trkpt>
      <trkpt lat="47.64608" lon="6.17885">
        <ele>232.36</ele>
        <time>2018-09-05T11:05:49Z</time>
      </trkpt>
      <trkpt lat="47.64603" lon="6.17887">
        <ele>232.34</ele>
        <time>2018-09-05T11:05:50Z</time>
      </trkpt>
      <trkpt lat="47.64598" lon="6.17891">
        <ele>232.34</ele>
        <time>2018-09-05T11:05:51Z</time>
      </trkpt>
      <trkpt lat="47.64593" lon="6.17895">
        <ele>232.33</ele>
        <time>2018-09-05T11:05:52Z</time>
      </trkpt>
      <trkpt lat="47.64588" lon="6.179">
        <ele>232.32</ele>
        <time>2018-09-05T11:05:53Z</time>
      </trkpt>
      <trkpt lat="47.64584" lon="6.17906">
        <ele>232.32</ele>
        <time>2018-09-05T11:05:54Z</time>
      </trkpt>
      <trkpt lat="47.6458" lon="6.17911">
        <ele>232.31</ele>
        <time>2018-09-05T11:05:55Z</time>
      </trkpt>
      <trkpt lat="47.64576" lon="6.17915">
        <ele>232.3</ele>
        <time>2018-09-05T11:05:56Z</time>
      </trkpt>
      <trkpt lat="47.64572" lon="6.1792">
        <ele>232.29</ele>
        <time>2018-09-05T11:05:57Z</time>
      </trkpt>
      <trkpt lat="47.64566" lon="6.17928">
        <ele>232.28</ele>
        <time>2018-09-05T11:05:59Z</time>
      </trkpt>
      <trkpt lat="47.64561" lon="6.17938">
        <ele>232.28</ele>
        <time>2018-09-05T11:06:01Z</time>
      </trkpt>
      <trkpt lat="47.64558" lon="6.17949">
        <ele>232.29</ele>
        <time>2018-09-05T11:06:03Z</time>
      </trkpt>
      <trkpt lat="47.64556" lon="6.17962">
        <ele>232.3</ele>
        <time>2018-09-05T11:06:05Z</time>
      </trkpt>
      <trkpt lat="47.64554" lon="6.17972">
        <ele>232.3</ele>
        <time>2018-09-05T11:06:07Z</time>
      </trkpt>
      <trkpt lat="47.64551" lon="6.17979">
        <ele>232.3</ele>
        <time>2018-09-05T11:06:09Z</time>
      </trkpt>
      <trkpt lat="47.64549" lon="6.17988">
        <ele>232.3</ele>
        <time>2018-09-05T11:06:11Z</time>
      </trkpt>
      <trkpt lat="47.64546" lon="6.17995">
        <ele>232.3</ele>
        <time>2018-09-05T11:06:14Z</time>
      </trkpt>
      <trkpt lat="47.64543" lon="6.18004">
        <ele>232.31</ele>
        <time>2018-09-05T11:06:17Z</time>
      </trkpt>
      <trkpt lat="47.6454" lon="6.18013">
        <ele>232.33</ele>
        <time>2018-09-05T11:06:19Z</time>
      </trkpt>
      <trkpt lat="47.64534" lon="6.18027">
        <ele>232.34</ele>
        <time>2018-09-05T11:06:20Z</time>
      </trkpt>
      <trkpt lat="47.6453" lon="6.18032">
        <ele>232.34</ele>
        <time>2018-09-05T11:06:21Z</time>
      </trkpt>
      <trkpt lat="47.64525" lon="6.18037">
        <ele>232.35</ele>
        <time>2018-09-05T11:06:22Z</time>
      </trkpt>
      <trkpt lat="47.64519" lon="6.18042">
        <ele>232.35</ele>
        <time>2018-09-05T11:06:23Z</time>
      </trkpt>
      <trkpt lat="47.64514" lon="6.18047">
        <ele>232.35</ele>
        <time>2018-09-05T11:06:24Z</time>
      </trkpt>
      <trkpt lat="47.6451" lon="6.18054">
        <ele>232.35</ele>
        <time>2018-09-05T11:06:25Z</time>
      </trkpt>
      <trkpt lat="47.64506" lon="6.18062">
        <ele>232.36</ele>
        <time>2018-09-05T11:06:26Z</time>
      </trkpt>
      <trkpt lat="47.64505" lon="6.18071">
        <ele>232.37</ele>
        <time>2018-09-05T11:06:27Z</time>
      </trkpt>
      <trkpt lat="47.64503" lon="6.18079">
        <ele>232.37</ele>
        <time>2018-09-05T11:06:28Z</time>
      </trkpt>
      <trkpt lat="47.64501" lon="6.18088">
        <ele>232.36</ele>
        <time>2018-09-05T11:06:29Z</time>
      </trkpt>
      <trkpt lat="47.645" lon="6.18097">
        <ele>232.36</ele>
        <time>2018-09-05T11:06:30Z</time>
      </trkpt>
      <trkpt lat="47.64499" lon="6.18107">
        <ele>232.36</ele>
        <time>2018-09-05T11:06:31Z</time>
      </trkpt>
      <trkpt lat="47.64496" lon="6.18115">
        <ele>232.36</ele>
        <time>2018-09-05T11:06:32Z</time>
      </trkpt>
      <trkpt lat="47.64495" lon="6.18123">
        <ele>232.35</ele>
        <time>2018-09-05T11:06:33Z</time>
      </trkpt>
      <trkpt lat="47.64494" lon="6.18131">
        <ele>232.34</ele>
        <time>2018-09-05T11:06:34Z</time>
      </trkpt>
      <trkpt lat="47.64493" lon="6.18139">
        <ele>232.33</ele>
        <time>2018-09-05T11:06:35Z</time>
      </trkpt>
      <trkpt lat="47.64493" lon="6.18148">
        <ele>232.32</ele>
        <time>2018-09-05T11:06:36Z</time>
      </trkpt>
      <trkpt lat="47.64493" lon="6.18156">
        <ele>232.31</ele>
        <time>2018-09-05T11:06:37Z</time>
      </trkpt>
      <trkpt lat="47.64497" lon="6.18168">
        <ele>232.3</ele>
        <time>2018-09-05T11:06:39Z</time>
      </trkpt>
      <trkpt lat="47.64499" lon="6.18174">
        <ele>232.29</ele>
        <time>2018-09-05T11:06:40Z</time>
      </trkpt>
      <trkpt lat="47.645" lon="6.18184">
        <ele>232.29</ele>
        <time>2018-09-05T11:06:43Z</time>
      </trkpt>
      <trkpt lat="47.64499" lon="6.18192">
        <ele>232.29</ele>
        <time>2018-09-05T11:06:45Z</time>
      </trkpt>
      <trkpt lat="47.64497" lon="6.18199">
        <ele>232.29</ele>
        <time>2018-09-05T11:06:47Z</time>
      </trkpt>
      <trkpt lat="47.64495" lon="6.18207">
        <ele>232.29</ele>
        <time>2018-09-05T11:06:49Z</time>
      </trkpt>
      <trkpt lat="47.64493" lon="6.18215">
        <ele>232.3</ele>
        <time>2018-09-05T11:06:51Z</time>
      </trkpt>
      <trkpt lat="47.64488" lon="6.18228">
        <ele>232.32</ele>
        <time>2018-09-05T11:06:52Z</time>
      </trkpt>
      <trkpt lat="47.64483" lon="6.18239">
        <ele>232.34</ele>
        <time>2018-09-05T11:06:54Z</time>
      </trkpt>
      <trkpt lat="47.6448" lon="6.18244">
        <ele>232.34</ele>
        <time>2018-09-05T11:06:55Z</time>
      </trkpt>
      <trkpt lat="47.64477" lon="6.1825">
        <ele>232.33</ele>
        <time>2018-09-05T11:06:56Z</time>
      </trkpt>
      <trkpt lat="47.64474" lon="6.18257">
        <ele>232.33</ele>
        <time>2018-09-05T11:06:58Z</time>
      </trkpt>
      <trkpt lat="47.64468" lon="6.18262">
        <ele>232.32</ele>
        <time>2018-09-05T11:07:01Z</time>
      </trkpt>
      <trkpt lat="47.64464" lon="6.18266">
        <ele>232.31</ele>
        <time>2018-09-05T11:07:03Z</time>
      </trkpt>
      <trkpt lat="47.6446" lon="6.18271">
        <ele>232.31</ele>
        <time>2018-09-05T11:07:05Z</time>
      </trkpt>
      <trkpt lat="47.64456" lon="6.18277">
        <ele>232.3</ele>
        <time>2018-09-05T11:07:07Z</time>
      </trkpt>
      <trkpt lat="47.64452" lon="6.18283">
        <ele>232.29</ele>
        <time>2018-09-05T11:07:09Z</time>
      </trkpt>
      <trkpt lat="47.64447" lon="6.18288">
        <ele>232.27</ele>
        <time>2018-09-05T11:07:11Z</time>
      </trkpt>
      <trkpt lat="47.64435" lon="6.18291">
        <ele>232.17</ele>
        <time>2018-09-05T11:07:13Z</time>
      </trkpt>
      <trkpt lat="47.64429" lon="6.18285">
        <ele>232.11</ele>
        <time>2018-09-05T11:07:16Z</time>
      </trkpt>
      <trkpt lat="47.64427" lon="6.18278">
        <ele>232.09</ele>
        <time>2018-09-05T11:07:18Z</time>
      </trkpt>
      <trkpt lat="47.64424" lon="6.18271">
        <ele>232.05</ele>
        <time>2018-09-05T11:07:21Z</time>
      </trkpt>
      <trkpt lat="47.64424" lon="6.1828">
        <ele>231.98</ele>
        <time>2018-09-05T11:07:26Z</time>
      </trkpt>
      <trkpt lat="47.64427" lon="6.18286">
        <ele>231.95</ele>
        <time>2018-09-05T11:07:28Z</time>
      </trkpt>
      <trkpt lat="47.64431" lon="6.18291">
        <ele>231.92</ele>
        <time>2018-09-05T11:07:30Z</time>
      </trkpt>
      <trkpt lat="47.64436" lon="6.18296">
        <ele>231.91</ele>
        <time>2018-09-05T11:07:33Z</time>
      </trkpt>
      <trkpt lat="47.64441" lon="6.18299">
        <ele>231.9</ele>
        <time>2018-09-05T11:07:37Z</time>
      </trkpt>
      <trkpt lat="47.64446" lon="6.18297">
        <ele>231.89</ele>
        <time>2018-09-05T11:07:42Z</time>
      </trkpt>
      <trkpt lat="47.64445" lon="6.18305">
        <ele>231.85</ele>
        <time>2018-09-05T11:07:49Z</time>
      </trkpt>
      <trkpt lat="47.64443" lon="6.18313">
        <ele>231.82</ele>
        <time>2018-09-05T11:07:53Z</time>
      </trkpt>
      <trkpt lat="47.6444" lon="6.18317">
        <ele>231.82</ele>
        <time>2018-09-05T11:08:01Z</time>
      </trkpt>
    </trkseg>
  </trk>
</gpx>